<?xml version="1.0" encoding="UTF-8" standalone="no" ?>
<gpx xmlns="http://www.topografix.com/GPX/1/1" xmlns:xsi="http://www.w3.org/2001/XMLSchema-instance" xsi:schemaLocation="http://www.topografix.com/GPX/1/1 http://www.topografix.com/GPX/1/1/gpx.xsd" version="1.1" creator="VisuGPX - https://www.visugpx.com">
  <metadata>
    <name>les trois jour 2/3</name>
    <desc><![CDATA[proposition du parcours 2]]></desc>
  </metadata>
  <trk>
    <name><![CDATA[20110814]]></name>
    <trkseg>
      <trkpt lat="44.44876" lon="4.3081">
        <ele>126</ele>
      </trkpt>
      <trkpt lat="44.44867" lon="4.30841">
        <ele>122</ele>
      </trkpt>
      <trkpt lat="44.44867" lon="4.30849">
        <ele>122</ele>
      </trkpt>
      <trkpt lat="44.44865" lon="4.30913">
        <ele>122</ele>
      </trkpt>
      <trkpt lat="44.44871" lon="4.30943">
        <ele>123</ele>
      </trkpt>
      <trkpt lat="44.44886" lon="4.30972">
        <ele>123</ele>
      </trkpt>
      <trkpt lat="44.44894" lon="4.30983">
        <ele>122</ele>
      </trkpt>
      <trkpt lat="44.4489" lon="4.31002">
        <ele>125</ele>
      </trkpt>
      <trkpt lat="44.44885" lon="4.31014">
        <ele>127</ele>
      </trkpt>
      <trkpt lat="44.44867" lon="4.31011">
        <ele>129</ele>
      </trkpt>
      <trkpt lat="44.44852" lon="4.3101">
        <ele>131</ele>
      </trkpt>
      <trkpt lat="44.44837" lon="4.31021">
        <ele>132</ele>
      </trkpt>
      <trkpt lat="44.4483" lon="4.31036">
        <ele>144</ele>
      </trkpt>
      <trkpt lat="44.44801" lon="4.31035">
        <ele>147</ele>
      </trkpt>
      <trkpt lat="44.44763" lon="4.31037">
        <ele>152</ele>
      </trkpt>
      <trkpt lat="44.44718" lon="4.31053">
        <ele>164</ele>
      </trkpt>
      <trkpt lat="44.44659" lon="4.3106">
        <ele>170</ele>
      </trkpt>
      <trkpt lat="44.44616" lon="4.31043">
        <ele>171</ele>
      </trkpt>
      <trkpt lat="44.44575" lon="4.31051">
        <ele>176</ele>
      </trkpt>
      <trkpt lat="44.4454" lon="4.31064">
        <ele>177</ele>
      </trkpt>
      <trkpt lat="44.44496" lon="4.3109">
        <ele>180</ele>
      </trkpt>
      <trkpt lat="44.44476" lon="4.3108">
        <ele>181</ele>
      </trkpt>
      <trkpt lat="44.44454" lon="4.31068">
        <ele>182</ele>
      </trkpt>
      <trkpt lat="44.44454" lon="4.31068">
        <ele>182</ele>
      </trkpt>
      <trkpt lat="44.44454" lon="4.31075">
        <ele>182</ele>
        <time>2011-08-14T08:58:31Z</time>
      </trkpt>
      <trkpt lat="44.44461" lon="4.31073">
        <ele>181</ele>
        <time>2011-08-14T08:58:57Z</time>
      </trkpt>
      <trkpt lat="44.44462" lon="4.31076">
        <ele>181</ele>
        <time>2011-08-14T08:59:02Z</time>
      </trkpt>
      <trkpt lat="44.44462" lon="4.31078">
        <ele>181</ele>
        <time>2011-08-14T08:59:07Z</time>
      </trkpt>
      <trkpt lat="44.4446" lon="4.31075">
        <ele>181</ele>
        <time>2011-08-14T08:59:16Z</time>
      </trkpt>
      <trkpt lat="44.44462" lon="4.31072">
        <ele>181</ele>
        <time>2011-08-14T08:59:21Z</time>
      </trkpt>
      <trkpt lat="44.44466" lon="4.31074">
        <ele>181</ele>
        <time>2011-08-14T08:59:47Z</time>
      </trkpt>
      <trkpt lat="44.44463" lon="4.31076">
        <ele>181</ele>
        <time>2011-08-14T09:00:02Z</time>
      </trkpt>
      <trkpt lat="44.44466" lon="4.31081">
        <ele>181</ele>
        <time>2011-08-14T09:00:12Z</time>
      </trkpt>
      <trkpt lat="44.44468" lon="4.31082">
        <ele>181</ele>
        <time>2011-08-14T09:00:24Z</time>
      </trkpt>
      <trkpt lat="44.4447" lon="4.31082">
        <ele>181</ele>
        <time>2011-08-14T09:00:30Z</time>
      </trkpt>
      <trkpt lat="44.44465" lon="4.31087">
        <ele>181</ele>
        <time>2011-08-14T09:01:02Z</time>
      </trkpt>
      <trkpt lat="44.44468" lon="4.31082">
        <ele>181</ele>
        <time>2011-08-14T09:01:15Z</time>
      </trkpt>
      <trkpt lat="44.44468" lon="4.31082">
        <ele>181</ele>
        <time>2011-08-14T09:01:28Z</time>
      </trkpt>
      <trkpt lat="44.44466" lon="4.3108">
        <ele>181</ele>
        <time>2011-08-14T09:02:01Z</time>
      </trkpt>
      <trkpt lat="44.44462" lon="4.3108">
        <ele>181</ele>
        <time>2011-08-14T09:02:08Z</time>
      </trkpt>
      <trkpt lat="44.4446" lon="4.31078">
        <ele>181</ele>
        <time>2011-08-14T09:02:14Z</time>
      </trkpt>
      <trkpt lat="44.44456" lon="4.31078">
        <ele>182</ele>
        <time>2011-08-14T09:02:20Z</time>
      </trkpt>
      <trkpt lat="44.44455" lon="4.31068">
        <ele>182</ele>
        <time>2011-08-14T09:02:31Z</time>
      </trkpt>
      <trkpt lat="44.44452" lon="4.31064">
        <ele>182</ele>
        <time>2011-08-14T09:03:04Z</time>
      </trkpt>
      <trkpt lat="44.44452" lon="4.31062">
        <ele>182</ele>
        <time>2011-08-14T09:03:05Z</time>
      </trkpt>
      <trkpt lat="44.4445" lon="4.31045">
        <ele>182</ele>
        <time>2011-08-14T09:03:12Z</time>
      </trkpt>
      <trkpt lat="44.44449" lon="4.31024">
        <ele>182</ele>
        <time>2011-08-14T09:03:18Z</time>
      </trkpt>
      <trkpt lat="44.44445" lon="4.30999">
        <ele>182</ele>
        <time>2011-08-14T09:03:23Z</time>
      </trkpt>
      <trkpt lat="44.44434" lon="4.30964">
        <ele>182</ele>
        <time>2011-08-14T09:03:29Z</time>
      </trkpt>
      <trkpt lat="44.44432" lon="4.30955">
        <ele>182</ele>
        <time>2011-08-14T09:03:31Z</time>
      </trkpt>
      <trkpt lat="44.44415" lon="4.30922">
        <ele>179</ele>
        <time>2011-08-14T09:03:39Z</time>
      </trkpt>
      <trkpt lat="44.44406" lon="4.30895">
        <ele>178</ele>
        <time>2011-08-14T09:03:45Z</time>
      </trkpt>
      <trkpt lat="44.44405" lon="4.30861">
        <ele>177</ele>
        <time>2011-08-14T09:03:51Z</time>
      </trkpt>
      <trkpt lat="44.44405" lon="4.30837">
        <ele>179</ele>
        <time>2011-08-14T09:03:55Z</time>
      </trkpt>
      <trkpt lat="44.44413" lon="4.30818">
        <ele>180</ele>
        <time>2011-08-14T09:03:58Z</time>
      </trkpt>
      <trkpt lat="44.44417" lon="4.30783">
        <ele>181</ele>
        <time>2011-08-14T09:04:02Z</time>
      </trkpt>
      <trkpt lat="44.44414" lon="4.30774">
        <ele>180</ele>
        <time>2011-08-14T09:04:03Z</time>
      </trkpt>
      <trkpt lat="44.44395" lon="4.30724">
        <ele>182</ele>
        <time>2011-08-14T09:04:10Z</time>
      </trkpt>
      <trkpt lat="44.4438" lon="4.30677">
        <ele>183</ele>
        <time>2011-08-14T09:04:17Z</time>
      </trkpt>
      <trkpt lat="44.44375" lon="4.30659">
        <ele>185</ele>
        <time>2011-08-14T09:04:20Z</time>
      </trkpt>
      <trkpt lat="44.44377" lon="4.30631">
        <ele>185</ele>
        <time>2011-08-14T09:04:25Z</time>
      </trkpt>
      <trkpt lat="44.4438" lon="4.3062">
        <ele>185</ele>
        <time>2011-08-14T09:04:27Z</time>
      </trkpt>
      <trkpt lat="44.44383" lon="4.30609">
        <ele>185</ele>
        <time>2011-08-14T09:04:29Z</time>
      </trkpt>
      <trkpt lat="44.4438" lon="4.30581">
        <ele>185</ele>
        <time>2011-08-14T09:04:34Z</time>
      </trkpt>
      <trkpt lat="44.44377" lon="4.30577">
        <ele>185</ele>
        <time>2011-08-14T09:04:35Z</time>
      </trkpt>
      <trkpt lat="44.44357" lon="4.30559">
        <ele>186</ele>
        <time>2011-08-14T09:04:42Z</time>
      </trkpt>
      <trkpt lat="44.44343" lon="4.3055">
        <ele>187</ele>
        <time>2011-08-14T09:04:47Z</time>
      </trkpt>
      <trkpt lat="44.4434" lon="4.30533">
        <ele>187</ele>
        <time>2011-08-14T09:04:51Z</time>
      </trkpt>
      <trkpt lat="44.44345" lon="4.3049">
        <ele>189</ele>
        <time>2011-08-14T09:04:59Z</time>
      </trkpt>
      <trkpt lat="44.44342" lon="4.30461">
        <ele>190</ele>
        <time>2011-08-14T09:05:05Z</time>
      </trkpt>
      <trkpt lat="44.44326" lon="4.30433">
        <ele>193</ele>
        <time>2011-08-14T09:05:14Z</time>
      </trkpt>
      <trkpt lat="44.44315" lon="4.30406">
        <ele>195</ele>
        <time>2011-08-14T09:05:22Z</time>
      </trkpt>
      <trkpt lat="44.44303" lon="4.30379">
        <ele>195</ele>
        <time>2011-08-14T09:05:28Z</time>
      </trkpt>
      <trkpt lat="44.44284" lon="4.30339">
        <ele>195</ele>
        <time>2011-08-14T09:05:37Z</time>
      </trkpt>
      <trkpt lat="44.44274" lon="4.30315">
        <ele>198</ele>
        <time>2011-08-14T09:05:43Z</time>
      </trkpt>
      <trkpt lat="44.44266" lon="4.30298">
        <ele>199</ele>
        <time>2011-08-14T09:05:48Z</time>
      </trkpt>
      <trkpt lat="44.44256" lon="4.30273">
        <ele>200</ele>
        <time>2011-08-14T09:05:56Z</time>
      </trkpt>
      <trkpt lat="44.44251" lon="4.30252">
        <ele>202</ele>
        <time>2011-08-14T09:06:02Z</time>
      </trkpt>
      <trkpt lat="44.44252" lon="4.30228">
        <ele>201</ele>
        <time>2011-08-14T09:06:09Z</time>
      </trkpt>
      <trkpt lat="44.44248" lon="4.3021">
        <ele>201</ele>
        <time>2011-08-14T09:06:15Z</time>
      </trkpt>
      <trkpt lat="44.44241" lon="4.30191">
        <ele>201</ele>
        <time>2011-08-14T09:06:22Z</time>
      </trkpt>
      <trkpt lat="44.44233" lon="4.30172">
        <ele>201</ele>
        <time>2011-08-14T09:06:27Z</time>
      </trkpt>
      <trkpt lat="44.44225" lon="4.30153">
        <ele>202</ele>
        <time>2011-08-14T09:06:31Z</time>
      </trkpt>
      <trkpt lat="44.44216" lon="4.30126">
        <ele>202</ele>
        <time>2011-08-14T09:06:37Z</time>
      </trkpt>
      <trkpt lat="44.44205" lon="4.30079">
        <ele>203</ele>
        <time>2011-08-14T09:06:47Z</time>
      </trkpt>
      <trkpt lat="44.44191" lon="4.30032">
        <ele>203</ele>
        <time>2011-08-14T09:06:57Z</time>
      </trkpt>
      <trkpt lat="44.44182" lon="4.29993">
        <ele>202</ele>
        <time>2011-08-14T09:07:04Z</time>
      </trkpt>
      <trkpt lat="44.44164" lon="4.29959">
        <ele>200</ele>
        <time>2011-08-14T09:07:12Z</time>
      </trkpt>
      <trkpt lat="44.44149" lon="4.29946">
        <ele>200</ele>
        <time>2011-08-14T09:07:18Z</time>
      </trkpt>
      <trkpt lat="44.44141" lon="4.29939">
        <ele>199</ele>
        <time>2011-08-14T09:07:21Z</time>
      </trkpt>
      <trkpt lat="44.44138" lon="4.29938">
        <ele>199</ele>
        <time>2011-08-14T09:07:26Z</time>
      </trkpt>
      <trkpt lat="44.44138" lon="4.29938">
        <ele>199</ele>
        <time>2011-08-14T09:07:32Z</time>
      </trkpt>
      <trkpt lat="44.44139" lon="4.29937">
        <ele>199</ele>
        <time>2011-08-14T09:07:58Z</time>
      </trkpt>
      <trkpt lat="44.44139" lon="4.29934">
        <ele>199</ele>
        <time>2011-08-14T09:08:14Z</time>
      </trkpt>
      <trkpt lat="44.44138" lon="4.29935">
        <ele>199</ele>
        <time>2011-08-14T09:08:21Z</time>
      </trkpt>
      <trkpt lat="44.44128" lon="4.29941">
        <ele>199</ele>
        <time>2011-08-14T09:08:25Z</time>
      </trkpt>
      <trkpt lat="44.44107" lon="4.29941">
        <ele>199</ele>
        <time>2011-08-14T09:08:30Z</time>
      </trkpt>
      <trkpt lat="44.44077" lon="4.29936">
        <ele>195</ele>
        <time>2011-08-14T09:08:36Z</time>
      </trkpt>
      <trkpt lat="44.4404" lon="4.29927">
        <ele>194</ele>
        <time>2011-08-14T09:08:44Z</time>
      </trkpt>
      <trkpt lat="44.44029" lon="4.29926">
        <ele>194</ele>
        <time>2011-08-14T09:08:46Z</time>
      </trkpt>
      <trkpt lat="44.44" lon="4.29928">
        <ele>193</ele>
        <time>2011-08-14T09:08:51Z</time>
      </trkpt>
      <trkpt lat="44.43986" lon="4.29929">
        <ele>189</ele>
        <time>2011-08-14T09:08:56Z</time>
      </trkpt>
      <trkpt lat="44.43976" lon="4.29938">
        <ele>187</ele>
        <time>2011-08-14T09:09:00Z</time>
      </trkpt>
      <trkpt lat="44.43965" lon="4.29946">
        <ele>186</ele>
        <time>2011-08-14T09:09:04Z</time>
      </trkpt>
      <trkpt lat="44.43944" lon="4.29947">
        <ele>184</ele>
        <time>2011-08-14T09:09:10Z</time>
      </trkpt>
      <trkpt lat="44.43934" lon="4.2995">
        <ele>184</ele>
        <time>2011-08-14T09:09:14Z</time>
      </trkpt>
      <trkpt lat="44.43922" lon="4.2995">
        <ele>183</ele>
        <time>2011-08-14T09:09:19Z</time>
      </trkpt>
      <trkpt lat="44.43906" lon="4.29948">
        <ele>177</ele>
        <time>2011-08-14T09:09:24Z</time>
      </trkpt>
      <trkpt lat="44.43887" lon="4.29948">
        <ele>176</ele>
        <time>2011-08-14T09:09:29Z</time>
      </trkpt>
      <trkpt lat="44.43868" lon="4.29944">
        <ele>176</ele>
        <time>2011-08-14T09:09:35Z</time>
      </trkpt>
      <trkpt lat="44.43848" lon="4.29939">
        <ele>175</ele>
        <time>2011-08-14T09:09:41Z</time>
      </trkpt>
      <trkpt lat="44.43833" lon="4.29935">
        <ele>172</ele>
        <time>2011-08-14T09:09:46Z</time>
      </trkpt>
      <trkpt lat="44.43819" lon="4.29923">
        <ele>172</ele>
        <time>2011-08-14T09:09:51Z</time>
      </trkpt>
      <trkpt lat="44.43801" lon="4.29913">
        <ele>173</ele>
        <time>2011-08-14T09:09:55Z</time>
      </trkpt>
      <trkpt lat="44.43787" lon="4.29914">
        <ele>173</ele>
        <time>2011-08-14T09:09:59Z</time>
      </trkpt>
      <trkpt lat="44.43783" lon="4.29914">
        <ele>173</ele>
        <time>2011-08-14T09:10:00Z</time>
      </trkpt>
      <trkpt lat="44.4376" lon="4.29923">
        <ele>172</ele>
        <time>2011-08-14T09:10:06Z</time>
      </trkpt>
      <trkpt lat="44.43752" lon="4.29924">
        <ele>173</ele>
        <time>2011-08-14T09:10:08Z</time>
      </trkpt>
      <trkpt lat="44.43721" lon="4.29923">
        <ele>170</ele>
        <time>2011-08-14T09:10:15Z</time>
      </trkpt>
      <trkpt lat="44.43712" lon="4.29922">
        <ele>169</ele>
        <time>2011-08-14T09:10:17Z</time>
      </trkpt>
      <trkpt lat="44.43693" lon="4.29916">
        <ele>170</ele>
        <time>2011-08-14T09:10:21Z</time>
      </trkpt>
      <trkpt lat="44.43678" lon="4.29938">
        <ele>168</ele>
        <time>2011-08-14T09:10:25Z</time>
      </trkpt>
      <trkpt lat="44.43669" lon="4.2996">
        <ele>167</ele>
        <time>2011-08-14T09:10:29Z</time>
      </trkpt>
      <trkpt lat="44.43655" lon="4.29971">
        <ele>162</ele>
        <time>2011-08-14T09:10:33Z</time>
      </trkpt>
      <trkpt lat="44.43643" lon="4.29976">
        <ele>162</ele>
        <time>2011-08-14T09:10:35Z</time>
      </trkpt>
      <trkpt lat="44.43606" lon="4.29978">
        <ele>159</ele>
        <time>2011-08-14T09:10:41Z</time>
      </trkpt>
      <trkpt lat="44.43575" lon="4.29976">
        <ele>153</ele>
        <time>2011-08-14T09:10:47Z</time>
      </trkpt>
      <trkpt lat="44.43553" lon="4.2997">
        <ele>152</ele>
        <time>2011-08-14T09:10:52Z</time>
      </trkpt>
      <trkpt lat="44.43535" lon="4.29958">
        <ele>151</ele>
        <time>2011-08-14T09:10:56Z</time>
      </trkpt>
      <trkpt lat="44.43531" lon="4.29956">
        <ele>151</ele>
        <time>2011-08-14T09:10:57Z</time>
      </trkpt>
      <trkpt lat="44.4351" lon="4.29948">
        <ele>150</ele>
        <time>2011-08-14T09:11:01Z</time>
      </trkpt>
      <trkpt lat="44.43479" lon="4.29944">
        <ele>145</ele>
        <time>2011-08-14T09:11:07Z</time>
      </trkpt>
      <trkpt lat="44.43469" lon="4.29941">
        <ele>145</ele>
        <time>2011-08-14T09:11:09Z</time>
      </trkpt>
      <trkpt lat="44.43443" lon="4.29924">
        <ele>143</ele>
        <time>2011-08-14T09:11:15Z</time>
      </trkpt>
      <trkpt lat="44.43438" lon="4.29921">
        <ele>143</ele>
        <time>2011-08-14T09:11:16Z</time>
      </trkpt>
      <trkpt lat="44.43424" lon="4.29915">
        <ele>143</ele>
        <time>2011-08-14T09:11:19Z</time>
      </trkpt>
      <trkpt lat="44.43412" lon="4.29898">
        <ele>141</ele>
        <time>2011-08-14T09:11:23Z</time>
      </trkpt>
      <trkpt lat="44.43408" lon="4.29883">
        <ele>141</ele>
        <time>2011-08-14T09:11:27Z</time>
      </trkpt>
      <trkpt lat="44.434" lon="4.29878">
        <ele>141</ele>
        <time>2011-08-14T09:11:30Z</time>
      </trkpt>
      <trkpt lat="44.43382" lon="4.29867">
        <ele>141</ele>
        <time>2011-08-14T09:11:36Z</time>
      </trkpt>
      <trkpt lat="44.4336" lon="4.29852">
        <ele>140</ele>
        <time>2011-08-14T09:11:43Z</time>
      </trkpt>
      <trkpt lat="44.43337" lon="4.29842">
        <ele>140</ele>
        <time>2011-08-14T09:11:49Z</time>
      </trkpt>
      <trkpt lat="44.43324" lon="4.29837">
        <ele>139</ele>
        <time>2011-08-14T09:11:52Z</time>
      </trkpt>
      <trkpt lat="44.433" lon="4.29827">
        <ele>138</ele>
        <time>2011-08-14T09:11:57Z</time>
      </trkpt>
      <trkpt lat="44.43286" lon="4.29822">
        <ele>138</ele>
        <time>2011-08-14T09:12:00Z</time>
      </trkpt>
      <trkpt lat="44.43277" lon="4.29818">
        <ele>138</ele>
        <time>2011-08-14T09:12:02Z</time>
      </trkpt>
      <trkpt lat="44.43253" lon="4.29803">
        <ele>138</ele>
        <time>2011-08-14T09:12:08Z</time>
      </trkpt>
      <trkpt lat="44.43242" lon="4.29799">
        <ele>134</ele>
        <time>2011-08-14T09:12:10Z</time>
      </trkpt>
      <trkpt lat="44.43206" lon="4.29798">
        <ele>133</ele>
        <time>2011-08-14T09:12:16Z</time>
      </trkpt>
      <trkpt lat="44.43182" lon="4.29806">
        <ele>132</ele>
        <time>2011-08-14T09:12:21Z</time>
      </trkpt>
      <trkpt lat="44.4316" lon="4.29814">
        <ele>130</ele>
        <time>2011-08-14T09:12:27Z</time>
      </trkpt>
      <trkpt lat="44.4314" lon="4.29817">
        <ele>130</ele>
        <time>2011-08-14T09:12:35Z</time>
      </trkpt>
      <trkpt lat="44.43123" lon="4.29819">
        <ele>130</ele>
        <time>2011-08-14T09:12:40Z</time>
      </trkpt>
      <trkpt lat="44.43112" lon="4.29823">
        <ele>130</ele>
        <time>2011-08-14T09:12:45Z</time>
      </trkpt>
      <trkpt lat="44.43109" lon="4.29825">
        <ele>130</ele>
        <time>2011-08-14T09:12:51Z</time>
      </trkpt>
      <trkpt lat="44.43108" lon="4.29825">
        <ele>130</ele>
        <time>2011-08-14T09:13:01Z</time>
      </trkpt>
      <trkpt lat="44.43107" lon="4.29826">
        <ele>130</ele>
        <time>2011-08-14T09:13:27Z</time>
      </trkpt>
      <trkpt lat="44.43105" lon="4.29827">
        <ele>130</ele>
        <time>2011-08-14T09:13:31Z</time>
      </trkpt>
      <trkpt lat="44.43096" lon="4.29833">
        <ele>130</ele>
        <time>2011-08-14T09:13:37Z</time>
      </trkpt>
      <trkpt lat="44.43085" lon="4.29838">
        <ele>130</ele>
        <time>2011-08-14T09:13:42Z</time>
      </trkpt>
      <trkpt lat="44.43071" lon="4.29841">
        <ele>128</ele>
        <time>2011-08-14T09:13:47Z</time>
      </trkpt>
      <trkpt lat="44.43051" lon="4.29839">
        <ele>127</ele>
        <time>2011-08-14T09:13:52Z</time>
      </trkpt>
      <trkpt lat="44.43031" lon="4.29828">
        <ele>129</ele>
        <time>2011-08-14T09:13:57Z</time>
      </trkpt>
      <trkpt lat="44.4301" lon="4.29823">
        <ele>128</ele>
        <time>2011-08-14T09:14:02Z</time>
      </trkpt>
      <trkpt lat="44.43" lon="4.29834">
        <ele>127</ele>
        <time>2011-08-14T09:14:04Z</time>
      </trkpt>
      <trkpt lat="44.42985" lon="4.29853">
        <ele>123</ele>
        <time>2011-08-14T09:14:08Z</time>
      </trkpt>
      <trkpt lat="44.42983" lon="4.29855">
        <ele>123</ele>
        <time>2011-08-14T09:14:09Z</time>
      </trkpt>
      <trkpt lat="44.42981" lon="4.29855">
        <ele>123</ele>
        <time>2011-08-14T09:14:15Z</time>
      </trkpt>
      <trkpt lat="44.42981" lon="4.29854">
        <ele>123</ele>
        <time>2011-08-14T09:14:19Z</time>
      </trkpt>
      <trkpt lat="44.42981" lon="4.29855">
        <ele>123</ele>
        <time>2011-08-14T09:14:28Z</time>
      </trkpt>
      <trkpt lat="44.42978" lon="4.29857">
        <ele>122</ele>
        <time>2011-08-14T09:14:41Z</time>
      </trkpt>
      <trkpt lat="44.42964" lon="4.2987">
        <ele>121</ele>
        <time>2011-08-14T09:14:46Z</time>
      </trkpt>
      <trkpt lat="44.42938" lon="4.29886">
        <ele>120</ele>
        <time>2011-08-14T09:14:52Z</time>
      </trkpt>
      <trkpt lat="44.42935" lon="4.29887">
        <ele>120</ele>
        <time>2011-08-14T09:14:53Z</time>
      </trkpt>
      <trkpt lat="44.42916" lon="4.29893">
        <ele>116</ele>
        <time>2011-08-14T09:14:59Z</time>
      </trkpt>
      <trkpt lat="44.42902" lon="4.299">
        <ele>116</ele>
        <time>2011-08-14T09:15:03Z</time>
      </trkpt>
      <trkpt lat="44.42878" lon="4.29909">
        <ele>115</ele>
        <time>2011-08-14T09:15:07Z</time>
      </trkpt>
      <trkpt lat="44.42867" lon="4.29912">
        <ele>114</ele>
        <time>2011-08-14T09:15:10Z</time>
      </trkpt>
      <trkpt lat="44.42867" lon="4.29914">
        <ele>114</ele>
        <time>2011-08-14T09:15:15Z</time>
      </trkpt>
      <trkpt lat="44.42863" lon="4.29914">
        <ele>114</ele>
        <time>2011-08-14T09:15:24Z</time>
      </trkpt>
      <trkpt lat="44.42855" lon="4.2992">
        <ele>113</ele>
        <time>2011-08-14T09:15:28Z</time>
      </trkpt>
      <trkpt lat="44.42832" lon="4.29933">
        <ele>111</ele>
        <time>2011-08-14T09:15:35Z</time>
      </trkpt>
      <trkpt lat="44.42817" lon="4.29937">
        <ele>111</ele>
        <time>2011-08-14T09:15:40Z</time>
      </trkpt>
      <trkpt lat="44.42813" lon="4.2994">
        <ele>111</ele>
        <time>2011-08-14T09:15:46Z</time>
      </trkpt>
      <trkpt lat="44.42808" lon="4.29951">
        <ele>111</ele>
        <time>2011-08-14T09:15:50Z</time>
      </trkpt>
      <trkpt lat="44.42793" lon="4.29985">
        <ele>110</ele>
        <time>2011-08-14T09:15:58Z</time>
      </trkpt>
      <trkpt lat="44.42773" lon="4.30001">
        <ele>109</ele>
        <time>2011-08-14T09:16:04Z</time>
      </trkpt>
      <trkpt lat="44.42747" lon="4.3001">
        <ele>109</ele>
        <time>2011-08-14T09:16:11Z</time>
      </trkpt>
      <trkpt lat="44.42736" lon="4.30002">
        <ele>109</ele>
        <time>2011-08-14T09:16:15Z</time>
      </trkpt>
      <trkpt lat="44.42717" lon="4.29982">
        <ele>110</ele>
        <time>2011-08-14T09:16:22Z</time>
      </trkpt>
      <trkpt lat="44.42697" lon="4.29957">
        <ele>111</ele>
        <time>2011-08-14T09:16:29Z</time>
      </trkpt>
      <trkpt lat="44.42679" lon="4.29937">
        <ele>111</ele>
        <time>2011-08-14T09:16:35Z</time>
      </trkpt>
      <trkpt lat="44.42661" lon="4.29926">
        <ele>113</ele>
        <time>2011-08-14T09:16:40Z</time>
      </trkpt>
      <trkpt lat="44.42644" lon="4.2992">
        <ele>112</ele>
        <time>2011-08-14T09:16:46Z</time>
      </trkpt>
      <trkpt lat="44.4264" lon="4.29933">
        <ele>112</ele>
        <time>2011-08-14T09:16:52Z</time>
      </trkpt>
      <trkpt lat="44.42629" lon="4.29963">
        <ele>112</ele>
        <time>2011-08-14T09:16:58Z</time>
      </trkpt>
      <trkpt lat="44.42617" lon="4.29984">
        <ele>112</ele>
        <time>2011-08-14T09:17:02Z</time>
      </trkpt>
      <trkpt lat="44.42601" lon="4.30003">
        <ele>111</ele>
        <time>2011-08-14T09:17:07Z</time>
      </trkpt>
      <trkpt lat="44.42594" lon="4.30009">
        <ele>111</ele>
        <time>2011-08-14T09:17:12Z</time>
      </trkpt>
      <trkpt lat="44.42584" lon="4.29996">
        <ele>111</ele>
        <time>2011-08-14T09:17:16Z</time>
      </trkpt>
      <trkpt lat="44.42563" lon="4.29959">
        <ele>111</ele>
        <time>2011-08-14T09:17:23Z</time>
      </trkpt>
      <trkpt lat="44.42541" lon="4.29921">
        <ele>111</ele>
        <time>2011-08-14T09:17:30Z</time>
      </trkpt>
      <trkpt lat="44.42535" lon="4.29909">
        <ele>111</ele>
        <time>2011-08-14T09:17:32Z</time>
      </trkpt>
      <trkpt lat="44.42527" lon="4.29898">
        <ele>111</ele>
        <time>2011-08-14T09:17:34Z</time>
      </trkpt>
      <trkpt lat="44.42509" lon="4.29861">
        <ele>111</ele>
        <time>2011-08-14T09:17:41Z</time>
      </trkpt>
      <trkpt lat="44.42497" lon="4.29837">
        <ele>109</ele>
        <time>2011-08-14T09:17:47Z</time>
      </trkpt>
      <trkpt lat="44.42483" lon="4.29823">
        <ele>109</ele>
        <time>2011-08-14T09:17:52Z</time>
      </trkpt>
      <trkpt lat="44.42467" lon="4.29821">
        <ele>108</ele>
        <time>2011-08-14T09:17:56Z</time>
      </trkpt>
      <trkpt lat="44.4244" lon="4.29819">
        <ele>106</ele>
        <time>2011-08-14T09:18:02Z</time>
      </trkpt>
      <trkpt lat="44.4242" lon="4.29832">
        <ele>104</ele>
        <time>2011-08-14T09:18:08Z</time>
      </trkpt>
      <trkpt lat="44.42412" lon="4.29839">
        <ele>103</ele>
        <time>2011-08-14T09:18:11Z</time>
      </trkpt>
      <trkpt lat="44.42413" lon="4.29857">
        <ele>103</ele>
        <time>2011-08-14T09:18:15Z</time>
      </trkpt>
      <trkpt lat="44.42422" lon="4.29904">
        <ele>105</ele>
        <time>2011-08-14T09:18:24Z</time>
      </trkpt>
      <trkpt lat="44.42422" lon="4.2991">
        <ele>105</ele>
        <time>2011-08-14T09:18:26Z</time>
      </trkpt>
      <trkpt lat="44.42423" lon="4.29912">
        <ele>105</ele>
        <time>2011-08-14T09:18:34Z</time>
      </trkpt>
      <trkpt lat="44.42423" lon="4.29911">
        <ele>105</ele>
        <time>2011-08-14T09:18:50Z</time>
      </trkpt>
      <trkpt lat="44.42423" lon="4.29912">
        <ele>105</ele>
        <time>2011-08-14T09:19:05Z</time>
      </trkpt>
      <trkpt lat="44.42423" lon="4.29912">
        <ele>105</ele>
        <time>2011-08-14T09:19:17Z</time>
      </trkpt>
      <trkpt lat="44.42423" lon="4.29913">
        <ele>105</ele>
        <time>2011-08-14T09:19:21Z</time>
      </trkpt>
      <trkpt lat="44.42424" lon="4.29918">
        <ele>105</ele>
        <time>2011-08-14T09:19:24Z</time>
      </trkpt>
      <trkpt lat="44.42423" lon="4.29923">
        <ele>105</ele>
        <time>2011-08-14T09:19:30Z</time>
      </trkpt>
      <trkpt lat="44.42422" lon="4.29925">
        <ele>105</ele>
        <time>2011-08-14T09:19:36Z</time>
      </trkpt>
      <trkpt lat="44.4242" lon="4.29926">
        <ele>105</ele>
        <time>2011-08-14T09:19:46Z</time>
      </trkpt>
      <trkpt lat="44.42408" lon="4.2993">
        <ele>104</ele>
        <time>2011-08-14T09:19:50Z</time>
      </trkpt>
      <trkpt lat="44.42381" lon="4.29947">
        <ele>104</ele>
        <time>2011-08-14T09:19:57Z</time>
      </trkpt>
      <trkpt lat="44.42344" lon="4.29972">
        <ele>103</ele>
        <time>2011-08-14T09:20:06Z</time>
      </trkpt>
      <trkpt lat="44.42317" lon="4.29989">
        <ele>103</ele>
        <time>2011-08-14T09:20:12Z</time>
      </trkpt>
      <trkpt lat="44.423" lon="4.30011">
        <ele>103</ele>
        <time>2011-08-14T09:20:17Z</time>
      </trkpt>
      <trkpt lat="44.42294" lon="4.30022">
        <ele>103</ele>
        <time>2011-08-14T09:20:19Z</time>
      </trkpt>
      <trkpt lat="44.42276" lon="4.30039">
        <ele>104</ele>
        <time>2011-08-14T09:20:24Z</time>
      </trkpt>
      <trkpt lat="44.42256" lon="4.30057">
        <ele>104</ele>
        <time>2011-08-14T09:20:30Z</time>
      </trkpt>
      <trkpt lat="44.42242" lon="4.30085">
        <ele>105</ele>
        <time>2011-08-14T09:20:37Z</time>
      </trkpt>
      <trkpt lat="44.42238" lon="4.30096">
        <ele>105</ele>
        <time>2011-08-14T09:20:40Z</time>
      </trkpt>
      <trkpt lat="44.4223" lon="4.30096">
        <ele>106</ele>
        <time>2011-08-14T09:20:45Z</time>
      </trkpt>
      <trkpt lat="44.42229" lon="4.30082">
        <ele>105</ele>
        <time>2011-08-14T09:20:49Z</time>
      </trkpt>
      <trkpt lat="44.42229" lon="4.30066">
        <ele>105</ele>
        <time>2011-08-14T09:20:53Z</time>
      </trkpt>
      <trkpt lat="44.42228" lon="4.30061">
        <ele>105</ele>
        <time>2011-08-14T09:20:54Z</time>
      </trkpt>
      <trkpt lat="44.42224" lon="4.30026">
        <ele>105</ele>
        <time>2011-08-14T09:21:02Z</time>
      </trkpt>
      <trkpt lat="44.42216" lon="4.3">
        <ele>105</ele>
        <time>2011-08-14T09:21:07Z</time>
      </trkpt>
      <trkpt lat="44.42207" lon="4.29981">
        <ele>105</ele>
        <time>2011-08-14T09:21:11Z</time>
      </trkpt>
      <trkpt lat="44.42202" lon="4.29965">
        <ele>105</ele>
        <time>2011-08-14T09:21:14Z</time>
      </trkpt>
      <trkpt lat="44.42197" lon="4.29955">
        <ele>105</ele>
        <time>2011-08-14T09:21:16Z</time>
      </trkpt>
      <trkpt lat="44.42194" lon="4.29926">
        <ele>105</ele>
        <time>2011-08-14T09:21:21Z</time>
      </trkpt>
      <trkpt lat="44.42194" lon="4.29921">
        <ele>105</ele>
        <time>2011-08-14T09:21:22Z</time>
      </trkpt>
      <trkpt lat="44.42194" lon="4.2991">
        <ele>104</ele>
        <time>2011-08-14T09:21:24Z</time>
      </trkpt>
      <trkpt lat="44.42193" lon="4.29899">
        <ele>104</ele>
        <time>2011-08-14T09:21:26Z</time>
      </trkpt>
      <trkpt lat="44.42181" lon="4.29864">
        <ele>104</ele>
        <time>2011-08-14T09:21:33Z</time>
      </trkpt>
      <trkpt lat="44.4217" lon="4.29846">
        <ele>103</ele>
        <time>2011-08-14T09:21:37Z</time>
      </trkpt>
      <trkpt lat="44.42161" lon="4.29824">
        <ele>103</ele>
        <time>2011-08-14T09:21:42Z</time>
      </trkpt>
      <trkpt lat="44.42147" lon="4.29802">
        <ele>104</ele>
        <time>2011-08-14T09:21:47Z</time>
      </trkpt>
      <trkpt lat="44.42134" lon="4.29777">
        <ele>104</ele>
        <time>2011-08-14T09:21:52Z</time>
      </trkpt>
      <trkpt lat="44.42133" lon="4.29771">
        <ele>104</ele>
        <time>2011-08-14T09:21:53Z</time>
      </trkpt>
      <trkpt lat="44.42129" lon="4.29752">
        <ele>104</ele>
        <time>2011-08-14T09:21:56Z</time>
      </trkpt>
      <trkpt lat="44.42121" lon="4.29729">
        <ele>105</ele>
        <time>2011-08-14T09:22:00Z</time>
      </trkpt>
      <trkpt lat="44.42108" lon="4.29678">
        <ele>105</ele>
        <time>2011-08-14T09:22:08Z</time>
      </trkpt>
      <trkpt lat="44.42105" lon="4.29667">
        <ele>105</ele>
        <time>2011-08-14T09:22:10Z</time>
      </trkpt>
      <trkpt lat="44.42101" lon="4.29658">
        <ele>105</ele>
        <time>2011-08-14T09:22:12Z</time>
      </trkpt>
      <trkpt lat="44.42089" lon="4.2962">
        <ele>105</ele>
        <time>2011-08-14T09:22:20Z</time>
      </trkpt>
      <trkpt lat="44.42079" lon="4.29593">
        <ele>106</ele>
        <time>2011-08-14T09:22:26Z</time>
      </trkpt>
      <trkpt lat="44.42068" lon="4.29563">
        <ele>105</ele>
        <time>2011-08-14T09:22:32Z</time>
      </trkpt>
      <trkpt lat="44.42055" lon="4.29537">
        <ele>106</ele>
        <time>2011-08-14T09:22:38Z</time>
      </trkpt>
      <trkpt lat="44.42046" lon="4.29524">
        <ele>106</ele>
        <time>2011-08-14T09:22:41Z</time>
      </trkpt>
      <trkpt lat="44.42035" lon="4.29497">
        <ele>106</ele>
        <time>2011-08-14T09:22:46Z</time>
      </trkpt>
      <trkpt lat="44.42022" lon="4.29477">
        <ele>106</ele>
        <time>2011-08-14T09:22:50Z</time>
      </trkpt>
      <trkpt lat="44.42011" lon="4.29456">
        <ele>106</ele>
        <time>2011-08-14T09:22:54Z</time>
      </trkpt>
      <trkpt lat="44.42" lon="4.29437">
        <ele>107</ele>
        <time>2011-08-14T09:22:58Z</time>
      </trkpt>
      <trkpt lat="44.4198" lon="4.29411">
        <ele>107</ele>
        <time>2011-08-14T09:23:04Z</time>
      </trkpt>
      <trkpt lat="44.41967" lon="4.29399">
        <ele>107</ele>
        <time>2011-08-14T09:23:08Z</time>
      </trkpt>
      <trkpt lat="44.41952" lon="4.29384">
        <ele>107</ele>
        <time>2011-08-14T09:23:14Z</time>
      </trkpt>
      <trkpt lat="44.4194" lon="4.29373">
        <ele>107</ele>
        <time>2011-08-14T09:23:19Z</time>
      </trkpt>
      <trkpt lat="44.41927" lon="4.29355">
        <ele>107</ele>
        <time>2011-08-14T09:23:25Z</time>
      </trkpt>
      <trkpt lat="44.41914" lon="4.29331">
        <ele>106</ele>
        <time>2011-08-14T09:23:31Z</time>
      </trkpt>
      <trkpt lat="44.41905" lon="4.2931">
        <ele>106</ele>
        <time>2011-08-14T09:23:36Z</time>
      </trkpt>
      <trkpt lat="44.41895" lon="4.29289">
        <ele>106</ele>
        <time>2011-08-14T09:23:42Z</time>
      </trkpt>
      <trkpt lat="44.41882" lon="4.29262">
        <ele>106</ele>
        <time>2011-08-14T09:23:48Z</time>
      </trkpt>
      <trkpt lat="44.4187" lon="4.29233">
        <ele>107</ele>
        <time>2011-08-14T09:23:54Z</time>
      </trkpt>
      <trkpt lat="44.41865" lon="4.29223">
        <ele>107</ele>
        <time>2011-08-14T09:23:56Z</time>
      </trkpt>
      <trkpt lat="44.41854" lon="4.29205">
        <ele>107</ele>
        <time>2011-08-14T09:24:00Z</time>
      </trkpt>
      <trkpt lat="44.41841" lon="4.2919">
        <ele>107</ele>
        <time>2011-08-14T09:24:05Z</time>
      </trkpt>
      <trkpt lat="44.41836" lon="4.29177">
        <ele>107</ele>
        <time>2011-08-14T09:24:09Z</time>
      </trkpt>
      <trkpt lat="44.41826" lon="4.29153">
        <ele>107</ele>
        <time>2011-08-14T09:24:14Z</time>
      </trkpt>
      <trkpt lat="44.41813" lon="4.29134">
        <ele>108</ele>
        <time>2011-08-14T09:24:19Z</time>
      </trkpt>
      <trkpt lat="44.418" lon="4.29115">
        <ele>108</ele>
        <time>2011-08-14T09:24:24Z</time>
      </trkpt>
      <trkpt lat="44.41791" lon="4.29106">
        <ele>108</ele>
        <time>2011-08-14T09:24:29Z</time>
      </trkpt>
      <trkpt lat="44.41785" lon="4.29094">
        <ele>108</ele>
        <time>2011-08-14T09:24:35Z</time>
      </trkpt>
      <trkpt lat="44.41775" lon="4.29073">
        <ele>108</ele>
        <time>2011-08-14T09:24:41Z</time>
      </trkpt>
      <trkpt lat="44.4176" lon="4.2905">
        <ele>108</ele>
        <time>2011-08-14T09:24:47Z</time>
      </trkpt>
      <trkpt lat="44.41751" lon="4.29034">
        <ele>108</ele>
        <time>2011-08-14T09:24:51Z</time>
      </trkpt>
      <trkpt lat="44.41743" lon="4.29017">
        <ele>107</ele>
        <time>2011-08-14T09:24:55Z</time>
      </trkpt>
      <trkpt lat="44.41731" lon="4.28991">
        <ele>106</ele>
        <time>2011-08-14T09:25:01Z</time>
      </trkpt>
      <trkpt lat="44.41719" lon="4.28968">
        <ele>105</ele>
        <time>2011-08-14T09:25:07Z</time>
      </trkpt>
      <trkpt lat="44.41705" lon="4.2894">
        <ele>105</ele>
        <time>2011-08-14T09:25:14Z</time>
      </trkpt>
      <trkpt lat="44.41692" lon="4.28921">
        <ele>104</ele>
        <time>2011-08-14T09:25:19Z</time>
      </trkpt>
      <trkpt lat="44.41674" lon="4.28917">
        <ele>103</ele>
        <time>2011-08-14T09:25:24Z</time>
      </trkpt>
      <trkpt lat="44.41659" lon="4.28932">
        <ele>103</ele>
        <time>2011-08-14T09:25:29Z</time>
      </trkpt>
      <trkpt lat="44.41626" lon="4.28965">
        <ele>104</ele>
        <time>2011-08-14T09:25:39Z</time>
      </trkpt>
      <trkpt lat="44.41608" lon="4.28984">
        <ele>104</ele>
        <time>2011-08-14T09:25:45Z</time>
      </trkpt>
      <trkpt lat="44.41602" lon="4.28977">
        <ele>104</ele>
        <time>2011-08-14T09:25:49Z</time>
      </trkpt>
      <trkpt lat="44.41602" lon="4.28972">
        <ele>104</ele>
        <time>2011-08-14T09:25:50Z</time>
      </trkpt>
      <trkpt lat="44.41597" lon="4.28934">
        <ele>104</ele>
        <time>2011-08-14T09:25:57Z</time>
      </trkpt>
      <trkpt lat="44.41591" lon="4.2888">
        <ele>104</ele>
        <time>2011-08-14T09:26:06Z</time>
      </trkpt>
      <trkpt lat="44.41587" lon="4.28838">
        <ele>105</ele>
        <time>2011-08-14T09:26:13Z</time>
      </trkpt>
      <trkpt lat="44.41583" lon="4.28794">
        <ele>107</ele>
        <time>2011-08-14T09:26:21Z</time>
      </trkpt>
      <trkpt lat="44.41582" lon="4.2878">
        <ele>107</ele>
        <time>2011-08-14T09:26:25Z</time>
      </trkpt>
      <trkpt lat="44.41581" lon="4.28778">
        <ele>107</ele>
        <time>2011-08-14T09:26:28Z</time>
      </trkpt>
      <trkpt lat="44.41584" lon="4.28774">
        <ele>107</ele>
        <time>2011-08-14T09:26:34Z</time>
      </trkpt>
      <trkpt lat="44.41586" lon="4.28766">
        <ele>107</ele>
        <time>2011-08-14T09:26:40Z</time>
      </trkpt>
      <trkpt lat="44.41584" lon="4.28763">
        <ele>107</ele>
        <time>2011-08-14T09:26:42Z</time>
      </trkpt>
      <trkpt lat="44.41585" lon="4.28741">
        <ele>108</ele>
        <time>2011-08-14T09:26:49Z</time>
      </trkpt>
      <trkpt lat="44.41587" lon="4.28721">
        <ele>108</ele>
        <time>2011-08-14T09:26:54Z</time>
      </trkpt>
      <trkpt lat="44.41577" lon="4.28709">
        <ele>108</ele>
        <time>2011-08-14T09:26:59Z</time>
      </trkpt>
      <trkpt lat="44.41578" lon="4.28692">
        <ele>108</ele>
        <time>2011-08-14T09:27:04Z</time>
      </trkpt>
      <trkpt lat="44.41581" lon="4.28666">
        <ele>108</ele>
        <time>2011-08-14T09:27:09Z</time>
      </trkpt>
      <trkpt lat="44.41574" lon="4.28641">
        <ele>108</ele>
        <time>2011-08-14T09:27:14Z</time>
      </trkpt>
      <trkpt lat="44.41574" lon="4.28624">
        <ele>108</ele>
        <time>2011-08-14T09:27:18Z</time>
      </trkpt>
      <trkpt lat="44.41582" lon="4.2861">
        <ele>108</ele>
        <time>2011-08-14T09:27:22Z</time>
      </trkpt>
      <trkpt lat="44.41604" lon="4.28596">
        <ele>109</ele>
        <time>2011-08-14T09:27:29Z</time>
      </trkpt>
      <trkpt lat="44.41637" lon="4.28576">
        <ele>110</ele>
        <time>2011-08-14T09:27:39Z</time>
      </trkpt>
      <trkpt lat="44.41656" lon="4.28562">
        <ele>111</ele>
        <time>2011-08-14T09:27:45Z</time>
      </trkpt>
      <trkpt lat="44.41667" lon="4.28552">
        <ele>111</ele>
        <time>2011-08-14T09:27:49Z</time>
      </trkpt>
      <trkpt lat="44.41672" lon="4.28561">
        <ele>113</ele>
        <time>2011-08-14T09:27:54Z</time>
      </trkpt>
      <trkpt lat="44.41663" lon="4.28567">
        <ele>111</ele>
        <time>2011-08-14T09:27:58Z</time>
      </trkpt>
      <trkpt lat="44.41658" lon="4.2857">
        <ele>110</ele>
        <time>2011-08-14T09:28:02Z</time>
      </trkpt>
      <trkpt lat="44.41658" lon="4.28571">
        <ele>110</ele>
        <time>2011-08-14T09:28:11Z</time>
      </trkpt>
      <trkpt lat="44.41659" lon="4.28573">
        <ele>110</ele>
        <time>2011-08-14T09:28:33Z</time>
      </trkpt>
      <trkpt lat="44.41659" lon="4.28573">
        <ele>110</ele>
        <time>2011-08-14T09:28:45Z</time>
      </trkpt>
      <trkpt lat="44.41658" lon="4.28573">
        <ele>110</ele>
        <time>2011-08-14T09:28:54Z</time>
      </trkpt>
      <trkpt lat="44.41659" lon="4.28573">
        <ele>110</ele>
        <time>2011-08-14T09:29:07Z</time>
      </trkpt>
      <trkpt lat="44.41658" lon="4.28572">
        <ele>110</ele>
        <time>2011-08-14T09:29:13Z</time>
      </trkpt>
      <trkpt lat="44.41658" lon="4.28572">
        <ele>110</ele>
        <time>2011-08-14T09:29:20Z</time>
      </trkpt>
      <trkpt lat="44.41658" lon="4.28574">
        <ele>110</ele>
        <time>2011-08-14T09:29:31Z</time>
      </trkpt>
      <trkpt lat="44.41657" lon="4.28575">
        <ele>110</ele>
        <time>2011-08-14T09:29:32Z</time>
      </trkpt>
      <trkpt lat="44.41643" lon="4.28585">
        <ele>109</ele>
        <time>2011-08-14T09:29:38Z</time>
      </trkpt>
      <trkpt lat="44.41616" lon="4.28601">
        <ele>109</ele>
        <time>2011-08-14T09:29:46Z</time>
      </trkpt>
      <trkpt lat="44.41599" lon="4.28613">
        <ele>109</ele>
        <time>2011-08-14T09:29:52Z</time>
      </trkpt>
      <trkpt lat="44.41589" lon="4.28621">
        <ele>109</ele>
        <time>2011-08-14T09:29:58Z</time>
      </trkpt>
      <trkpt lat="44.4157" lon="4.28633">
        <ele>108</ele>
        <time>2011-08-14T09:30:04Z</time>
      </trkpt>
      <trkpt lat="44.41552" lon="4.28644">
        <ele>108</ele>
        <time>2011-08-14T09:30:09Z</time>
      </trkpt>
      <trkpt lat="44.41535" lon="4.28656">
        <ele>107</ele>
        <time>2011-08-14T09:30:14Z</time>
      </trkpt>
      <trkpt lat="44.41514" lon="4.2867">
        <ele>107</ele>
        <time>2011-08-14T09:30:20Z</time>
      </trkpt>
      <trkpt lat="44.41494" lon="4.28685">
        <ele>107</ele>
        <time>2011-08-14T09:30:25Z</time>
      </trkpt>
      <trkpt lat="44.41468" lon="4.287">
        <ele>107</ele>
        <time>2011-08-14T09:30:30Z</time>
      </trkpt>
      <trkpt lat="44.41449" lon="4.28717">
        <ele>107</ele>
        <time>2011-08-14T09:30:33Z</time>
      </trkpt>
      <trkpt lat="44.41435" lon="4.28733">
        <ele>107</ele>
        <time>2011-08-14T09:30:35Z</time>
      </trkpt>
      <trkpt lat="44.41406" lon="4.28791">
        <ele>108</ele>
        <time>2011-08-14T09:30:41Z</time>
      </trkpt>
      <trkpt lat="44.41394" lon="4.28854">
        <ele>108</ele>
        <time>2011-08-14T09:30:47Z</time>
      </trkpt>
      <trkpt lat="44.41391" lon="4.28884">
        <ele>109</ele>
        <time>2011-08-14T09:30:50Z</time>
      </trkpt>
      <trkpt lat="44.41373" lon="4.28946">
        <ele>108</ele>
        <time>2011-08-14T09:30:57Z</time>
      </trkpt>
      <trkpt lat="44.41358" lon="4.28982">
        <ele>107</ele>
        <time>2011-08-14T09:31:02Z</time>
      </trkpt>
      <trkpt lat="44.41341" lon="4.29018">
        <ele>105</ele>
        <time>2011-08-14T09:31:08Z</time>
      </trkpt>
      <trkpt lat="44.41335" lon="4.29037">
        <ele>105</ele>
        <time>2011-08-14T09:31:11Z</time>
      </trkpt>
      <trkpt lat="44.41335" lon="4.29058">
        <ele>105</ele>
        <time>2011-08-14T09:31:15Z</time>
      </trkpt>
      <trkpt lat="44.41341" lon="4.29077">
        <ele>104</ele>
        <time>2011-08-14T09:31:19Z</time>
      </trkpt>
      <trkpt lat="44.41355" lon="4.29117">
        <ele>104</ele>
        <time>2011-08-14T09:31:28Z</time>
      </trkpt>
      <trkpt lat="44.41369" lon="4.29138">
        <ele>104</ele>
        <time>2011-08-14T09:31:34Z</time>
      </trkpt>
      <trkpt lat="44.41389" lon="4.29156">
        <ele>104</ele>
        <time>2011-08-14T09:31:40Z</time>
      </trkpt>
      <trkpt lat="44.41406" lon="4.29158">
        <ele>105</ele>
        <time>2011-08-14T09:31:44Z</time>
      </trkpt>
      <trkpt lat="44.41415" lon="4.29156">
        <ele>105</ele>
        <time>2011-08-14T09:31:46Z</time>
      </trkpt>
      <trkpt lat="44.41455" lon="4.29135">
        <ele>105</ele>
        <time>2011-08-14T09:31:55Z</time>
      </trkpt>
      <trkpt lat="44.41464" lon="4.29131">
        <ele>105</ele>
        <time>2011-08-14T09:31:57Z</time>
      </trkpt>
      <trkpt lat="44.41481" lon="4.29133">
        <ele>105</ele>
        <time>2011-08-14T09:32:01Z</time>
      </trkpt>
      <trkpt lat="44.41493" lon="4.29156">
        <ele>106</ele>
        <time>2011-08-14T09:32:06Z</time>
      </trkpt>
      <trkpt lat="44.41504" lon="4.29178">
        <ele>105</ele>
        <time>2011-08-14T09:32:11Z</time>
      </trkpt>
      <trkpt lat="44.41518" lon="4.292">
        <ele>105</ele>
        <time>2011-08-14T09:32:16Z</time>
      </trkpt>
      <trkpt lat="44.41519" lon="4.29206">
        <ele>105</ele>
        <time>2011-08-14T09:32:17Z</time>
      </trkpt>
      <trkpt lat="44.41523" lon="4.29252">
        <ele>105</ele>
        <time>2011-08-14T09:32:25Z</time>
      </trkpt>
      <trkpt lat="44.41525" lon="4.29264">
        <ele>105</ele>
        <time>2011-08-14T09:32:27Z</time>
      </trkpt>
      <trkpt lat="44.41534" lon="4.29304">
        <ele>104</ele>
        <time>2011-08-14T09:32:33Z</time>
      </trkpt>
      <trkpt lat="44.41543" lon="4.29352">
        <ele>103</ele>
        <time>2011-08-14T09:32:40Z</time>
      </trkpt>
      <trkpt lat="44.41552" lon="4.29399">
        <ele>103</ele>
        <time>2011-08-14T09:32:47Z</time>
      </trkpt>
      <trkpt lat="44.41556" lon="4.29427">
        <ele>103</ele>
        <time>2011-08-14T09:32:51Z</time>
      </trkpt>
      <trkpt lat="44.41561" lon="4.29448">
        <ele>103</ele>
        <time>2011-08-14T09:32:54Z</time>
      </trkpt>
      <trkpt lat="44.41579" lon="4.29516">
        <ele>105</ele>
        <time>2011-08-14T09:33:04Z</time>
      </trkpt>
      <trkpt lat="44.41585" lon="4.29548">
        <ele>106</ele>
        <time>2011-08-14T09:33:09Z</time>
      </trkpt>
      <trkpt lat="44.41589" lon="4.29567">
        <ele>107</ele>
        <time>2011-08-14T09:33:12Z</time>
      </trkpt>
      <trkpt lat="44.41592" lon="4.2958">
        <ele>107</ele>
        <time>2011-08-14T09:33:14Z</time>
      </trkpt>
      <trkpt lat="44.41611" lon="4.29612">
        <ele>107</ele>
        <time>2011-08-14T09:33:20Z</time>
      </trkpt>
      <trkpt lat="44.4162" lon="4.29634">
        <ele>107</ele>
        <time>2011-08-14T09:33:24Z</time>
      </trkpt>
      <trkpt lat="44.41627" lon="4.29681">
        <ele>105</ele>
        <time>2011-08-14T09:33:31Z</time>
      </trkpt>
      <trkpt lat="44.41621" lon="4.29702">
        <ele>105</ele>
        <time>2011-08-14T09:33:35Z</time>
      </trkpt>
      <trkpt lat="44.41615" lon="4.29707">
        <ele>105</ele>
        <time>2011-08-14T09:33:37Z</time>
      </trkpt>
      <trkpt lat="44.41587" lon="4.29722">
        <ele>104</ele>
        <time>2011-08-14T09:33:45Z</time>
      </trkpt>
      <trkpt lat="44.4158" lon="4.29735">
        <ele>103</ele>
        <time>2011-08-14T09:33:48Z</time>
      </trkpt>
      <trkpt lat="44.41587" lon="4.29753">
        <ele>102</ele>
        <time>2011-08-14T09:33:52Z</time>
      </trkpt>
      <trkpt lat="44.41593" lon="4.29759">
        <ele>103</ele>
        <time>2011-08-14T09:33:54Z</time>
      </trkpt>
      <trkpt lat="44.41613" lon="4.29777">
        <ele>104</ele>
        <time>2011-08-14T09:34:01Z</time>
      </trkpt>
      <trkpt lat="44.41629" lon="4.29793">
        <ele>104</ele>
        <time>2011-08-14T09:34:06Z</time>
      </trkpt>
      <trkpt lat="44.41651" lon="4.29814">
        <ele>104</ele>
        <time>2011-08-14T09:34:13Z</time>
      </trkpt>
      <trkpt lat="44.41664" lon="4.29809">
        <ele>104</ele>
        <time>2011-08-14T09:34:17Z</time>
      </trkpt>
      <trkpt lat="44.41687" lon="4.29794">
        <ele>104</ele>
        <time>2011-08-14T09:34:24Z</time>
      </trkpt>
      <trkpt lat="44.41723" lon="4.29774">
        <ele>104</ele>
        <time>2011-08-14T09:34:34Z</time>
      </trkpt>
      <trkpt lat="44.41734" lon="4.29779">
        <ele>104</ele>
        <time>2011-08-14T09:34:37Z</time>
      </trkpt>
      <trkpt lat="44.4175" lon="4.29798">
        <ele>103</ele>
        <time>2011-08-14T09:34:43Z</time>
      </trkpt>
      <trkpt lat="44.41756" lon="4.29825">
        <ele>103</ele>
        <time>2011-08-14T09:34:48Z</time>
      </trkpt>
      <trkpt lat="44.41758" lon="4.29838">
        <ele>103</ele>
        <time>2011-08-14T09:34:50Z</time>
      </trkpt>
      <trkpt lat="44.41764" lon="4.29857">
        <ele>103</ele>
        <time>2011-08-14T09:34:53Z</time>
      </trkpt>
      <trkpt lat="44.41769" lon="4.29867">
        <ele>103</ele>
        <time>2011-08-14T09:34:55Z</time>
      </trkpt>
      <trkpt lat="44.41775" lon="4.29877">
        <ele>103</ele>
        <time>2011-08-14T09:34:57Z</time>
      </trkpt>
      <trkpt lat="44.41781" lon="4.29896">
        <ele>103</ele>
        <time>2011-08-14T09:35:00Z</time>
      </trkpt>
      <trkpt lat="44.41791" lon="4.29933">
        <ele>103</ele>
        <time>2011-08-14T09:35:06Z</time>
      </trkpt>
      <trkpt lat="44.4179" lon="4.29966">
        <ele>103</ele>
        <time>2011-08-14T09:35:12Z</time>
      </trkpt>
      <trkpt lat="44.41787" lon="4.29976">
        <ele>103</ele>
        <time>2011-08-14T09:35:14Z</time>
      </trkpt>
      <trkpt lat="44.41782" lon="4.29992">
        <ele>103</ele>
        <time>2011-08-14T09:35:17Z</time>
      </trkpt>
      <trkpt lat="44.41771" lon="4.30034">
        <ele>102</ele>
        <time>2011-08-14T09:35:24Z</time>
      </trkpt>
      <trkpt lat="44.4177" lon="4.3004">
        <ele>102</ele>
        <time>2011-08-14T09:35:25Z</time>
      </trkpt>
      <trkpt lat="44.41763" lon="4.30057">
        <ele>103</ele>
        <time>2011-08-14T09:35:28Z</time>
      </trkpt>
      <trkpt lat="44.41758" lon="4.30069">
        <ele>103</ele>
        <time>2011-08-14T09:35:30Z</time>
      </trkpt>
      <trkpt lat="44.41755" lon="4.30103">
        <ele>103</ele>
        <time>2011-08-14T09:35:35Z</time>
      </trkpt>
      <trkpt lat="44.41755" lon="4.30132">
        <ele>104</ele>
        <time>2011-08-14T09:35:39Z</time>
      </trkpt>
      <trkpt lat="44.41758" lon="4.3017">
        <ele>105</ele>
        <time>2011-08-14T09:35:44Z</time>
      </trkpt>
      <trkpt lat="44.41751" lon="4.30195">
        <ele>105</ele>
        <time>2011-08-14T09:35:48Z</time>
      </trkpt>
      <trkpt lat="44.41746" lon="4.30199">
        <ele>105</ele>
        <time>2011-08-14T09:35:49Z</time>
      </trkpt>
      <trkpt lat="44.41737" lon="4.30207">
        <ele>105</ele>
        <time>2011-08-14T09:35:51Z</time>
      </trkpt>
      <trkpt lat="44.41725" lon="4.30232">
        <ele>105</ele>
        <time>2011-08-14T09:35:55Z</time>
      </trkpt>
      <trkpt lat="44.41721" lon="4.30246">
        <ele>105</ele>
        <time>2011-08-14T09:35:57Z</time>
      </trkpt>
      <trkpt lat="44.4172" lon="4.30272">
        <ele>105</ele>
        <time>2011-08-14T09:36:01Z</time>
      </trkpt>
      <trkpt lat="44.41719" lon="4.30318">
        <ele>104</ele>
        <time>2011-08-14T09:36:08Z</time>
      </trkpt>
      <trkpt lat="44.41719" lon="4.30322">
        <ele>104</ele>
        <time>2011-08-14T09:36:09Z</time>
      </trkpt>
      <trkpt lat="44.4172" lon="4.30324">
        <ele>104</ele>
        <time>2011-08-14T09:36:17Z</time>
      </trkpt>
      <trkpt lat="44.4172" lon="4.30325">
        <ele>104</ele>
        <time>2011-08-14T09:36:27Z</time>
      </trkpt>
      <trkpt lat="44.4172" lon="4.30326">
        <ele>104</ele>
        <time>2011-08-14T09:36:37Z</time>
      </trkpt>
      <trkpt lat="44.4172" lon="4.30327">
        <ele>104</ele>
        <time>2011-08-14T09:36:51Z</time>
      </trkpt>
      <trkpt lat="44.41719" lon="4.30328">
        <ele>104</ele>
        <time>2011-08-14T09:37:00Z</time>
      </trkpt>
      <trkpt lat="44.41719" lon="4.30328">
        <ele>104</ele>
        <time>2011-08-14T09:37:26Z</time>
      </trkpt>
      <trkpt lat="44.41719" lon="4.30328">
        <ele>104</ele>
        <time>2011-08-14T09:37:38Z</time>
      </trkpt>
      <trkpt lat="44.41719" lon="4.30328">
        <ele>104</ele>
        <time>2011-08-14T09:37:54Z</time>
      </trkpt>
      <trkpt lat="44.41719" lon="4.30327">
        <ele>104</ele>
        <time>2011-08-14T09:38:20Z</time>
      </trkpt>
      <trkpt lat="44.4172" lon="4.30332">
        <ele>104</ele>
        <time>2011-08-14T09:38:27Z</time>
      </trkpt>
      <trkpt lat="44.41719" lon="4.30334">
        <ele>104</ele>
        <time>2011-08-14T09:38:28Z</time>
      </trkpt>
      <trkpt lat="44.41708" lon="4.30342">
        <ele>104</ele>
        <time>2011-08-14T09:38:33Z</time>
      </trkpt>
      <trkpt lat="44.4169" lon="4.30361">
        <ele>104</ele>
        <time>2011-08-14T09:38:39Z</time>
      </trkpt>
      <trkpt lat="44.41667" lon="4.30386">
        <ele>104</ele>
        <time>2011-08-14T09:38:45Z</time>
      </trkpt>
      <trkpt lat="44.41649" lon="4.30407">
        <ele>104</ele>
        <time>2011-08-14T09:38:50Z</time>
      </trkpt>
      <trkpt lat="44.41634" lon="4.30424">
        <ele>104</ele>
        <time>2011-08-14T09:38:55Z</time>
      </trkpt>
      <trkpt lat="44.41623" lon="4.30435">
        <ele>104</ele>
        <time>2011-08-14T09:38:58Z</time>
      </trkpt>
      <trkpt lat="44.41606" lon="4.30454">
        <ele>104</ele>
        <time>2011-08-14T09:39:03Z</time>
      </trkpt>
      <trkpt lat="44.41585" lon="4.30474">
        <ele>105</ele>
        <time>2011-08-14T09:39:09Z</time>
      </trkpt>
      <trkpt lat="44.41579" lon="4.3048">
        <ele>107</ele>
        <time>2011-08-14T09:39:11Z</time>
      </trkpt>
      <trkpt lat="44.41559" lon="4.30477">
        <ele>107</ele>
        <time>2011-08-14T09:39:16Z</time>
      </trkpt>
      <trkpt lat="44.41546" lon="4.30468">
        <ele>107</ele>
        <time>2011-08-14T09:39:19Z</time>
      </trkpt>
      <trkpt lat="44.41539" lon="4.30463">
        <ele>107</ele>
        <time>2011-08-14T09:39:21Z</time>
      </trkpt>
      <trkpt lat="44.41517" lon="4.30447">
        <ele>107</ele>
        <time>2011-08-14T09:39:28Z</time>
      </trkpt>
      <trkpt lat="44.41512" lon="4.30448">
        <ele>108</ele>
        <time>2011-08-14T09:39:33Z</time>
      </trkpt>
      <trkpt lat="44.41512" lon="4.30449">
        <ele>108</ele>
        <time>2011-08-14T09:39:44Z</time>
      </trkpt>
      <trkpt lat="44.41521" lon="4.30455">
        <ele>108</ele>
        <time>2011-08-14T09:39:50Z</time>
      </trkpt>
      <trkpt lat="44.41526" lon="4.30459">
        <ele>108</ele>
        <time>2011-08-14T09:39:52Z</time>
      </trkpt>
      <trkpt lat="44.41543" lon="4.30478">
        <ele>107</ele>
        <time>2011-08-14T09:39:59Z</time>
      </trkpt>
      <trkpt lat="44.41553" lon="4.30497">
        <ele>107</ele>
        <time>2011-08-14T09:40:04Z</time>
      </trkpt>
      <trkpt lat="44.41565" lon="4.30543">
        <ele>110</ele>
        <time>2011-08-14T09:40:14Z</time>
      </trkpt>
      <trkpt lat="44.4157" lon="4.30574">
        <ele>110</ele>
        <time>2011-08-14T09:40:21Z</time>
      </trkpt>
      <trkpt lat="44.41574" lon="4.30594">
        <ele>112</ele>
        <time>2011-08-14T09:40:26Z</time>
      </trkpt>
      <trkpt lat="44.41593" lon="4.30619">
        <ele>109</ele>
        <time>2011-08-14T09:40:33Z</time>
      </trkpt>
      <trkpt lat="44.41598" lon="4.30634">
        <ele>110</ele>
        <time>2011-08-14T09:40:37Z</time>
      </trkpt>
      <trkpt lat="44.41586" lon="4.30645">
        <ele>111</ele>
        <time>2011-08-14T09:40:43Z</time>
      </trkpt>
      <trkpt lat="44.41572" lon="4.30659">
        <ele>115</ele>
        <time>2011-08-14T09:40:50Z</time>
      </trkpt>
      <trkpt lat="44.41566" lon="4.30663">
        <ele>115</ele>
        <time>2011-08-14T09:40:55Z</time>
      </trkpt>
      <trkpt lat="44.4156" lon="4.30674">
        <ele>118</ele>
        <time>2011-08-14T09:41:02Z</time>
      </trkpt>
      <trkpt lat="44.41561" lon="4.30674">
        <ele>118</ele>
        <time>2011-08-14T09:41:08Z</time>
      </trkpt>
      <trkpt lat="44.4156" lon="4.30674">
        <ele>118</ele>
        <time>2011-08-14T09:41:14Z</time>
      </trkpt>
      <trkpt lat="44.41558" lon="4.30671">
        <ele>118</ele>
        <time>2011-08-14T09:41:26Z</time>
      </trkpt>
      <trkpt lat="44.41559" lon="4.30671">
        <ele>118</ele>
        <time>2011-08-14T09:41:34Z</time>
      </trkpt>
      <trkpt lat="44.41562" lon="4.30669">
        <ele>118</ele>
        <time>2011-08-14T09:41:39Z</time>
      </trkpt>
      <trkpt lat="44.41567" lon="4.30665">
        <ele>115</ele>
        <time>2011-08-14T09:41:46Z</time>
      </trkpt>
      <trkpt lat="44.41567" lon="4.30664">
        <ele>115</ele>
        <time>2011-08-14T09:41:55Z</time>
      </trkpt>
      <trkpt lat="44.41565" lon="4.30667">
        <ele>117</ele>
        <time>2011-08-14T09:42:02Z</time>
      </trkpt>
      <trkpt lat="44.41563" lon="4.30669">
        <ele>118</ele>
        <time>2011-08-14T09:42:07Z</time>
      </trkpt>
      <trkpt lat="44.41558" lon="4.30675">
        <ele>118</ele>
        <time>2011-08-14T09:42:11Z</time>
      </trkpt>
      <trkpt lat="44.41549" lon="4.30689">
        <ele>120</ele>
        <time>2011-08-14T09:42:16Z</time>
      </trkpt>
      <trkpt lat="44.41553" lon="4.30689">
        <ele>119</ele>
        <time>2011-08-14T09:42:20Z</time>
      </trkpt>
      <trkpt lat="44.41555" lon="4.30686">
        <ele>119</ele>
        <time>2011-08-14T09:42:21Z</time>
      </trkpt>
      <trkpt lat="44.41563" lon="4.30668">
        <ele>117</ele>
        <time>2011-08-14T09:42:27Z</time>
      </trkpt>
      <trkpt lat="44.41568" lon="4.30662">
        <ele>115</ele>
        <time>2011-08-14T09:42:32Z</time>
      </trkpt>
      <trkpt lat="44.41573" lon="4.30656">
        <ele>115</ele>
        <time>2011-08-14T09:42:38Z</time>
      </trkpt>
      <trkpt lat="44.41582" lon="4.30646">
        <ele>115</ele>
        <time>2011-08-14T09:42:41Z</time>
      </trkpt>
      <trkpt lat="44.41598" lon="4.30632">
        <ele>110</ele>
        <time>2011-08-14T09:42:46Z</time>
      </trkpt>
      <trkpt lat="44.41599" lon="4.30631">
        <ele>110</ele>
        <time>2011-08-14T09:42:47Z</time>
      </trkpt>
      <trkpt lat="44.41597" lon="4.30614">
        <ele>109</ele>
        <time>2011-08-14T09:42:52Z</time>
      </trkpt>
      <trkpt lat="44.41593" lon="4.30608">
        <ele>109</ele>
        <time>2011-08-14T09:42:54Z</time>
      </trkpt>
      <trkpt lat="44.41573" lon="4.30585">
        <ele>112</ele>
        <time>2011-08-14T09:43:02Z</time>
      </trkpt>
      <trkpt lat="44.41546" lon="4.30556">
        <ele>111</ele>
        <time>2011-08-14T09:43:11Z</time>
      </trkpt>
      <trkpt lat="44.41527" lon="4.30535">
        <ele>111</ele>
        <time>2011-08-14T09:43:19Z</time>
      </trkpt>
      <trkpt lat="44.4151" lon="4.30515">
        <ele>111</ele>
        <time>2011-08-14T09:43:26Z</time>
      </trkpt>
      <trkpt lat="44.41485" lon="4.30488">
        <ele>112</ele>
        <time>2011-08-14T09:43:36Z</time>
      </trkpt>
      <trkpt lat="44.41464" lon="4.30464">
        <ele>112</ele>
        <time>2011-08-14T09:43:46Z</time>
      </trkpt>
      <trkpt lat="44.41453" lon="4.30454">
        <ele>112</ele>
        <time>2011-08-14T09:43:53Z</time>
      </trkpt>
      <trkpt lat="44.4144" lon="4.30447">
        <ele>112</ele>
        <time>2011-08-14T09:43:59Z</time>
      </trkpt>
      <trkpt lat="44.41434" lon="4.30441">
        <ele>112</ele>
        <time>2011-08-14T09:44:03Z</time>
      </trkpt>
      <trkpt lat="44.41432" lon="4.30438">
        <ele>112</ele>
        <time>2011-08-14T09:44:08Z</time>
      </trkpt>
      <trkpt lat="44.41431" lon="4.30441">
        <ele>112</ele>
        <time>2011-08-14T09:44:11Z</time>
      </trkpt>
      <trkpt lat="44.41431" lon="4.30441">
        <ele>112</ele>
        <time>2011-08-14T09:44:19Z</time>
      </trkpt>
      <trkpt lat="44.41432" lon="4.3044">
        <ele>112</ele>
        <time>2011-08-14T09:44:33Z</time>
      </trkpt>
      <trkpt lat="44.41433" lon="4.3044">
        <ele>112</ele>
        <time>2011-08-14T09:44:48Z</time>
      </trkpt>
      <trkpt lat="44.41433" lon="4.30441">
        <ele>112</ele>
        <time>2011-08-14T09:45:12Z</time>
      </trkpt>
      <trkpt lat="44.41433" lon="4.30442">
        <ele>112</ele>
        <time>2011-08-14T09:45:35Z</time>
      </trkpt>
      <trkpt lat="44.41429" lon="4.30453">
        <ele>113</ele>
        <time>2011-08-14T09:45:39Z</time>
      </trkpt>
      <trkpt lat="44.41431" lon="4.30458">
        <ele>113</ele>
        <time>2011-08-14T09:45:41Z</time>
      </trkpt>
      <trkpt lat="44.41443" lon="4.30475">
        <ele>114</ele>
        <time>2011-08-14T09:45:49Z</time>
      </trkpt>
      <trkpt lat="44.41456" lon="4.30491">
        <ele>113</ele>
        <time>2011-08-14T09:45:56Z</time>
      </trkpt>
      <trkpt lat="44.41467" lon="4.3051">
        <ele>119</ele>
        <time>2011-08-14T09:46:01Z</time>
      </trkpt>
      <trkpt lat="44.41485" lon="4.30539">
        <ele>120</ele>
        <time>2011-08-14T09:46:08Z</time>
      </trkpt>
      <trkpt lat="44.41513" lon="4.30584">
        <ele>118</ele>
        <time>2011-08-14T09:46:20Z</time>
      </trkpt>
      <trkpt lat="44.41535" lon="4.30616">
        <ele>117</ele>
        <time>2011-08-14T09:46:29Z</time>
      </trkpt>
      <trkpt lat="44.41544" lon="4.30631">
        <ele>117</ele>
        <time>2011-08-14T09:46:33Z</time>
      </trkpt>
      <trkpt lat="44.41561" lon="4.30658">
        <ele>116</ele>
        <time>2011-08-14T09:46:40Z</time>
      </trkpt>
      <trkpt lat="44.41572" lon="4.30674">
        <ele>116</ele>
        <time>2011-08-14T09:46:45Z</time>
      </trkpt>
      <trkpt lat="44.41589" lon="4.30698">
        <ele>113</ele>
        <time>2011-08-14T09:46:52Z</time>
      </trkpt>
      <trkpt lat="44.41603" lon="4.30719">
        <ele>113</ele>
        <time>2011-08-14T09:46:58Z</time>
      </trkpt>
      <trkpt lat="44.41617" lon="4.30738">
        <ele>113</ele>
        <time>2011-08-14T09:47:03Z</time>
      </trkpt>
      <trkpt lat="44.41633" lon="4.30761">
        <ele>117</ele>
        <time>2011-08-14T09:47:10Z</time>
      </trkpt>
      <trkpt lat="44.41636" lon="4.30765">
        <ele>117</ele>
        <time>2011-08-14T09:47:14Z</time>
      </trkpt>
      <trkpt lat="44.41638" lon="4.30769">
        <ele>117</ele>
        <time>2011-08-14T09:47:21Z</time>
      </trkpt>
      <trkpt lat="44.4164" lon="4.30769">
        <ele>117</ele>
        <time>2011-08-14T09:47:27Z</time>
      </trkpt>
      <trkpt lat="44.41639" lon="4.30769">
        <ele>117</ele>
        <time>2011-08-14T09:47:45Z</time>
      </trkpt>
      <trkpt lat="44.41639" lon="4.30769">
        <ele>117</ele>
        <time>2011-08-14T09:47:58Z</time>
      </trkpt>
      <trkpt lat="44.4164" lon="4.30769">
        <ele>117</ele>
        <time>2011-08-14T09:48:16Z</time>
      </trkpt>
      <trkpt lat="44.4164" lon="4.30768">
        <ele>117</ele>
        <time>2011-08-14T09:48:27Z</time>
      </trkpt>
      <trkpt lat="44.41643" lon="4.30769">
        <ele>117</ele>
        <time>2011-08-14T09:48:33Z</time>
      </trkpt>
      <trkpt lat="44.41643" lon="4.30771">
        <ele>117</ele>
        <time>2011-08-14T09:48:40Z</time>
      </trkpt>
      <trkpt lat="44.41643" lon="4.30773">
        <ele>117</ele>
        <time>2011-08-14T09:48:47Z</time>
      </trkpt>
      <trkpt lat="44.41643" lon="4.30776">
        <ele>118</ele>
        <time>2011-08-14T09:48:51Z</time>
      </trkpt>
      <trkpt lat="44.41645" lon="4.30779">
        <ele>118</ele>
        <time>2011-08-14T09:48:56Z</time>
      </trkpt>
      <trkpt lat="44.41646" lon="4.30778">
        <ele>117</ele>
        <time>2011-08-14T09:49:01Z</time>
      </trkpt>
      <trkpt lat="44.41647" lon="4.30778">
        <ele>117</ele>
        <time>2011-08-14T09:49:08Z</time>
      </trkpt>
      <trkpt lat="44.41647" lon="4.30782">
        <ele>118</ele>
        <time>2011-08-14T09:49:13Z</time>
      </trkpt>
      <trkpt lat="44.41646" lon="4.30779">
        <ele>118</ele>
        <time>2011-08-14T09:49:16Z</time>
      </trkpt>
      <trkpt lat="44.41647" lon="4.30779">
        <ele>118</ele>
        <time>2011-08-14T09:49:20Z</time>
      </trkpt>
      <trkpt lat="44.41646" lon="4.30781">
        <ele>118</ele>
        <time>2011-08-14T09:49:30Z</time>
      </trkpt>
      <trkpt lat="44.41646" lon="4.3078">
        <ele>118</ele>
        <time>2011-08-14T09:49:35Z</time>
      </trkpt>
      <trkpt lat="44.41646" lon="4.3078">
        <ele>118</ele>
        <time>2011-08-14T09:49:44Z</time>
      </trkpt>
      <trkpt lat="44.41645" lon="4.3078">
        <ele>118</ele>
        <time>2011-08-14T09:49:50Z</time>
      </trkpt>
      <trkpt lat="44.41646" lon="4.30781">
        <ele>118</ele>
        <time>2011-08-14T09:50:04Z</time>
      </trkpt>
      <trkpt lat="44.41646" lon="4.30783">
        <ele>118</ele>
        <time>2011-08-14T09:50:05Z</time>
      </trkpt>
      <trkpt lat="44.41649" lon="4.30787">
        <ele>118</ele>
        <time>2011-08-14T09:50:10Z</time>
      </trkpt>
      <trkpt lat="44.41655" lon="4.30795">
        <ele>118</ele>
        <time>2011-08-14T09:50:14Z</time>
      </trkpt>
      <trkpt lat="44.41668" lon="4.30811">
        <ele>114</ele>
        <time>2011-08-14T09:50:19Z</time>
      </trkpt>
      <trkpt lat="44.41686" lon="4.30832">
        <ele>115</ele>
        <time>2011-08-14T09:50:26Z</time>
      </trkpt>
      <trkpt lat="44.41703" lon="4.30853">
        <ele>117</ele>
        <time>2011-08-14T09:50:33Z</time>
      </trkpt>
      <trkpt lat="44.41722" lon="4.30878">
        <ele>116</ele>
        <time>2011-08-14T09:50:40Z</time>
      </trkpt>
      <trkpt lat="44.4174" lon="4.30895">
        <ele>115</ele>
        <time>2011-08-14T09:50:46Z</time>
      </trkpt>
      <trkpt lat="44.41759" lon="4.30918">
        <ele>112</ele>
        <time>2011-08-14T09:50:53Z</time>
      </trkpt>
      <trkpt lat="44.4178" lon="4.3094">
        <ele>112</ele>
        <time>2011-08-14T09:50:59Z</time>
      </trkpt>
      <trkpt lat="44.41805" lon="4.30967">
        <ele>112</ele>
        <time>2011-08-14T09:51:06Z</time>
      </trkpt>
      <trkpt lat="44.41827" lon="4.30991">
        <ele>111</ele>
        <time>2011-08-14T09:51:12Z</time>
      </trkpt>
      <trkpt lat="44.41849" lon="4.3101">
        <ele>112</ele>
        <time>2011-08-14T09:51:18Z</time>
      </trkpt>
      <trkpt lat="44.41865" lon="4.31027">
        <ele>112</ele>
        <time>2011-08-14T09:51:23Z</time>
      </trkpt>
      <trkpt lat="44.41876" lon="4.31038">
        <ele>113</ele>
        <time>2011-08-14T09:51:28Z</time>
      </trkpt>
      <trkpt lat="44.41883" lon="4.31049">
        <ele>113</ele>
        <time>2011-08-14T09:51:33Z</time>
      </trkpt>
      <trkpt lat="44.41883" lon="4.31059">
        <ele>113</ele>
        <time>2011-08-14T09:51:38Z</time>
      </trkpt>
      <trkpt lat="44.41889" lon="4.31074">
        <ele>113</ele>
        <time>2011-08-14T09:51:42Z</time>
      </trkpt>
      <trkpt lat="44.41891" lon="4.31077">
        <ele>113</ele>
        <time>2011-08-14T09:51:43Z</time>
      </trkpt>
      <trkpt lat="44.41914" lon="4.31105">
        <ele>118</ele>
        <time>2011-08-14T09:51:51Z</time>
      </trkpt>
      <trkpt lat="44.41923" lon="4.31112">
        <ele>113</ele>
        <time>2011-08-14T09:51:55Z</time>
      </trkpt>
      <trkpt lat="44.41934" lon="4.31127">
        <ele>114</ele>
        <time>2011-08-14T09:52:00Z</time>
      </trkpt>
      <trkpt lat="44.41946" lon="4.31139">
        <ele>114</ele>
        <time>2011-08-14T09:52:05Z</time>
      </trkpt>
      <trkpt lat="44.41956" lon="4.3114">
        <ele>113</ele>
        <time>2011-08-14T09:52:10Z</time>
      </trkpt>
      <trkpt lat="44.41968" lon="4.31145">
        <ele>113</ele>
        <time>2011-08-14T09:52:16Z</time>
      </trkpt>
      <trkpt lat="44.41979" lon="4.31155">
        <ele>113</ele>
        <time>2011-08-14T09:52:22Z</time>
      </trkpt>
      <trkpt lat="44.4198" lon="4.31157">
        <ele>113</ele>
        <time>2011-08-14T09:52:23Z</time>
      </trkpt>
      <trkpt lat="44.41996" lon="4.31171">
        <ele>114</ele>
        <time>2011-08-14T09:52:30Z</time>
      </trkpt>
      <trkpt lat="44.4201" lon="4.31193">
        <ele>111</ele>
        <time>2011-08-14T09:52:37Z</time>
      </trkpt>
      <trkpt lat="44.42027" lon="4.31223">
        <ele>111</ele>
        <time>2011-08-14T09:52:45Z</time>
      </trkpt>
      <trkpt lat="44.42038" lon="4.31241">
        <ele>111</ele>
        <time>2011-08-14T09:52:51Z</time>
      </trkpt>
      <trkpt lat="44.42041" lon="4.31254">
        <ele>114</ele>
        <time>2011-08-14T09:52:55Z</time>
      </trkpt>
      <trkpt lat="44.4204" lon="4.3126">
        <ele>114</ele>
        <time>2011-08-14T09:52:59Z</time>
      </trkpt>
      <trkpt lat="44.42043" lon="4.3127">
        <ele>114</ele>
        <time>2011-08-14T09:53:03Z</time>
      </trkpt>
      <trkpt lat="44.42054" lon="4.31295">
        <ele>115</ele>
        <time>2011-08-14T09:53:10Z</time>
      </trkpt>
      <trkpt lat="44.42068" lon="4.31325">
        <ele>114</ele>
        <time>2011-08-14T09:53:17Z</time>
      </trkpt>
      <trkpt lat="44.42078" lon="4.31346">
        <ele>118</ele>
        <time>2011-08-14T09:53:23Z</time>
      </trkpt>
      <trkpt lat="44.42079" lon="4.31346">
        <ele>118</ele>
        <time>2011-08-14T09:53:27Z</time>
      </trkpt>
      <trkpt lat="44.42079" lon="4.31349">
        <ele>119</ele>
        <time>2011-08-14T09:53:30Z</time>
      </trkpt>
      <trkpt lat="44.42084" lon="4.31362">
        <ele>112</ele>
        <time>2011-08-14T09:53:39Z</time>
      </trkpt>
      <trkpt lat="44.4209" lon="4.31373">
        <ele>113</ele>
        <time>2011-08-14T09:53:47Z</time>
      </trkpt>
      <trkpt lat="44.42096" lon="4.3138">
        <ele>113</ele>
        <time>2011-08-14T09:53:53Z</time>
      </trkpt>
      <trkpt lat="44.42101" lon="4.31382">
        <ele>113</ele>
        <time>2011-08-14T09:53:58Z</time>
      </trkpt>
      <trkpt lat="44.42099" lon="4.31381">
        <ele>113</ele>
        <time>2011-08-14T09:54:04Z</time>
      </trkpt>
      <trkpt lat="44.42102" lon="4.31384">
        <ele>113</ele>
        <time>2011-08-14T09:54:10Z</time>
      </trkpt>
      <trkpt lat="44.42104" lon="4.3139">
        <ele>113</ele>
        <time>2011-08-14T09:54:13Z</time>
      </trkpt>
      <trkpt lat="44.42112" lon="4.31415">
        <ele>114</ele>
        <time>2011-08-14T09:54:20Z</time>
      </trkpt>
      <trkpt lat="44.42122" lon="4.31443">
        <ele>116</ele>
        <time>2011-08-14T09:54:28Z</time>
      </trkpt>
      <trkpt lat="44.42125" lon="4.31453">
        <ele>116</ele>
        <time>2011-08-14T09:54:32Z</time>
      </trkpt>
      <trkpt lat="44.42134" lon="4.31485">
        <ele>115</ele>
        <time>2011-08-14T09:54:40Z</time>
      </trkpt>
      <trkpt lat="44.42148" lon="4.31539">
        <ele>117</ele>
        <time>2011-08-14T09:54:51Z</time>
      </trkpt>
      <trkpt lat="44.42157" lon="4.31575">
        <ele>114</ele>
        <time>2011-08-14T09:54:58Z</time>
      </trkpt>
      <trkpt lat="44.42167" lon="4.31618">
        <ele>108</ele>
        <time>2011-08-14T09:55:07Z</time>
      </trkpt>
      <trkpt lat="44.42177" lon="4.31661">
        <ele>110</ele>
        <time>2011-08-14T09:55:16Z</time>
      </trkpt>
      <trkpt lat="44.42185" lon="4.31688">
        <ele>110</ele>
        <time>2011-08-14T09:55:22Z</time>
      </trkpt>
      <trkpt lat="44.42193" lon="4.31723">
        <ele>111</ele>
        <time>2011-08-14T09:55:30Z</time>
      </trkpt>
      <trkpt lat="44.422" lon="4.31749">
        <ele>111</ele>
        <time>2011-08-14T09:55:36Z</time>
      </trkpt>
      <trkpt lat="44.42209" lon="4.31782">
        <ele>110</ele>
        <time>2011-08-14T09:55:43Z</time>
      </trkpt>
      <trkpt lat="44.42218" lon="4.31813">
        <ele>109</ele>
        <time>2011-08-14T09:55:50Z</time>
      </trkpt>
      <trkpt lat="44.42226" lon="4.31842">
        <ele>108</ele>
        <time>2011-08-14T09:55:56Z</time>
      </trkpt>
      <trkpt lat="44.42233" lon="4.31869">
        <ele>109</ele>
        <time>2011-08-14T09:56:02Z</time>
      </trkpt>
      <trkpt lat="44.42238" lon="4.31884">
        <ele>109</ele>
        <time>2011-08-14T09:56:07Z</time>
      </trkpt>
      <trkpt lat="44.42246" lon="4.31907">
        <ele>108</ele>
        <time>2011-08-14T09:56:14Z</time>
      </trkpt>
      <trkpt lat="44.42248" lon="4.31937">
        <ele>109</ele>
        <time>2011-08-14T09:56:21Z</time>
      </trkpt>
      <trkpt lat="44.42251" lon="4.31965">
        <ele>108</ele>
        <time>2011-08-14T09:56:28Z</time>
      </trkpt>
      <trkpt lat="44.42258" lon="4.32">
        <ele>109</ele>
        <time>2011-08-14T09:56:36Z</time>
      </trkpt>
      <trkpt lat="44.42267" lon="4.32032">
        <ele>110</ele>
        <time>2011-08-14T09:56:44Z</time>
      </trkpt>
      <trkpt lat="44.42273" lon="4.32056">
        <ele>110</ele>
        <time>2011-08-14T09:56:51Z</time>
      </trkpt>
      <trkpt lat="44.42281" lon="4.32083">
        <ele>110</ele>
        <time>2011-08-14T09:56:58Z</time>
      </trkpt>
      <trkpt lat="44.42289" lon="4.32084">
        <ele>111</ele>
        <time>2011-08-14T09:57:04Z</time>
      </trkpt>
      <trkpt lat="44.42289" lon="4.32082">
        <ele>110</ele>
        <time>2011-08-14T09:57:05Z</time>
      </trkpt>
      <trkpt lat="44.42288" lon="4.32075">
        <ele>110</ele>
        <time>2011-08-14T09:57:08Z</time>
      </trkpt>
      <trkpt lat="44.42287" lon="4.32074">
        <ele>110</ele>
        <time>2011-08-14T09:57:17Z</time>
      </trkpt>
      <trkpt lat="44.42286" lon="4.32074">
        <ele>110</ele>
        <time>2011-08-14T09:57:37Z</time>
      </trkpt>
      <trkpt lat="44.42288" lon="4.32073">
        <ele>110</ele>
        <time>2011-08-14T09:57:45Z</time>
      </trkpt>
      <trkpt lat="44.42286" lon="4.32074">
        <ele>110</ele>
        <time>2011-08-14T09:58:16Z</time>
      </trkpt>
      <trkpt lat="44.42287" lon="4.32075">
        <ele>110</ele>
        <time>2011-08-14T09:58:22Z</time>
      </trkpt>
      <trkpt lat="44.42287" lon="4.32074">
        <ele>110</ele>
        <time>2011-08-14T09:58:29Z</time>
      </trkpt>
      <trkpt lat="44.42288" lon="4.32074">
        <ele>110</ele>
        <time>2011-08-14T09:58:46Z</time>
      </trkpt>
      <trkpt lat="44.42289" lon="4.32073">
        <ele>110</ele>
        <time>2011-08-14T09:58:52Z</time>
      </trkpt>
      <trkpt lat="44.42287" lon="4.3207">
        <ele>110</ele>
        <time>2011-08-14T09:59:02Z</time>
      </trkpt>
      <trkpt lat="44.42286" lon="4.32071">
        <ele>110</ele>
        <time>2011-08-14T09:59:28Z</time>
      </trkpt>
      <trkpt lat="44.42286" lon="4.32071">
        <ele>110</ele>
        <time>2011-08-14T09:59:39Z</time>
      </trkpt>
      <trkpt lat="44.42288" lon="4.32058">
        <ele>110</ele>
        <time>2011-08-14T09:59:43Z</time>
      </trkpt>
      <trkpt lat="44.42295" lon="4.32054">
        <ele>109</ele>
        <time>2011-08-14T09:59:47Z</time>
      </trkpt>
      <trkpt lat="44.42306" lon="4.32059">
        <ele>109</ele>
        <time>2011-08-14T09:59:51Z</time>
      </trkpt>
      <trkpt lat="44.42307" lon="4.32056">
        <ele>109</ele>
        <time>2011-08-14T09:59:54Z</time>
      </trkpt>
      <trkpt lat="44.42306" lon="4.32056">
        <ele>109</ele>
        <time>2011-08-14T10:00:01Z</time>
      </trkpt>
      <trkpt lat="44.42308" lon="4.32055">
        <ele>109</ele>
        <time>2011-08-14T10:01:13Z</time>
      </trkpt>
      <trkpt lat="44.42309" lon="4.32057">
        <ele>109</ele>
        <time>2011-08-14T10:01:19Z</time>
      </trkpt>
      <trkpt lat="44.4231" lon="4.32059">
        <ele>109</ele>
        <time>2011-08-14T10:01:25Z</time>
      </trkpt>
      <trkpt lat="44.42311" lon="4.3206">
        <ele>109</ele>
        <time>2011-08-14T10:01:34Z</time>
      </trkpt>
      <trkpt lat="44.42311" lon="4.3206">
        <ele>109</ele>
        <time>2011-08-14T10:01:49Z</time>
      </trkpt>
      <trkpt lat="44.42314" lon="4.32064">
        <ele>109</ele>
        <time>2011-08-14T10:01:55Z</time>
      </trkpt>
      <trkpt lat="44.42314" lon="4.32064">
        <ele>109</ele>
        <time>2011-08-14T10:02:03Z</time>
      </trkpt>
      <trkpt lat="44.42322" lon="4.32065">
        <ele>108</ele>
        <time>2011-08-14T10:02:06Z</time>
      </trkpt>
      <trkpt lat="44.4232" lon="4.32065">
        <ele>108</ele>
        <time>2011-08-14T10:02:11Z</time>
      </trkpt>
      <trkpt lat="44.42318" lon="4.32065">
        <ele>108</ele>
        <time>2011-08-14T10:02:17Z</time>
      </trkpt>
      <trkpt lat="44.42315" lon="4.32065">
        <ele>109</ele>
        <time>2011-08-14T10:02:26Z</time>
      </trkpt>
      <trkpt lat="44.42316" lon="4.32069">
        <ele>108</ele>
        <time>2011-08-14T10:02:31Z</time>
      </trkpt>
      <trkpt lat="44.42324" lon="4.32089">
        <ele>109</ele>
        <time>2011-08-14T10:02:39Z</time>
      </trkpt>
      <trkpt lat="44.42336" lon="4.32111">
        <ele>107</ele>
        <time>2011-08-14T10:02:46Z</time>
      </trkpt>
      <trkpt lat="44.42353" lon="4.32142">
        <ele>106</ele>
        <time>2011-08-14T10:02:55Z</time>
      </trkpt>
      <trkpt lat="44.42366" lon="4.32163">
        <ele>106</ele>
        <time>2011-08-14T10:03:02Z</time>
      </trkpt>
      <trkpt lat="44.42376" lon="4.32182">
        <ele>107</ele>
        <time>2011-08-14T10:03:07Z</time>
      </trkpt>
      <trkpt lat="44.42395" lon="4.32213">
        <ele>107</ele>
        <time>2011-08-14T10:03:14Z</time>
      </trkpt>
      <trkpt lat="44.42398" lon="4.32218">
        <ele>107</ele>
        <time>2011-08-14T10:03:15Z</time>
      </trkpt>
      <trkpt lat="44.42411" lon="4.32239">
        <ele>108</ele>
        <time>2011-08-14T10:03:19Z</time>
      </trkpt>
      <trkpt lat="44.42421" lon="4.32256">
        <ele>108</ele>
        <time>2011-08-14T10:03:22Z</time>
      </trkpt>
      <trkpt lat="44.42443" lon="4.32297">
        <ele>108</ele>
        <time>2011-08-14T10:03:29Z</time>
      </trkpt>
      <trkpt lat="44.42451" lon="4.3231">
        <ele>108</ele>
        <time>2011-08-14T10:03:31Z</time>
      </trkpt>
      <trkpt lat="44.42471" lon="4.32346">
        <ele>108</ele>
        <time>2011-08-14T10:03:37Z</time>
      </trkpt>
      <trkpt lat="44.4249" lon="4.32378">
        <ele>108</ele>
        <time>2011-08-14T10:03:43Z</time>
      </trkpt>
      <trkpt lat="44.42516" lon="4.32421">
        <ele>105</ele>
        <time>2011-08-14T10:03:51Z</time>
      </trkpt>
      <trkpt lat="44.42521" lon="4.32431">
        <ele>104</ele>
        <time>2011-08-14T10:03:53Z</time>
      </trkpt>
      <trkpt lat="44.42527" lon="4.3244">
        <ele>103</ele>
        <time>2011-08-14T10:03:55Z</time>
      </trkpt>
      <trkpt lat="44.42549" lon="4.32479">
        <ele>101</ele>
        <time>2011-08-14T10:04:03Z</time>
      </trkpt>
      <trkpt lat="44.42571" lon="4.32517">
        <ele>97</ele>
        <time>2011-08-14T10:04:11Z</time>
      </trkpt>
      <trkpt lat="44.42582" lon="4.32535">
        <ele>97</ele>
        <time>2011-08-14T10:04:15Z</time>
      </trkpt>
      <trkpt lat="44.42605" lon="4.32577">
        <ele>97</ele>
        <time>2011-08-14T10:04:24Z</time>
      </trkpt>
      <trkpt lat="44.42624" lon="4.3261">
        <ele>99</ele>
        <time>2011-08-14T10:04:31Z</time>
      </trkpt>
      <trkpt lat="44.42641" lon="4.32639">
        <ele>101</ele>
        <time>2011-08-14T10:04:37Z</time>
      </trkpt>
      <trkpt lat="44.42646" lon="4.32643">
        <ele>101</ele>
        <time>2011-08-14T10:04:41Z</time>
      </trkpt>
      <trkpt lat="44.42645" lon="4.32643">
        <ele>101</ele>
        <time>2011-08-14T10:04:50Z</time>
      </trkpt>
      <trkpt lat="44.42645" lon="4.32643">
        <ele>101</ele>
        <time>2011-08-14T10:04:57Z</time>
      </trkpt>
      <trkpt lat="44.42644" lon="4.32643">
        <ele>101</ele>
        <time>2011-08-14T10:05:06Z</time>
      </trkpt>
      <trkpt lat="44.42644" lon="4.32643">
        <ele>101</ele>
        <time>2011-08-14T10:05:15Z</time>
      </trkpt>
      <trkpt lat="44.42642" lon="4.32643">
        <ele>101</ele>
        <time>2011-08-14T10:05:21Z</time>
      </trkpt>
      <trkpt lat="44.4264" lon="4.3264">
        <ele>101</ele>
        <time>2011-08-14T10:05:24Z</time>
      </trkpt>
      <trkpt lat="44.42627" lon="4.32618">
        <ele>100</ele>
        <time>2011-08-14T10:05:30Z</time>
      </trkpt>
      <trkpt lat="44.42605" lon="4.32581">
        <ele>97</ele>
        <time>2011-08-14T10:05:37Z</time>
      </trkpt>
      <trkpt lat="44.42579" lon="4.32534">
        <ele>97</ele>
        <time>2011-08-14T10:05:45Z</time>
      </trkpt>
      <trkpt lat="44.42544" lon="4.32475">
        <ele>101</ele>
        <time>2011-08-14T10:05:55Z</time>
      </trkpt>
      <trkpt lat="44.42521" lon="4.32435">
        <ele>104</ele>
        <time>2011-08-14T10:06:02Z</time>
      </trkpt>
      <trkpt lat="44.425" lon="4.32398">
        <ele>107</ele>
        <time>2011-08-14T10:06:08Z</time>
      </trkpt>
      <trkpt lat="44.42482" lon="4.32365">
        <ele>108</ele>
        <time>2011-08-14T10:06:13Z</time>
      </trkpt>
      <trkpt lat="44.4245" lon="4.3231">
        <ele>108</ele>
        <time>2011-08-14T10:06:21Z</time>
      </trkpt>
      <trkpt lat="44.42423" lon="4.32263">
        <ele>108</ele>
        <time>2011-08-14T10:06:28Z</time>
      </trkpt>
      <trkpt lat="44.42399" lon="4.32221">
        <ele>107</ele>
        <time>2011-08-14T10:06:35Z</time>
      </trkpt>
      <trkpt lat="44.42393" lon="4.3221">
        <ele>107</ele>
        <time>2011-08-14T10:06:38Z</time>
      </trkpt>
      <trkpt lat="44.42389" lon="4.32206">
        <ele>107</ele>
        <time>2011-08-14T10:06:43Z</time>
      </trkpt>
      <trkpt lat="44.42389" lon="4.32205">
        <ele>107</ele>
        <time>2011-08-14T10:06:57Z</time>
      </trkpt>
      <trkpt lat="44.42389" lon="4.32203">
        <ele>107</ele>
        <time>2011-08-14T10:07:01Z</time>
      </trkpt>
      <trkpt lat="44.42387" lon="4.32203">
        <ele>107</ele>
        <time>2011-08-14T10:07:07Z</time>
      </trkpt>
      <trkpt lat="44.42386" lon="4.32202">
        <ele>107</ele>
        <time>2011-08-14T10:07:20Z</time>
      </trkpt>
      <trkpt lat="44.42389" lon="4.32203">
        <ele>107</ele>
        <time>2011-08-14T10:07:29Z</time>
      </trkpt>
      <trkpt lat="44.4239" lon="4.32202">
        <ele>107</ele>
        <time>2011-08-14T10:07:37Z</time>
      </trkpt>
      <trkpt lat="44.4239" lon="4.32201">
        <ele>107</ele>
        <time>2011-08-14T10:07:45Z</time>
      </trkpt>
      <trkpt lat="44.42388" lon="4.32201">
        <ele>107</ele>
        <time>2011-08-14T10:07:52Z</time>
      </trkpt>
      <trkpt lat="44.42388" lon="4.32199">
        <ele>107</ele>
        <time>2011-08-14T10:08:03Z</time>
      </trkpt>
      <trkpt lat="44.42389" lon="4.322">
        <ele>107</ele>
        <time>2011-08-14T10:08:10Z</time>
      </trkpt>
      <trkpt lat="44.42389" lon="4.32199">
        <ele>107</ele>
        <time>2011-08-14T10:08:15Z</time>
      </trkpt>
      <trkpt lat="44.42386" lon="4.32199">
        <ele>107</ele>
        <time>2011-08-14T10:08:30Z</time>
      </trkpt>
      <trkpt lat="44.42387" lon="4.322">
        <ele>107</ele>
        <time>2011-08-14T10:08:41Z</time>
      </trkpt>
      <trkpt lat="44.42388" lon="4.32201">
        <ele>107</ele>
        <time>2011-08-14T10:08:52Z</time>
      </trkpt>
      <trkpt lat="44.42388" lon="4.32201">
        <ele>107</ele>
        <time>2011-08-14T10:09:03Z</time>
      </trkpt>
      <trkpt lat="44.42389" lon="4.32201">
        <ele>107</ele>
        <time>2011-08-14T10:09:25Z</time>
      </trkpt>
      <trkpt lat="44.42391" lon="4.322">
        <ele>107</ele>
        <time>2011-08-14T10:09:37Z</time>
      </trkpt>
      <trkpt lat="44.42389" lon="4.32201">
        <ele>107</ele>
        <time>2011-08-14T10:10:05Z</time>
      </trkpt>
      <trkpt lat="44.42388" lon="4.32202">
        <ele>107</ele>
        <time>2011-08-14T10:10:17Z</time>
      </trkpt>
      <trkpt lat="44.42387" lon="4.32203">
        <ele>107</ele>
        <time>2011-08-14T10:10:47Z</time>
      </trkpt>
      <trkpt lat="44.42387" lon="4.32203">
        <ele>107</ele>
        <time>2011-08-14T10:11:06Z</time>
      </trkpt>
      <trkpt lat="44.42387" lon="4.322">
        <ele>107</ele>
        <time>2011-08-14T10:11:29Z</time>
      </trkpt>
      <trkpt lat="44.42387" lon="4.322">
        <ele>107</ele>
        <time>2011-08-14T10:11:39Z</time>
      </trkpt>
      <trkpt lat="44.42388" lon="4.32202">
        <ele>107</ele>
        <time>2011-08-14T10:12:03Z</time>
      </trkpt>
      <trkpt lat="44.42389" lon="4.32201">
        <ele>107</ele>
        <time>2011-08-14T10:12:13Z</time>
      </trkpt>
      <trkpt lat="44.4239" lon="4.32204">
        <ele>107</ele>
        <time>2011-08-14T10:12:19Z</time>
      </trkpt>
      <trkpt lat="44.42394" lon="4.32204">
        <ele>107</ele>
        <time>2011-08-14T10:12:24Z</time>
      </trkpt>
      <trkpt lat="44.42393" lon="4.32204">
        <ele>107</ele>
        <time>2011-08-14T10:12:30Z</time>
      </trkpt>
      <trkpt lat="44.42391" lon="4.32204">
        <ele>107</ele>
        <time>2011-08-14T10:12:40Z</time>
      </trkpt>
      <trkpt lat="44.42391" lon="4.32208">
        <ele>107</ele>
        <time>2011-08-14T10:12:45Z</time>
      </trkpt>
      <trkpt lat="44.42392" lon="4.3221">
        <ele>107</ele>
        <time>2011-08-14T10:12:46Z</time>
      </trkpt>
      <trkpt lat="44.42407" lon="4.32235">
        <ele>108</ele>
        <time>2011-08-14T10:12:53Z</time>
      </trkpt>
      <trkpt lat="44.42423" lon="4.32263">
        <ele>108</ele>
        <time>2011-08-14T10:12:59Z</time>
      </trkpt>
      <trkpt lat="44.42428" lon="4.32272">
        <ele>108</ele>
        <time>2011-08-14T10:13:01Z</time>
      </trkpt>
      <trkpt lat="44.42439" lon="4.32291">
        <ele>108</ele>
        <time>2011-08-14T10:13:05Z</time>
      </trkpt>
      <trkpt lat="44.42445" lon="4.323">
        <ele>108</ele>
        <time>2011-08-14T10:13:07Z</time>
      </trkpt>
      <trkpt lat="44.42463" lon="4.32332">
        <ele>107</ele>
        <time>2011-08-14T10:13:15Z</time>
      </trkpt>
      <trkpt lat="44.42483" lon="4.32365">
        <ele>108</ele>
        <time>2011-08-14T10:13:24Z</time>
      </trkpt>
      <trkpt lat="44.42505" lon="4.32404">
        <ele>107</ele>
        <time>2011-08-14T10:13:34Z</time>
      </trkpt>
      <trkpt lat="44.42523" lon="4.32434">
        <ele>104</ele>
        <time>2011-08-14T10:13:42Z</time>
      </trkpt>
      <trkpt lat="44.42539" lon="4.32463">
        <ele>102</ele>
        <time>2011-08-14T10:13:50Z</time>
      </trkpt>
      <trkpt lat="44.42554" lon="4.32488">
        <ele>100</ele>
        <time>2011-08-14T10:13:57Z</time>
      </trkpt>
      <trkpt lat="44.42568" lon="4.32511">
        <ele>97</ele>
        <time>2011-08-14T10:14:03Z</time>
      </trkpt>
      <trkpt lat="44.42584" lon="4.32539">
        <ele>96</ele>
        <time>2011-08-14T10:14:10Z</time>
      </trkpt>
      <trkpt lat="44.42602" lon="4.32569">
        <ele>97</ele>
        <time>2011-08-14T10:14:18Z</time>
      </trkpt>
      <trkpt lat="44.42616" lon="4.32594">
        <ele>99</ele>
        <time>2011-08-14T10:14:25Z</time>
      </trkpt>
      <trkpt lat="44.42629" lon="4.32618">
        <ele>100</ele>
        <time>2011-08-14T10:14:32Z</time>
      </trkpt>
      <trkpt lat="44.42645" lon="4.32646">
        <ele>101</ele>
        <time>2011-08-14T10:14:40Z</time>
      </trkpt>
      <trkpt lat="44.4266" lon="4.32672">
        <ele>104</ele>
        <time>2011-08-14T10:14:47Z</time>
      </trkpt>
      <trkpt lat="44.42675" lon="4.32698">
        <ele>106</ele>
        <time>2011-08-14T10:14:54Z</time>
      </trkpt>
      <trkpt lat="44.42687" lon="4.32717">
        <ele>107</ele>
        <time>2011-08-14T10:14:59Z</time>
      </trkpt>
      <trkpt lat="44.427" lon="4.3274">
        <ele>107</ele>
        <time>2011-08-14T10:15:05Z</time>
      </trkpt>
      <trkpt lat="44.42711" lon="4.32759">
        <ele>108</ele>
        <time>2011-08-14T10:15:10Z</time>
      </trkpt>
      <trkpt lat="44.4273" lon="4.32792">
        <ele>107</ele>
        <time>2011-08-14T10:15:18Z</time>
      </trkpt>
      <trkpt lat="44.42745" lon="4.32816">
        <ele>107</ele>
        <time>2011-08-14T10:15:24Z</time>
      </trkpt>
      <trkpt lat="44.42757" lon="4.32836">
        <ele>107</ele>
        <time>2011-08-14T10:15:29Z</time>
      </trkpt>
      <trkpt lat="44.42776" lon="4.32869">
        <ele>107</ele>
        <time>2011-08-14T10:15:37Z</time>
      </trkpt>
      <trkpt lat="44.42789" lon="4.32893">
        <ele>107</ele>
        <time>2011-08-14T10:15:43Z</time>
      </trkpt>
      <trkpt lat="44.42807" lon="4.32924">
        <ele>106</ele>
        <time>2011-08-14T10:15:50Z</time>
      </trkpt>
      <trkpt lat="44.4283" lon="4.32961">
        <ele>106</ele>
        <time>2011-08-14T10:15:59Z</time>
      </trkpt>
      <trkpt lat="44.42854" lon="4.32995">
        <ele>108</ele>
        <time>2011-08-14T10:16:08Z</time>
      </trkpt>
      <trkpt lat="44.42876" lon="4.33026">
        <ele>110</ele>
        <time>2011-08-14T10:16:16Z</time>
      </trkpt>
      <trkpt lat="44.42901" lon="4.3306">
        <ele>111</ele>
        <time>2011-08-14T10:16:25Z</time>
      </trkpt>
      <trkpt lat="44.42916" lon="4.33085">
        <ele>112</ele>
        <time>2011-08-14T10:16:33Z</time>
      </trkpt>
      <trkpt lat="44.42919" lon="4.3309">
        <ele>112</ele>
        <time>2011-08-14T10:16:35Z</time>
      </trkpt>
      <trkpt lat="44.42929" lon="4.33095">
        <ele>113</ele>
        <time>2011-08-14T10:16:41Z</time>
      </trkpt>
      <trkpt lat="44.42934" lon="4.33102">
        <ele>113</ele>
        <time>2011-08-14T10:16:45Z</time>
      </trkpt>
      <trkpt lat="44.42934" lon="4.33101">
        <ele>113</ele>
        <time>2011-08-14T10:16:54Z</time>
      </trkpt>
      <trkpt lat="44.42934" lon="4.33103">
        <ele>113</ele>
        <time>2011-08-14T10:17:05Z</time>
      </trkpt>
      <trkpt lat="44.42936" lon="4.33106">
        <ele>113</ele>
        <time>2011-08-14T10:17:09Z</time>
      </trkpt>
      <trkpt lat="44.42942" lon="4.33115">
        <ele>113</ele>
        <time>2011-08-14T10:17:13Z</time>
      </trkpt>
      <trkpt lat="44.42966" lon="4.33142">
        <ele>114</ele>
        <time>2011-08-14T10:17:20Z</time>
      </trkpt>
      <trkpt lat="44.42975" lon="4.33153">
        <ele>114</ele>
        <time>2011-08-14T10:17:23Z</time>
      </trkpt>
      <trkpt lat="44.42983" lon="4.33162">
        <ele>114</ele>
        <time>2011-08-14T10:17:28Z</time>
      </trkpt>
      <trkpt lat="44.43" lon="4.33183">
        <ele>115</ele>
        <time>2011-08-14T10:17:37Z</time>
      </trkpt>
      <trkpt lat="44.43013" lon="4.33198">
        <ele>116</ele>
        <time>2011-08-14T10:17:42Z</time>
      </trkpt>
      <trkpt lat="44.43033" lon="4.33221">
        <ele>116</ele>
        <time>2011-08-14T10:17:47Z</time>
      </trkpt>
      <trkpt lat="44.43061" lon="4.33253">
        <ele>115</ele>
        <time>2011-08-14T10:17:53Z</time>
      </trkpt>
      <trkpt lat="44.43088" lon="4.33285">
        <ele>115</ele>
        <time>2011-08-14T10:17:59Z</time>
      </trkpt>
      <trkpt lat="44.43136" lon="4.33339">
        <ele>114</ele>
        <time>2011-08-14T10:18:09Z</time>
      </trkpt>
      <trkpt lat="44.43167" lon="4.33375">
        <ele>114</ele>
        <time>2011-08-14T10:18:16Z</time>
      </trkpt>
      <trkpt lat="44.43193" lon="4.33403">
        <ele>115</ele>
        <time>2011-08-14T10:18:22Z</time>
      </trkpt>
      <trkpt lat="44.43225" lon="4.3344">
        <ele>114</ele>
        <time>2011-08-14T10:18:30Z</time>
      </trkpt>
      <trkpt lat="44.43262" lon="4.33483">
        <ele>114</ele>
        <time>2011-08-14T10:18:39Z</time>
      </trkpt>
      <trkpt lat="44.43294" lon="4.33521">
        <ele>114</ele>
        <time>2011-08-14T10:18:47Z</time>
      </trkpt>
      <trkpt lat="44.43335" lon="4.33569">
        <ele>116</ele>
        <time>2011-08-14T10:18:57Z</time>
      </trkpt>
      <trkpt lat="44.43376" lon="4.33616">
        <ele>115</ele>
        <time>2011-08-14T10:19:07Z</time>
      </trkpt>
      <trkpt lat="44.43408" lon="4.33653">
        <ele>115</ele>
        <time>2011-08-14T10:19:15Z</time>
      </trkpt>
      <trkpt lat="44.43444" lon="4.33694">
        <ele>115</ele>
        <time>2011-08-14T10:19:24Z</time>
      </trkpt>
      <trkpt lat="44.43473" lon="4.33728">
        <ele>116</ele>
        <time>2011-08-14T10:19:31Z</time>
      </trkpt>
      <trkpt lat="44.43506" lon="4.33766">
        <ele>117</ele>
        <time>2011-08-14T10:19:39Z</time>
      </trkpt>
      <trkpt lat="44.4351" lon="4.33771">
        <ele>117</ele>
        <time>2011-08-14T10:19:40Z</time>
      </trkpt>
      <trkpt lat="44.43537" lon="4.33803">
        <ele>117</ele>
        <time>2011-08-14T10:19:47Z</time>
      </trkpt>
      <trkpt lat="44.4356" lon="4.33831">
        <ele>117</ele>
        <time>2011-08-14T10:19:53Z</time>
      </trkpt>
      <trkpt lat="44.43596" lon="4.33873">
        <ele>116</ele>
        <time>2011-08-14T10:20:02Z</time>
      </trkpt>
      <trkpt lat="44.43606" lon="4.33883">
        <ele>116</ele>
        <time>2011-08-14T10:20:05Z</time>
      </trkpt>
      <trkpt lat="44.43619" lon="4.33898">
        <ele>115</ele>
        <time>2011-08-14T10:20:11Z</time>
      </trkpt>
      <trkpt lat="44.43621" lon="4.33901">
        <ele>115</ele>
        <time>2011-08-14T10:20:15Z</time>
      </trkpt>
      <trkpt lat="44.43619" lon="4.33901">
        <ele>115</ele>
        <time>2011-08-14T10:20:21Z</time>
      </trkpt>
      <trkpt lat="44.43619" lon="4.339">
        <ele>115</ele>
        <time>2011-08-14T10:20:26Z</time>
      </trkpt>
      <trkpt lat="44.43618" lon="4.339">
        <ele>115</ele>
        <time>2011-08-14T10:20:36Z</time>
      </trkpt>
      <trkpt lat="44.43617" lon="4.339">
        <ele>115</ele>
        <time>2011-08-14T10:20:49Z</time>
      </trkpt>
      <trkpt lat="44.43618" lon="4.33901">
        <ele>115</ele>
        <time>2011-08-14T10:20:56Z</time>
      </trkpt>
      <trkpt lat="44.43618" lon="4.33901">
        <ele>115</ele>
        <time>2011-08-14T10:21:10Z</time>
      </trkpt>
      <trkpt lat="44.43617" lon="4.339">
        <ele>115</ele>
        <time>2011-08-14T10:21:33Z</time>
      </trkpt>
      <trkpt lat="44.43616" lon="4.339">
        <ele>115</ele>
        <time>2011-08-14T10:21:49Z</time>
      </trkpt>
      <trkpt lat="44.43614" lon="4.33903">
        <ele>115</ele>
        <time>2011-08-14T10:21:55Z</time>
      </trkpt>
      <trkpt lat="44.43614" lon="4.33903">
        <ele>115</ele>
        <time>2011-08-14T10:22:00Z</time>
      </trkpt>
      <trkpt lat="44.43615" lon="4.33903">
        <ele>115</ele>
        <time>2011-08-14T10:22:08Z</time>
      </trkpt>
      <trkpt lat="44.43615" lon="4.33903">
        <ele>115</ele>
        <time>2011-08-14T10:22:14Z</time>
      </trkpt>
      <trkpt lat="44.43615" lon="4.33901">
        <ele>115</ele>
        <time>2011-08-14T10:22:27Z</time>
      </trkpt>
      <trkpt lat="44.43614" lon="4.33901">
        <ele>115</ele>
        <time>2011-08-14T10:22:37Z</time>
      </trkpt>
      <trkpt lat="44.43614" lon="4.33901">
        <ele>115</ele>
        <time>2011-08-14T10:22:47Z</time>
      </trkpt>
      <trkpt lat="44.43614" lon="4.33901">
        <ele>115</ele>
        <time>2011-08-14T10:22:58Z</time>
      </trkpt>
      <trkpt lat="44.43613" lon="4.33899">
        <ele>115</ele>
        <time>2011-08-14T10:23:05Z</time>
      </trkpt>
      <trkpt lat="44.43612" lon="4.339">
        <ele>115</ele>
        <time>2011-08-14T10:23:14Z</time>
      </trkpt>
      <trkpt lat="44.43612" lon="4.339">
        <ele>115</ele>
        <time>2011-08-14T10:23:18Z</time>
      </trkpt>
      <trkpt lat="44.43615" lon="4.33901">
        <ele>115</ele>
        <time>2011-08-14T10:23:50Z</time>
      </trkpt>
      <trkpt lat="44.43615" lon="4.33902">
        <ele>115</ele>
        <time>2011-08-14T10:23:57Z</time>
      </trkpt>
      <trkpt lat="44.43615" lon="4.33902">
        <ele>115</ele>
        <time>2011-08-14T10:24:04Z</time>
      </trkpt>
      <trkpt lat="44.43614" lon="4.33903">
        <ele>115</ele>
        <time>2011-08-14T10:24:10Z</time>
      </trkpt>
      <trkpt lat="44.43613" lon="4.33904">
        <ele>115</ele>
        <time>2011-08-14T10:24:12Z</time>
      </trkpt>
      <trkpt lat="44.43611" lon="4.3392">
        <ele>115</ele>
        <time>2011-08-14T10:24:18Z</time>
      </trkpt>
      <trkpt lat="44.43615" lon="4.3395">
        <ele>115</ele>
        <time>2011-08-14T10:24:25Z</time>
      </trkpt>
      <trkpt lat="44.43622" lon="4.33988">
        <ele>115</ele>
        <time>2011-08-14T10:24:34Z</time>
      </trkpt>
      <trkpt lat="44.43622" lon="4.34015">
        <ele>117</ele>
        <time>2011-08-14T10:24:41Z</time>
      </trkpt>
      <trkpt lat="44.43619" lon="4.34045">
        <ele>117</ele>
        <time>2011-08-14T10:24:48Z</time>
      </trkpt>
      <trkpt lat="44.4361" lon="4.34087">
        <ele>120</ele>
        <time>2011-08-14T10:24:58Z</time>
      </trkpt>
      <trkpt lat="44.43607" lon="4.34103">
        <ele>120</ele>
        <time>2011-08-14T10:25:04Z</time>
      </trkpt>
      <trkpt lat="44.43607" lon="4.34107">
        <ele>121</ele>
        <time>2011-08-14T10:25:10Z</time>
      </trkpt>
      <trkpt lat="44.43605" lon="4.34113">
        <ele>121</ele>
        <time>2011-08-14T10:25:15Z</time>
      </trkpt>
      <trkpt lat="44.43604" lon="4.34119">
        <ele>121</ele>
        <time>2011-08-14T10:25:21Z</time>
      </trkpt>
      <trkpt lat="44.43602" lon="4.34127">
        <ele>122</ele>
        <time>2011-08-14T10:25:24Z</time>
      </trkpt>
      <trkpt lat="44.43593" lon="4.34142">
        <ele>123</ele>
        <time>2011-08-14T10:25:28Z</time>
      </trkpt>
      <trkpt lat="44.43581" lon="4.34157">
        <ele>123</ele>
        <time>2011-08-14T10:25:34Z</time>
      </trkpt>
      <trkpt lat="44.43565" lon="4.34176">
        <ele>126</ele>
        <time>2011-08-14T10:25:42Z</time>
      </trkpt>
      <trkpt lat="44.43552" lon="4.34196">
        <ele>126</ele>
        <time>2011-08-14T10:25:49Z</time>
      </trkpt>
      <trkpt lat="44.43534" lon="4.34217">
        <ele>126</ele>
        <time>2011-08-14T10:25:57Z</time>
      </trkpt>
      <trkpt lat="44.43517" lon="4.34237">
        <ele>126</ele>
        <time>2011-08-14T10:26:04Z</time>
      </trkpt>
      <trkpt lat="44.43501" lon="4.34251">
        <ele>124</ele>
        <time>2011-08-14T10:26:10Z</time>
      </trkpt>
      <trkpt lat="44.43497" lon="4.34255">
        <ele>123</ele>
        <time>2011-08-14T10:26:12Z</time>
      </trkpt>
      <trkpt lat="44.43497" lon="4.34265">
        <ele>122</ele>
        <time>2011-08-14T10:26:16Z</time>
      </trkpt>
      <trkpt lat="44.43498" lon="4.34267">
        <ele>122</ele>
        <time>2011-08-14T10:26:18Z</time>
      </trkpt>
      <trkpt lat="44.43503" lon="4.34261">
        <ele>128</ele>
        <time>2011-08-14T10:26:24Z</time>
      </trkpt>
      <trkpt lat="44.43505" lon="4.34259">
        <ele>127</ele>
        <time>2011-08-14T10:26:25Z</time>
      </trkpt>
      <trkpt lat="44.43519" lon="4.34238">
        <ele>126</ele>
        <time>2011-08-14T10:26:32Z</time>
      </trkpt>
      <trkpt lat="44.43533" lon="4.3422">
        <ele>126</ele>
        <time>2011-08-14T10:26:38Z</time>
      </trkpt>
      <trkpt lat="44.43546" lon="4.34202">
        <ele>126</ele>
        <time>2011-08-14T10:26:44Z</time>
      </trkpt>
      <trkpt lat="44.43557" lon="4.34185">
        <ele>126</ele>
        <time>2011-08-14T10:26:49Z</time>
      </trkpt>
      <trkpt lat="44.43575" lon="4.34169">
        <ele>126</ele>
        <time>2011-08-14T10:26:56Z</time>
      </trkpt>
      <trkpt lat="44.43589" lon="4.34166">
        <ele>125</ele>
        <time>2011-08-14T10:27:00Z</time>
      </trkpt>
      <trkpt lat="44.43607" lon="4.34155">
        <ele>123</ele>
        <time>2011-08-14T10:27:06Z</time>
      </trkpt>
      <trkpt lat="44.43624" lon="4.34144">
        <ele>123</ele>
        <time>2011-08-14T10:27:12Z</time>
      </trkpt>
      <trkpt lat="44.43628" lon="4.34145">
        <ele>123</ele>
        <time>2011-08-14T10:27:14Z</time>
      </trkpt>
      <trkpt lat="44.43628" lon="4.34155">
        <ele>123</ele>
        <time>2011-08-14T10:27:18Z</time>
      </trkpt>
      <trkpt lat="44.43623" lon="4.34168">
        <ele>129</ele>
        <time>2011-08-14T10:27:25Z</time>
      </trkpt>
      <trkpt lat="44.4362" lon="4.34176">
        <ele>129</ele>
        <time>2011-08-14T10:27:31Z</time>
      </trkpt>
      <trkpt lat="44.43617" lon="4.34184">
        <ele>129</ele>
        <time>2011-08-14T10:27:38Z</time>
      </trkpt>
      <trkpt lat="44.43616" lon="4.34193">
        <ele>130</ele>
        <time>2011-08-14T10:27:45Z</time>
      </trkpt>
      <trkpt lat="44.43612" lon="4.34204">
        <ele>130</ele>
        <time>2011-08-14T10:27:53Z</time>
      </trkpt>
      <trkpt lat="44.4361" lon="4.34211">
        <ele>131</ele>
        <time>2011-08-14T10:28:00Z</time>
      </trkpt>
      <trkpt lat="44.43607" lon="4.34221">
        <ele>132</ele>
        <time>2011-08-14T10:28:08Z</time>
      </trkpt>
      <trkpt lat="44.43602" lon="4.34233">
        <ele>133</ele>
        <time>2011-08-14T10:28:17Z</time>
      </trkpt>
      <trkpt lat="44.43602" lon="4.34236">
        <ele>133</ele>
        <time>2011-08-14T10:28:19Z</time>
      </trkpt>
      <trkpt lat="44.43601" lon="4.3424">
        <ele>134</ele>
        <time>2011-08-14T10:28:26Z</time>
      </trkpt>
      <trkpt lat="44.43598" lon="4.34254">
        <ele>138</ele>
        <time>2011-08-14T10:28:32Z</time>
      </trkpt>
      <trkpt lat="44.43593" lon="4.34269">
        <ele>138</ele>
        <time>2011-08-14T10:28:38Z</time>
      </trkpt>
      <trkpt lat="44.43587" lon="4.34285">
        <ele>138</ele>
        <time>2011-08-14T10:28:44Z</time>
      </trkpt>
      <trkpt lat="44.43583" lon="4.34299">
        <ele>137</ele>
        <time>2011-08-14T10:28:50Z</time>
      </trkpt>
      <trkpt lat="44.43574" lon="4.34314">
        <ele>138</ele>
        <time>2011-08-14T10:28:57Z</time>
      </trkpt>
      <trkpt lat="44.43564" lon="4.34334">
        <ele>141</ele>
        <time>2011-08-14T10:29:05Z</time>
      </trkpt>
      <trkpt lat="44.43558" lon="4.34361">
        <ele>140</ele>
        <time>2011-08-14T10:29:15Z</time>
      </trkpt>
      <trkpt lat="44.43555" lon="4.34387">
        <ele>141</ele>
        <time>2011-08-14T10:29:24Z</time>
      </trkpt>
      <trkpt lat="44.43553" lon="4.34415">
        <ele>142</ele>
        <time>2011-08-14T10:29:33Z</time>
      </trkpt>
      <trkpt lat="44.43553" lon="4.34437">
        <ele>145</ele>
        <time>2011-08-14T10:29:40Z</time>
      </trkpt>
      <trkpt lat="44.43554" lon="4.34461">
        <ele>145</ele>
        <time>2011-08-14T10:29:48Z</time>
      </trkpt>
      <trkpt lat="44.43556" lon="4.34478">
        <ele>146</ele>
        <time>2011-08-14T10:29:55Z</time>
      </trkpt>
      <trkpt lat="44.43559" lon="4.34496">
        <ele>148</ele>
        <time>2011-08-14T10:30:02Z</time>
      </trkpt>
      <trkpt lat="44.43564" lon="4.34512">
        <ele>150</ele>
        <time>2011-08-14T10:30:09Z</time>
      </trkpt>
      <trkpt lat="44.43571" lon="4.34525">
        <ele>149</ele>
        <time>2011-08-14T10:30:16Z</time>
      </trkpt>
      <trkpt lat="44.43576" lon="4.34537">
        <ele>149</ele>
        <time>2011-08-14T10:30:22Z</time>
      </trkpt>
      <trkpt lat="44.43586" lon="4.34556">
        <ele>159</ele>
        <time>2011-08-14T10:30:31Z</time>
      </trkpt>
      <trkpt lat="44.43592" lon="4.3457">
        <ele>159</ele>
        <time>2011-08-14T10:30:38Z</time>
      </trkpt>
      <trkpt lat="44.43596" lon="4.34585">
        <ele>161</ele>
        <time>2011-08-14T10:30:45Z</time>
      </trkpt>
      <trkpt lat="44.43603" lon="4.34603">
        <ele>162</ele>
        <time>2011-08-14T10:30:53Z</time>
      </trkpt>
      <trkpt lat="44.43607" lon="4.3462">
        <ele>163</ele>
        <time>2011-08-14T10:31:01Z</time>
      </trkpt>
      <trkpt lat="44.43608" lon="4.34633">
        <ele>163</ele>
        <time>2011-08-14T10:31:07Z</time>
      </trkpt>
      <trkpt lat="44.43612" lon="4.34652">
        <ele>164</ele>
        <time>2011-08-14T10:31:15Z</time>
      </trkpt>
      <trkpt lat="44.43616" lon="4.34671">
        <ele>167</ele>
        <time>2011-08-14T10:31:23Z</time>
      </trkpt>
      <trkpt lat="44.43618" lon="4.3469">
        <ele>168</ele>
        <time>2011-08-14T10:31:31Z</time>
      </trkpt>
      <trkpt lat="44.43624" lon="4.34712">
        <ele>169</ele>
        <time>2011-08-14T10:31:40Z</time>
      </trkpt>
      <trkpt lat="44.43628" lon="4.34732">
        <ele>170</ele>
        <time>2011-08-14T10:31:48Z</time>
      </trkpt>
      <trkpt lat="44.43635" lon="4.34754">
        <ele>175</ele>
        <time>2011-08-14T10:31:56Z</time>
      </trkpt>
      <trkpt lat="44.43644" lon="4.34778">
        <ele>176</ele>
        <time>2011-08-14T10:32:04Z</time>
      </trkpt>
      <trkpt lat="44.43653" lon="4.34801">
        <ele>178</ele>
        <time>2011-08-14T10:32:12Z</time>
      </trkpt>
      <trkpt lat="44.43658" lon="4.34823">
        <ele>183</ele>
        <time>2011-08-14T10:32:20Z</time>
      </trkpt>
      <trkpt lat="44.43667" lon="4.34853">
        <ele>188</ele>
        <time>2011-08-14T10:32:30Z</time>
      </trkpt>
      <trkpt lat="44.43679" lon="4.34876">
        <ele>187</ele>
        <time>2011-08-14T10:32:38Z</time>
      </trkpt>
      <trkpt lat="44.4369" lon="4.34899">
        <ele>187</ele>
        <time>2011-08-14T10:32:46Z</time>
      </trkpt>
      <trkpt lat="44.43692" lon="4.34903">
        <ele>187</ele>
        <time>2011-08-14T10:32:49Z</time>
      </trkpt>
      <trkpt lat="44.43691" lon="4.34902">
        <ele>187</ele>
        <time>2011-08-14T10:32:54Z</time>
      </trkpt>
      <trkpt lat="44.43689" lon="4.34902">
        <ele>188</ele>
        <time>2011-08-14T10:33:00Z</time>
      </trkpt>
      <trkpt lat="44.4369" lon="4.34902">
        <ele>188</ele>
        <time>2011-08-14T10:33:05Z</time>
      </trkpt>
      <trkpt lat="44.43689" lon="4.34899">
        <ele>188</ele>
        <time>2011-08-14T10:33:11Z</time>
      </trkpt>
      <trkpt lat="44.43688" lon="4.34902">
        <ele>188</ele>
        <time>2011-08-14T10:33:25Z</time>
      </trkpt>
      <trkpt lat="44.43688" lon="4.34904">
        <ele>188</ele>
        <time>2011-08-14T10:33:32Z</time>
      </trkpt>
      <trkpt lat="44.43688" lon="4.34903">
        <ele>188</ele>
        <time>2011-08-14T10:33:39Z</time>
      </trkpt>
      <trkpt lat="44.43685" lon="4.34896">
        <ele>188</ele>
        <time>2011-08-14T10:33:45Z</time>
      </trkpt>
      <trkpt lat="44.43684" lon="4.34894">
        <ele>188</ele>
        <time>2011-08-14T10:33:47Z</time>
      </trkpt>
      <trkpt lat="44.43681" lon="4.34887">
        <ele>187</ele>
        <time>2011-08-14T10:33:51Z</time>
      </trkpt>
      <trkpt lat="44.43677" lon="4.3488">
        <ele>187</ele>
        <time>2011-08-14T10:33:58Z</time>
      </trkpt>
      <trkpt lat="44.43674" lon="4.34874">
        <ele>187</ele>
        <time>2011-08-14T10:34:06Z</time>
      </trkpt>
      <trkpt lat="44.43674" lon="4.34874">
        <ele>187</ele>
        <time>2011-08-14T10:34:10Z</time>
      </trkpt>
      <trkpt lat="44.43674" lon="4.34874">
        <ele>187</ele>
        <time>2011-08-14T10:34:44Z</time>
      </trkpt>
      <trkpt lat="44.43674" lon="4.34874">
        <ele>187</ele>
        <time>2011-08-14T10:36:01Z</time>
      </trkpt>
      <trkpt lat="44.43673" lon="4.34874">
        <ele>187</ele>
        <time>2011-08-14T10:36:30Z</time>
      </trkpt>
      <trkpt lat="44.43674" lon="4.34873">
        <ele>187</ele>
        <time>2011-08-14T10:36:49Z</time>
      </trkpt>
      <trkpt lat="44.43672" lon="4.3487">
        <ele>187</ele>
        <time>2011-08-14T10:38:22Z</time>
      </trkpt>
      <trkpt lat="44.43669" lon="4.34861">
        <ele>187</ele>
        <time>2011-08-14T10:38:28Z</time>
      </trkpt>
      <trkpt lat="44.43664" lon="4.34853">
        <ele>184</ele>
        <time>2011-08-14T10:38:34Z</time>
      </trkpt>
      <trkpt lat="44.4366" lon="4.34844">
        <ele>185</ele>
        <time>2011-08-14T10:38:39Z</time>
      </trkpt>
      <trkpt lat="44.43658" lon="4.34839">
        <ele>186</ele>
        <time>2011-08-14T10:38:43Z</time>
      </trkpt>
      <trkpt lat="44.43657" lon="4.34835">
        <ele>186</ele>
        <time>2011-08-14T10:38:46Z</time>
      </trkpt>
      <trkpt lat="44.43654" lon="4.3482">
        <ele>182</ele>
        <time>2011-08-14T10:38:53Z</time>
      </trkpt>
      <trkpt lat="44.43653" lon="4.34812">
        <ele>180</ele>
        <time>2011-08-14T10:38:57Z</time>
      </trkpt>
      <trkpt lat="44.43651" lon="4.34808">
        <ele>179</ele>
        <time>2011-08-14T10:39:00Z</time>
      </trkpt>
      <trkpt lat="44.43649" lon="4.34804">
        <ele>178</ele>
        <time>2011-08-14T10:39:06Z</time>
      </trkpt>
      <trkpt lat="44.43653" lon="4.34805">
        <ele>179</ele>
        <time>2011-08-14T10:39:42Z</time>
      </trkpt>
      <trkpt lat="44.43653" lon="4.34805">
        <ele>179</ele>
        <time>2011-08-14T10:39:53Z</time>
      </trkpt>
      <trkpt lat="44.43653" lon="4.34808">
        <ele>179</ele>
        <time>2011-08-14T10:39:58Z</time>
      </trkpt>
      <trkpt lat="44.43653" lon="4.34811">
        <ele>180</ele>
        <time>2011-08-14T10:40:00Z</time>
      </trkpt>
      <trkpt lat="44.43654" lon="4.34819">
        <ele>181</ele>
        <time>2011-08-14T10:40:05Z</time>
      </trkpt>
      <trkpt lat="44.43656" lon="4.34829">
        <ele>184</ele>
        <time>2011-08-14T10:40:10Z</time>
      </trkpt>
      <trkpt lat="44.43657" lon="4.34838">
        <ele>185</ele>
        <time>2011-08-14T10:40:14Z</time>
      </trkpt>
      <trkpt lat="44.43658" lon="4.34841">
        <ele>185</ele>
        <time>2011-08-14T10:40:16Z</time>
      </trkpt>
      <trkpt lat="44.43663" lon="4.34852">
        <ele>184</ele>
        <time>2011-08-14T10:40:25Z</time>
      </trkpt>
      <trkpt lat="44.43671" lon="4.34866">
        <ele>187</ele>
        <time>2011-08-14T10:40:33Z</time>
      </trkpt>
      <trkpt lat="44.43681" lon="4.34881">
        <ele>187</ele>
        <time>2011-08-14T10:40:44Z</time>
      </trkpt>
      <trkpt lat="44.43686" lon="4.34891">
        <ele>187</ele>
        <time>2011-08-14T10:40:52Z</time>
      </trkpt>
      <trkpt lat="44.43686" lon="4.34893">
        <ele>187</ele>
        <time>2011-08-14T10:40:57Z</time>
      </trkpt>
      <trkpt lat="44.43686" lon="4.34894">
        <ele>187</ele>
        <time>2011-08-14T10:41:06Z</time>
      </trkpt>
      <trkpt lat="44.43686" lon="4.34896">
        <ele>188</ele>
        <time>2011-08-14T10:41:14Z</time>
      </trkpt>
      <trkpt lat="44.43685" lon="4.34896">
        <ele>188</ele>
        <time>2011-08-14T10:41:21Z</time>
      </trkpt>
      <trkpt lat="44.43688" lon="4.34899">
        <ele>188</ele>
        <time>2011-08-14T10:41:27Z</time>
      </trkpt>
      <trkpt lat="44.43691" lon="4.34903">
        <ele>188</ele>
        <time>2011-08-14T10:41:33Z</time>
      </trkpt>
      <trkpt lat="44.4369" lon="4.34904">
        <ele>188</ele>
        <time>2011-08-14T10:41:36Z</time>
      </trkpt>
      <trkpt lat="44.4369" lon="4.34907">
        <ele>188</ele>
        <time>2011-08-14T10:41:39Z</time>
      </trkpt>
      <trkpt lat="44.43692" lon="4.34919">
        <ele>189</ele>
        <time>2011-08-14T10:41:45Z</time>
      </trkpt>
      <trkpt lat="44.43693" lon="4.3492">
        <ele>189</ele>
        <time>2011-08-14T10:41:46Z</time>
      </trkpt>
      <trkpt lat="44.43699" lon="4.34934">
        <ele>188</ele>
        <time>2011-08-14T10:41:52Z</time>
      </trkpt>
      <trkpt lat="44.43708" lon="4.34956">
        <ele>188</ele>
        <time>2011-08-14T10:41:58Z</time>
      </trkpt>
      <trkpt lat="44.4372" lon="4.34992">
        <ele>188</ele>
        <time>2011-08-14T10:42:07Z</time>
      </trkpt>
      <trkpt lat="44.43726" lon="4.35014">
        <ele>186</ele>
        <time>2011-08-14T10:42:12Z</time>
      </trkpt>
      <trkpt lat="44.43734" lon="4.3504">
        <ele>186</ele>
        <time>2011-08-14T10:42:18Z</time>
      </trkpt>
      <trkpt lat="44.43742" lon="4.35073">
        <ele>188</ele>
        <time>2011-08-14T10:42:24Z</time>
      </trkpt>
      <trkpt lat="44.43745" lon="4.35092">
        <ele>187</ele>
        <time>2011-08-14T10:42:27Z</time>
      </trkpt>
      <trkpt lat="44.43755" lon="4.35123">
        <ele>186</ele>
        <time>2011-08-14T10:42:32Z</time>
      </trkpt>
      <trkpt lat="44.43768" lon="4.35159">
        <ele>186</ele>
        <time>2011-08-14T10:42:38Z</time>
      </trkpt>
      <trkpt lat="44.43778" lon="4.35191">
        <ele>187</ele>
        <time>2011-08-14T10:42:43Z</time>
      </trkpt>
      <trkpt lat="44.43783" lon="4.35208">
        <ele>187</ele>
        <time>2011-08-14T10:42:46Z</time>
      </trkpt>
      <trkpt lat="44.43786" lon="4.3522">
        <ele>187</ele>
        <time>2011-08-14T10:42:48Z</time>
      </trkpt>
      <trkpt lat="44.43797" lon="4.35246">
        <ele>188</ele>
        <time>2011-08-14T10:42:53Z</time>
      </trkpt>
      <trkpt lat="44.4381" lon="4.3526">
        <ele>190</ele>
        <time>2011-08-14T10:42:57Z</time>
      </trkpt>
      <trkpt lat="44.43821" lon="4.35275">
        <ele>190</ele>
        <time>2011-08-14T10:43:01Z</time>
      </trkpt>
      <trkpt lat="44.43827" lon="4.35303">
        <ele>191</ele>
        <time>2011-08-14T10:43:07Z</time>
      </trkpt>
      <trkpt lat="44.43835" lon="4.35337">
        <ele>194</ele>
        <time>2011-08-14T10:43:14Z</time>
      </trkpt>
      <trkpt lat="44.43853" lon="4.3538">
        <ele>193</ele>
        <time>2011-08-14T10:43:23Z</time>
      </trkpt>
      <trkpt lat="44.43868" lon="4.3542">
        <ele>198</ele>
        <time>2011-08-14T10:43:31Z</time>
      </trkpt>
      <trkpt lat="44.43877" lon="4.35448">
        <ele>199</ele>
        <time>2011-08-14T10:43:38Z</time>
      </trkpt>
      <trkpt lat="44.43885" lon="4.35466">
        <ele>199</ele>
        <time>2011-08-14T10:43:45Z</time>
      </trkpt>
      <trkpt lat="44.43892" lon="4.35483">
        <ele>200</ele>
        <time>2011-08-14T10:43:54Z</time>
      </trkpt>
      <trkpt lat="44.43899" lon="4.35496">
        <ele>200</ele>
        <time>2011-08-14T10:44:03Z</time>
      </trkpt>
      <trkpt lat="44.43899" lon="4.35495">
        <ele>200</ele>
        <time>2011-08-14T10:44:11Z</time>
      </trkpt>
      <trkpt lat="44.43899" lon="4.35496">
        <ele>200</ele>
        <time>2011-08-14T10:44:17Z</time>
      </trkpt>
      <trkpt lat="44.43899" lon="4.35495">
        <ele>200</ele>
        <time>2011-08-14T10:44:24Z</time>
      </trkpt>
      <trkpt lat="44.43899" lon="4.35496">
        <ele>200</ele>
        <time>2011-08-14T10:44:37Z</time>
      </trkpt>
      <trkpt lat="44.43899" lon="4.35495">
        <ele>200</ele>
        <time>2011-08-14T10:44:44Z</time>
      </trkpt>
      <trkpt lat="44.43898" lon="4.35495">
        <ele>200</ele>
        <time>2011-08-14T10:44:59Z</time>
      </trkpt>
      <trkpt lat="44.43897" lon="4.35495">
        <ele>200</ele>
        <time>2011-08-14T10:45:13Z</time>
      </trkpt>
      <trkpt lat="44.43897" lon="4.35496">
        <ele>200</ele>
        <time>2011-08-14T10:45:25Z</time>
      </trkpt>
      <trkpt lat="44.43897" lon="4.35496">
        <ele>200</ele>
        <time>2011-08-14T10:45:41Z</time>
      </trkpt>
      <trkpt lat="44.43898" lon="4.35497">
        <ele>200</ele>
        <time>2011-08-14T10:45:47Z</time>
      </trkpt>
      <trkpt lat="44.43903" lon="4.35502">
        <ele>202</ele>
        <time>2011-08-14T10:45:51Z</time>
      </trkpt>
      <trkpt lat="44.43908" lon="4.35512">
        <ele>202</ele>
        <time>2011-08-14T10:45:57Z</time>
      </trkpt>
      <trkpt lat="44.43915" lon="4.35526">
        <ele>203</ele>
        <time>2011-08-14T10:46:04Z</time>
      </trkpt>
      <trkpt lat="44.43923" lon="4.35539">
        <ele>200</ele>
        <time>2011-08-14T10:46:12Z</time>
      </trkpt>
      <trkpt lat="44.4393" lon="4.35551">
        <ele>200</ele>
        <time>2011-08-14T10:46:19Z</time>
      </trkpt>
      <trkpt lat="44.43936" lon="4.35567">
        <ele>201</ele>
        <time>2011-08-14T10:46:25Z</time>
      </trkpt>
      <trkpt lat="44.43945" lon="4.35586">
        <ele>204</ele>
        <time>2011-08-14T10:46:32Z</time>
      </trkpt>
      <trkpt lat="44.4396" lon="4.35608">
        <ele>203</ele>
        <time>2011-08-14T10:46:39Z</time>
      </trkpt>
      <trkpt lat="44.43972" lon="4.35627">
        <ele>203</ele>
        <time>2011-08-14T10:46:44Z</time>
      </trkpt>
      <trkpt lat="44.43986" lon="4.35661">
        <ele>203</ele>
        <time>2011-08-14T10:46:51Z</time>
      </trkpt>
      <trkpt lat="44.44004" lon="4.357">
        <ele>200</ele>
        <time>2011-08-14T10:46:59Z</time>
      </trkpt>
      <trkpt lat="44.44006" lon="4.35705">
        <ele>200</ele>
        <time>2011-08-14T10:47:00Z</time>
      </trkpt>
      <trkpt lat="44.44022" lon="4.35732">
        <ele>200</ele>
        <time>2011-08-14T10:47:06Z</time>
      </trkpt>
      <trkpt lat="44.44035" lon="4.35747">
        <ele>199</ele>
        <time>2011-08-14T10:47:10Z</time>
      </trkpt>
      <trkpt lat="44.44062" lon="4.35784">
        <ele>201</ele>
        <time>2011-08-14T10:47:19Z</time>
      </trkpt>
      <trkpt lat="44.4408" lon="4.35803">
        <ele>201</ele>
        <time>2011-08-14T10:47:25Z</time>
      </trkpt>
      <trkpt lat="44.44083" lon="4.35807">
        <ele>201</ele>
        <time>2011-08-14T10:47:26Z</time>
      </trkpt>
      <trkpt lat="44.44107" lon="4.35832">
        <ele>199</ele>
        <time>2011-08-14T10:47:34Z</time>
      </trkpt>
      <trkpt lat="44.44119" lon="4.35841">
        <ele>200</ele>
        <time>2011-08-14T10:47:39Z</time>
      </trkpt>
      <trkpt lat="44.44127" lon="4.35844">
        <ele>199</ele>
        <time>2011-08-14T10:47:44Z</time>
      </trkpt>
      <trkpt lat="44.44141" lon="4.35858">
        <ele>199</ele>
        <time>2011-08-14T10:47:49Z</time>
      </trkpt>
      <trkpt lat="44.44152" lon="4.35867">
        <ele>199</ele>
        <time>2011-08-14T10:47:52Z</time>
      </trkpt>
      <trkpt lat="44.44151" lon="4.35879">
        <ele>199</ele>
        <time>2011-08-14T10:47:56Z</time>
      </trkpt>
      <trkpt lat="44.44148" lon="4.35881">
        <ele>199</ele>
        <time>2011-08-14T10:47:57Z</time>
      </trkpt>
      <trkpt lat="44.44127" lon="4.35888">
        <ele>199</ele>
        <time>2011-08-14T10:48:04Z</time>
      </trkpt>
      <trkpt lat="44.44114" lon="4.35889">
        <ele>199</ele>
        <time>2011-08-14T10:48:09Z</time>
      </trkpt>
      <trkpt lat="44.44113" lon="4.35901">
        <ele>199</ele>
        <time>2011-08-14T10:48:14Z</time>
      </trkpt>
      <trkpt lat="44.44113" lon="4.35904">
        <ele>199</ele>
        <time>2011-08-14T10:48:15Z</time>
      </trkpt>
      <trkpt lat="44.44122" lon="4.35926">
        <ele>197</ele>
        <time>2011-08-14T10:48:21Z</time>
      </trkpt>
      <trkpt lat="44.44137" lon="4.35955">
        <ele>197</ele>
        <time>2011-08-14T10:48:28Z</time>
      </trkpt>
      <trkpt lat="44.44158" lon="4.35992">
        <ele>196</ele>
        <time>2011-08-14T10:48:36Z</time>
      </trkpt>
      <trkpt lat="44.4416" lon="4.36009">
        <ele>196</ele>
        <time>2011-08-14T10:48:41Z</time>
      </trkpt>
      <trkpt lat="44.44158" lon="4.36012">
        <ele>196</ele>
        <time>2011-08-14T10:48:42Z</time>
      </trkpt>
      <trkpt lat="44.44141" lon="4.36037">
        <ele>197</ele>
        <time>2011-08-14T10:48:50Z</time>
      </trkpt>
      <trkpt lat="44.44123" lon="4.36066">
        <ele>197</ele>
        <time>2011-08-14T10:48:58Z</time>
      </trkpt>
      <trkpt lat="44.44105" lon="4.36099">
        <ele>199</ele>
        <time>2011-08-14T10:49:05Z</time>
      </trkpt>
      <trkpt lat="44.44083" lon="4.3611">
        <ele>196</ele>
        <time>2011-08-14T10:49:10Z</time>
      </trkpt>
      <trkpt lat="44.44072" lon="4.36109">
        <ele>196</ele>
        <time>2011-08-14T10:49:12Z</time>
      </trkpt>
      <trkpt lat="44.44029" lon="4.361">
        <ele>194</ele>
        <time>2011-08-14T10:49:19Z</time>
      </trkpt>
      <trkpt lat="44.44008" lon="4.36098">
        <ele>192</ele>
        <time>2011-08-14T10:49:22Z</time>
      </trkpt>
      <trkpt lat="44.43986" lon="4.36108">
        <ele>188</ele>
        <time>2011-08-14T10:49:26Z</time>
      </trkpt>
      <trkpt lat="44.43978" lon="4.36129">
        <ele>188</ele>
        <time>2011-08-14T10:49:29Z</time>
      </trkpt>
      <trkpt lat="44.43977" lon="4.36137">
        <ele>188</ele>
        <time>2011-08-14T10:49:30Z</time>
      </trkpt>
      <trkpt lat="44.43979" lon="4.36197">
        <ele>191</ele>
        <time>2011-08-14T10:49:36Z</time>
      </trkpt>
      <trkpt lat="44.43978" lon="4.36214">
        <ele>192</ele>
        <time>2011-08-14T10:49:38Z</time>
      </trkpt>
      <trkpt lat="44.43963" lon="4.36221">
        <ele>192</ele>
        <time>2011-08-14T10:49:42Z</time>
      </trkpt>
      <trkpt lat="44.43952" lon="4.36216">
        <ele>192</ele>
        <time>2011-08-14T10:49:45Z</time>
      </trkpt>
      <trkpt lat="44.43946" lon="4.36211">
        <ele>191</ele>
        <time>2011-08-14T10:49:47Z</time>
      </trkpt>
      <trkpt lat="44.43935" lon="4.36203">
        <ele>191</ele>
        <time>2011-08-14T10:49:50Z</time>
      </trkpt>
      <trkpt lat="44.43902" lon="4.36195">
        <ele>189</ele>
        <time>2011-08-14T10:49:56Z</time>
      </trkpt>
      <trkpt lat="44.43867" lon="4.36194">
        <ele>190</ele>
        <time>2011-08-14T10:50:02Z</time>
      </trkpt>
      <trkpt lat="44.43861" lon="4.36194">
        <ele>190</ele>
        <time>2011-08-14T10:50:03Z</time>
      </trkpt>
      <trkpt lat="44.43834" lon="4.36199">
        <ele>190</ele>
        <time>2011-08-14T10:50:08Z</time>
      </trkpt>
      <trkpt lat="44.4379" lon="4.36206">
        <ele>192</ele>
        <time>2011-08-14T10:50:16Z</time>
      </trkpt>
      <trkpt lat="44.43785" lon="4.36208">
        <ele>192</ele>
        <time>2011-08-14T10:50:17Z</time>
      </trkpt>
      <trkpt lat="44.43766" lon="4.36221">
        <ele>193</ele>
        <time>2011-08-14T10:50:21Z</time>
      </trkpt>
      <trkpt lat="44.43737" lon="4.36246">
        <ele>195</ele>
        <time>2011-08-14T10:50:27Z</time>
      </trkpt>
      <trkpt lat="44.43726" lon="4.36251">
        <ele>194</ele>
        <time>2011-08-14T10:50:29Z</time>
      </trkpt>
      <trkpt lat="44.43711" lon="4.36258">
        <ele>193</ele>
        <time>2011-08-14T10:50:33Z</time>
      </trkpt>
      <trkpt lat="44.43711" lon="4.36259">
        <ele>193</ele>
        <time>2011-08-14T10:50:37Z</time>
      </trkpt>
      <trkpt lat="44.43711" lon="4.36257">
        <ele>193</ele>
        <time>2011-08-14T10:50:48Z</time>
      </trkpt>
      <trkpt lat="44.4371" lon="4.36259">
        <ele>193</ele>
        <time>2011-08-14T10:50:55Z</time>
      </trkpt>
      <trkpt lat="44.43711" lon="4.3626">
        <ele>193</ele>
        <time>2011-08-14T10:51:01Z</time>
      </trkpt>
      <trkpt lat="44.43712" lon="4.36263">
        <ele>193</ele>
        <time>2011-08-14T10:51:07Z</time>
      </trkpt>
      <trkpt lat="44.43714" lon="4.36263">
        <ele>193</ele>
        <time>2011-08-14T10:51:19Z</time>
      </trkpt>
      <trkpt lat="44.43712" lon="4.36262">
        <ele>193</ele>
        <time>2011-08-14T10:51:46Z</time>
      </trkpt>
      <trkpt lat="44.43713" lon="4.36262">
        <ele>193</ele>
        <time>2011-08-14T10:52:00Z</time>
      </trkpt>
      <trkpt lat="44.43713" lon="4.36263">
        <ele>193</ele>
        <time>2011-08-14T10:52:11Z</time>
      </trkpt>
      <trkpt lat="44.43713" lon="4.36263">
        <ele>193</ele>
        <time>2011-08-14T10:52:20Z</time>
      </trkpt>
      <trkpt lat="44.43713" lon="4.36266">
        <ele>193</ele>
        <time>2011-08-14T10:52:28Z</time>
      </trkpt>
      <trkpt lat="44.43713" lon="4.36267">
        <ele>193</ele>
        <time>2011-08-14T10:52:33Z</time>
      </trkpt>
      <trkpt lat="44.43712" lon="4.3627">
        <ele>193</ele>
        <time>2011-08-14T10:52:43Z</time>
      </trkpt>
      <trkpt lat="44.43714" lon="4.36275">
        <ele>193</ele>
        <time>2011-08-14T10:52:47Z</time>
      </trkpt>
      <trkpt lat="44.43723" lon="4.36294">
        <ele>192</ele>
        <time>2011-08-14T10:52:52Z</time>
      </trkpt>
      <trkpt lat="44.43742" lon="4.36323">
        <ele>194</ele>
        <time>2011-08-14T10:52:58Z</time>
      </trkpt>
      <trkpt lat="44.4375" lon="4.36345">
        <ele>197</ele>
        <time>2011-08-14T10:53:02Z</time>
      </trkpt>
      <trkpt lat="44.43767" lon="4.36374">
        <ele>197</ele>
        <time>2011-08-14T10:53:08Z</time>
      </trkpt>
      <trkpt lat="44.43787" lon="4.36411">
        <ele>197</ele>
        <time>2011-08-14T10:53:15Z</time>
      </trkpt>
      <trkpt lat="44.43789" lon="4.36415">
        <ele>197</ele>
        <time>2011-08-14T10:53:16Z</time>
      </trkpt>
      <trkpt lat="44.43802" lon="4.36435">
        <ele>194</ele>
        <time>2011-08-14T10:53:21Z</time>
      </trkpt>
      <trkpt lat="44.43811" lon="4.36436">
        <ele>195</ele>
        <time>2011-08-14T10:53:24Z</time>
      </trkpt>
      <trkpt lat="44.43826" lon="4.36437">
        <ele>197</ele>
        <time>2011-08-14T10:53:28Z</time>
      </trkpt>
      <trkpt lat="44.43839" lon="4.36449">
        <ele>206</ele>
        <time>2011-08-14T10:53:32Z</time>
      </trkpt>
      <trkpt lat="44.43845" lon="4.3647">
        <ele>205</ele>
        <time>2011-08-14T10:53:37Z</time>
      </trkpt>
      <trkpt lat="44.43841" lon="4.36491">
        <ele>201</ele>
        <time>2011-08-14T10:53:40Z</time>
      </trkpt>
      <trkpt lat="44.43834" lon="4.36511">
        <ele>199</ele>
        <time>2011-08-14T10:53:43Z</time>
      </trkpt>
      <trkpt lat="44.43833" lon="4.36538">
        <ele>191</ele>
        <time>2011-08-14T10:53:47Z</time>
      </trkpt>
      <trkpt lat="44.4384" lon="4.36558">
        <ele>200</ele>
        <time>2011-08-14T10:53:50Z</time>
      </trkpt>
      <trkpt lat="44.43845" lon="4.36571">
        <ele>199</ele>
        <time>2011-08-14T10:53:52Z</time>
      </trkpt>
      <trkpt lat="44.43855" lon="4.36592">
        <ele>200</ele>
        <time>2011-08-14T10:53:56Z</time>
      </trkpt>
      <trkpt lat="44.43862" lon="4.36599">
        <ele>201</ele>
        <time>2011-08-14T10:53:58Z</time>
      </trkpt>
      <trkpt lat="44.43877" lon="4.36607">
        <ele>203</ele>
        <time>2011-08-14T10:54:02Z</time>
      </trkpt>
      <trkpt lat="44.439" lon="4.36616">
        <ele>205</ele>
        <time>2011-08-14T10:54:09Z</time>
      </trkpt>
      <trkpt lat="44.43911" lon="4.36623">
        <ele>205</ele>
        <time>2011-08-14T10:54:13Z</time>
      </trkpt>
      <trkpt lat="44.43925" lon="4.3664">
        <ele>211</ele>
        <time>2011-08-14T10:54:18Z</time>
      </trkpt>
      <trkpt lat="44.43941" lon="4.36648">
        <ele>211</ele>
        <time>2011-08-14T10:54:23Z</time>
      </trkpt>
      <trkpt lat="44.43958" lon="4.36651">
        <ele>213</ele>
        <time>2011-08-14T10:54:29Z</time>
      </trkpt>
      <trkpt lat="44.4397" lon="4.36656">
        <ele>213</ele>
        <time>2011-08-14T10:54:33Z</time>
      </trkpt>
      <trkpt lat="44.43978" lon="4.36663">
        <ele>214</ele>
        <time>2011-08-14T10:54:37Z</time>
      </trkpt>
      <trkpt lat="44.43981" lon="4.36667">
        <ele>213</ele>
        <time>2011-08-14T10:54:40Z</time>
      </trkpt>
      <trkpt lat="44.43983" lon="4.3667">
        <ele>213</ele>
        <time>2011-08-14T10:54:42Z</time>
      </trkpt>
      <trkpt lat="44.43984" lon="4.36679">
        <ele>213</ele>
        <time>2011-08-14T10:54:49Z</time>
      </trkpt>
      <trkpt lat="44.43981" lon="4.36682">
        <ele>212</ele>
        <time>2011-08-14T10:55:02Z</time>
      </trkpt>
      <trkpt lat="44.43978" lon="4.36683">
        <ele>212</ele>
        <time>2011-08-14T10:55:16Z</time>
      </trkpt>
      <trkpt lat="44.43973" lon="4.36689">
        <ele>212</ele>
        <time>2011-08-14T10:55:23Z</time>
      </trkpt>
      <trkpt lat="44.43973" lon="4.36692">
        <ele>212</ele>
        <time>2011-08-14T10:55:34Z</time>
      </trkpt>
      <trkpt lat="44.43973" lon="4.36692">
        <ele>212</ele>
        <time>2011-08-14T10:55:41Z</time>
      </trkpt>
      <trkpt lat="44.43973" lon="4.36691">
        <ele>212</ele>
        <time>2011-08-14T10:56:01Z</time>
      </trkpt>
      <trkpt lat="44.43972" lon="4.36691">
        <ele>212</ele>
        <time>2011-08-14T10:56:15Z</time>
      </trkpt>
      <trkpt lat="44.43973" lon="4.3669">
        <ele>212</ele>
        <time>2011-08-14T10:56:22Z</time>
      </trkpt>
      <trkpt lat="44.43973" lon="4.36691">
        <ele>212</ele>
        <time>2011-08-14T10:56:50Z</time>
      </trkpt>
      <trkpt lat="44.43973" lon="4.3669">
        <ele>212</ele>
        <time>2011-08-14T10:56:58Z</time>
      </trkpt>
      <trkpt lat="44.43973" lon="4.3669">
        <ele>212</ele>
        <time>2011-08-14T10:57:09Z</time>
      </trkpt>
      <trkpt lat="44.43975" lon="4.36688">
        <ele>212</ele>
        <time>2011-08-14T10:57:23Z</time>
      </trkpt>
      <trkpt lat="44.43975" lon="4.36688">
        <ele>212</ele>
        <time>2011-08-14T10:57:33Z</time>
      </trkpt>
      <trkpt lat="44.43974" lon="4.36688">
        <ele>212</ele>
        <time>2011-08-14T10:57:50Z</time>
      </trkpt>
      <trkpt lat="44.43973" lon="4.36687">
        <ele>212</ele>
        <time>2011-08-14T10:58:02Z</time>
      </trkpt>
      <trkpt lat="44.43974" lon="4.36687">
        <ele>212</ele>
        <time>2011-08-14T10:58:14Z</time>
      </trkpt>
      <trkpt lat="44.4397" lon="4.36693">
        <ele>212</ele>
        <time>2011-08-14T10:58:34Z</time>
      </trkpt>
      <trkpt lat="44.43959" lon="4.36708">
        <ele>211</ele>
        <time>2011-08-14T10:58:40Z</time>
      </trkpt>
      <trkpt lat="44.43944" lon="4.36731">
        <ele>211</ele>
        <time>2011-08-14T10:58:48Z</time>
      </trkpt>
      <trkpt lat="44.43933" lon="4.36747">
        <ele>211</ele>
        <time>2011-08-14T10:58:54Z</time>
      </trkpt>
      <trkpt lat="44.4392" lon="4.36757">
        <ele>210</ele>
        <time>2011-08-14T10:59:00Z</time>
      </trkpt>
      <trkpt lat="44.43903" lon="4.36757">
        <ele>209</ele>
        <time>2011-08-14T10:59:07Z</time>
      </trkpt>
      <trkpt lat="44.43895" lon="4.36756">
        <ele>209</ele>
        <time>2011-08-14T10:59:11Z</time>
      </trkpt>
      <trkpt lat="44.43893" lon="4.36757">
        <ele>209</ele>
        <time>2011-08-14T10:59:23Z</time>
      </trkpt>
      <trkpt lat="44.43894" lon="4.36758">
        <ele>209</ele>
        <time>2011-08-14T10:59:30Z</time>
      </trkpt>
      <trkpt lat="44.43897" lon="4.36759">
        <ele>209</ele>
        <time>2011-08-14T10:59:36Z</time>
      </trkpt>
      <trkpt lat="44.43899" lon="4.36759">
        <ele>209</ele>
        <time>2011-08-14T10:59:41Z</time>
      </trkpt>
      <trkpt lat="44.43911" lon="4.36761">
        <ele>209</ele>
        <time>2011-08-14T10:59:49Z</time>
      </trkpt>
      <trkpt lat="44.43927" lon="4.36754">
        <ele>210</ele>
        <time>2011-08-14T10:59:55Z</time>
      </trkpt>
      <trkpt lat="44.43938" lon="4.36741">
        <ele>211</ele>
        <time>2011-08-14T11:00:01Z</time>
      </trkpt>
      <trkpt lat="44.43951" lon="4.36718">
        <ele>211</ele>
        <time>2011-08-14T11:00:08Z</time>
      </trkpt>
      <trkpt lat="44.43963" lon="4.36704">
        <ele>211</ele>
        <time>2011-08-14T11:00:14Z</time>
      </trkpt>
      <trkpt lat="44.43974" lon="4.3669">
        <ele>212</ele>
        <time>2011-08-14T11:00:20Z</time>
      </trkpt>
      <trkpt lat="44.43987" lon="4.36679">
        <ele>213</ele>
        <time>2011-08-14T11:00:28Z</time>
      </trkpt>
      <trkpt lat="44.43998" lon="4.36675">
        <ele>214</ele>
        <time>2011-08-14T11:00:35Z</time>
      </trkpt>
      <trkpt lat="44.44002" lon="4.36674">
        <ele>214</ele>
        <time>2011-08-14T11:00:38Z</time>
      </trkpt>
      <trkpt lat="44.44006" lon="4.36672">
        <ele>214</ele>
        <time>2011-08-14T11:00:46Z</time>
      </trkpt>
      <trkpt lat="44.44008" lon="4.36675">
        <ele>213</ele>
        <time>2011-08-14T11:00:58Z</time>
      </trkpt>
      <trkpt lat="44.44015" lon="4.36675">
        <ele>213</ele>
        <time>2011-08-14T11:01:04Z</time>
      </trkpt>
      <trkpt lat="44.44023" lon="4.36669">
        <ele>213</ele>
        <time>2011-08-14T11:01:09Z</time>
      </trkpt>
      <trkpt lat="44.44038" lon="4.36662">
        <ele>216</ele>
        <time>2011-08-14T11:01:16Z</time>
      </trkpt>
      <trkpt lat="44.44049" lon="4.36656">
        <ele>216</ele>
        <time>2011-08-14T11:01:22Z</time>
      </trkpt>
      <trkpt lat="44.44055" lon="4.36652">
        <ele>216</ele>
        <time>2011-08-14T11:01:32Z</time>
      </trkpt>
      <trkpt lat="44.44059" lon="4.36647">
        <ele>216</ele>
        <time>2011-08-14T11:01:36Z</time>
      </trkpt>
      <trkpt lat="44.44075" lon="4.36635">
        <ele>216</ele>
        <time>2011-08-14T11:01:43Z</time>
      </trkpt>
      <trkpt lat="44.44088" lon="4.36625">
        <ele>215</ele>
        <time>2011-08-14T11:01:48Z</time>
      </trkpt>
      <trkpt lat="44.44098" lon="4.36616">
        <ele>215</ele>
        <time>2011-08-14T11:01:52Z</time>
      </trkpt>
      <trkpt lat="44.44118" lon="4.36595">
        <ele>215</ele>
        <time>2011-08-14T11:02:00Z</time>
      </trkpt>
      <trkpt lat="44.44143" lon="4.36569">
        <ele>217</ele>
        <time>2011-08-14T11:02:07Z</time>
      </trkpt>
      <trkpt lat="44.44146" lon="4.36565">
        <ele>217</ele>
        <time>2011-08-14T11:02:08Z</time>
      </trkpt>
      <trkpt lat="44.44157" lon="4.36542">
        <ele>218</ele>
        <time>2011-08-14T11:02:13Z</time>
      </trkpt>
      <trkpt lat="44.44169" lon="4.36531">
        <ele>213</ele>
        <time>2011-08-14T11:02:18Z</time>
      </trkpt>
      <trkpt lat="44.44179" lon="4.36539">
        <ele>213</ele>
        <time>2011-08-14T11:02:22Z</time>
      </trkpt>
      <trkpt lat="44.44181" lon="4.36543">
        <ele>213</ele>
        <time>2011-08-14T11:02:23Z</time>
      </trkpt>
      <trkpt lat="44.44185" lon="4.3656">
        <ele>212</ele>
        <time>2011-08-14T11:02:28Z</time>
      </trkpt>
      <trkpt lat="44.44184" lon="4.36573">
        <ele>213</ele>
        <time>2011-08-14T11:02:33Z</time>
      </trkpt>
      <trkpt lat="44.44182" lon="4.36593">
        <ele>211</ele>
        <time>2011-08-14T11:02:39Z</time>
      </trkpt>
      <trkpt lat="44.44183" lon="4.3661">
        <ele>209</ele>
        <time>2011-08-14T11:02:44Z</time>
      </trkpt>
      <trkpt lat="44.4418" lon="4.36624">
        <ele>208</ele>
        <time>2011-08-14T11:02:49Z</time>
      </trkpt>
      <trkpt lat="44.44175" lon="4.36645">
        <ele>208</ele>
        <time>2011-08-14T11:02:54Z</time>
      </trkpt>
      <trkpt lat="44.44181" lon="4.36669">
        <ele>205</ele>
        <time>2011-08-14T11:02:58Z</time>
      </trkpt>
      <trkpt lat="44.44185" lon="4.36675">
        <ele>204</ele>
        <time>2011-08-14T11:02:59Z</time>
      </trkpt>
      <trkpt lat="44.44208" lon="4.367">
        <ele>202</ele>
        <time>2011-08-14T11:03:03Z</time>
      </trkpt>
      <trkpt lat="44.44218" lon="4.3671">
        <ele>201</ele>
        <time>2011-08-14T11:03:05Z</time>
      </trkpt>
      <trkpt lat="44.44228" lon="4.36727">
        <ele>200</ele>
        <time>2011-08-14T11:03:10Z</time>
      </trkpt>
      <trkpt lat="44.44234" lon="4.3674">
        <ele>200</ele>
        <time>2011-08-14T11:03:13Z</time>
      </trkpt>
      <trkpt lat="44.44258" lon="4.36763">
        <ele>197</ele>
        <time>2011-08-14T11:03:20Z</time>
      </trkpt>
      <trkpt lat="44.44284" lon="4.36791">
        <ele>196</ele>
        <time>2011-08-14T11:03:27Z</time>
      </trkpt>
      <trkpt lat="44.44309" lon="4.36822">
        <ele>196</ele>
        <time>2011-08-14T11:03:33Z</time>
      </trkpt>
      <trkpt lat="44.44342" lon="4.36858">
        <ele>197</ele>
        <time>2011-08-14T11:03:41Z</time>
      </trkpt>
      <trkpt lat="44.44364" lon="4.36882">
        <ele>196</ele>
        <time>2011-08-14T11:03:47Z</time>
      </trkpt>
      <trkpt lat="44.44368" lon="4.36881">
        <ele>197</ele>
        <time>2011-08-14T11:03:51Z</time>
      </trkpt>
      <trkpt lat="44.4437" lon="4.36879">
        <ele>197</ele>
        <time>2011-08-14T11:03:56Z</time>
      </trkpt>
      <trkpt lat="44.44386" lon="4.36875">
        <ele>197</ele>
        <time>2011-08-14T11:04:02Z</time>
      </trkpt>
      <trkpt lat="44.44399" lon="4.3686">
        <ele>197</ele>
        <time>2011-08-14T11:04:07Z</time>
      </trkpt>
      <trkpt lat="44.4441" lon="4.36868">
        <ele>197</ele>
        <time>2011-08-14T11:04:12Z</time>
      </trkpt>
      <trkpt lat="44.44434" lon="4.3688">
        <ele>198</ele>
        <time>2011-08-14T11:04:17Z</time>
      </trkpt>
      <trkpt lat="44.44469" lon="4.36906">
        <ele>197</ele>
        <time>2011-08-14T11:04:25Z</time>
      </trkpt>
      <trkpt lat="44.44491" lon="4.36921">
        <ele>197</ele>
        <time>2011-08-14T11:04:30Z</time>
      </trkpt>
      <trkpt lat="44.44513" lon="4.3692">
        <ele>196</ele>
        <time>2011-08-14T11:04:35Z</time>
      </trkpt>
      <trkpt lat="44.44529" lon="4.36921">
        <ele>196</ele>
        <time>2011-08-14T11:04:39Z</time>
      </trkpt>
      <trkpt lat="44.44551" lon="4.36921">
        <ele>195</ele>
        <time>2011-08-14T11:04:44Z</time>
      </trkpt>
      <trkpt lat="44.44563" lon="4.36906">
        <ele>194</ele>
        <time>2011-08-14T11:04:47Z</time>
      </trkpt>
      <trkpt lat="44.44568" lon="4.36895">
        <ele>194</ele>
        <time>2011-08-14T11:04:49Z</time>
      </trkpt>
      <trkpt lat="44.44576" lon="4.36875">
        <ele>193</ele>
        <time>2011-08-14T11:04:54Z</time>
      </trkpt>
      <trkpt lat="44.44575" lon="4.36867">
        <ele>193</ele>
        <time>2011-08-14T11:04:56Z</time>
      </trkpt>
      <trkpt lat="44.44569" lon="4.36857">
        <ele>193</ele>
        <time>2011-08-14T11:04:59Z</time>
      </trkpt>
      <trkpt lat="44.44569" lon="4.36837">
        <ele>192</ele>
        <time>2011-08-14T11:05:03Z</time>
      </trkpt>
      <trkpt lat="44.44577" lon="4.36811">
        <ele>190</ele>
        <time>2011-08-14T11:05:07Z</time>
      </trkpt>
      <trkpt lat="44.44577" lon="4.36764">
        <ele>186</ele>
        <time>2011-08-14T11:05:13Z</time>
      </trkpt>
      <trkpt lat="44.44577" lon="4.36755">
        <ele>185</ele>
        <time>2011-08-14T11:05:14Z</time>
      </trkpt>
      <trkpt lat="44.44567" lon="4.36725">
        <ele>184</ele>
        <time>2011-08-14T11:05:18Z</time>
      </trkpt>
      <trkpt lat="44.44553" lon="4.36706">
        <ele>185</ele>
        <time>2011-08-14T11:05:23Z</time>
      </trkpt>
      <trkpt lat="44.4455" lon="4.36693">
        <ele>185</ele>
        <time>2011-08-14T11:05:27Z</time>
      </trkpt>
      <trkpt lat="44.44561" lon="4.3669">
        <ele>184</ele>
        <time>2011-08-14T11:05:30Z</time>
      </trkpt>
      <trkpt lat="44.44566" lon="4.3669">
        <ele>184</ele>
        <time>2011-08-14T11:05:31Z</time>
      </trkpt>
      <trkpt lat="44.44581" lon="4.36693">
        <ele>183</ele>
        <time>2011-08-14T11:05:34Z</time>
      </trkpt>
      <trkpt lat="44.44608" lon="4.36677">
        <ele>181</ele>
        <time>2011-08-14T11:05:39Z</time>
      </trkpt>
      <trkpt lat="44.44625" lon="4.36651">
        <ele>179</ele>
        <time>2011-08-14T11:05:43Z</time>
      </trkpt>
      <trkpt lat="44.44657" lon="4.36571">
        <ele>172</ele>
        <time>2011-08-14T11:05:52Z</time>
      </trkpt>
      <trkpt lat="44.44663" lon="4.36555">
        <ele>172</ele>
        <time>2011-08-14T11:05:54Z</time>
      </trkpt>
      <trkpt lat="44.4468" lon="4.36536">
        <ele>171</ele>
        <time>2011-08-14T11:05:58Z</time>
      </trkpt>
      <trkpt lat="44.44689" lon="4.3654">
        <ele>171</ele>
        <time>2011-08-14T11:06:01Z</time>
      </trkpt>
      <trkpt lat="44.44689" lon="4.36541">
        <ele>171</ele>
        <time>2011-08-14T11:06:05Z</time>
      </trkpt>
      <trkpt lat="44.44688" lon="4.36541">
        <ele>171</ele>
        <time>2011-08-14T11:06:15Z</time>
      </trkpt>
      <trkpt lat="44.44688" lon="4.3654">
        <ele>171</ele>
        <time>2011-08-14T11:06:23Z</time>
      </trkpt>
      <trkpt lat="44.44689" lon="4.36538">
        <ele>171</ele>
        <time>2011-08-14T11:07:36Z</time>
      </trkpt>
      <trkpt lat="44.44689" lon="4.36539">
        <ele>171</ele>
        <time>2011-08-14T11:07:57Z</time>
      </trkpt>
      <trkpt lat="44.44688" lon="4.36541">
        <ele>171</ele>
        <time>2011-08-14T11:08:24Z</time>
      </trkpt>
      <trkpt lat="44.44689" lon="4.36541">
        <ele>172</ele>
        <time>2011-08-14T11:08:56Z</time>
      </trkpt>
      <trkpt lat="44.44692" lon="4.36544">
        <ele>172</ele>
        <time>2011-08-14T11:09:00Z</time>
      </trkpt>
      <trkpt lat="44.44701" lon="4.36567">
        <ele>172</ele>
        <time>2011-08-14T11:09:08Z</time>
      </trkpt>
      <trkpt lat="44.44711" lon="4.36583">
        <ele>173</ele>
        <time>2011-08-14T11:09:14Z</time>
      </trkpt>
      <trkpt lat="44.44724" lon="4.36601">
        <ele>176</ele>
        <time>2011-08-14T11:09:21Z</time>
      </trkpt>
      <trkpt lat="44.44738" lon="4.36627">
        <ele>177</ele>
        <time>2011-08-14T11:09:30Z</time>
      </trkpt>
      <trkpt lat="44.44751" lon="4.36657">
        <ele>181</ele>
        <time>2011-08-14T11:09:39Z</time>
      </trkpt>
      <trkpt lat="44.44761" lon="4.36686">
        <ele>183</ele>
        <time>2011-08-14T11:09:47Z</time>
      </trkpt>
      <trkpt lat="44.44773" lon="4.36724">
        <ele>185</ele>
        <time>2011-08-14T11:09:57Z</time>
      </trkpt>
      <trkpt lat="44.44775" lon="4.36755">
        <ele>187</ele>
        <time>2011-08-14T11:10:04Z</time>
      </trkpt>
      <trkpt lat="44.44776" lon="4.36791">
        <ele>188</ele>
        <time>2011-08-14T11:10:12Z</time>
      </trkpt>
      <trkpt lat="44.44776" lon="4.36839">
        <ele>192</ele>
        <time>2011-08-14T11:10:22Z</time>
      </trkpt>
      <trkpt lat="44.44775" lon="4.36895">
        <ele>193</ele>
        <time>2011-08-14T11:10:33Z</time>
      </trkpt>
      <trkpt lat="44.44773" lon="4.36944">
        <ele>194</ele>
        <time>2011-08-14T11:10:43Z</time>
      </trkpt>
      <trkpt lat="44.44773" lon="4.36973">
        <ele>194</ele>
        <time>2011-08-14T11:10:51Z</time>
      </trkpt>
      <trkpt lat="44.44776" lon="4.37004">
        <ele>194</ele>
        <time>2011-08-14T11:11:00Z</time>
      </trkpt>
      <trkpt lat="44.44788" lon="4.37029">
        <ele>194</ele>
        <time>2011-08-14T11:11:08Z</time>
      </trkpt>
      <trkpt lat="44.44806" lon="4.37048">
        <ele>194</ele>
        <time>2011-08-14T11:11:16Z</time>
      </trkpt>
      <trkpt lat="44.44833" lon="4.37071">
        <ele>196</ele>
        <time>2011-08-14T11:11:26Z</time>
      </trkpt>
      <trkpt lat="44.44841" lon="4.37078">
        <ele>196</ele>
        <time>2011-08-14T11:11:30Z</time>
      </trkpt>
      <trkpt lat="44.44851" lon="4.37085">
        <ele>197</ele>
        <time>2011-08-14T11:11:35Z</time>
      </trkpt>
      <trkpt lat="44.44859" lon="4.37091">
        <ele>197</ele>
        <time>2011-08-14T11:11:40Z</time>
      </trkpt>
      <trkpt lat="44.44862" lon="4.37093">
        <ele>197</ele>
        <time>2011-08-14T11:11:45Z</time>
      </trkpt>
      <trkpt lat="44.44864" lon="4.37094">
        <ele>197</ele>
        <time>2011-08-14T11:11:57Z</time>
      </trkpt>
      <trkpt lat="44.44865" lon="4.37095">
        <ele>198</ele>
        <time>2011-08-14T11:12:14Z</time>
      </trkpt>
      <trkpt lat="44.44867" lon="4.37095">
        <ele>198</ele>
        <time>2011-08-14T11:12:16Z</time>
      </trkpt>
      <trkpt lat="44.44872" lon="4.37087">
        <ele>198</ele>
        <time>2011-08-14T11:12:21Z</time>
      </trkpt>
      <trkpt lat="44.44878" lon="4.37079">
        <ele>199</ele>
        <time>2011-08-14T11:12:27Z</time>
      </trkpt>
      <trkpt lat="44.44879" lon="4.37077">
        <ele>199</ele>
        <time>2011-08-14T11:12:36Z</time>
      </trkpt>
      <trkpt lat="44.44879" lon="4.37077">
        <ele>199</ele>
        <time>2011-08-14T11:12:41Z</time>
      </trkpt>
      <trkpt lat="44.44879" lon="4.3708">
        <ele>199</ele>
        <time>2011-08-14T11:13:07Z</time>
      </trkpt>
      <trkpt lat="44.4488" lon="4.37078">
        <ele>199</ele>
        <time>2011-08-14T11:13:25Z</time>
      </trkpt>
      <trkpt lat="44.44879" lon="4.37078">
        <ele>199</ele>
        <time>2011-08-14T11:13:33Z</time>
      </trkpt>
      <trkpt lat="44.44879" lon="4.37077">
        <ele>199</ele>
        <time>2011-08-14T11:13:41Z</time>
      </trkpt>
      <trkpt lat="44.44883" lon="4.37073">
        <ele>199</ele>
        <time>2011-08-14T11:13:47Z</time>
      </trkpt>
      <trkpt lat="44.4489" lon="4.37048">
        <ele>199</ele>
        <time>2011-08-14T11:13:55Z</time>
      </trkpt>
      <trkpt lat="44.44899" lon="4.37019">
        <ele>199</ele>
        <time>2011-08-14T11:14:03Z</time>
      </trkpt>
      <trkpt lat="44.44909" lon="4.36996">
        <ele>200</ele>
        <time>2011-08-14T11:14:10Z</time>
      </trkpt>
      <trkpt lat="44.44921" lon="4.36977">
        <ele>203</ele>
        <time>2011-08-14T11:14:17Z</time>
      </trkpt>
      <trkpt lat="44.44931" lon="4.3696">
        <ele>203</ele>
        <time>2011-08-14T11:14:24Z</time>
      </trkpt>
      <trkpt lat="44.44942" lon="4.36939">
        <ele>203</ele>
        <time>2011-08-14T11:14:32Z</time>
      </trkpt>
      <trkpt lat="44.44951" lon="4.36923">
        <ele>203</ele>
        <time>2011-08-14T11:14:37Z</time>
      </trkpt>
      <trkpt lat="44.44967" lon="4.36904">
        <ele>201</ele>
        <time>2011-08-14T11:14:46Z</time>
      </trkpt>
      <trkpt lat="44.44974" lon="4.36904">
        <ele>202</ele>
        <time>2011-08-14T11:14:50Z</time>
      </trkpt>
      <trkpt lat="44.44986" lon="4.36912">
        <ele>204</ele>
        <time>2011-08-14T11:14:57Z</time>
      </trkpt>
      <trkpt lat="44.44988" lon="4.36916">
        <ele>205</ele>
        <time>2011-08-14T11:15:00Z</time>
      </trkpt>
      <trkpt lat="44.44989" lon="4.36921">
        <ele>207</ele>
        <time>2011-08-14T11:15:06Z</time>
      </trkpt>
      <trkpt lat="44.44993" lon="4.36925">
        <ele>207</ele>
        <time>2011-08-14T11:15:12Z</time>
      </trkpt>
      <trkpt lat="44.44994" lon="4.36928">
        <ele>207</ele>
        <time>2011-08-14T11:15:18Z</time>
      </trkpt>
      <trkpt lat="44.44993" lon="4.3693">
        <ele>207</ele>
        <time>2011-08-14T11:15:23Z</time>
      </trkpt>
      <trkpt lat="44.44992" lon="4.36938">
        <ele>206</ele>
        <time>2011-08-14T11:15:28Z</time>
      </trkpt>
      <trkpt lat="44.44992" lon="4.36953">
        <ele>206</ele>
        <time>2011-08-14T11:15:35Z</time>
      </trkpt>
      <trkpt lat="44.44993" lon="4.36976">
        <ele>208</ele>
        <time>2011-08-14T11:15:42Z</time>
      </trkpt>
      <trkpt lat="44.44993" lon="4.37003">
        <ele>212</ele>
        <time>2011-08-14T11:15:50Z</time>
      </trkpt>
      <trkpt lat="44.44993" lon="4.37025">
        <ele>211</ele>
        <time>2011-08-14T11:15:57Z</time>
      </trkpt>
      <trkpt lat="44.44992" lon="4.37049">
        <ele>212</ele>
        <time>2011-08-14T11:16:05Z</time>
      </trkpt>
      <trkpt lat="44.44989" lon="4.37074">
        <ele>214</ele>
        <time>2011-08-14T11:16:12Z</time>
      </trkpt>
      <trkpt lat="44.44988" lon="4.37093">
        <ele>214</ele>
        <time>2011-08-14T11:16:17Z</time>
      </trkpt>
      <trkpt lat="44.44987" lon="4.37133">
        <ele>212</ele>
        <time>2011-08-14T11:16:27Z</time>
      </trkpt>
      <trkpt lat="44.44988" lon="4.37158">
        <ele>214</ele>
        <time>2011-08-14T11:16:33Z</time>
      </trkpt>
      <trkpt lat="44.44989" lon="4.37199">
        <ele>212</ele>
        <time>2011-08-14T11:16:42Z</time>
      </trkpt>
      <trkpt lat="44.4499" lon="4.37234">
        <ele>214</ele>
        <time>2011-08-14T11:16:50Z</time>
      </trkpt>
      <trkpt lat="44.44995" lon="4.37269">
        <ele>212</ele>
        <time>2011-08-14T11:16:58Z</time>
      </trkpt>
      <trkpt lat="44.45001" lon="4.37292">
        <ele>221</ele>
        <time>2011-08-14T11:17:04Z</time>
      </trkpt>
      <trkpt lat="44.45009" lon="4.37314">
        <ele>220</ele>
        <time>2011-08-14T11:17:10Z</time>
      </trkpt>
      <trkpt lat="44.45017" lon="4.37335">
        <ele>215</ele>
        <time>2011-08-14T11:17:17Z</time>
      </trkpt>
      <trkpt lat="44.45027" lon="4.37339">
        <ele>216</ele>
        <time>2011-08-14T11:17:22Z</time>
      </trkpt>
      <trkpt lat="44.45037" lon="4.37334">
        <ele>217</ele>
        <time>2011-08-14T11:17:27Z</time>
      </trkpt>
      <trkpt lat="44.45049" lon="4.37327">
        <ele>224</ele>
        <time>2011-08-14T11:17:33Z</time>
      </trkpt>
      <trkpt lat="44.45065" lon="4.37319">
        <ele>225</ele>
        <time>2011-08-14T11:17:41Z</time>
      </trkpt>
      <trkpt lat="44.45075" lon="4.3732">
        <ele>226</ele>
        <time>2011-08-14T11:17:47Z</time>
      </trkpt>
      <trkpt lat="44.45079" lon="4.3732">
        <ele>226</ele>
        <time>2011-08-14T11:17:50Z</time>
      </trkpt>
      <trkpt lat="44.45088" lon="4.37317">
        <ele>232</ele>
        <time>2011-08-14T11:17:58Z</time>
      </trkpt>
      <trkpt lat="44.45095" lon="4.37317">
        <ele>232</ele>
        <time>2011-08-14T11:18:06Z</time>
      </trkpt>
      <trkpt lat="44.45101" lon="4.37315">
        <ele>233</ele>
        <time>2011-08-14T11:18:15Z</time>
      </trkpt>
      <trkpt lat="44.45106" lon="4.37314">
        <ele>234</ele>
        <time>2011-08-14T11:18:22Z</time>
      </trkpt>
      <trkpt lat="44.4511" lon="4.37313">
        <ele>234</ele>
        <time>2011-08-14T11:18:28Z</time>
      </trkpt>
      <trkpt lat="44.45114" lon="4.37312">
        <ele>235</ele>
        <time>2011-08-14T11:18:35Z</time>
      </trkpt>
      <trkpt lat="44.45121" lon="4.37311">
        <ele>235</ele>
        <time>2011-08-14T11:18:43Z</time>
      </trkpt>
      <trkpt lat="44.45127" lon="4.37311">
        <ele>236</ele>
        <time>2011-08-14T11:18:50Z</time>
      </trkpt>
      <trkpt lat="44.45133" lon="4.37307">
        <ele>237</ele>
        <time>2011-08-14T11:18:57Z</time>
      </trkpt>
      <trkpt lat="44.45139" lon="4.37302">
        <ele>237</ele>
        <time>2011-08-14T11:19:06Z</time>
      </trkpt>
      <trkpt lat="44.45145" lon="4.373">
        <ele>237</ele>
        <time>2011-08-14T11:19:13Z</time>
      </trkpt>
      <trkpt lat="44.45152" lon="4.37301">
        <ele>238</ele>
        <time>2011-08-14T11:19:21Z</time>
      </trkpt>
      <trkpt lat="44.45156" lon="4.37304">
        <ele>238</ele>
        <time>2011-08-14T11:19:25Z</time>
      </trkpt>
      <trkpt lat="44.4516" lon="4.37306">
        <ele>238</ele>
        <time>2011-08-14T11:19:29Z</time>
      </trkpt>
      <trkpt lat="44.4516" lon="4.37307">
        <ele>238</ele>
        <time>2011-08-14T11:19:35Z</time>
      </trkpt>
      <trkpt lat="44.45161" lon="4.37305">
        <ele>238</ele>
        <time>2011-08-14T11:19:42Z</time>
      </trkpt>
      <trkpt lat="44.45161" lon="4.37303">
        <ele>238</ele>
        <time>2011-08-14T11:20:19Z</time>
      </trkpt>
      <trkpt lat="44.45161" lon="4.37304">
        <ele>238</ele>
        <time>2011-08-14T11:20:32Z</time>
      </trkpt>
      <trkpt lat="44.45161" lon="4.37304">
        <ele>238</ele>
        <time>2011-08-14T11:20:57Z</time>
      </trkpt>
      <trkpt lat="44.4516" lon="4.37307">
        <ele>238</ele>
        <time>2011-08-14T11:22:19Z</time>
      </trkpt>
      <trkpt lat="44.45161" lon="4.37306">
        <ele>238</ele>
        <time>2011-08-14T11:22:39Z</time>
      </trkpt>
      <trkpt lat="44.45161" lon="4.37306">
        <ele>238</ele>
        <time>2011-08-14T11:22:49Z</time>
      </trkpt>
      <trkpt lat="44.45162" lon="4.37306">
        <ele>238</ele>
        <time>2011-08-14T11:22:55Z</time>
      </trkpt>
      <trkpt lat="44.45162" lon="4.37306">
        <ele>238</ele>
        <time>2011-08-14T11:23:05Z</time>
      </trkpt>
      <trkpt lat="44.45163" lon="4.37305">
        <ele>238</ele>
        <time>2011-08-14T11:23:19Z</time>
      </trkpt>
      <trkpt lat="44.45167" lon="4.37308">
        <ele>238</ele>
        <time>2011-08-14T11:23:25Z</time>
      </trkpt>
      <trkpt lat="44.45176" lon="4.37318">
        <ele>239</ele>
        <time>2011-08-14T11:23:31Z</time>
      </trkpt>
      <trkpt lat="44.45185" lon="4.37322">
        <ele>238</ele>
        <time>2011-08-14T11:23:35Z</time>
      </trkpt>
      <trkpt lat="44.45193" lon="4.37334">
        <ele>238</ele>
        <time>2011-08-14T11:23:40Z</time>
      </trkpt>
      <trkpt lat="44.45209" lon="4.37356">
        <ele>238</ele>
        <time>2011-08-14T11:23:48Z</time>
      </trkpt>
      <trkpt lat="44.4522" lon="4.37367">
        <ele>238</ele>
        <time>2011-08-14T11:23:53Z</time>
      </trkpt>
      <trkpt lat="44.45231" lon="4.37384">
        <ele>239</ele>
        <time>2011-08-14T11:23:59Z</time>
      </trkpt>
      <trkpt lat="44.4524" lon="4.37398">
        <ele>241</ele>
        <time>2011-08-14T11:24:04Z</time>
      </trkpt>
      <trkpt lat="44.45251" lon="4.37416">
        <ele>245</ele>
        <time>2011-08-14T11:24:10Z</time>
      </trkpt>
      <trkpt lat="44.45258" lon="4.37432">
        <ele>244</ele>
        <time>2011-08-14T11:24:15Z</time>
      </trkpt>
      <trkpt lat="44.45265" lon="4.37446">
        <ele>244</ele>
        <time>2011-08-14T11:24:20Z</time>
      </trkpt>
      <trkpt lat="44.45277" lon="4.37462">
        <ele>244</ele>
        <time>2011-08-14T11:24:26Z</time>
      </trkpt>
      <trkpt lat="44.45288" lon="4.37481">
        <ele>245</ele>
        <time>2011-08-14T11:24:32Z</time>
      </trkpt>
      <trkpt lat="44.45296" lon="4.37496">
        <ele>246</ele>
        <time>2011-08-14T11:24:37Z</time>
      </trkpt>
      <trkpt lat="44.45307" lon="4.37516">
        <ele>248</ele>
        <time>2011-08-14T11:24:44Z</time>
      </trkpt>
      <trkpt lat="44.45316" lon="4.37532">
        <ele>249</ele>
        <time>2011-08-14T11:24:50Z</time>
      </trkpt>
      <trkpt lat="44.45329" lon="4.37548">
        <ele>250</ele>
        <time>2011-08-14T11:24:57Z</time>
      </trkpt>
      <trkpt lat="44.45339" lon="4.37559">
        <ele>261</ele>
        <time>2011-08-14T11:25:03Z</time>
      </trkpt>
      <trkpt lat="44.45347" lon="4.37569">
        <ele>261</ele>
        <time>2011-08-14T11:25:08Z</time>
      </trkpt>
      <trkpt lat="44.45356" lon="4.37584">
        <ele>264</ele>
        <time>2011-08-14T11:25:14Z</time>
      </trkpt>
      <trkpt lat="44.45362" lon="4.37595">
        <ele>265</ele>
        <time>2011-08-14T11:25:19Z</time>
      </trkpt>
      <trkpt lat="44.45366" lon="4.37606">
        <ele>266</ele>
        <time>2011-08-14T11:25:24Z</time>
      </trkpt>
      <trkpt lat="44.45378" lon="4.37619">
        <ele>267</ele>
        <time>2011-08-14T11:25:31Z</time>
      </trkpt>
      <trkpt lat="44.4538" lon="4.37621">
        <ele>268</ele>
        <time>2011-08-14T11:25:33Z</time>
      </trkpt>
      <trkpt lat="44.45384" lon="4.37625">
        <ele>268</ele>
        <time>2011-08-14T11:25:38Z</time>
      </trkpt>
      <trkpt lat="44.4539" lon="4.37629">
        <ele>269</ele>
        <time>2011-08-14T11:25:45Z</time>
      </trkpt>
      <trkpt lat="44.45398" lon="4.37631">
        <ele>270</ele>
        <time>2011-08-14T11:25:54Z</time>
      </trkpt>
      <trkpt lat="44.45403" lon="4.37639">
        <ele>271</ele>
        <time>2011-08-14T11:26:02Z</time>
      </trkpt>
      <trkpt lat="44.45408" lon="4.37644">
        <ele>272</ele>
        <time>2011-08-14T11:26:09Z</time>
      </trkpt>
      <trkpt lat="44.45415" lon="4.37645">
        <ele>273</ele>
        <time>2011-08-14T11:26:18Z</time>
      </trkpt>
      <trkpt lat="44.4542" lon="4.37649">
        <ele>282</ele>
        <time>2011-08-14T11:26:25Z</time>
      </trkpt>
      <trkpt lat="44.45427" lon="4.37652">
        <ele>283</ele>
        <time>2011-08-14T11:26:34Z</time>
      </trkpt>
      <trkpt lat="44.45433" lon="4.37654">
        <ele>283</ele>
        <time>2011-08-14T11:26:41Z</time>
      </trkpt>
      <trkpt lat="44.45439" lon="4.37656">
        <ele>284</ele>
        <time>2011-08-14T11:26:49Z</time>
      </trkpt>
      <trkpt lat="44.45445" lon="4.37655">
        <ele>285</ele>
        <time>2011-08-14T11:26:56Z</time>
      </trkpt>
      <trkpt lat="44.45453" lon="4.37653">
        <ele>286</ele>
        <time>2011-08-14T11:27:04Z</time>
      </trkpt>
      <trkpt lat="44.45454" lon="4.37653">
        <ele>286</ele>
        <time>2011-08-14T11:27:05Z</time>
      </trkpt>
      <trkpt lat="44.45459" lon="4.37647">
        <ele>286</ele>
        <time>2011-08-14T11:27:13Z</time>
      </trkpt>
      <trkpt lat="44.45466" lon="4.37642">
        <ele>287</ele>
        <time>2011-08-14T11:27:19Z</time>
      </trkpt>
      <trkpt lat="44.45467" lon="4.37641">
        <ele>287</ele>
        <time>2011-08-14T11:27:20Z</time>
      </trkpt>
      <trkpt lat="44.45475" lon="4.37645">
        <ele>288</ele>
        <time>2011-08-14T11:27:25Z</time>
      </trkpt>
      <trkpt lat="44.45479" lon="4.37648">
        <ele>289</ele>
        <time>2011-08-14T11:27:28Z</time>
      </trkpt>
      <trkpt lat="44.45488" lon="4.37635">
        <ele>289</ele>
        <time>2011-08-14T11:27:34Z</time>
      </trkpt>
      <trkpt lat="44.45497" lon="4.37624">
        <ele>289</ele>
        <time>2011-08-14T11:27:39Z</time>
      </trkpt>
      <trkpt lat="44.45507" lon="4.37612">
        <ele>292</ele>
        <time>2011-08-14T11:27:47Z</time>
      </trkpt>
      <trkpt lat="44.45517" lon="4.37598">
        <ele>292</ele>
        <time>2011-08-14T11:27:54Z</time>
      </trkpt>
      <trkpt lat="44.45531" lon="4.3758">
        <ele>289</ele>
        <time>2011-08-14T11:28:01Z</time>
      </trkpt>
      <trkpt lat="44.45536" lon="4.37549">
        <ele>289</ele>
        <time>2011-08-14T11:28:07Z</time>
      </trkpt>
      <trkpt lat="44.45541" lon="4.37524">
        <ele>288</ele>
        <time>2011-08-14T11:28:12Z</time>
      </trkpt>
      <trkpt lat="44.45541" lon="4.37493">
        <ele>286</ele>
        <time>2011-08-14T11:28:17Z</time>
      </trkpt>
      <trkpt lat="44.45545" lon="4.37465">
        <ele>285</ele>
        <time>2011-08-14T11:28:21Z</time>
      </trkpt>
      <trkpt lat="44.45561" lon="4.37441">
        <ele>284</ele>
        <time>2011-08-14T11:28:25Z</time>
      </trkpt>
      <trkpt lat="44.45573" lon="4.37419">
        <ele>283</ele>
        <time>2011-08-14T11:28:28Z</time>
      </trkpt>
      <trkpt lat="44.4559" lon="4.37395">
        <ele>276</ele>
        <time>2011-08-14T11:28:32Z</time>
      </trkpt>
      <trkpt lat="44.45611" lon="4.37366">
        <ele>272</ele>
        <time>2011-08-14T11:28:36Z</time>
      </trkpt>
      <trkpt lat="44.45628" lon="4.3734">
        <ele>271</ele>
        <time>2011-08-14T11:28:40Z</time>
      </trkpt>
      <trkpt lat="44.45638" lon="4.37332">
        <ele>266</ele>
        <time>2011-08-14T11:28:43Z</time>
      </trkpt>
      <trkpt lat="44.45645" lon="4.37328">
        <ele>266</ele>
        <time>2011-08-14T11:28:45Z</time>
      </trkpt>
      <trkpt lat="44.4567" lon="4.37309">
        <ele>266</ele>
        <time>2011-08-14T11:28:53Z</time>
      </trkpt>
      <trkpt lat="44.45687" lon="4.37295">
        <ele>266</ele>
        <time>2011-08-14T11:29:00Z</time>
      </trkpt>
      <trkpt lat="44.45705" lon="4.37281">
        <ele>266</ele>
        <time>2011-08-14T11:29:06Z</time>
      </trkpt>
      <trkpt lat="44.45724" lon="4.37261">
        <ele>267</ele>
        <time>2011-08-14T11:29:13Z</time>
      </trkpt>
      <trkpt lat="44.45735" lon="4.37251">
        <ele>268</ele>
        <time>2011-08-14T11:29:17Z</time>
      </trkpt>
      <trkpt lat="44.45751" lon="4.37233">
        <ele>267</ele>
        <time>2011-08-14T11:29:23Z</time>
      </trkpt>
      <trkpt lat="44.45763" lon="4.37207">
        <ele>265</ele>
        <time>2011-08-14T11:29:30Z</time>
      </trkpt>
      <trkpt lat="44.45771" lon="4.37178">
        <ele>264</ele>
        <time>2011-08-14T11:29:37Z</time>
      </trkpt>
      <trkpt lat="44.45778" lon="4.37152">
        <ele>263</ele>
        <time>2011-08-14T11:29:44Z</time>
      </trkpt>
      <trkpt lat="44.45785" lon="4.37115">
        <ele>262</ele>
        <time>2011-08-14T11:29:53Z</time>
      </trkpt>
      <trkpt lat="44.45788" lon="4.37092">
        <ele>262</ele>
        <time>2011-08-14T11:29:59Z</time>
      </trkpt>
      <trkpt lat="44.45791" lon="4.37073">
        <ele>259</ele>
        <time>2011-08-14T11:30:04Z</time>
      </trkpt>
      <trkpt lat="44.4579" lon="4.3707">
        <ele>259</ele>
        <time>2011-08-14T11:30:13Z</time>
      </trkpt>
      <trkpt lat="44.45791" lon="4.3707">
        <ele>259</ele>
        <time>2011-08-14T11:30:24Z</time>
      </trkpt>
      <trkpt lat="44.45791" lon="4.3707">
        <ele>259</ele>
        <time>2011-08-14T11:30:35Z</time>
      </trkpt>
      <trkpt lat="44.45791" lon="4.37069">
        <ele>259</ele>
        <time>2011-08-14T11:30:48Z</time>
      </trkpt>
      <trkpt lat="44.45791" lon="4.3707">
        <ele>259</ele>
        <time>2011-08-14T11:31:04Z</time>
      </trkpt>
      <trkpt lat="44.45791" lon="4.37068">
        <ele>259</ele>
        <time>2011-08-14T11:31:16Z</time>
      </trkpt>
      <trkpt lat="44.45791" lon="4.37069">
        <ele>259</ele>
        <time>2011-08-14T11:31:23Z</time>
      </trkpt>
      <trkpt lat="44.45792" lon="4.37065">
        <ele>259</ele>
        <time>2011-08-14T11:31:30Z</time>
      </trkpt>
      <trkpt lat="44.45791" lon="4.37065">
        <ele>259</ele>
        <time>2011-08-14T11:31:35Z</time>
      </trkpt>
      <trkpt lat="44.45791" lon="4.37068">
        <ele>259</ele>
        <time>2011-08-14T11:32:39Z</time>
      </trkpt>
      <trkpt lat="44.45792" lon="4.37067">
        <ele>259</ele>
        <time>2011-08-14T11:32:56Z</time>
      </trkpt>
      <trkpt lat="44.45791" lon="4.37066">
        <ele>259</ele>
        <time>2011-08-14T11:33:08Z</time>
      </trkpt>
      <trkpt lat="44.45791" lon="4.37066">
        <ele>259</ele>
        <time>2011-08-14T11:33:24Z</time>
      </trkpt>
      <trkpt lat="44.45791" lon="4.37067">
        <ele>259</ele>
        <time>2011-08-14T11:33:33Z</time>
      </trkpt>
      <trkpt lat="44.4579" lon="4.37068">
        <ele>259</ele>
        <time>2011-08-14T11:34:07Z</time>
      </trkpt>
      <trkpt lat="44.45791" lon="4.37067">
        <ele>259</ele>
        <time>2011-08-14T11:34:16Z</time>
      </trkpt>
      <trkpt lat="44.45792" lon="4.37067">
        <ele>259</ele>
        <time>2011-08-14T11:34:29Z</time>
      </trkpt>
      <trkpt lat="44.45793" lon="4.37066">
        <ele>259</ele>
        <time>2011-08-14T11:34:36Z</time>
      </trkpt>
      <trkpt lat="44.45794" lon="4.37063">
        <ele>259</ele>
        <time>2011-08-14T11:34:43Z</time>
      </trkpt>
      <trkpt lat="44.45798" lon="4.37044">
        <ele>258</ele>
        <time>2011-08-14T11:34:48Z</time>
      </trkpt>
      <trkpt lat="44.45803" lon="4.37007">
        <ele>257</ele>
        <time>2011-08-14T11:34:53Z</time>
      </trkpt>
      <trkpt lat="44.45805" lon="4.36982">
        <ele>250</ele>
        <time>2011-08-14T11:34:56Z</time>
      </trkpt>
      <trkpt lat="44.45811" lon="4.3696">
        <ele>248</ele>
        <time>2011-08-14T11:34:59Z</time>
      </trkpt>
      <trkpt lat="44.45809" lon="4.3694">
        <ele>246</ele>
        <time>2011-08-14T11:35:03Z</time>
      </trkpt>
      <trkpt lat="44.45805" lon="4.3693">
        <ele>246</ele>
        <time>2011-08-14T11:35:05Z</time>
      </trkpt>
      <trkpt lat="44.45802" lon="4.36914">
        <ele>237</ele>
        <time>2011-08-14T11:35:08Z</time>
      </trkpt>
      <trkpt lat="44.45794" lon="4.36876">
        <ele>234</ele>
        <time>2011-08-14T11:35:13Z</time>
      </trkpt>
      <trkpt lat="44.45792" lon="4.36867">
        <ele>234</ele>
        <time>2011-08-14T11:35:14Z</time>
      </trkpt>
      <trkpt lat="44.45787" lon="4.36824">
        <ele>230</ele>
        <time>2011-08-14T11:35:19Z</time>
      </trkpt>
      <trkpt lat="44.45779" lon="4.36806">
        <ele>231</ele>
        <time>2011-08-14T11:35:23Z</time>
      </trkpt>
      <trkpt lat="44.45776" lon="4.36791">
        <ele>232</ele>
        <time>2011-08-14T11:35:27Z</time>
      </trkpt>
      <trkpt lat="44.45776" lon="4.36768">
        <ele>232</ele>
        <time>2011-08-14T11:35:34Z</time>
      </trkpt>
      <trkpt lat="44.45776" lon="4.36748">
        <ele>239</ele>
        <time>2011-08-14T11:35:41Z</time>
      </trkpt>
      <trkpt lat="44.45775" lon="4.36745">
        <ele>239</ele>
        <time>2011-08-14T11:35:45Z</time>
      </trkpt>
      <trkpt lat="44.45774" lon="4.36738">
        <ele>239</ele>
        <time>2011-08-14T11:35:50Z</time>
      </trkpt>
      <trkpt lat="44.45773" lon="4.3673">
        <ele>240</ele>
        <time>2011-08-14T11:35:56Z</time>
      </trkpt>
      <trkpt lat="44.45771" lon="4.36723">
        <ele>240</ele>
        <time>2011-08-14T11:36:01Z</time>
      </trkpt>
      <trkpt lat="44.45771" lon="4.3672">
        <ele>240</ele>
        <time>2011-08-14T11:36:06Z</time>
      </trkpt>
      <trkpt lat="44.45771" lon="4.36712">
        <ele>241</ele>
        <time>2011-08-14T11:36:12Z</time>
      </trkpt>
      <trkpt lat="44.4577" lon="4.36699">
        <ele>242</ele>
        <time>2011-08-14T11:36:21Z</time>
      </trkpt>
      <trkpt lat="44.45767" lon="4.36692">
        <ele>243</ele>
        <time>2011-08-14T11:36:28Z</time>
      </trkpt>
      <trkpt lat="44.45764" lon="4.36685">
        <ele>244</ele>
        <time>2011-08-14T11:36:35Z</time>
      </trkpt>
      <trkpt lat="44.45765" lon="4.36673">
        <ele>246</ele>
        <time>2011-08-14T11:36:43Z</time>
      </trkpt>
      <trkpt lat="44.45765" lon="4.36672">
        <ele>246</ele>
        <time>2011-08-14T11:36:44Z</time>
      </trkpt>
      <trkpt lat="44.45767" lon="4.3666">
        <ele>250</ele>
        <time>2011-08-14T11:36:53Z</time>
      </trkpt>
      <trkpt lat="44.45769" lon="4.3665">
        <ele>250</ele>
        <time>2011-08-14T11:37:01Z</time>
      </trkpt>
      <trkpt lat="44.4577" lon="4.36647">
        <ele>250</ele>
        <time>2011-08-14T11:37:06Z</time>
      </trkpt>
      <trkpt lat="44.45772" lon="4.36643">
        <ele>250</ele>
        <time>2011-08-14T11:37:14Z</time>
      </trkpt>
      <trkpt lat="44.45777" lon="4.36633">
        <ele>250</ele>
        <time>2011-08-14T11:37:23Z</time>
      </trkpt>
      <trkpt lat="44.45782" lon="4.36621">
        <ele>250</ele>
        <time>2011-08-14T11:37:31Z</time>
      </trkpt>
      <trkpt lat="44.45785" lon="4.36608">
        <ele>251</ele>
        <time>2011-08-14T11:37:40Z</time>
      </trkpt>
      <trkpt lat="44.45786" lon="4.36607">
        <ele>251</ele>
        <time>2011-08-14T11:37:47Z</time>
      </trkpt>
      <trkpt lat="44.45785" lon="4.36609">
        <ele>251</ele>
        <time>2011-08-14T11:38:00Z</time>
      </trkpt>
      <trkpt lat="44.45787" lon="4.36609">
        <ele>250</ele>
        <time>2011-08-14T11:38:07Z</time>
      </trkpt>
      <trkpt lat="44.45788" lon="4.36612">
        <ele>250</ele>
        <time>2011-08-14T11:38:13Z</time>
      </trkpt>
      <trkpt lat="44.45788" lon="4.36613">
        <ele>250</ele>
        <time>2011-08-14T11:38:34Z</time>
      </trkpt>
      <trkpt lat="44.45788" lon="4.36614">
        <ele>250</ele>
        <time>2011-08-14T11:38:42Z</time>
      </trkpt>
      <trkpt lat="44.45788" lon="4.36614">
        <ele>250</ele>
        <time>2011-08-14T11:38:48Z</time>
      </trkpt>
      <trkpt lat="44.45788" lon="4.36614">
        <ele>250</ele>
        <time>2011-08-14T11:38:55Z</time>
      </trkpt>
      <trkpt lat="44.45787" lon="4.36619">
        <ele>250</ele>
        <time>2011-08-14T11:39:03Z</time>
      </trkpt>
      <trkpt lat="44.45786" lon="4.36624">
        <ele>250</ele>
        <time>2011-08-14T11:39:11Z</time>
      </trkpt>
      <trkpt lat="44.45786" lon="4.36622">
        <ele>250</ele>
        <time>2011-08-14T11:39:15Z</time>
      </trkpt>
      <trkpt lat="44.45785" lon="4.36624">
        <ele>250</ele>
        <time>2011-08-14T11:39:23Z</time>
      </trkpt>
      <trkpt lat="44.45784" lon="4.36626">
        <ele>250</ele>
        <time>2011-08-14T11:39:25Z</time>
      </trkpt>
      <trkpt lat="44.45777" lon="4.36635">
        <ele>250</ele>
        <time>2011-08-14T11:39:32Z</time>
      </trkpt>
      <trkpt lat="44.45775" lon="4.36637">
        <ele>250</ele>
        <time>2011-08-14T11:39:44Z</time>
      </trkpt>
      <trkpt lat="44.45774" lon="4.36636">
        <ele>250</ele>
        <time>2011-08-14T11:39:45Z</time>
      </trkpt>
      <trkpt lat="44.45776" lon="4.36627">
        <ele>250</ele>
        <time>2011-08-14T11:39:50Z</time>
      </trkpt>
      <trkpt lat="44.45784" lon="4.36619">
        <ele>250</ele>
        <time>2011-08-14T11:39:56Z</time>
      </trkpt>
      <trkpt lat="44.45787" lon="4.36611">
        <ele>250</ele>
        <time>2011-08-14T11:40:00Z</time>
      </trkpt>
      <trkpt lat="44.4579" lon="4.36592">
        <ele>251</ele>
        <time>2011-08-14T11:40:09Z</time>
      </trkpt>
      <trkpt lat="44.45793" lon="4.36586">
        <ele>250</ele>
        <time>2011-08-14T11:40:12Z</time>
      </trkpt>
      <trkpt lat="44.45795" lon="4.36588">
        <ele>250</ele>
        <time>2011-08-14T11:40:18Z</time>
      </trkpt>
      <trkpt lat="44.45805" lon="4.36598">
        <ele>250</ele>
        <time>2011-08-14T11:40:25Z</time>
      </trkpt>
      <trkpt lat="44.45807" lon="4.36599">
        <ele>250</ele>
        <time>2011-08-14T11:40:26Z</time>
      </trkpt>
      <trkpt lat="44.45814" lon="4.36611">
        <ele>249</ele>
        <time>2011-08-14T11:40:33Z</time>
      </trkpt>
      <trkpt lat="44.45821" lon="4.3662">
        <ele>249</ele>
        <time>2011-08-14T11:40:39Z</time>
      </trkpt>
      <trkpt lat="44.45831" lon="4.36625">
        <ele>249</ele>
        <time>2011-08-14T11:40:44Z</time>
      </trkpt>
      <trkpt lat="44.45836" lon="4.36636">
        <ele>243</ele>
        <time>2011-08-14T11:40:49Z</time>
      </trkpt>
      <trkpt lat="44.45839" lon="4.36636">
        <ele>243</ele>
        <time>2011-08-14T11:40:55Z</time>
      </trkpt>
      <trkpt lat="44.45849" lon="4.3663">
        <ele>242</ele>
        <time>2011-08-14T11:41:00Z</time>
      </trkpt>
      <trkpt lat="44.45851" lon="4.36629">
        <ele>242</ele>
        <time>2011-08-14T11:41:01Z</time>
      </trkpt>
      <trkpt lat="44.45854" lon="4.36628">
        <ele>241</ele>
        <time>2011-08-14T11:41:07Z</time>
      </trkpt>
      <trkpt lat="44.45854" lon="4.36627">
        <ele>241</ele>
        <time>2011-08-14T11:41:16Z</time>
      </trkpt>
      <trkpt lat="44.45855" lon="4.36626">
        <ele>241</ele>
        <time>2011-08-14T11:41:35Z</time>
      </trkpt>
      <trkpt lat="44.45855" lon="4.36627">
        <ele>241</ele>
        <time>2011-08-14T11:41:48Z</time>
      </trkpt>
      <trkpt lat="44.45853" lon="4.36627">
        <ele>241</ele>
        <time>2011-08-14T11:41:53Z</time>
      </trkpt>
      <trkpt lat="44.4585" lon="4.36625">
        <ele>242</ele>
        <time>2011-08-14T11:41:57Z</time>
      </trkpt>
      <trkpt lat="44.45847" lon="4.36622">
        <ele>242</ele>
        <time>2011-08-14T11:42:00Z</time>
      </trkpt>
      <trkpt lat="44.45838" lon="4.3662">
        <ele>242</ele>
        <time>2011-08-14T11:42:07Z</time>
      </trkpt>
      <trkpt lat="44.45831" lon="4.36611">
        <ele>249</ele>
        <time>2011-08-14T11:42:13Z</time>
      </trkpt>
      <trkpt lat="44.45825" lon="4.36614">
        <ele>249</ele>
        <time>2011-08-14T11:42:16Z</time>
      </trkpt>
      <trkpt lat="44.45814" lon="4.36615">
        <ele>249</ele>
        <time>2011-08-14T11:42:22Z</time>
      </trkpt>
      <trkpt lat="44.45804" lon="4.36613">
        <ele>250</ele>
        <time>2011-08-14T11:42:27Z</time>
      </trkpt>
      <trkpt lat="44.45793" lon="4.36615">
        <ele>250</ele>
        <time>2011-08-14T11:42:32Z</time>
      </trkpt>
      <trkpt lat="44.45784" lon="4.36614">
        <ele>250</ele>
        <time>2011-08-14T11:42:38Z</time>
      </trkpt>
      <trkpt lat="44.45783" lon="4.3662">
        <ele>250</ele>
        <time>2011-08-14T11:42:42Z</time>
      </trkpt>
      <trkpt lat="44.45782" lon="4.36623">
        <ele>250</ele>
        <time>2011-08-14T11:42:48Z</time>
      </trkpt>
      <trkpt lat="44.4578" lon="4.3663">
        <ele>250</ele>
        <time>2011-08-14T11:42:57Z</time>
      </trkpt>
      <trkpt lat="44.45774" lon="4.36641">
        <ele>250</ele>
        <time>2011-08-14T11:43:02Z</time>
      </trkpt>
      <trkpt lat="44.4577" lon="4.36656">
        <ele>250</ele>
        <time>2011-08-14T11:43:06Z</time>
      </trkpt>
      <trkpt lat="44.45767" lon="4.36676">
        <ele>245</ele>
        <time>2011-08-14T11:43:10Z</time>
      </trkpt>
      <trkpt lat="44.45773" lon="4.36695">
        <ele>243</ele>
        <time>2011-08-14T11:43:14Z</time>
      </trkpt>
      <trkpt lat="44.45773" lon="4.36708">
        <ele>242</ele>
        <time>2011-08-14T11:43:18Z</time>
      </trkpt>
      <trkpt lat="44.45775" lon="4.36722">
        <ele>240</ele>
        <time>2011-08-14T11:43:22Z</time>
      </trkpt>
      <trkpt lat="44.45779" lon="4.36746">
        <ele>239</ele>
        <time>2011-08-14T11:43:26Z</time>
      </trkpt>
      <trkpt lat="44.45779" lon="4.36777">
        <ele>232</ele>
        <time>2011-08-14T11:43:30Z</time>
      </trkpt>
      <trkpt lat="44.45784" lon="4.36805">
        <ele>231</ele>
        <time>2011-08-14T11:43:34Z</time>
      </trkpt>
      <trkpt lat="44.4579" lon="4.36808">
        <ele>231</ele>
        <time>2011-08-14T11:43:37Z</time>
      </trkpt>
      <trkpt lat="44.45789" lon="4.36808">
        <ele>231</ele>
        <time>2011-08-14T11:43:41Z</time>
      </trkpt>
      <trkpt lat="44.45791" lon="4.36806">
        <ele>231</ele>
        <time>2011-08-14T11:43:46Z</time>
      </trkpt>
      <trkpt lat="44.45791" lon="4.36806">
        <ele>231</ele>
        <time>2011-08-14T11:43:50Z</time>
      </trkpt>
      <trkpt lat="44.45792" lon="4.36805">
        <ele>231</ele>
        <time>2011-08-14T11:44:08Z</time>
      </trkpt>
      <trkpt lat="44.45794" lon="4.36801">
        <ele>231</ele>
        <time>2011-08-14T11:44:13Z</time>
      </trkpt>
      <trkpt lat="44.45794" lon="4.368">
        <ele>231</ele>
        <time>2011-08-14T11:44:21Z</time>
      </trkpt>
      <trkpt lat="44.45799" lon="4.3679">
        <ele>231</ele>
        <time>2011-08-14T11:44:25Z</time>
      </trkpt>
      <trkpt lat="44.45814" lon="4.36766">
        <ele>232</ele>
        <time>2011-08-14T11:44:30Z</time>
      </trkpt>
      <trkpt lat="44.45824" lon="4.36748">
        <ele>235</ele>
        <time>2011-08-14T11:44:33Z</time>
      </trkpt>
      <trkpt lat="44.45847" lon="4.36739">
        <ele>232</ele>
        <time>2011-08-14T11:44:38Z</time>
      </trkpt>
      <trkpt lat="44.45869" lon="4.36739">
        <ele>230</ele>
        <time>2011-08-14T11:44:42Z</time>
      </trkpt>
      <trkpt lat="44.45882" lon="4.36737">
        <ele>229</ele>
        <time>2011-08-14T11:44:44Z</time>
      </trkpt>
      <trkpt lat="44.4591" lon="4.36733">
        <ele>225</ele>
        <time>2011-08-14T11:44:49Z</time>
      </trkpt>
      <trkpt lat="44.45919" lon="4.36732">
        <ele>217</ele>
        <time>2011-08-14T11:44:52Z</time>
      </trkpt>
      <trkpt lat="44.45923" lon="4.36736">
        <ele>217</ele>
        <time>2011-08-14T11:44:56Z</time>
      </trkpt>
      <trkpt lat="44.45921" lon="4.3674">
        <ele>217</ele>
        <time>2011-08-14T11:44:58Z</time>
      </trkpt>
      <trkpt lat="44.45903" lon="4.36762">
        <ele>220</ele>
        <time>2011-08-14T11:45:04Z</time>
      </trkpt>
      <trkpt lat="44.45886" lon="4.3678">
        <ele>222</ele>
        <time>2011-08-14T11:45:08Z</time>
      </trkpt>
      <trkpt lat="44.45882" lon="4.36783">
        <ele>222</ele>
        <time>2011-08-14T11:45:09Z</time>
      </trkpt>
      <trkpt lat="44.45871" lon="4.36791">
        <ele>223</ele>
        <time>2011-08-14T11:45:14Z</time>
      </trkpt>
      <trkpt lat="44.45876" lon="4.36795">
        <ele>222</ele>
        <time>2011-08-14T11:45:18Z</time>
      </trkpt>
      <trkpt lat="44.45876" lon="4.36795">
        <ele>222</ele>
        <time>2011-08-14T11:45:22Z</time>
      </trkpt>
      <trkpt lat="44.45877" lon="4.36795">
        <ele>222</ele>
        <time>2011-08-14T11:45:23Z</time>
      </trkpt>
      <trkpt lat="44.45889" lon="4.36797">
        <ele>221</ele>
        <time>2011-08-14T11:45:28Z</time>
      </trkpt>
      <trkpt lat="44.45909" lon="4.36795">
        <ele>220</ele>
        <time>2011-08-14T11:45:33Z</time>
      </trkpt>
      <trkpt lat="44.45927" lon="4.36794">
        <ele>211</ele>
        <time>2011-08-14T11:45:37Z</time>
      </trkpt>
      <trkpt lat="44.45941" lon="4.36794">
        <ele>210</ele>
        <time>2011-08-14T11:45:40Z</time>
      </trkpt>
      <trkpt lat="44.45962" lon="4.36795">
        <ele>209</ele>
        <time>2011-08-14T11:45:45Z</time>
      </trkpt>
      <trkpt lat="44.45978" lon="4.368">
        <ele>208</ele>
        <time>2011-08-14T11:45:48Z</time>
      </trkpt>
      <trkpt lat="44.46001" lon="4.36802">
        <ele>202</ele>
        <time>2011-08-14T11:45:52Z</time>
      </trkpt>
      <trkpt lat="44.46011" lon="4.36803">
        <ele>202</ele>
        <time>2011-08-14T11:45:55Z</time>
      </trkpt>
      <trkpt lat="44.46014" lon="4.36803">
        <ele>202</ele>
        <time>2011-08-14T11:46:02Z</time>
      </trkpt>
      <trkpt lat="44.46016" lon="4.36803">
        <ele>202</ele>
        <time>2011-08-14T11:46:09Z</time>
      </trkpt>
      <trkpt lat="44.46023" lon="4.36804">
        <ele>202</ele>
        <time>2011-08-14T11:46:13Z</time>
      </trkpt>
      <trkpt lat="44.46036" lon="4.36804">
        <ele>202</ele>
        <time>2011-08-14T11:46:17Z</time>
      </trkpt>
      <trkpt lat="44.4604" lon="4.36804">
        <ele>202</ele>
        <time>2011-08-14T11:46:18Z</time>
      </trkpt>
      <trkpt lat="44.46049" lon="4.36812">
        <ele>202</ele>
        <time>2011-08-14T11:46:21Z</time>
      </trkpt>
      <trkpt lat="44.46059" lon="4.36809">
        <ele>202</ele>
        <time>2011-08-14T11:46:25Z</time>
      </trkpt>
      <trkpt lat="44.4606" lon="4.36808">
        <ele>202</ele>
        <time>2011-08-14T11:46:26Z</time>
      </trkpt>
      <trkpt lat="44.46063" lon="4.36805">
        <ele>201</ele>
        <time>2011-08-14T11:46:53Z</time>
      </trkpt>
      <trkpt lat="44.46064" lon="4.36802">
        <ele>201</ele>
        <time>2011-08-14T11:46:58Z</time>
      </trkpt>
      <trkpt lat="44.4607" lon="4.36789">
        <ele>200</ele>
        <time>2011-08-14T11:47:02Z</time>
      </trkpt>
      <trkpt lat="44.46085" lon="4.36771">
        <ele>196</ele>
        <time>2011-08-14T11:47:08Z</time>
      </trkpt>
      <trkpt lat="44.46098" lon="4.36757">
        <ele>195</ele>
        <time>2011-08-14T11:47:13Z</time>
      </trkpt>
      <trkpt lat="44.46114" lon="4.36735">
        <ele>189</ele>
        <time>2011-08-14T11:47:20Z</time>
      </trkpt>
      <trkpt lat="44.46128" lon="4.36718">
        <ele>188</ele>
        <time>2011-08-14T11:47:25Z</time>
      </trkpt>
      <trkpt lat="44.46142" lon="4.36701">
        <ele>187</ele>
        <time>2011-08-14T11:47:30Z</time>
      </trkpt>
      <trkpt lat="44.46158" lon="4.36687">
        <ele>185</ele>
        <time>2011-08-14T11:47:36Z</time>
      </trkpt>
      <trkpt lat="44.46179" lon="4.36678">
        <ele>181</ele>
        <time>2011-08-14T11:47:40Z</time>
      </trkpt>
      <trkpt lat="44.46202" lon="4.36658">
        <ele>176</ele>
        <time>2011-08-14T11:47:44Z</time>
      </trkpt>
      <trkpt lat="44.46224" lon="4.36648">
        <ele>176</ele>
        <time>2011-08-14T11:47:48Z</time>
      </trkpt>
      <trkpt lat="44.46245" lon="4.3665">
        <ele>175</ele>
        <time>2011-08-14T11:47:51Z</time>
      </trkpt>
      <trkpt lat="44.46275" lon="4.36654">
        <ele>172</ele>
        <time>2011-08-14T11:47:56Z</time>
      </trkpt>
      <trkpt lat="44.4628" lon="4.36652">
        <ele>172</ele>
        <time>2011-08-14T11:47:57Z</time>
      </trkpt>
      <trkpt lat="44.46295" lon="4.36644">
        <ele>171</ele>
        <time>2011-08-14T11:48:03Z</time>
      </trkpt>
      <trkpt lat="44.46311" lon="4.3664">
        <ele>171</ele>
        <time>2011-08-14T11:48:09Z</time>
      </trkpt>
      <trkpt lat="44.46318" lon="4.36636">
        <ele>171</ele>
        <time>2011-08-14T11:48:11Z</time>
      </trkpt>
      <trkpt lat="44.4634" lon="4.36618">
        <ele>168</ele>
        <time>2011-08-14T11:48:16Z</time>
      </trkpt>
      <trkpt lat="44.46362" lon="4.36602">
        <ele>167</ele>
        <time>2011-08-14T11:48:20Z</time>
      </trkpt>
      <trkpt lat="44.46378" lon="4.36582">
        <ele>166</ele>
        <time>2011-08-14T11:48:23Z</time>
      </trkpt>
      <trkpt lat="44.46409" lon="4.3656">
        <ele>165</ele>
        <time>2011-08-14T11:48:28Z</time>
      </trkpt>
      <trkpt lat="44.46432" lon="4.36555">
        <ele>166</ele>
        <time>2011-08-14T11:48:32Z</time>
      </trkpt>
      <trkpt lat="44.46449" lon="4.36559">
        <ele>166</ele>
        <time>2011-08-14T11:48:35Z</time>
      </trkpt>
      <trkpt lat="44.46464" lon="4.36568">
        <ele>166</ele>
        <time>2011-08-14T11:48:38Z</time>
      </trkpt>
      <trkpt lat="44.46503" lon="4.36586">
        <ele>169</ele>
        <time>2011-08-14T11:48:46Z</time>
      </trkpt>
      <trkpt lat="44.46521" lon="4.36596">
        <ele>171</ele>
        <time>2011-08-14T11:48:50Z</time>
      </trkpt>
      <trkpt lat="44.46557" lon="4.36605">
        <ele>174</ele>
        <time>2011-08-14T11:48:58Z</time>
      </trkpt>
      <trkpt lat="44.46586" lon="4.36618">
        <ele>178</ele>
        <time>2011-08-14T11:49:06Z</time>
      </trkpt>
      <trkpt lat="44.46617" lon="4.36633">
        <ele>178</ele>
        <time>2011-08-14T11:49:14Z</time>
      </trkpt>
      <trkpt lat="44.46636" lon="4.3664">
        <ele>179</ele>
        <time>2011-08-14T11:49:20Z</time>
      </trkpt>
      <trkpt lat="44.46652" lon="4.36644">
        <ele>179</ele>
        <time>2011-08-14T11:49:28Z</time>
      </trkpt>
      <trkpt lat="44.46662" lon="4.36653">
        <ele>179</ele>
        <time>2011-08-14T11:49:34Z</time>
      </trkpt>
      <trkpt lat="44.46671" lon="4.36663">
        <ele>179</ele>
        <time>2011-08-14T11:49:42Z</time>
      </trkpt>
      <trkpt lat="44.46682" lon="4.36671">
        <ele>178</ele>
        <time>2011-08-14T11:49:51Z</time>
      </trkpt>
      <trkpt lat="44.46691" lon="4.3668">
        <ele>178</ele>
        <time>2011-08-14T11:49:58Z</time>
      </trkpt>
      <trkpt lat="44.46692" lon="4.3668">
        <ele>178</ele>
        <time>2011-08-14T11:50:04Z</time>
      </trkpt>
      <trkpt lat="44.46693" lon="4.36679">
        <ele>178</ele>
        <time>2011-08-14T11:50:17Z</time>
      </trkpt>
      <trkpt lat="44.46693" lon="4.36679">
        <ele>178</ele>
        <time>2011-08-14T11:50:31Z</time>
      </trkpt>
      <trkpt lat="44.46692" lon="4.3668">
        <ele>178</ele>
        <time>2011-08-14T11:50:42Z</time>
      </trkpt>
      <trkpt lat="44.46693" lon="4.36679">
        <ele>178</ele>
        <time>2011-08-14T11:50:51Z</time>
      </trkpt>
      <trkpt lat="44.46692" lon="4.3668">
        <ele>178</ele>
        <time>2011-08-14T11:51:16Z</time>
      </trkpt>
      <trkpt lat="44.46693" lon="4.36679">
        <ele>178</ele>
        <time>2011-08-14T11:51:25Z</time>
      </trkpt>
      <trkpt lat="44.46693" lon="4.36677">
        <ele>178</ele>
        <time>2011-08-14T11:52:26Z</time>
      </trkpt>
      <trkpt lat="44.46693" lon="4.36676">
        <ele>178</ele>
        <time>2011-08-14T11:52:42Z</time>
      </trkpt>
      <trkpt lat="44.46695" lon="4.36674">
        <ele>178</ele>
        <time>2011-08-14T11:55:26Z</time>
      </trkpt>
      <trkpt lat="44.46698" lon="4.36674">
        <ele>177</ele>
        <time>2011-08-14T11:55:51Z</time>
      </trkpt>
      <trkpt lat="44.46711" lon="4.36673">
        <ele>177</ele>
        <time>2011-08-14T11:55:55Z</time>
      </trkpt>
      <trkpt lat="44.46734" lon="4.36677">
        <ele>177</ele>
        <time>2011-08-14T11:56:00Z</time>
      </trkpt>
      <trkpt lat="44.46773" lon="4.36681">
        <ele>174</ele>
        <time>2011-08-14T11:56:07Z</time>
      </trkpt>
      <trkpt lat="44.46819" lon="4.36684">
        <ele>172</ele>
        <time>2011-08-14T11:56:15Z</time>
      </trkpt>
      <trkpt lat="44.46864" lon="4.36675">
        <ele>168</ele>
        <time>2011-08-14T11:56:22Z</time>
      </trkpt>
      <trkpt lat="44.46877" lon="4.36673">
        <ele>167</ele>
        <time>2011-08-14T11:56:24Z</time>
      </trkpt>
      <trkpt lat="44.469" lon="4.36655">
        <ele>167</ele>
        <time>2011-08-14T11:56:28Z</time>
      </trkpt>
      <trkpt lat="44.46906" lon="4.36639">
        <ele>168</ele>
        <time>2011-08-14T11:56:30Z</time>
      </trkpt>
      <trkpt lat="44.46919" lon="4.36592">
        <ele>165</ele>
        <time>2011-08-14T11:56:36Z</time>
      </trkpt>
      <trkpt lat="44.46935" lon="4.36567">
        <ele>162</ele>
        <time>2011-08-14T11:56:41Z</time>
      </trkpt>
      <trkpt lat="44.4695" lon="4.36549">
        <ele>160</ele>
        <time>2011-08-14T11:56:45Z</time>
      </trkpt>
      <trkpt lat="44.4697" lon="4.36535">
        <ele>159</ele>
        <time>2011-08-14T11:56:49Z</time>
      </trkpt>
      <trkpt lat="44.46973" lon="4.3653">
        <ele>158</ele>
        <time>2011-08-14T11:56:50Z</time>
      </trkpt>
      <trkpt lat="44.46985" lon="4.36508">
        <ele>157</ele>
        <time>2011-08-14T11:56:54Z</time>
      </trkpt>
      <trkpt lat="44.47005" lon="4.36474">
        <ele>155</ele>
        <time>2011-08-14T11:56:59Z</time>
      </trkpt>
      <trkpt lat="44.47024" lon="4.36468">
        <ele>155</ele>
        <time>2011-08-14T11:57:02Z</time>
      </trkpt>
      <trkpt lat="44.47038" lon="4.36467">
        <ele>154</ele>
        <time>2011-08-14T11:57:04Z</time>
      </trkpt>
      <trkpt lat="44.47079" lon="4.36471">
        <ele>154</ele>
        <time>2011-08-14T11:57:10Z</time>
      </trkpt>
      <trkpt lat="44.47099" lon="4.36458">
        <ele>155</ele>
        <time>2011-08-14T11:57:14Z</time>
      </trkpt>
      <trkpt lat="44.4711" lon="4.36437">
        <ele>154</ele>
        <time>2011-08-14T11:57:17Z</time>
      </trkpt>
      <trkpt lat="44.47122" lon="4.36406">
        <ele>151</ele>
        <time>2011-08-14T11:57:21Z</time>
      </trkpt>
      <trkpt lat="44.47133" lon="4.3638">
        <ele>151</ele>
        <time>2011-08-14T11:57:25Z</time>
      </trkpt>
      <trkpt lat="44.47157" lon="4.36351">
        <ele>151</ele>
        <time>2011-08-14T11:57:32Z</time>
      </trkpt>
      <trkpt lat="44.47178" lon="4.36332">
        <ele>150</ele>
        <time>2011-08-14T11:57:39Z</time>
      </trkpt>
      <trkpt lat="44.47196" lon="4.36314">
        <ele>149</ele>
        <time>2011-08-14T11:57:46Z</time>
      </trkpt>
      <trkpt lat="44.47218" lon="4.36291">
        <ele>149</ele>
        <time>2011-08-14T11:57:54Z</time>
      </trkpt>
      <trkpt lat="44.47238" lon="4.36263">
        <ele>147</ele>
        <time>2011-08-14T11:58:02Z</time>
      </trkpt>
      <trkpt lat="44.47253" lon="4.36233">
        <ele>144</ele>
        <time>2011-08-14T11:58:08Z</time>
      </trkpt>
      <trkpt lat="44.47279" lon="4.36182">
        <ele>142</ele>
        <time>2011-08-14T11:58:16Z</time>
      </trkpt>
      <trkpt lat="44.473" lon="4.3613">
        <ele>140</ele>
        <time>2011-08-14T11:58:23Z</time>
      </trkpt>
      <trkpt lat="44.47313" lon="4.36088">
        <ele>139</ele>
        <time>2011-08-14T11:58:28Z</time>
      </trkpt>
      <trkpt lat="44.4733" lon="4.36058">
        <ele>138</ele>
        <time>2011-08-14T11:58:33Z</time>
      </trkpt>
      <trkpt lat="44.47343" lon="4.36043">
        <ele>137</ele>
        <time>2011-08-14T11:58:38Z</time>
      </trkpt>
      <trkpt lat="44.4735" lon="4.36035">
        <ele>137</ele>
        <time>2011-08-14T11:58:42Z</time>
      </trkpt>
      <trkpt lat="44.47351" lon="4.36034">
        <ele>137</ele>
        <time>2011-08-14T11:58:49Z</time>
      </trkpt>
      <trkpt lat="44.47351" lon="4.36035">
        <ele>137</ele>
        <time>2011-08-14T11:59:30Z</time>
      </trkpt>
      <trkpt lat="44.47352" lon="4.36034">
        <ele>137</ele>
        <time>2011-08-14T11:59:52Z</time>
      </trkpt>
      <trkpt lat="44.47352" lon="4.36033">
        <ele>137</ele>
        <time>2011-08-14T12:00:08Z</time>
      </trkpt>
      <trkpt lat="44.47352" lon="4.36035">
        <ele>137</ele>
        <time>2011-08-14T12:00:16Z</time>
      </trkpt>
      <trkpt lat="44.47353" lon="4.36035">
        <ele>137</ele>
        <time>2011-08-14T12:00:37Z</time>
      </trkpt>
      <trkpt lat="44.47356" lon="4.36033">
        <ele>137</ele>
        <time>2011-08-14T12:00:45Z</time>
      </trkpt>
      <trkpt lat="44.47359" lon="4.36026">
        <ele>137</ele>
        <time>2011-08-14T12:00:52Z</time>
      </trkpt>
      <trkpt lat="44.47373" lon="4.36007">
        <ele>136</ele>
        <time>2011-08-14T12:00:58Z</time>
      </trkpt>
      <trkpt lat="44.47378" lon="4.36002">
        <ele>136</ele>
        <time>2011-08-14T12:01:00Z</time>
      </trkpt>
      <trkpt lat="44.4739" lon="4.36005">
        <ele>136</ele>
        <time>2011-08-14T12:01:05Z</time>
      </trkpt>
      <trkpt lat="44.47402" lon="4.36022">
        <ele>136</ele>
        <time>2011-08-14T12:01:11Z</time>
      </trkpt>
      <trkpt lat="44.47421" lon="4.36046">
        <ele>136</ele>
        <time>2011-08-14T12:01:19Z</time>
      </trkpt>
      <trkpt lat="44.47434" lon="4.3606">
        <ele>136</ele>
        <time>2011-08-14T12:01:24Z</time>
      </trkpt>
      <trkpt lat="44.47447" lon="4.36055">
        <ele>136</ele>
        <time>2011-08-14T12:01:28Z</time>
      </trkpt>
      <trkpt lat="44.47468" lon="4.36032">
        <ele>135</ele>
        <time>2011-08-14T12:01:35Z</time>
      </trkpt>
      <trkpt lat="44.47483" lon="4.36019">
        <ele>135</ele>
        <time>2011-08-14T12:01:40Z</time>
      </trkpt>
      <trkpt lat="44.47488" lon="4.35995">
        <ele>135</ele>
        <time>2011-08-14T12:01:45Z</time>
      </trkpt>
      <trkpt lat="44.47497" lon="4.35983">
        <ele>135</ele>
        <time>2011-08-14T12:01:49Z</time>
      </trkpt>
      <trkpt lat="44.47504" lon="4.35983">
        <ele>134</ele>
        <time>2011-08-14T12:01:53Z</time>
      </trkpt>
      <trkpt lat="44.47519" lon="4.35995">
        <ele>134</ele>
        <time>2011-08-14T12:01:58Z</time>
      </trkpt>
      <trkpt lat="44.47536" lon="4.36002">
        <ele>134</ele>
        <time>2011-08-14T12:02:03Z</time>
      </trkpt>
      <trkpt lat="44.47559" lon="4.35985">
        <ele>133</ele>
        <time>2011-08-14T12:02:09Z</time>
      </trkpt>
      <trkpt lat="44.47587" lon="4.35959">
        <ele>132</ele>
        <time>2011-08-14T12:02:16Z</time>
      </trkpt>
      <trkpt lat="44.47596" lon="4.35952">
        <ele>131</ele>
        <time>2011-08-14T12:02:18Z</time>
      </trkpt>
      <trkpt lat="44.47604" lon="4.35945">
        <ele>131</ele>
        <time>2011-08-14T12:02:20Z</time>
      </trkpt>
      <trkpt lat="44.47613" lon="4.35924">
        <ele>131</ele>
        <time>2011-08-14T12:02:24Z</time>
      </trkpt>
      <trkpt lat="44.47609" lon="4.359">
        <ele>132</ele>
        <time>2011-08-14T12:02:28Z</time>
      </trkpt>
      <trkpt lat="44.47589" lon="4.35859">
        <ele>132</ele>
        <time>2011-08-14T12:02:36Z</time>
      </trkpt>
      <trkpt lat="44.47565" lon="4.35824">
        <ele>132</ele>
        <time>2011-08-14T12:02:44Z</time>
      </trkpt>
      <trkpt lat="44.47557" lon="4.35813">
        <ele>133</ele>
        <time>2011-08-14T12:02:47Z</time>
      </trkpt>
      <trkpt lat="44.47539" lon="4.35804">
        <ele>133</ele>
        <time>2011-08-14T12:02:52Z</time>
      </trkpt>
      <trkpt lat="44.47536" lon="4.35803">
        <ele>133</ele>
        <time>2011-08-14T12:02:53Z</time>
      </trkpt>
      <trkpt lat="44.47511" lon="4.35798">
        <ele>133</ele>
        <time>2011-08-14T12:03:01Z</time>
      </trkpt>
      <trkpt lat="44.47495" lon="4.35789">
        <ele>133</ele>
        <time>2011-08-14T12:03:07Z</time>
      </trkpt>
      <trkpt lat="44.47499" lon="4.35772">
        <ele>133</ele>
        <time>2011-08-14T12:03:12Z</time>
      </trkpt>
      <trkpt lat="44.475" lon="4.3576">
        <ele>133</ele>
        <time>2011-08-14T12:03:14Z</time>
      </trkpt>
      <trkpt lat="44.47496" lon="4.35737">
        <ele>131</ele>
        <time>2011-08-14T12:03:19Z</time>
      </trkpt>
      <trkpt lat="44.47504" lon="4.35714">
        <ele>130</ele>
        <time>2011-08-14T12:03:24Z</time>
      </trkpt>
      <trkpt lat="44.47506" lon="4.35707">
        <ele>129</ele>
        <time>2011-08-14T12:03:26Z</time>
      </trkpt>
      <trkpt lat="44.47502" lon="4.35696">
        <ele>129</ele>
        <time>2011-08-14T12:03:30Z</time>
      </trkpt>
      <trkpt lat="44.47483" lon="4.3567">
        <ele>128</ele>
        <time>2011-08-14T12:03:37Z</time>
      </trkpt>
      <trkpt lat="44.47466" lon="4.3565">
        <ele>127</ele>
        <time>2011-08-14T12:03:42Z</time>
      </trkpt>
      <trkpt lat="44.47463" lon="4.35639">
        <ele>127</ele>
        <time>2011-08-14T12:03:46Z</time>
      </trkpt>
      <trkpt lat="44.47468" lon="4.35631">
        <ele>127</ele>
        <time>2011-08-14T12:03:50Z</time>
      </trkpt>
      <trkpt lat="44.47465" lon="4.35627">
        <ele>127</ele>
        <time>2011-08-14T12:03:52Z</time>
      </trkpt>
      <trkpt lat="44.47454" lon="4.35616">
        <ele>127</ele>
        <time>2011-08-14T12:03:56Z</time>
      </trkpt>
      <trkpt lat="44.47455" lon="4.35602">
        <ele>127</ele>
        <time>2011-08-14T12:04:00Z</time>
      </trkpt>
      <trkpt lat="44.47469" lon="4.35574">
        <ele>127</ele>
        <time>2011-08-14T12:04:07Z</time>
      </trkpt>
      <trkpt lat="44.4747" lon="4.35564">
        <ele>127</ele>
        <time>2011-08-14T12:04:10Z</time>
      </trkpt>
      <trkpt lat="44.47463" lon="4.35555">
        <ele>127</ele>
        <time>2011-08-14T12:04:14Z</time>
      </trkpt>
      <trkpt lat="44.47445" lon="4.35538">
        <ele>128</ele>
        <time>2011-08-14T12:04:23Z</time>
      </trkpt>
      <trkpt lat="44.47444" lon="4.3552">
        <ele>128</ele>
        <time>2011-08-14T12:04:28Z</time>
      </trkpt>
      <trkpt lat="44.47445" lon="4.35504">
        <ele>128</ele>
        <time>2011-08-14T12:04:31Z</time>
      </trkpt>
      <trkpt lat="44.47434" lon="4.35483">
        <ele>128</ele>
        <time>2011-08-14T12:04:36Z</time>
      </trkpt>
      <trkpt lat="44.47404" lon="4.35455">
        <ele>129</ele>
        <time>2011-08-14T12:04:46Z</time>
      </trkpt>
      <trkpt lat="44.47379" lon="4.35433">
        <ele>129</ele>
        <time>2011-08-14T12:04:55Z</time>
      </trkpt>
      <trkpt lat="44.47372" lon="4.35415">
        <ele>128</ele>
        <time>2011-08-14T12:05:00Z</time>
      </trkpt>
      <trkpt lat="44.4737" lon="4.35401">
        <ele>128</ele>
        <time>2011-08-14T12:05:04Z</time>
      </trkpt>
      <trkpt lat="44.47364" lon="4.354">
        <ele>128</ele>
        <time>2011-08-14T12:05:08Z</time>
      </trkpt>
      <trkpt lat="44.47368" lon="4.35401">
        <ele>128</ele>
        <time>2011-08-14T12:05:11Z</time>
      </trkpt>
      <trkpt lat="44.47376" lon="4.35384">
        <ele>128</ele>
        <time>2011-08-14T12:05:16Z</time>
      </trkpt>
      <trkpt lat="44.47378" lon="4.3538">
        <ele>128</ele>
        <time>2011-08-14T12:05:17Z</time>
      </trkpt>
      <trkpt lat="44.47396" lon="4.3535">
        <ele>128</ele>
        <time>2011-08-14T12:05:25Z</time>
      </trkpt>
      <trkpt lat="44.47411" lon="4.35324">
        <ele>127</ele>
        <time>2011-08-14T12:05:32Z</time>
      </trkpt>
      <trkpt lat="44.47427" lon="4.3529">
        <ele>125</ele>
        <time>2011-08-14T12:05:40Z</time>
      </trkpt>
      <trkpt lat="44.47441" lon="4.35263">
        <ele>124</ele>
        <time>2011-08-14T12:05:47Z</time>
      </trkpt>
      <trkpt lat="44.47455" lon="4.3524">
        <ele>122</ele>
        <time>2011-08-14T12:05:53Z</time>
      </trkpt>
      <trkpt lat="44.47466" lon="4.3522">
        <ele>122</ele>
        <time>2011-08-14T12:05:58Z</time>
      </trkpt>
      <trkpt lat="44.47483" lon="4.3519">
        <ele>121</ele>
        <time>2011-08-14T12:06:05Z</time>
      </trkpt>
      <trkpt lat="44.47504" lon="4.35152">
        <ele>123</ele>
        <time>2011-08-14T12:06:14Z</time>
      </trkpt>
      <trkpt lat="44.4752" lon="4.35142">
        <ele>125</ele>
        <time>2011-08-14T12:06:19Z</time>
      </trkpt>
      <trkpt lat="44.47532" lon="4.35136">
        <ele>126</ele>
        <time>2011-08-14T12:06:24Z</time>
      </trkpt>
      <trkpt lat="44.47538" lon="4.35134">
        <ele>126</ele>
        <time>2011-08-14T12:06:27Z</time>
      </trkpt>
      <trkpt lat="44.47548" lon="4.35132">
        <ele>127</ele>
        <time>2011-08-14T12:06:32Z</time>
      </trkpt>
      <trkpt lat="44.47556" lon="4.35131">
        <ele>127</ele>
        <time>2011-08-14T12:06:39Z</time>
      </trkpt>
      <trkpt lat="44.47558" lon="4.35131">
        <ele>128</ele>
        <time>2011-08-14T12:06:40Z</time>
      </trkpt>
      <trkpt lat="44.4757" lon="4.35132">
        <ele>128</ele>
        <time>2011-08-14T12:06:48Z</time>
      </trkpt>
      <trkpt lat="44.47582" lon="4.35128">
        <ele>128</ele>
        <time>2011-08-14T12:06:54Z</time>
      </trkpt>
      <trkpt lat="44.47596" lon="4.35126">
        <ele>137</ele>
        <time>2011-08-14T12:07:01Z</time>
      </trkpt>
      <trkpt lat="44.47613" lon="4.35122">
        <ele>138</ele>
        <time>2011-08-14T12:07:09Z</time>
      </trkpt>
      <trkpt lat="44.47626" lon="4.35122">
        <ele>139</ele>
        <time>2011-08-14T12:07:15Z</time>
      </trkpt>
      <trkpt lat="44.47637" lon="4.3512">
        <ele>140</ele>
        <time>2011-08-14T12:07:21Z</time>
      </trkpt>
      <trkpt lat="44.47653" lon="4.3512">
        <ele>141</ele>
        <time>2011-08-14T12:07:29Z</time>
      </trkpt>
      <trkpt lat="44.47669" lon="4.35115">
        <ele>154</ele>
        <time>2011-08-14T12:07:37Z</time>
      </trkpt>
      <trkpt lat="44.47677" lon="4.35114">
        <ele>154</ele>
        <time>2011-08-14T12:07:41Z</time>
      </trkpt>
      <trkpt lat="44.47683" lon="4.351">
        <ele>152</ele>
        <time>2011-08-14T12:07:46Z</time>
      </trkpt>
      <trkpt lat="44.47688" lon="4.35079">
        <ele>147</ele>
        <time>2011-08-14T12:07:53Z</time>
      </trkpt>
      <trkpt lat="44.47699" lon="4.35052">
        <ele>149</ele>
        <time>2011-08-14T12:08:02Z</time>
      </trkpt>
      <trkpt lat="44.47707" lon="4.35033">
        <ele>149</ele>
        <time>2011-08-14T12:08:09Z</time>
      </trkpt>
      <trkpt lat="44.47712" lon="4.35021">
        <ele>149</ele>
        <time>2011-08-14T12:08:15Z</time>
      </trkpt>
      <trkpt lat="44.47714" lon="4.35012">
        <ele>150</ele>
        <time>2011-08-14T12:08:19Z</time>
      </trkpt>
      <trkpt lat="44.47716" lon="4.35008">
        <ele>150</ele>
        <time>2011-08-14T12:08:25Z</time>
      </trkpt>
      <trkpt lat="44.47716" lon="4.35007">
        <ele>150</ele>
        <time>2011-08-14T12:08:32Z</time>
      </trkpt>
      <trkpt lat="44.47716" lon="4.35007">
        <ele>150</ele>
        <time>2011-08-14T12:08:46Z</time>
      </trkpt>
      <trkpt lat="44.47716" lon="4.35006">
        <ele>150</ele>
        <time>2011-08-14T12:08:58Z</time>
      </trkpt>
      <trkpt lat="44.47718" lon="4.35008">
        <ele>151</ele>
        <time>2011-08-14T12:09:08Z</time>
      </trkpt>
      <trkpt lat="44.47727" lon="4.35005">
        <ele>153</ele>
        <time>2011-08-14T12:09:14Z</time>
      </trkpt>
      <trkpt lat="44.4774" lon="4.34996">
        <ele>153</ele>
        <time>2011-08-14T12:09:20Z</time>
      </trkpt>
      <trkpt lat="44.47739" lon="4.34975">
        <ele>147</ele>
        <time>2011-08-14T12:09:26Z</time>
      </trkpt>
      <trkpt lat="44.47737" lon="4.34972">
        <ele>146</ele>
        <time>2011-08-14T12:09:27Z</time>
      </trkpt>
      <trkpt lat="44.47734" lon="4.34949">
        <ele>143</ele>
        <time>2011-08-14T12:09:34Z</time>
      </trkpt>
      <trkpt lat="44.47738" lon="4.3493">
        <ele>144</ele>
        <time>2011-08-14T12:09:42Z</time>
      </trkpt>
      <trkpt lat="44.47741" lon="4.34923">
        <ele>145</ele>
        <time>2011-08-14T12:09:45Z</time>
      </trkpt>
      <trkpt lat="44.47754" lon="4.34919">
        <ele>151</ele>
        <time>2011-08-14T12:09:52Z</time>
      </trkpt>
      <trkpt lat="44.47771" lon="4.34918">
        <ele>158</ele>
        <time>2011-08-14T12:10:00Z</time>
      </trkpt>
      <trkpt lat="44.47778" lon="4.34912">
        <ele>154</ele>
        <time>2011-08-14T12:10:04Z</time>
      </trkpt>
      <trkpt lat="44.47793" lon="4.34894">
        <ele>156</ele>
        <time>2011-08-14T12:10:13Z</time>
      </trkpt>
      <trkpt lat="44.478" lon="4.34882">
        <ele>156</ele>
        <time>2011-08-14T12:10:19Z</time>
      </trkpt>
      <trkpt lat="44.47809" lon="4.3487">
        <ele>156</ele>
        <time>2011-08-14T12:10:25Z</time>
      </trkpt>
      <trkpt lat="44.47819" lon="4.34865">
        <ele>157</ele>
        <time>2011-08-14T12:10:30Z</time>
      </trkpt>
      <trkpt lat="44.47828" lon="4.34866">
        <ele>157</ele>
        <time>2011-08-14T12:10:37Z</time>
      </trkpt>
      <trkpt lat="44.47835" lon="4.34869">
        <ele>164</ele>
        <time>2011-08-14T12:10:45Z</time>
      </trkpt>
      <trkpt lat="44.47835" lon="4.34869">
        <ele>164</ele>
        <time>2011-08-14T12:10:56Z</time>
      </trkpt>
      <trkpt lat="44.47835" lon="4.34874">
        <ele>164</ele>
        <time>2011-08-14T12:11:09Z</time>
      </trkpt>
      <trkpt lat="44.47839" lon="4.34878">
        <ele>165</ele>
        <time>2011-08-14T12:11:16Z</time>
      </trkpt>
      <trkpt lat="44.47845" lon="4.34881">
        <ele>165</ele>
        <time>2011-08-14T12:11:22Z</time>
      </trkpt>
      <trkpt lat="44.4785" lon="4.34885">
        <ele>166</ele>
        <time>2011-08-14T12:11:26Z</time>
      </trkpt>
      <trkpt lat="44.47859" lon="4.34894">
        <ele>166</ele>
        <time>2011-08-14T12:11:33Z</time>
      </trkpt>
      <trkpt lat="44.47864" lon="4.34903">
        <ele>167</ele>
        <time>2011-08-14T12:11:38Z</time>
      </trkpt>
      <trkpt lat="44.4787" lon="4.34917">
        <ele>172</ele>
        <time>2011-08-14T12:11:45Z</time>
      </trkpt>
      <trkpt lat="44.47877" lon="4.34934">
        <ele>172</ele>
        <time>2011-08-14T12:11:51Z</time>
      </trkpt>
      <trkpt lat="44.47885" lon="4.34954">
        <ele>172</ele>
        <time>2011-08-14T12:11:56Z</time>
      </trkpt>
      <trkpt lat="44.47894" lon="4.34977">
        <ele>173</ele>
        <time>2011-08-14T12:12:01Z</time>
      </trkpt>
      <trkpt lat="44.47901" lon="4.35004">
        <ele>173</ele>
        <time>2011-08-14T12:12:06Z</time>
      </trkpt>
      <trkpt lat="44.47902" lon="4.35016">
        <ele>174</ele>
        <time>2011-08-14T12:12:08Z</time>
      </trkpt>
      <trkpt lat="44.47901" lon="4.35044">
        <ele>175</ele>
        <time>2011-08-14T12:12:13Z</time>
      </trkpt>
      <trkpt lat="44.47899" lon="4.35063">
        <ele>175</ele>
        <time>2011-08-14T12:12:16Z</time>
      </trkpt>
      <trkpt lat="44.479" lon="4.35081">
        <ele>175</ele>
        <time>2011-08-14T12:12:19Z</time>
      </trkpt>
      <trkpt lat="44.479" lon="4.3511">
        <ele>177</ele>
        <time>2011-08-14T12:12:25Z</time>
      </trkpt>
      <trkpt lat="44.47903" lon="4.35121">
        <ele>177</ele>
        <time>2011-08-14T12:12:28Z</time>
      </trkpt>
      <trkpt lat="44.47914" lon="4.35152">
        <ele>177</ele>
        <time>2011-08-14T12:12:36Z</time>
      </trkpt>
      <trkpt lat="44.47923" lon="4.3517">
        <ele>178</ele>
        <time>2011-08-14T12:12:41Z</time>
      </trkpt>
      <trkpt lat="44.47929" lon="4.35192">
        <ele>177</ele>
        <time>2011-08-14T12:12:47Z</time>
      </trkpt>
      <trkpt lat="44.47928" lon="4.35207">
        <ele>177</ele>
        <time>2011-08-14T12:12:50Z</time>
      </trkpt>
      <trkpt lat="44.4792" lon="4.35236">
        <ele>178</ele>
        <time>2011-08-14T12:12:55Z</time>
      </trkpt>
      <trkpt lat="44.47927" lon="4.35252">
        <ele>178</ele>
        <time>2011-08-14T12:13:00Z</time>
      </trkpt>
      <trkpt lat="44.4793" lon="4.35256">
        <ele>178</ele>
        <time>2011-08-14T12:13:01Z</time>
      </trkpt>
      <trkpt lat="44.47952" lon="4.35278">
        <ele>176</ele>
        <time>2011-08-14T12:13:07Z</time>
      </trkpt>
      <trkpt lat="44.47966" lon="4.35291">
        <ele>176</ele>
        <time>2011-08-14T12:13:11Z</time>
      </trkpt>
      <trkpt lat="44.4798" lon="4.35303">
        <ele>176</ele>
        <time>2011-08-14T12:13:15Z</time>
      </trkpt>
      <trkpt lat="44.4799" lon="4.35325">
        <ele>176</ele>
        <time>2011-08-14T12:13:20Z</time>
      </trkpt>
      <trkpt lat="44.47989" lon="4.35329">
        <ele>176</ele>
        <time>2011-08-14T12:13:21Z</time>
      </trkpt>
      <trkpt lat="44.47987" lon="4.35346">
        <ele>174</ele>
        <time>2011-08-14T12:13:27Z</time>
      </trkpt>
      <trkpt lat="44.47986" lon="4.35349">
        <ele>174</ele>
        <time>2011-08-14T12:13:33Z</time>
      </trkpt>
      <trkpt lat="44.47989" lon="4.35354">
        <ele>174</ele>
        <time>2011-08-14T12:14:38Z</time>
      </trkpt>
      <trkpt lat="44.47989" lon="4.35352">
        <ele>174</ele>
        <time>2011-08-14T12:14:47Z</time>
      </trkpt>
      <trkpt lat="44.4799" lon="4.3535">
        <ele>174</ele>
        <time>2011-08-14T12:15:01Z</time>
      </trkpt>
      <trkpt lat="44.4799" lon="4.3535">
        <ele>174</ele>
        <time>2011-08-14T12:15:10Z</time>
      </trkpt>
      <trkpt lat="44.47989" lon="4.3535">
        <ele>174</ele>
        <time>2011-08-14T12:15:20Z</time>
      </trkpt>
      <trkpt lat="44.47988" lon="4.35351">
        <ele>174</ele>
        <time>2011-08-14T12:15:34Z</time>
      </trkpt>
      <trkpt lat="44.47991" lon="4.35347">
        <ele>174</ele>
        <time>2011-08-14T12:16:00Z</time>
      </trkpt>
      <trkpt lat="44.4799" lon="4.35348">
        <ele>174</ele>
        <time>2011-08-14T12:16:08Z</time>
      </trkpt>
      <trkpt lat="44.47986" lon="4.3535">
        <ele>174</ele>
        <time>2011-08-14T12:17:08Z</time>
      </trkpt>
      <trkpt lat="44.47987" lon="4.35352">
        <ele>174</ele>
        <time>2011-08-14T12:17:31Z</time>
      </trkpt>
      <trkpt lat="44.47987" lon="4.3535">
        <ele>174</ele>
        <time>2011-08-14T12:17:50Z</time>
      </trkpt>
      <trkpt lat="44.47989" lon="4.3535">
        <ele>174</ele>
        <time>2011-08-14T12:18:52Z</time>
      </trkpt>
      <trkpt lat="44.47988" lon="4.3535">
        <ele>174</ele>
        <time>2011-08-14T12:19:08Z</time>
      </trkpt>
      <trkpt lat="44.47988" lon="4.3535">
        <ele>174</ele>
        <time>2011-08-14T12:19:20Z</time>
      </trkpt>
      <trkpt lat="44.47989" lon="4.35351">
        <ele>174</ele>
        <time>2011-08-14T12:19:26Z</time>
      </trkpt>
      <trkpt lat="44.48002" lon="4.35361">
        <ele>173</ele>
        <time>2011-08-14T12:19:32Z</time>
      </trkpt>
      <trkpt lat="44.48024" lon="4.35383">
        <ele>172</ele>
        <time>2011-08-14T12:19:39Z</time>
      </trkpt>
      <trkpt lat="44.48053" lon="4.35405">
        <ele>171</ele>
        <time>2011-08-14T12:19:46Z</time>
      </trkpt>
      <trkpt lat="44.4807" lon="4.35416">
        <ele>170</ele>
        <time>2011-08-14T12:19:50Z</time>
      </trkpt>
      <trkpt lat="44.48085" lon="4.35434">
        <ele>169</ele>
        <time>2011-08-14T12:19:54Z</time>
      </trkpt>
      <trkpt lat="44.48108" lon="4.35466">
        <ele>168</ele>
        <time>2011-08-14T12:20:00Z</time>
      </trkpt>
      <trkpt lat="44.48118" lon="4.35467">
        <ele>168</ele>
        <time>2011-08-14T12:20:05Z</time>
      </trkpt>
      <trkpt lat="44.48122" lon="4.35459">
        <ele>169</ele>
        <time>2011-08-14T12:20:08Z</time>
      </trkpt>
      <trkpt lat="44.48134" lon="4.3544">
        <ele>170</ele>
        <time>2011-08-14T12:20:16Z</time>
      </trkpt>
      <trkpt lat="44.48148" lon="4.35419">
        <ele>172</ele>
        <time>2011-08-14T12:20:25Z</time>
      </trkpt>
      <trkpt lat="44.4816" lon="4.35401">
        <ele>174</ele>
        <time>2011-08-14T12:20:33Z</time>
      </trkpt>
      <trkpt lat="44.48173" lon="4.35385">
        <ele>177</ele>
        <time>2011-08-14T12:20:41Z</time>
      </trkpt>
      <trkpt lat="44.48179" lon="4.35376">
        <ele>177</ele>
        <time>2011-08-14T12:20:46Z</time>
      </trkpt>
      <trkpt lat="44.4819" lon="4.35364">
        <ele>177</ele>
        <time>2011-08-14T12:20:52Z</time>
      </trkpt>
      <trkpt lat="44.48205" lon="4.35349">
        <ele>178</ele>
        <time>2011-08-14T12:21:00Z</time>
      </trkpt>
      <trkpt lat="44.48208" lon="4.35347">
        <ele>178</ele>
        <time>2011-08-14T12:21:03Z</time>
      </trkpt>
      <trkpt lat="44.48211" lon="4.35343">
        <ele>178</ele>
        <time>2011-08-14T12:21:10Z</time>
      </trkpt>
      <trkpt lat="44.48216" lon="4.35341">
        <ele>178</ele>
        <time>2011-08-14T12:21:17Z</time>
      </trkpt>
      <trkpt lat="44.48218" lon="4.35343">
        <ele>178</ele>
        <time>2011-08-14T12:21:21Z</time>
      </trkpt>
      <trkpt lat="44.48221" lon="4.35345">
        <ele>178</ele>
        <time>2011-08-14T12:21:26Z</time>
      </trkpt>
      <trkpt lat="44.48221" lon="4.35346">
        <ele>178</ele>
        <time>2011-08-14T12:21:33Z</time>
      </trkpt>
      <trkpt lat="44.48221" lon="4.35347">
        <ele>178</ele>
        <time>2011-08-14T12:21:39Z</time>
      </trkpt>
      <trkpt lat="44.48223" lon="4.35353">
        <ele>178</ele>
        <time>2011-08-14T12:22:02Z</time>
      </trkpt>
      <trkpt lat="44.48227" lon="4.3535">
        <ele>178</ele>
        <time>2011-08-14T12:22:11Z</time>
      </trkpt>
      <trkpt lat="44.48228" lon="4.35351">
        <ele>178</ele>
        <time>2011-08-14T12:22:37Z</time>
      </trkpt>
      <trkpt lat="44.48227" lon="4.3535">
        <ele>178</ele>
        <time>2011-08-14T12:23:00Z</time>
      </trkpt>
      <trkpt lat="44.48228" lon="4.35352">
        <ele>178</ele>
        <time>2011-08-14T12:23:16Z</time>
      </trkpt>
      <trkpt lat="44.48231" lon="4.35353">
        <ele>178</ele>
        <time>2011-08-14T12:23:23Z</time>
      </trkpt>
      <trkpt lat="44.48248" lon="4.35359">
        <ele>178</ele>
        <time>2011-08-14T12:23:31Z</time>
      </trkpt>
      <trkpt lat="44.48263" lon="4.35356">
        <ele>180</ele>
        <time>2011-08-14T12:23:37Z</time>
      </trkpt>
      <trkpt lat="44.48276" lon="4.3535">
        <ele>180</ele>
        <time>2011-08-14T12:23:43Z</time>
      </trkpt>
      <trkpt lat="44.48292" lon="4.35344">
        <ele>180</ele>
        <time>2011-08-14T12:23:50Z</time>
      </trkpt>
      <trkpt lat="44.48305" lon="4.35336">
        <ele>181</ele>
        <time>2011-08-14T12:23:56Z</time>
      </trkpt>
      <trkpt lat="44.48317" lon="4.3533">
        <ele>183</ele>
        <time>2011-08-14T12:24:02Z</time>
      </trkpt>
      <trkpt lat="44.48329" lon="4.35326">
        <ele>183</ele>
        <time>2011-08-14T12:24:08Z</time>
      </trkpt>
      <trkpt lat="44.48343" lon="4.35321">
        <ele>186</ele>
        <time>2011-08-14T12:24:14Z</time>
      </trkpt>
      <trkpt lat="44.48361" lon="4.35322">
        <ele>187</ele>
        <time>2011-08-14T12:24:21Z</time>
      </trkpt>
      <trkpt lat="44.48381" lon="4.35331">
        <ele>188</ele>
        <time>2011-08-14T12:24:27Z</time>
      </trkpt>
      <trkpt lat="44.48409" lon="4.35348">
        <ele>187</ele>
        <time>2011-08-14T12:24:36Z</time>
      </trkpt>
      <trkpt lat="44.48427" lon="4.35348">
        <ele>189</ele>
        <time>2011-08-14T12:24:41Z</time>
      </trkpt>
      <trkpt lat="44.48435" lon="4.35335">
        <ele>189</ele>
        <time>2011-08-14T12:24:45Z</time>
      </trkpt>
      <trkpt lat="44.48449" lon="4.3531">
        <ele>194</ele>
        <time>2011-08-14T12:24:52Z</time>
      </trkpt>
      <trkpt lat="44.48467" lon="4.35308">
        <ele>195</ele>
        <time>2011-08-14T12:24:57Z</time>
      </trkpt>
      <trkpt lat="44.48492" lon="4.35319">
        <ele>195</ele>
        <time>2011-08-14T12:25:04Z</time>
      </trkpt>
      <trkpt lat="44.48504" lon="4.3534">
        <ele>194</ele>
        <time>2011-08-14T12:25:09Z</time>
      </trkpt>
      <trkpt lat="44.48515" lon="4.35363">
        <ele>195</ele>
        <time>2011-08-14T12:25:14Z</time>
      </trkpt>
      <trkpt lat="44.48524" lon="4.35378">
        <ele>195</ele>
        <time>2011-08-14T12:25:19Z</time>
      </trkpt>
      <trkpt lat="44.48528" lon="4.35377">
        <ele>195</ele>
        <time>2011-08-14T12:25:23Z</time>
      </trkpt>
      <trkpt lat="44.48533" lon="4.35362">
        <ele>195</ele>
        <time>2011-08-14T12:25:32Z</time>
      </trkpt>
      <trkpt lat="44.48541" lon="4.35347">
        <ele>196</ele>
        <time>2011-08-14T12:25:38Z</time>
      </trkpt>
      <trkpt lat="44.48552" lon="4.35328">
        <ele>199</ele>
        <time>2011-08-14T12:25:44Z</time>
      </trkpt>
      <trkpt lat="44.48571" lon="4.3531">
        <ele>199</ele>
        <time>2011-08-14T12:25:52Z</time>
      </trkpt>
      <trkpt lat="44.48587" lon="4.35292">
        <ele>201</ele>
        <time>2011-08-14T12:25:59Z</time>
      </trkpt>
      <trkpt lat="44.48601" lon="4.35261">
        <ele>201</ele>
        <time>2011-08-14T12:26:09Z</time>
      </trkpt>
      <trkpt lat="44.48613" lon="4.35236">
        <ele>203</ele>
        <time>2011-08-14T12:26:18Z</time>
      </trkpt>
      <trkpt lat="44.48618" lon="4.35223">
        <ele>203</ele>
        <time>2011-08-14T12:26:23Z</time>
      </trkpt>
      <trkpt lat="44.48625" lon="4.3521">
        <ele>203</ele>
        <time>2011-08-14T12:26:28Z</time>
      </trkpt>
      <trkpt lat="44.48632" lon="4.35185">
        <ele>204</ele>
        <time>2011-08-14T12:26:36Z</time>
      </trkpt>
      <trkpt lat="44.48635" lon="4.35165">
        <ele>208</ele>
        <time>2011-08-14T12:26:44Z</time>
      </trkpt>
      <trkpt lat="44.48636" lon="4.3516">
        <ele>208</ele>
        <time>2011-08-14T12:26:47Z</time>
      </trkpt>
      <trkpt lat="44.48636" lon="4.35158">
        <ele>208</ele>
        <time>2011-08-14T12:26:53Z</time>
      </trkpt>
      <trkpt lat="44.48636" lon="4.35154">
        <ele>208</ele>
        <time>2011-08-14T12:27:06Z</time>
      </trkpt>
      <trkpt lat="44.4863" lon="4.35146">
        <ele>209</ele>
        <time>2011-08-14T12:27:10Z</time>
      </trkpt>
      <trkpt lat="44.48615" lon="4.35143">
        <ele>210</ele>
        <time>2011-08-14T12:27:17Z</time>
      </trkpt>
      <trkpt lat="44.48598" lon="4.35141">
        <ele>211</ele>
        <time>2011-08-14T12:27:25Z</time>
      </trkpt>
      <trkpt lat="44.48579" lon="4.35137">
        <ele>216</ele>
        <time>2011-08-14T12:27:34Z</time>
      </trkpt>
      <trkpt lat="44.48568" lon="4.35132">
        <ele>216</ele>
        <time>2011-08-14T12:27:40Z</time>
      </trkpt>
      <trkpt lat="44.48551" lon="4.35121">
        <ele>217</ele>
        <time>2011-08-14T12:27:49Z</time>
      </trkpt>
      <trkpt lat="44.48543" lon="4.35108">
        <ele>218</ele>
        <time>2011-08-14T12:27:56Z</time>
      </trkpt>
      <trkpt lat="44.48542" lon="4.35088">
        <ele>219</ele>
        <time>2011-08-14T12:28:03Z</time>
      </trkpt>
      <trkpt lat="44.48538" lon="4.35055">
        <ele>223</ele>
        <time>2011-08-14T12:28:13Z</time>
      </trkpt>
      <trkpt lat="44.48536" lon="4.35026">
        <ele>224</ele>
        <time>2011-08-14T12:28:22Z</time>
      </trkpt>
      <trkpt lat="44.48536" lon="4.35">
        <ele>225</ele>
        <time>2011-08-14T12:28:30Z</time>
      </trkpt>
      <trkpt lat="44.48538" lon="4.34974">
        <ele>226</ele>
        <time>2011-08-14T12:28:38Z</time>
      </trkpt>
      <trkpt lat="44.48536" lon="4.3495">
        <ele>227</ele>
        <time>2011-08-14T12:28:45Z</time>
      </trkpt>
      <trkpt lat="44.48529" lon="4.34922">
        <ele>228</ele>
        <time>2011-08-14T12:28:53Z</time>
      </trkpt>
      <trkpt lat="44.48523" lon="4.34897">
        <ele>229</ele>
        <time>2011-08-14T12:29:00Z</time>
      </trkpt>
      <trkpt lat="44.48515" lon="4.34864">
        <ele>229</ele>
        <time>2011-08-14T12:29:09Z</time>
      </trkpt>
      <trkpt lat="44.48502" lon="4.34846">
        <ele>231</ele>
        <time>2011-08-14T12:29:16Z</time>
      </trkpt>
      <trkpt lat="44.48494" lon="4.34841">
        <ele>235</ele>
        <time>2011-08-14T12:29:21Z</time>
      </trkpt>
      <trkpt lat="44.48489" lon="4.34837">
        <ele>235</ele>
        <time>2011-08-14T12:29:28Z</time>
      </trkpt>
      <trkpt lat="44.48488" lon="4.34836">
        <ele>235</ele>
        <time>2011-08-14T12:29:38Z</time>
      </trkpt>
      <trkpt lat="44.48488" lon="4.34835">
        <ele>235</ele>
        <time>2011-08-14T12:30:02Z</time>
      </trkpt>
      <trkpt lat="44.48489" lon="4.34834">
        <ele>235</ele>
        <time>2011-08-14T12:30:27Z</time>
      </trkpt>
      <trkpt lat="44.48489" lon="4.34833">
        <ele>235</ele>
        <time>2011-08-14T12:31:03Z</time>
      </trkpt>
      <trkpt lat="44.48489" lon="4.34831">
        <ele>235</ele>
        <time>2011-08-14T12:31:13Z</time>
      </trkpt>
      <trkpt lat="44.48483" lon="4.34823">
        <ele>235</ele>
        <time>2011-08-14T12:31:17Z</time>
      </trkpt>
      <trkpt lat="44.48476" lon="4.34813">
        <ele>235</ele>
        <time>2011-08-14T12:31:22Z</time>
      </trkpt>
      <trkpt lat="44.48475" lon="4.34812">
        <ele>235</ele>
        <time>2011-08-14T12:31:23Z</time>
      </trkpt>
      <trkpt lat="44.48475" lon="4.34812">
        <ele>235</ele>
        <time>2011-08-14T12:31:32Z</time>
      </trkpt>
      <trkpt lat="44.48474" lon="4.34812">
        <ele>235</ele>
        <time>2011-08-14T12:31:44Z</time>
      </trkpt>
      <trkpt lat="44.4847" lon="4.34808">
        <ele>235</ele>
        <time>2011-08-14T12:31:54Z</time>
      </trkpt>
      <trkpt lat="44.4846" lon="4.34792">
        <ele>235</ele>
        <time>2011-08-14T12:32:00Z</time>
      </trkpt>
      <trkpt lat="44.48445" lon="4.34771">
        <ele>236</ele>
        <time>2011-08-14T12:32:07Z</time>
      </trkpt>
      <trkpt lat="44.48428" lon="4.34741">
        <ele>236</ele>
        <time>2011-08-14T12:32:14Z</time>
      </trkpt>
      <trkpt lat="44.48412" lon="4.3472">
        <ele>237</ele>
        <time>2011-08-14T12:32:20Z</time>
      </trkpt>
      <trkpt lat="44.4839" lon="4.34692">
        <ele>236</ele>
        <time>2011-08-14T12:32:27Z</time>
      </trkpt>
      <trkpt lat="44.48387" lon="4.34687">
        <ele>236</ele>
        <time>2011-08-14T12:32:28Z</time>
      </trkpt>
      <trkpt lat="44.48378" lon="4.34672">
        <ele>236</ele>
        <time>2011-08-14T12:32:31Z</time>
      </trkpt>
      <trkpt lat="44.48373" lon="4.34662">
        <ele>237</ele>
        <time>2011-08-14T12:32:33Z</time>
      </trkpt>
      <trkpt lat="44.48368" lon="4.34629">
        <ele>238</ele>
        <time>2011-08-14T12:32:39Z</time>
      </trkpt>
      <trkpt lat="44.48373" lon="4.34594">
        <ele>239</ele>
        <time>2011-08-14T12:32:47Z</time>
      </trkpt>
      <trkpt lat="44.48377" lon="4.34569">
        <ele>241</ele>
        <time>2011-08-14T12:32:54Z</time>
      </trkpt>
      <trkpt lat="44.48378" lon="4.34544">
        <ele>242</ele>
        <time>2011-08-14T12:33:02Z</time>
      </trkpt>
      <trkpt lat="44.48377" lon="4.34525">
        <ele>242</ele>
        <time>2011-08-14T12:33:10Z</time>
      </trkpt>
      <trkpt lat="44.48372" lon="4.34514">
        <ele>242</ele>
        <time>2011-08-14T12:33:15Z</time>
      </trkpt>
      <trkpt lat="44.48354" lon="4.34494">
        <ele>243</ele>
        <time>2011-08-14T12:33:23Z</time>
      </trkpt>
      <trkpt lat="44.48342" lon="4.34483">
        <ele>243</ele>
        <time>2011-08-14T12:33:28Z</time>
      </trkpt>
      <trkpt lat="44.48327" lon="4.34468">
        <ele>241</ele>
        <time>2011-08-14T12:33:33Z</time>
      </trkpt>
      <trkpt lat="44.48312" lon="4.34446">
        <ele>240</ele>
        <time>2011-08-14T12:33:38Z</time>
      </trkpt>
      <trkpt lat="44.48307" lon="4.34436">
        <ele>240</ele>
        <time>2011-08-14T12:33:40Z</time>
      </trkpt>
      <trkpt lat="44.48303" lon="4.34427">
        <ele>240</ele>
        <time>2011-08-14T12:33:42Z</time>
      </trkpt>
      <trkpt lat="44.4828" lon="4.34388">
        <ele>238</ele>
        <time>2011-08-14T12:33:51Z</time>
      </trkpt>
      <trkpt lat="44.48266" lon="4.34359">
        <ele>238</ele>
        <time>2011-08-14T12:33:57Z</time>
      </trkpt>
      <trkpt lat="44.48261" lon="4.3435">
        <ele>238</ele>
        <time>2011-08-14T12:33:59Z</time>
      </trkpt>
      <trkpt lat="44.48241" lon="4.34312">
        <ele>237</ele>
        <time>2011-08-14T12:34:07Z</time>
      </trkpt>
      <trkpt lat="44.48234" lon="4.34299">
        <ele>236</ele>
        <time>2011-08-14T12:34:10Z</time>
      </trkpt>
      <trkpt lat="44.48234" lon="4.34281">
        <ele>236</ele>
        <time>2011-08-14T12:34:14Z</time>
      </trkpt>
      <trkpt lat="44.48244" lon="4.34257">
        <ele>237</ele>
        <time>2011-08-14T12:34:19Z</time>
      </trkpt>
      <trkpt lat="44.4825" lon="4.34232">
        <ele>237</ele>
        <time>2011-08-14T12:34:24Z</time>
      </trkpt>
      <trkpt lat="44.48254" lon="4.342">
        <ele>238</ele>
        <time>2011-08-14T12:34:30Z</time>
      </trkpt>
      <trkpt lat="44.48261" lon="4.34156">
        <ele>237</ele>
        <time>2011-08-14T12:34:38Z</time>
      </trkpt>
      <trkpt lat="44.48258" lon="4.34125">
        <ele>237</ele>
        <time>2011-08-14T12:34:44Z</time>
      </trkpt>
      <trkpt lat="44.48258" lon="4.34098">
        <ele>237</ele>
        <time>2011-08-14T12:34:49Z</time>
      </trkpt>
      <trkpt lat="44.48254" lon="4.34073">
        <ele>236</ele>
        <time>2011-08-14T12:34:54Z</time>
      </trkpt>
      <trkpt lat="44.48252" lon="4.34052">
        <ele>235</ele>
        <time>2011-08-14T12:34:58Z</time>
      </trkpt>
      <trkpt lat="44.48252" lon="4.34041">
        <ele>235</ele>
        <time>2011-08-14T12:35:00Z</time>
      </trkpt>
      <trkpt lat="44.48242" lon="4.34031">
        <ele>235</ele>
        <time>2011-08-14T12:35:04Z</time>
      </trkpt>
      <trkpt lat="44.48228" lon="4.34029">
        <ele>235</ele>
        <time>2011-08-14T12:35:08Z</time>
      </trkpt>
      <trkpt lat="44.48209" lon="4.34026">
        <ele>235</ele>
        <time>2011-08-14T12:35:12Z</time>
      </trkpt>
      <trkpt lat="44.48201" lon="4.34019">
        <ele>235</ele>
        <time>2011-08-14T12:35:14Z</time>
      </trkpt>
      <trkpt lat="44.48192" lon="4.34014">
        <ele>234</ele>
        <time>2011-08-14T12:35:16Z</time>
      </trkpt>
      <trkpt lat="44.4818" lon="4.33992">
        <ele>233</ele>
        <time>2011-08-14T12:35:21Z</time>
      </trkpt>
      <trkpt lat="44.48173" lon="4.33969">
        <ele>233</ele>
        <time>2011-08-14T12:35:25Z</time>
      </trkpt>
      <trkpt lat="44.48169" lon="4.33952">
        <ele>232</ele>
        <time>2011-08-14T12:35:28Z</time>
      </trkpt>
      <trkpt lat="44.48169" lon="4.33919">
        <ele>231</ele>
        <time>2011-08-14T12:35:34Z</time>
      </trkpt>
      <trkpt lat="44.48164" lon="4.33876">
        <ele>230</ele>
        <time>2011-08-14T12:35:42Z</time>
      </trkpt>
      <trkpt lat="44.48153" lon="4.33849">
        <ele>229</ele>
        <time>2011-08-14T12:35:48Z</time>
      </trkpt>
      <trkpt lat="44.48138" lon="4.33828">
        <ele>226</ele>
        <time>2011-08-14T12:35:54Z</time>
      </trkpt>
      <trkpt lat="44.48127" lon="4.33817">
        <ele>225</ele>
        <time>2011-08-14T12:35:58Z</time>
      </trkpt>
      <trkpt lat="44.48111" lon="4.33804">
        <ele>225</ele>
        <time>2011-08-14T12:36:03Z</time>
      </trkpt>
      <trkpt lat="44.48097" lon="4.33794">
        <ele>224</ele>
        <time>2011-08-14T12:36:07Z</time>
      </trkpt>
      <trkpt lat="44.48079" lon="4.33784">
        <ele>224</ele>
        <time>2011-08-14T12:36:12Z</time>
      </trkpt>
      <trkpt lat="44.48061" lon="4.33763">
        <ele>223</ele>
        <time>2011-08-14T12:36:17Z</time>
      </trkpt>
      <trkpt lat="44.48049" lon="4.33751">
        <ele>223</ele>
        <time>2011-08-14T12:36:20Z</time>
      </trkpt>
      <trkpt lat="44.48038" lon="4.3374">
        <ele>219</ele>
        <time>2011-08-14T12:36:23Z</time>
      </trkpt>
      <trkpt lat="44.48025" lon="4.33724">
        <ele>219</ele>
        <time>2011-08-14T12:36:27Z</time>
      </trkpt>
      <trkpt lat="44.48017" lon="4.33713">
        <ele>218</ele>
        <time>2011-08-14T12:36:30Z</time>
      </trkpt>
      <trkpt lat="44.48019" lon="4.33699">
        <ele>218</ele>
        <time>2011-08-14T12:36:34Z</time>
      </trkpt>
      <trkpt lat="44.48022" lon="4.33696">
        <ele>217</ele>
        <time>2011-08-14T12:36:36Z</time>
      </trkpt>
      <trkpt lat="44.48025" lon="4.33693">
        <ele>217</ele>
        <time>2011-08-14T12:36:38Z</time>
      </trkpt>
      <trkpt lat="44.4803" lon="4.33675">
        <ele>217</ele>
        <time>2011-08-14T12:36:43Z</time>
      </trkpt>
      <trkpt lat="44.48029" lon="4.33659">
        <ele>214</ele>
        <time>2011-08-14T12:36:46Z</time>
      </trkpt>
      <trkpt lat="44.48018" lon="4.33626">
        <ele>213</ele>
        <time>2011-08-14T12:36:53Z</time>
      </trkpt>
      <trkpt lat="44.48026" lon="4.33607">
        <ele>212</ele>
        <time>2011-08-14T12:36:58Z</time>
      </trkpt>
      <trkpt lat="44.48032" lon="4.33595">
        <ele>212</ele>
        <time>2011-08-14T12:37:01Z</time>
      </trkpt>
      <trkpt lat="44.4804" lon="4.33588">
        <ele>212</ele>
        <time>2011-08-14T12:37:08Z</time>
      </trkpt>
      <trkpt lat="44.48046" lon="4.33587">
        <ele>212</ele>
        <time>2011-08-14T12:37:14Z</time>
      </trkpt>
      <trkpt lat="44.48043" lon="4.33587">
        <ele>212</ele>
        <time>2011-08-14T12:37:27Z</time>
      </trkpt>
      <trkpt lat="44.48047" lon="4.33586">
        <ele>212</ele>
        <time>2011-08-14T12:37:39Z</time>
      </trkpt>
      <trkpt lat="44.48051" lon="4.33589">
        <ele>212</ele>
        <time>2011-08-14T12:37:42Z</time>
      </trkpt>
      <trkpt lat="44.48059" lon="4.33597">
        <ele>213</ele>
        <time>2011-08-14T12:37:48Z</time>
      </trkpt>
      <trkpt lat="44.48067" lon="4.336">
        <ele>213</ele>
        <time>2011-08-14T12:37:54Z</time>
      </trkpt>
      <trkpt lat="44.48077" lon="4.33598">
        <ele>213</ele>
        <time>2011-08-14T12:38:02Z</time>
      </trkpt>
      <trkpt lat="44.48084" lon="4.33595">
        <ele>214</ele>
        <time>2011-08-14T12:38:06Z</time>
      </trkpt>
      <trkpt lat="44.48092" lon="4.33581">
        <ele>214</ele>
        <time>2011-08-14T12:38:11Z</time>
      </trkpt>
      <trkpt lat="44.481" lon="4.33569">
        <ele>215</ele>
        <time>2011-08-14T12:38:16Z</time>
      </trkpt>
      <trkpt lat="44.4811" lon="4.33556">
        <ele>215</ele>
        <time>2011-08-14T12:38:21Z</time>
      </trkpt>
      <trkpt lat="44.48111" lon="4.33548">
        <ele>215</ele>
        <time>2011-08-14T12:38:24Z</time>
      </trkpt>
      <trkpt lat="44.48101" lon="4.33537">
        <ele>215</ele>
        <time>2011-08-14T12:38:29Z</time>
      </trkpt>
      <trkpt lat="44.48089" lon="4.33528">
        <ele>215</ele>
        <time>2011-08-14T12:38:35Z</time>
      </trkpt>
      <trkpt lat="44.48088" lon="4.33526">
        <ele>215</ele>
        <time>2011-08-14T12:38:36Z</time>
      </trkpt>
      <trkpt lat="44.48088" lon="4.33514">
        <ele>215</ele>
        <time>2011-08-14T12:38:40Z</time>
      </trkpt>
      <trkpt lat="44.4809" lon="4.33495">
        <ele>214</ele>
        <time>2011-08-14T12:38:47Z</time>
      </trkpt>
      <trkpt lat="44.48095" lon="4.33486">
        <ele>214</ele>
        <time>2011-08-14T12:38:51Z</time>
      </trkpt>
      <trkpt lat="44.48101" lon="4.33466">
        <ele>214</ele>
        <time>2011-08-14T12:38:57Z</time>
      </trkpt>
      <trkpt lat="44.48113" lon="4.33453">
        <ele>214</ele>
        <time>2011-08-14T12:39:02Z</time>
      </trkpt>
      <trkpt lat="44.48125" lon="4.33446">
        <ele>214</ele>
        <time>2011-08-14T12:39:08Z</time>
      </trkpt>
      <trkpt lat="44.48137" lon="4.33443">
        <ele>215</ele>
        <time>2011-08-14T12:39:14Z</time>
      </trkpt>
      <trkpt lat="44.48146" lon="4.33432">
        <ele>215</ele>
        <time>2011-08-14T12:39:21Z</time>
      </trkpt>
      <trkpt lat="44.48151" lon="4.33427">
        <ele>215</ele>
        <time>2011-08-14T12:39:23Z</time>
      </trkpt>
      <trkpt lat="44.48166" lon="4.33417">
        <ele>217</ele>
        <time>2011-08-14T12:39:30Z</time>
      </trkpt>
      <trkpt lat="44.48173" lon="4.33414">
        <ele>216</ele>
        <time>2011-08-14T12:39:33Z</time>
      </trkpt>
      <trkpt lat="44.48183" lon="4.33414">
        <ele>216</ele>
        <time>2011-08-14T12:39:40Z</time>
      </trkpt>
      <trkpt lat="44.48185" lon="4.33414">
        <ele>216</ele>
        <time>2011-08-14T12:39:41Z</time>
      </trkpt>
      <trkpt lat="44.48198" lon="4.33414">
        <ele>216</ele>
        <time>2011-08-14T12:39:48Z</time>
      </trkpt>
      <trkpt lat="44.48209" lon="4.33409">
        <ele>216</ele>
        <time>2011-08-14T12:39:53Z</time>
      </trkpt>
      <trkpt lat="44.48221" lon="4.33407">
        <ele>217</ele>
        <time>2011-08-14T12:39:59Z</time>
      </trkpt>
      <trkpt lat="44.48228" lon="4.33409">
        <ele>217</ele>
        <time>2011-08-14T12:40:02Z</time>
      </trkpt>
      <trkpt lat="44.48244" lon="4.33405">
        <ele>218</ele>
        <time>2011-08-14T12:40:07Z</time>
      </trkpt>
      <trkpt lat="44.48249" lon="4.33403">
        <ele>218</ele>
        <time>2011-08-14T12:40:11Z</time>
      </trkpt>
      <trkpt lat="44.48251" lon="4.33403">
        <ele>217</ele>
        <time>2011-08-14T12:40:13Z</time>
      </trkpt>
      <trkpt lat="44.48255" lon="4.33401">
        <ele>216</ele>
        <time>2011-08-14T12:40:20Z</time>
      </trkpt>
      <trkpt lat="44.4826" lon="4.33399">
        <ele>215</ele>
        <time>2011-08-14T12:40:26Z</time>
      </trkpt>
      <trkpt lat="44.48261" lon="4.33399">
        <ele>215</ele>
        <time>2011-08-14T12:40:33Z</time>
      </trkpt>
      <trkpt lat="44.48264" lon="4.33401">
        <ele>215</ele>
        <time>2011-08-14T12:40:41Z</time>
      </trkpt>
      <trkpt lat="44.48265" lon="4.33404">
        <ele>215</ele>
        <time>2011-08-14T12:40:47Z</time>
      </trkpt>
      <trkpt lat="44.48268" lon="4.33407">
        <ele>215</ele>
        <time>2011-08-14T12:40:54Z</time>
      </trkpt>
      <trkpt lat="44.48272" lon="4.33408">
        <ele>214</ele>
        <time>2011-08-14T12:41:00Z</time>
      </trkpt>
      <trkpt lat="44.48277" lon="4.33408">
        <ele>214</ele>
        <time>2011-08-14T12:41:05Z</time>
      </trkpt>
      <trkpt lat="44.48282" lon="4.33411">
        <ele>214</ele>
        <time>2011-08-14T12:41:11Z</time>
      </trkpt>
      <trkpt lat="44.48287" lon="4.3341">
        <ele>213</ele>
        <time>2011-08-14T12:41:18Z</time>
      </trkpt>
      <trkpt lat="44.4829" lon="4.33414">
        <ele>213</ele>
        <time>2011-08-14T12:41:24Z</time>
      </trkpt>
      <trkpt lat="44.48293" lon="4.33416">
        <ele>213</ele>
        <time>2011-08-14T12:41:29Z</time>
      </trkpt>
      <trkpt lat="44.48298" lon="4.33417">
        <ele>224</ele>
        <time>2011-08-14T12:41:34Z</time>
      </trkpt>
      <trkpt lat="44.48301" lon="4.33418">
        <ele>224</ele>
        <time>2011-08-14T12:41:40Z</time>
      </trkpt>
      <trkpt lat="44.48303" lon="4.33421">
        <ele>224</ele>
        <time>2011-08-14T12:41:44Z</time>
      </trkpt>
      <trkpt lat="44.48305" lon="4.33427">
        <ele>224</ele>
        <time>2011-08-14T12:41:50Z</time>
      </trkpt>
      <trkpt lat="44.48305" lon="4.33431">
        <ele>224</ele>
        <time>2011-08-14T12:41:56Z</time>
      </trkpt>
      <trkpt lat="44.48307" lon="4.33434">
        <ele>224</ele>
        <time>2011-08-14T12:42:00Z</time>
      </trkpt>
      <trkpt lat="44.48312" lon="4.33445">
        <ele>225</ele>
        <time>2011-08-14T12:42:06Z</time>
      </trkpt>
      <trkpt lat="44.48314" lon="4.33448">
        <ele>225</ele>
        <time>2011-08-14T12:42:08Z</time>
      </trkpt>
      <trkpt lat="44.48318" lon="4.33449">
        <ele>225</ele>
        <time>2011-08-14T12:42:10Z</time>
      </trkpt>
      <trkpt lat="44.4833" lon="4.33451">
        <ele>225</ele>
        <time>2011-08-14T12:42:16Z</time>
      </trkpt>
      <trkpt lat="44.48337" lon="4.33455">
        <ele>223</ele>
        <time>2011-08-14T12:42:22Z</time>
      </trkpt>
      <trkpt lat="44.48339" lon="4.33456">
        <ele>222</ele>
        <time>2011-08-14T12:42:23Z</time>
      </trkpt>
      <trkpt lat="44.48348" lon="4.33458">
        <ele>222</ele>
        <time>2011-08-14T12:42:29Z</time>
      </trkpt>
      <trkpt lat="44.48353" lon="4.3346">
        <ele>222</ele>
        <time>2011-08-14T12:42:32Z</time>
      </trkpt>
      <trkpt lat="44.48358" lon="4.33468">
        <ele>223</ele>
        <time>2011-08-14T12:42:37Z</time>
      </trkpt>
      <trkpt lat="44.48363" lon="4.33479">
        <ele>223</ele>
        <time>2011-08-14T12:42:42Z</time>
      </trkpt>
      <trkpt lat="44.48372" lon="4.33488">
        <ele>223</ele>
        <time>2011-08-14T12:42:48Z</time>
      </trkpt>
      <trkpt lat="44.48382" lon="4.3349">
        <ele>223</ele>
        <time>2011-08-14T12:42:52Z</time>
      </trkpt>
      <trkpt lat="44.48384" lon="4.3349">
        <ele>222</ele>
        <time>2011-08-14T12:42:53Z</time>
      </trkpt>
      <trkpt lat="44.48397" lon="4.33496">
        <ele>222</ele>
        <time>2011-08-14T12:42:59Z</time>
      </trkpt>
      <trkpt lat="44.48406" lon="4.335">
        <ele>226</ele>
        <time>2011-08-14T12:43:04Z</time>
      </trkpt>
      <trkpt lat="44.4842" lon="4.33494">
        <ele>221</ele>
        <time>2011-08-14T12:43:09Z</time>
      </trkpt>
      <trkpt lat="44.48441" lon="4.33493">
        <ele>217</ele>
        <time>2011-08-14T12:43:14Z</time>
      </trkpt>
      <trkpt lat="44.48445" lon="4.33493">
        <ele>217</ele>
        <time>2011-08-14T12:43:15Z</time>
      </trkpt>
      <trkpt lat="44.48457" lon="4.33478">
        <ele>215</ele>
        <time>2011-08-14T12:43:19Z</time>
      </trkpt>
      <trkpt lat="44.4846" lon="4.33475">
        <ele>214</ele>
        <time>2011-08-14T12:43:20Z</time>
      </trkpt>
      <trkpt lat="44.48487" lon="4.33459">
        <ele>212</ele>
        <time>2011-08-14T12:43:28Z</time>
      </trkpt>
      <trkpt lat="44.48505" lon="4.33455">
        <ele>214</ele>
        <time>2011-08-14T12:43:34Z</time>
      </trkpt>
      <trkpt lat="44.48512" lon="4.33456">
        <ele>214</ele>
        <time>2011-08-14T12:43:38Z</time>
      </trkpt>
      <trkpt lat="44.48514" lon="4.33456">
        <ele>214</ele>
        <time>2011-08-14T12:43:42Z</time>
      </trkpt>
      <trkpt lat="44.48514" lon="4.33455">
        <ele>214</ele>
        <time>2011-08-14T12:43:46Z</time>
      </trkpt>
      <trkpt lat="44.48513" lon="4.33456">
        <ele>214</ele>
        <time>2011-08-14T12:43:52Z</time>
      </trkpt>
      <trkpt lat="44.48512" lon="4.33456">
        <ele>214</ele>
        <time>2011-08-14T12:44:03Z</time>
      </trkpt>
      <trkpt lat="44.48512" lon="4.33456">
        <ele>214</ele>
        <time>2011-08-14T12:44:10Z</time>
      </trkpt>
      <trkpt lat="44.4851" lon="4.33456">
        <ele>214</ele>
        <time>2011-08-14T12:44:43Z</time>
      </trkpt>
      <trkpt lat="44.48506" lon="4.33456">
        <ele>214</ele>
        <time>2011-08-14T12:45:32Z</time>
      </trkpt>
      <trkpt lat="44.48512" lon="4.33458">
        <ele>215</ele>
        <time>2011-08-14T12:47:24Z</time>
      </trkpt>
      <trkpt lat="44.48514" lon="4.3346">
        <ele>215</ele>
        <time>2011-08-14T12:47:46Z</time>
      </trkpt>
      <trkpt lat="44.48515" lon="4.33459">
        <ele>215</ele>
        <time>2011-08-14T12:48:08Z</time>
      </trkpt>
      <trkpt lat="44.48515" lon="4.33461">
        <ele>215</ele>
        <time>2011-08-14T12:48:23Z</time>
      </trkpt>
      <trkpt lat="44.48515" lon="4.33463">
        <ele>216</ele>
        <time>2011-08-14T12:49:59Z</time>
      </trkpt>
      <trkpt lat="44.48515" lon="4.33461">
        <ele>215</ele>
        <time>2011-08-14T12:50:22Z</time>
      </trkpt>
      <trkpt lat="44.48514" lon="4.33459">
        <ele>215</ele>
        <time>2011-08-14T12:50:33Z</time>
      </trkpt>
      <trkpt lat="44.48515" lon="4.33459">
        <ele>215</ele>
        <time>2011-08-14T12:50:47Z</time>
      </trkpt>
      <trkpt lat="44.48517" lon="4.33458">
        <ele>215</ele>
        <time>2011-08-14T12:50:53Z</time>
      </trkpt>
      <trkpt lat="44.48518" lon="4.33455">
        <ele>214</ele>
        <time>2011-08-14T12:50:58Z</time>
      </trkpt>
      <trkpt lat="44.48519" lon="4.33457">
        <ele>215</ele>
        <time>2011-08-14T12:51:53Z</time>
      </trkpt>
      <trkpt lat="44.4852" lon="4.33455">
        <ele>215</ele>
        <time>2011-08-14T12:52:04Z</time>
      </trkpt>
      <trkpt lat="44.4852" lon="4.33456">
        <ele>215</ele>
        <time>2011-08-14T12:52:17Z</time>
      </trkpt>
      <trkpt lat="44.48518" lon="4.33454">
        <ele>214</ele>
        <time>2011-08-14T12:52:41Z</time>
      </trkpt>
      <trkpt lat="44.48524" lon="4.33452">
        <ele>214</ele>
        <time>2011-08-14T12:52:46Z</time>
      </trkpt>
      <trkpt lat="44.48541" lon="4.33447">
        <ele>215</ele>
        <time>2011-08-14T12:52:52Z</time>
      </trkpt>
      <trkpt lat="44.48558" lon="4.33443">
        <ele>216</ele>
        <time>2011-08-14T12:52:58Z</time>
      </trkpt>
      <trkpt lat="44.48574" lon="4.33438">
        <ele>215</ele>
        <time>2011-08-14T12:53:04Z</time>
      </trkpt>
      <trkpt lat="44.48594" lon="4.33433">
        <ele>219</ele>
        <time>2011-08-14T12:53:12Z</time>
      </trkpt>
      <trkpt lat="44.48622" lon="4.33428">
        <ele>221</ele>
        <time>2011-08-14T12:53:22Z</time>
      </trkpt>
      <trkpt lat="44.48645" lon="4.33424">
        <ele>220</ele>
        <time>2011-08-14T12:53:30Z</time>
      </trkpt>
      <trkpt lat="44.48668" lon="4.33424">
        <ele>217</ele>
        <time>2011-08-14T12:53:38Z</time>
      </trkpt>
      <trkpt lat="44.4869" lon="4.33429">
        <ele>216</ele>
        <time>2011-08-14T12:53:46Z</time>
      </trkpt>
      <trkpt lat="44.48701" lon="4.33433">
        <ele>215</ele>
        <time>2011-08-14T12:53:53Z</time>
      </trkpt>
      <trkpt lat="44.48713" lon="4.33436">
        <ele>214</ele>
        <time>2011-08-14T12:53:59Z</time>
      </trkpt>
      <trkpt lat="44.48719" lon="4.3344">
        <ele>214</ele>
        <time>2011-08-14T12:54:02Z</time>
      </trkpt>
      <trkpt lat="44.48721" lon="4.33443">
        <ele>214</ele>
        <time>2011-08-14T12:54:08Z</time>
      </trkpt>
      <trkpt lat="44.4872" lon="4.33443">
        <ele>214</ele>
        <time>2011-08-14T12:54:28Z</time>
      </trkpt>
      <trkpt lat="44.4872" lon="4.3345">
        <ele>215</ele>
        <time>2011-08-14T12:54:38Z</time>
      </trkpt>
      <trkpt lat="44.48719" lon="4.33461">
        <ele>216</ele>
        <time>2011-08-14T12:54:41Z</time>
      </trkpt>
      <trkpt lat="44.48727" lon="4.33471">
        <ele>216</ele>
        <time>2011-08-14T12:54:45Z</time>
      </trkpt>
      <trkpt lat="44.48741" lon="4.33482">
        <ele>215</ele>
        <time>2011-08-14T12:54:51Z</time>
      </trkpt>
      <trkpt lat="44.48757" lon="4.33498">
        <ele>209</ele>
        <time>2011-08-14T12:54:58Z</time>
      </trkpt>
      <trkpt lat="44.4877" lon="4.33513">
        <ele>209</ele>
        <time>2011-08-14T12:55:04Z</time>
      </trkpt>
      <trkpt lat="44.48785" lon="4.33533">
        <ele>207</ele>
        <time>2011-08-14T12:55:11Z</time>
      </trkpt>
      <trkpt lat="44.48789" lon="4.33551">
        <ele>208</ele>
        <time>2011-08-14T12:55:15Z</time>
      </trkpt>
      <trkpt lat="44.48793" lon="4.33576">
        <ele>208</ele>
        <time>2011-08-14T12:55:20Z</time>
      </trkpt>
      <trkpt lat="44.48801" lon="4.33605">
        <ele>215</ele>
        <time>2011-08-14T12:55:26Z</time>
      </trkpt>
      <trkpt lat="44.48807" lon="4.33629">
        <ele>216</ele>
        <time>2011-08-14T12:55:31Z</time>
      </trkpt>
      <trkpt lat="44.48821" lon="4.33646">
        <ele>216</ele>
        <time>2011-08-14T12:55:36Z</time>
      </trkpt>
      <trkpt lat="44.48852" lon="4.33664">
        <ele>209</ele>
        <time>2011-08-14T12:55:44Z</time>
      </trkpt>
      <trkpt lat="44.48871" lon="4.33665">
        <ele>207</ele>
        <time>2011-08-14T12:55:48Z</time>
      </trkpt>
      <trkpt lat="44.48896" lon="4.33667">
        <ele>215</ele>
        <time>2011-08-14T12:55:54Z</time>
      </trkpt>
      <trkpt lat="44.48917" lon="4.33669">
        <ele>211</ele>
        <time>2011-08-14T12:55:59Z</time>
      </trkpt>
      <trkpt lat="44.48929" lon="4.33673">
        <ele>211</ele>
        <time>2011-08-14T12:56:02Z</time>
      </trkpt>
      <trkpt lat="44.48948" lon="4.3369">
        <ele>211</ele>
        <time>2011-08-14T12:56:08Z</time>
      </trkpt>
      <trkpt lat="44.48959" lon="4.33716">
        <ele>213</ele>
        <time>2011-08-14T12:56:14Z</time>
      </trkpt>
      <trkpt lat="44.48965" lon="4.33749">
        <ele>214</ele>
        <time>2011-08-14T12:56:20Z</time>
      </trkpt>
      <trkpt lat="44.48968" lon="4.33766">
        <ele>219</ele>
        <time>2011-08-14T12:56:23Z</time>
      </trkpt>
      <trkpt lat="44.48969" lon="4.33778">
        <ele>219</ele>
        <time>2011-08-14T12:56:25Z</time>
      </trkpt>
      <trkpt lat="44.48971" lon="4.3381">
        <ele>219</ele>
        <time>2011-08-14T12:56:32Z</time>
      </trkpt>
      <trkpt lat="44.48971" lon="4.33835">
        <ele>219</ele>
        <time>2011-08-14T12:56:38Z</time>
      </trkpt>
      <trkpt lat="44.48973" lon="4.33859">
        <ele>219</ele>
        <time>2011-08-14T12:56:42Z</time>
      </trkpt>
      <trkpt lat="44.48976" lon="4.33885">
        <ele>219</ele>
        <time>2011-08-14T12:56:46Z</time>
      </trkpt>
      <trkpt lat="44.48978" lon="4.33891">
        <ele>219</ele>
        <time>2011-08-14T12:56:47Z</time>
      </trkpt>
      <trkpt lat="44.48981" lon="4.33909">
        <ele>218</ele>
        <time>2011-08-14T12:56:50Z</time>
      </trkpt>
      <trkpt lat="44.48981" lon="4.33932">
        <ele>217</ele>
        <time>2011-08-14T12:56:54Z</time>
      </trkpt>
      <trkpt lat="44.4898" lon="4.33956">
        <ele>218</ele>
        <time>2011-08-14T12:56:59Z</time>
      </trkpt>
      <trkpt lat="44.48984" lon="4.33966">
        <ele>218</ele>
        <time>2011-08-14T12:57:02Z</time>
      </trkpt>
      <trkpt lat="44.48988" lon="4.33973">
        <ele>218</ele>
        <time>2011-08-14T12:57:06Z</time>
      </trkpt>
      <trkpt lat="44.48991" lon="4.33974">
        <ele>218</ele>
        <time>2011-08-14T12:57:13Z</time>
      </trkpt>
      <trkpt lat="44.49001" lon="4.3397">
        <ele>216</ele>
        <time>2011-08-14T12:57:18Z</time>
      </trkpt>
      <trkpt lat="44.49005" lon="4.3397">
        <ele>216</ele>
        <time>2011-08-14T12:57:22Z</time>
      </trkpt>
      <trkpt lat="44.49004" lon="4.33972">
        <ele>216</ele>
        <time>2011-08-14T12:57:28Z</time>
      </trkpt>
      <trkpt lat="44.49001" lon="4.33972">
        <ele>216</ele>
        <time>2011-08-14T12:57:33Z</time>
      </trkpt>
      <trkpt lat="44.48997" lon="4.33975">
        <ele>218</ele>
        <time>2011-08-14T12:57:39Z</time>
      </trkpt>
      <trkpt lat="44.48992" lon="4.33979">
        <ele>218</ele>
        <time>2011-08-14T12:57:46Z</time>
      </trkpt>
      <trkpt lat="44.48992" lon="4.33982">
        <ele>218</ele>
        <time>2011-08-14T12:57:48Z</time>
      </trkpt>
      <trkpt lat="44.48996" lon="4.33994">
        <ele>218</ele>
        <time>2011-08-14T12:57:52Z</time>
      </trkpt>
      <trkpt lat="44.49003" lon="4.34015">
        <ele>220</ele>
        <time>2011-08-14T12:57:59Z</time>
      </trkpt>
      <trkpt lat="44.49017" lon="4.34019">
        <ele>220</ele>
        <time>2011-08-14T12:58:04Z</time>
      </trkpt>
      <trkpt lat="44.49024" lon="4.34017">
        <ele>220</ele>
        <time>2011-08-14T12:58:06Z</time>
      </trkpt>
      <trkpt lat="44.49047" lon="4.34007">
        <ele>220</ele>
        <time>2011-08-14T12:58:13Z</time>
      </trkpt>
      <trkpt lat="44.49075" lon="4.34007">
        <ele>219</ele>
        <time>2011-08-14T12:58:21Z</time>
      </trkpt>
      <trkpt lat="44.49094" lon="4.34004">
        <ele>218</ele>
        <time>2011-08-14T12:58:28Z</time>
      </trkpt>
      <trkpt lat="44.49105" lon="4.33999">
        <ele>215</ele>
        <time>2011-08-14T12:58:35Z</time>
      </trkpt>
      <trkpt lat="44.49107" lon="4.33996">
        <ele>215</ele>
        <time>2011-08-14T12:58:37Z</time>
      </trkpt>
      <trkpt lat="44.49108" lon="4.33995">
        <ele>215</ele>
        <time>2011-08-14T12:58:46Z</time>
      </trkpt>
      <trkpt lat="44.49108" lon="4.33988">
        <ele>215</ele>
        <time>2011-08-14T12:58:52Z</time>
      </trkpt>
      <trkpt lat="44.4911" lon="4.33967">
        <ele>214</ele>
        <time>2011-08-14T12:58:57Z</time>
      </trkpt>
      <trkpt lat="44.49119" lon="4.33931">
        <ele>213</ele>
        <time>2011-08-14T12:59:03Z</time>
      </trkpt>
      <trkpt lat="44.49121" lon="4.33925">
        <ele>213</ele>
        <time>2011-08-14T12:59:04Z</time>
      </trkpt>
      <trkpt lat="44.49125" lon="4.33897">
        <ele>210</ele>
        <time>2011-08-14T12:59:08Z</time>
      </trkpt>
      <trkpt lat="44.4913" lon="4.33865">
        <ele>210</ele>
        <time>2011-08-14T12:59:12Z</time>
      </trkpt>
      <trkpt lat="44.49139" lon="4.33827">
        <ele>208</ele>
        <time>2011-08-14T12:59:17Z</time>
      </trkpt>
      <trkpt lat="44.49146" lon="4.3382">
        <ele>209</ele>
        <time>2011-08-14T12:59:21Z</time>
      </trkpt>
      <trkpt lat="44.49165" lon="4.33821">
        <ele>209</ele>
        <time>2011-08-14T12:59:28Z</time>
      </trkpt>
      <trkpt lat="44.49171" lon="4.33824">
        <ele>210</ele>
        <time>2011-08-14T12:59:30Z</time>
      </trkpt>
      <trkpt lat="44.49195" lon="4.33839">
        <ele>211</ele>
        <time>2011-08-14T12:59:37Z</time>
      </trkpt>
      <trkpt lat="44.49204" lon="4.33843">
        <ele>212</ele>
        <time>2011-08-14T12:59:40Z</time>
      </trkpt>
      <trkpt lat="44.49212" lon="4.33831">
        <ele>212</ele>
        <time>2011-08-14T12:59:44Z</time>
      </trkpt>
      <trkpt lat="44.49214" lon="4.33813">
        <ele>212</ele>
        <time>2011-08-14T12:59:48Z</time>
      </trkpt>
      <trkpt lat="44.49213" lon="4.33793">
        <ele>212</ele>
        <time>2011-08-14T12:59:53Z</time>
      </trkpt>
      <trkpt lat="44.49208" lon="4.33746">
        <ele>211</ele>
        <time>2011-08-14T13:00:04Z</time>
      </trkpt>
      <trkpt lat="44.49208" lon="4.33715">
        <ele>211</ele>
        <time>2011-08-14T13:00:11Z</time>
      </trkpt>
      <trkpt lat="44.49213" lon="4.33675">
        <ele>210</ele>
        <time>2011-08-14T13:00:20Z</time>
      </trkpt>
      <trkpt lat="44.49224" lon="4.33656">
        <ele>205</ele>
        <time>2011-08-14T13:00:26Z</time>
      </trkpt>
      <trkpt lat="44.49239" lon="4.33647">
        <ele>205</ele>
        <time>2011-08-14T13:00:32Z</time>
      </trkpt>
      <trkpt lat="44.49258" lon="4.33653">
        <ele>203</ele>
        <time>2011-08-14T13:00:37Z</time>
      </trkpt>
      <trkpt lat="44.49275" lon="4.33666">
        <ele>200</ele>
        <time>2011-08-14T13:00:41Z</time>
      </trkpt>
      <trkpt lat="44.49284" lon="4.33682">
        <ele>205</ele>
        <time>2011-08-14T13:00:45Z</time>
      </trkpt>
      <trkpt lat="44.49304" lon="4.33702">
        <ele>204</ele>
        <time>2011-08-14T13:00:51Z</time>
      </trkpt>
      <trkpt lat="44.49315" lon="4.33718">
        <ele>204</ele>
        <time>2011-08-14T13:00:55Z</time>
      </trkpt>
      <trkpt lat="44.49334" lon="4.33744">
        <ele>202</ele>
        <time>2011-08-14T13:01:01Z</time>
      </trkpt>
      <trkpt lat="44.49345" lon="4.33763">
        <ele>204</ele>
        <time>2011-08-14T13:01:06Z</time>
      </trkpt>
      <trkpt lat="44.49351" lon="4.33773">
        <ele>204</ele>
        <time>2011-08-14T13:01:09Z</time>
      </trkpt>
      <trkpt lat="44.49352" lon="4.33779">
        <ele>205</ele>
        <time>2011-08-14T13:01:15Z</time>
      </trkpt>
      <trkpt lat="44.4935" lon="4.33784">
        <ele>205</ele>
        <time>2011-08-14T13:01:21Z</time>
      </trkpt>
      <trkpt lat="44.4935" lon="4.33786">
        <ele>205</ele>
        <time>2011-08-14T13:01:26Z</time>
      </trkpt>
      <trkpt lat="44.49347" lon="4.33787">
        <ele>206</ele>
        <time>2011-08-14T13:01:32Z</time>
      </trkpt>
      <trkpt lat="44.49348" lon="4.33792">
        <ele>206</ele>
        <time>2011-08-14T13:01:39Z</time>
      </trkpt>
      <trkpt lat="44.4935" lon="4.33796">
        <ele>206</ele>
        <time>2011-08-14T13:01:46Z</time>
      </trkpt>
      <trkpt lat="44.49352" lon="4.33801">
        <ele>207</ele>
        <time>2011-08-14T13:01:49Z</time>
      </trkpt>
      <trkpt lat="44.49363" lon="4.33817">
        <ele>207</ele>
        <time>2011-08-14T13:01:57Z</time>
      </trkpt>
      <trkpt lat="44.49375" lon="4.33834">
        <ele>214</ele>
        <time>2011-08-14T13:02:04Z</time>
      </trkpt>
      <trkpt lat="44.49384" lon="4.33846">
        <ele>213</ele>
        <time>2011-08-14T13:02:09Z</time>
      </trkpt>
      <trkpt lat="44.49395" lon="4.33856">
        <ele>213</ele>
        <time>2011-08-14T13:02:14Z</time>
      </trkpt>
      <trkpt lat="44.49402" lon="4.33861">
        <ele>213</ele>
        <time>2011-08-14T13:02:17Z</time>
      </trkpt>
      <trkpt lat="44.49406" lon="4.33866">
        <ele>213</ele>
        <time>2011-08-14T13:02:19Z</time>
      </trkpt>
      <trkpt lat="44.49423" lon="4.33877">
        <ele>209</ele>
        <time>2011-08-14T13:02:25Z</time>
      </trkpt>
      <trkpt lat="44.49434" lon="4.33885">
        <ele>210</ele>
        <time>2011-08-14T13:02:29Z</time>
      </trkpt>
      <trkpt lat="44.49445" lon="4.33893">
        <ele>210</ele>
        <time>2011-08-14T13:02:34Z</time>
      </trkpt>
      <trkpt lat="44.49447" lon="4.33893">
        <ele>210</ele>
        <time>2011-08-14T13:02:35Z</time>
      </trkpt>
      <trkpt lat="44.4945" lon="4.33894">
        <ele>210</ele>
        <time>2011-08-14T13:02:37Z</time>
      </trkpt>
      <trkpt lat="44.49454" lon="4.33894">
        <ele>210</ele>
        <time>2011-08-14T13:02:41Z</time>
      </trkpt>
      <trkpt lat="44.49457" lon="4.33887">
        <ele>209</ele>
        <time>2011-08-14T13:02:47Z</time>
      </trkpt>
      <trkpt lat="44.49459" lon="4.33885">
        <ele>208</ele>
        <time>2011-08-14T13:02:57Z</time>
      </trkpt>
      <trkpt lat="44.49459" lon="4.33884">
        <ele>208</ele>
        <time>2011-08-14T13:03:04Z</time>
      </trkpt>
      <trkpt lat="44.49458" lon="4.33886">
        <ele>209</ele>
        <time>2011-08-14T13:03:12Z</time>
      </trkpt>
      <trkpt lat="44.49456" lon="4.3389">
        <ele>209</ele>
        <time>2011-08-14T13:03:19Z</time>
      </trkpt>
      <trkpt lat="44.49456" lon="4.33891">
        <ele>209</ele>
        <time>2011-08-14T13:03:26Z</time>
      </trkpt>
      <trkpt lat="44.49456" lon="4.33893">
        <ele>209</ele>
        <time>2011-08-14T13:03:33Z</time>
      </trkpt>
      <trkpt lat="44.49456" lon="4.33894">
        <ele>209</ele>
        <time>2011-08-14T13:03:40Z</time>
      </trkpt>
      <trkpt lat="44.49456" lon="4.33894">
        <ele>209</ele>
        <time>2011-08-14T13:03:49Z</time>
      </trkpt>
      <trkpt lat="44.49458" lon="4.33893">
        <ele>209</ele>
        <time>2011-08-14T13:04:07Z</time>
      </trkpt>
      <trkpt lat="44.49459" lon="4.33893">
        <ele>209</ele>
        <time>2011-08-14T13:04:23Z</time>
      </trkpt>
      <trkpt lat="44.49459" lon="4.33894">
        <ele>209</ele>
        <time>2011-08-14T13:04:30Z</time>
      </trkpt>
      <trkpt lat="44.49458" lon="4.33896">
        <ele>210</ele>
        <time>2011-08-14T13:04:40Z</time>
      </trkpt>
      <trkpt lat="44.49459" lon="4.33899">
        <ele>210</ele>
        <time>2011-08-14T13:04:54Z</time>
      </trkpt>
      <trkpt lat="44.4946" lon="4.33901">
        <ele>210</ele>
        <time>2011-08-14T13:05:04Z</time>
      </trkpt>
      <trkpt lat="44.4946" lon="4.33901">
        <ele>210</ele>
        <time>2011-08-14T13:05:09Z</time>
      </trkpt>
      <trkpt lat="44.4946" lon="4.33902">
        <ele>210</ele>
        <time>2011-08-14T13:05:24Z</time>
      </trkpt>
      <trkpt lat="44.49461" lon="4.33899">
        <ele>210</ele>
        <time>2011-08-14T13:05:34Z</time>
      </trkpt>
      <trkpt lat="44.49465" lon="4.339">
        <ele>210</ele>
        <time>2011-08-14T13:05:42Z</time>
      </trkpt>
      <trkpt lat="44.49467" lon="4.33901">
        <ele>209</ele>
        <time>2011-08-14T13:05:44Z</time>
      </trkpt>
      <trkpt lat="44.49478" lon="4.33908">
        <ele>210</ele>
        <time>2011-08-14T13:05:49Z</time>
      </trkpt>
      <trkpt lat="44.49488" lon="4.33923">
        <ele>216</ele>
        <time>2011-08-14T13:05:55Z</time>
      </trkpt>
      <trkpt lat="44.49504" lon="4.33934">
        <ele>216</ele>
        <time>2011-08-14T13:06:01Z</time>
      </trkpt>
      <trkpt lat="44.4952" lon="4.33942">
        <ele>218</ele>
        <time>2011-08-14T13:06:07Z</time>
      </trkpt>
      <trkpt lat="44.4954" lon="4.33943">
        <ele>218</ele>
        <time>2011-08-14T13:06:14Z</time>
      </trkpt>
      <trkpt lat="44.49558" lon="4.3394">
        <ele>218</ele>
        <time>2011-08-14T13:06:20Z</time>
      </trkpt>
      <trkpt lat="44.49571" lon="4.33944">
        <ele>218</ele>
        <time>2011-08-14T13:06:25Z</time>
      </trkpt>
      <trkpt lat="44.49585" lon="4.33943">
        <ele>218</ele>
        <time>2011-08-14T13:06:30Z</time>
      </trkpt>
      <trkpt lat="44.496" lon="4.3394">
        <ele>218</ele>
        <time>2011-08-14T13:06:35Z</time>
      </trkpt>
      <trkpt lat="44.4962" lon="4.33933">
        <ele>218</ele>
        <time>2011-08-14T13:06:42Z</time>
      </trkpt>
      <trkpt lat="44.49635" lon="4.33936">
        <ele>218</ele>
        <time>2011-08-14T13:06:47Z</time>
      </trkpt>
      <trkpt lat="44.49648" lon="4.3394">
        <ele>218</ele>
        <time>2011-08-14T13:06:52Z</time>
      </trkpt>
      <trkpt lat="44.49662" lon="4.33949">
        <ele>219</ele>
        <time>2011-08-14T13:06:57Z</time>
      </trkpt>
      <trkpt lat="44.49678" lon="4.33964">
        <ele>219</ele>
        <time>2011-08-14T13:07:04Z</time>
      </trkpt>
      <trkpt lat="44.49691" lon="4.33975">
        <ele>220</ele>
        <time>2011-08-14T13:07:09Z</time>
      </trkpt>
      <trkpt lat="44.49693" lon="4.33977">
        <ele>220</ele>
        <time>2011-08-14T13:07:10Z</time>
      </trkpt>
      <trkpt lat="44.49709" lon="4.33976">
        <ele>219</ele>
        <time>2011-08-14T13:07:16Z</time>
      </trkpt>
      <trkpt lat="44.49723" lon="4.33981">
        <ele>220</ele>
        <time>2011-08-14T13:07:22Z</time>
      </trkpt>
      <trkpt lat="44.49739" lon="4.33987">
        <ele>221</ele>
        <time>2011-08-14T13:07:29Z</time>
      </trkpt>
      <trkpt lat="44.49748" lon="4.33993">
        <ele>223</ele>
        <time>2011-08-14T13:07:34Z</time>
      </trkpt>
      <trkpt lat="44.49761" lon="4.33992">
        <ele>223</ele>
        <time>2011-08-14T13:07:40Z</time>
      </trkpt>
      <trkpt lat="44.49773" lon="4.33983">
        <ele>221</ele>
        <time>2011-08-14T13:07:45Z</time>
      </trkpt>
      <trkpt lat="44.49776" lon="4.33983">
        <ele>221</ele>
        <time>2011-08-14T13:07:46Z</time>
      </trkpt>
      <trkpt lat="44.49801" lon="4.33987">
        <ele>222</ele>
        <time>2011-08-14T13:07:54Z</time>
      </trkpt>
      <trkpt lat="44.49813" lon="4.33984">
        <ele>223</ele>
        <time>2011-08-14T13:07:58Z</time>
      </trkpt>
      <trkpt lat="44.4983" lon="4.33972">
        <ele>223</ele>
        <time>2011-08-14T13:08:05Z</time>
      </trkpt>
      <trkpt lat="44.49841" lon="4.33962">
        <ele>226</ele>
        <time>2011-08-14T13:08:10Z</time>
      </trkpt>
      <trkpt lat="44.49846" lon="4.33959">
        <ele>225</ele>
        <time>2011-08-14T13:08:13Z</time>
      </trkpt>
      <trkpt lat="44.49855" lon="4.33948">
        <ele>225</ele>
        <time>2011-08-14T13:08:18Z</time>
      </trkpt>
      <trkpt lat="44.49868" lon="4.33922">
        <ele>224</ele>
        <time>2011-08-14T13:08:27Z</time>
      </trkpt>
      <trkpt lat="44.49882" lon="4.33904">
        <ele>220</ele>
        <time>2011-08-14T13:08:34Z</time>
      </trkpt>
      <trkpt lat="44.49895" lon="4.33892">
        <ele>220</ele>
        <time>2011-08-14T13:08:40Z</time>
      </trkpt>
      <trkpt lat="44.49906" lon="4.33873">
        <ele>219</ele>
        <time>2011-08-14T13:08:46Z</time>
      </trkpt>
      <trkpt lat="44.49921" lon="4.33855">
        <ele>221</ele>
        <time>2011-08-14T13:08:52Z</time>
      </trkpt>
      <trkpt lat="44.49934" lon="4.33851">
        <ele>221</ele>
        <time>2011-08-14T13:08:58Z</time>
      </trkpt>
      <trkpt lat="44.49944" lon="4.33853">
        <ele>222</ele>
        <time>2011-08-14T13:09:04Z</time>
      </trkpt>
      <trkpt lat="44.49958" lon="4.33853">
        <ele>223</ele>
        <time>2011-08-14T13:09:13Z</time>
      </trkpt>
      <trkpt lat="44.49964" lon="4.33852">
        <ele>223</ele>
        <time>2011-08-14T13:09:18Z</time>
      </trkpt>
      <trkpt lat="44.49964" lon="4.33852">
        <ele>223</ele>
        <time>2011-08-14T13:09:40Z</time>
      </trkpt>
      <trkpt lat="44.49965" lon="4.33851">
        <ele>223</ele>
        <time>2011-08-14T13:10:02Z</time>
      </trkpt>
      <trkpt lat="44.49967" lon="4.33852">
        <ele>223</ele>
        <time>2011-08-14T13:10:08Z</time>
      </trkpt>
      <trkpt lat="44.49974" lon="4.33853">
        <ele>223</ele>
        <time>2011-08-14T13:10:12Z</time>
      </trkpt>
      <trkpt lat="44.5" lon="4.33853">
        <ele>225</ele>
        <time>2011-08-14T13:10:20Z</time>
      </trkpt>
      <trkpt lat="44.50023" lon="4.3385">
        <ele>226</ele>
        <time>2011-08-14T13:10:27Z</time>
      </trkpt>
      <trkpt lat="44.5004" lon="4.33847">
        <ele>227</ele>
        <time>2011-08-14T13:10:32Z</time>
      </trkpt>
      <trkpt lat="44.50058" lon="4.33843">
        <ele>228</ele>
        <time>2011-08-14T13:10:38Z</time>
      </trkpt>
      <trkpt lat="44.50076" lon="4.33834">
        <ele>228</ele>
        <time>2011-08-14T13:10:44Z</time>
      </trkpt>
      <trkpt lat="44.50092" lon="4.33827">
        <ele>228</ele>
        <time>2011-08-14T13:10:50Z</time>
      </trkpt>
      <trkpt lat="44.50118" lon="4.33817">
        <ele>229</ele>
        <time>2011-08-14T13:10:59Z</time>
      </trkpt>
      <trkpt lat="44.50136" lon="4.33809">
        <ele>230</ele>
        <time>2011-08-14T13:11:08Z</time>
      </trkpt>
      <trkpt lat="44.50154" lon="4.33804">
        <ele>231</ele>
        <time>2011-08-14T13:11:17Z</time>
      </trkpt>
      <trkpt lat="44.50165" lon="4.33801">
        <ele>231</ele>
        <time>2011-08-14T13:11:23Z</time>
      </trkpt>
      <trkpt lat="44.50184" lon="4.33788">
        <ele>234</ele>
        <time>2011-08-14T13:11:32Z</time>
      </trkpt>
      <trkpt lat="44.50198" lon="4.33778">
        <ele>234</ele>
        <time>2011-08-14T13:11:38Z</time>
      </trkpt>
      <trkpt lat="44.50213" lon="4.33773">
        <ele>235</ele>
        <time>2011-08-14T13:11:44Z</time>
      </trkpt>
      <trkpt lat="44.50228" lon="4.33766">
        <ele>236</ele>
        <time>2011-08-14T13:11:50Z</time>
      </trkpt>
      <trkpt lat="44.50244" lon="4.33761">
        <ele>237</ele>
        <time>2011-08-14T13:11:57Z</time>
      </trkpt>
      <trkpt lat="44.50258" lon="4.3376">
        <ele>237</ele>
        <time>2011-08-14T13:12:04Z</time>
      </trkpt>
      <trkpt lat="44.50268" lon="4.33762">
        <ele>237</ele>
        <time>2011-08-14T13:12:09Z</time>
      </trkpt>
      <trkpt lat="44.50278" lon="4.33767">
        <ele>237</ele>
        <time>2011-08-14T13:12:14Z</time>
      </trkpt>
      <trkpt lat="44.5029" lon="4.33774">
        <ele>236</ele>
        <time>2011-08-14T13:12:21Z</time>
      </trkpt>
      <trkpt lat="44.50307" lon="4.33792">
        <ele>236</ele>
        <time>2011-08-14T13:12:31Z</time>
      </trkpt>
      <trkpt lat="44.50323" lon="4.33819">
        <ele>236</ele>
        <time>2011-08-14T13:12:40Z</time>
      </trkpt>
      <trkpt lat="44.5033" lon="4.33842">
        <ele>236</ele>
        <time>2011-08-14T13:12:46Z</time>
      </trkpt>
      <trkpt lat="44.50338" lon="4.33865">
        <ele>238</ele>
        <time>2011-08-14T13:12:52Z</time>
      </trkpt>
      <trkpt lat="44.50349" lon="4.33881">
        <ele>238</ele>
        <time>2011-08-14T13:12:58Z</time>
      </trkpt>
      <trkpt lat="44.50358" lon="4.33885">
        <ele>238</ele>
        <time>2011-08-14T13:13:02Z</time>
      </trkpt>
      <trkpt lat="44.50359" lon="4.33884">
        <ele>238</ele>
        <time>2011-08-14T13:13:13Z</time>
      </trkpt>
      <trkpt lat="44.50362" lon="4.33886">
        <ele>238</ele>
        <time>2011-08-14T13:13:38Z</time>
      </trkpt>
      <trkpt lat="44.50379" lon="4.33893">
        <ele>239</ele>
        <time>2011-08-14T13:13:45Z</time>
      </trkpt>
      <trkpt lat="44.50399" lon="4.33899">
        <ele>239</ele>
        <time>2011-08-14T13:13:52Z</time>
      </trkpt>
      <trkpt lat="44.50415" lon="4.33898">
        <ele>239</ele>
        <time>2011-08-14T13:13:58Z</time>
      </trkpt>
      <trkpt lat="44.50438" lon="4.33895">
        <ele>240</ele>
        <time>2011-08-14T13:14:06Z</time>
      </trkpt>
      <trkpt lat="44.50453" lon="4.33893">
        <ele>240</ele>
        <time>2011-08-14T13:14:12Z</time>
      </trkpt>
      <trkpt lat="44.50468" lon="4.33894">
        <ele>240</ele>
        <time>2011-08-14T13:14:17Z</time>
      </trkpt>
      <trkpt lat="44.50486" lon="4.33888">
        <ele>240</ele>
        <time>2011-08-14T13:14:22Z</time>
      </trkpt>
      <trkpt lat="44.50495" lon="4.3387">
        <ele>240</ele>
        <time>2011-08-14T13:14:27Z</time>
      </trkpt>
      <trkpt lat="44.50507" lon="4.33845">
        <ele>242</ele>
        <time>2011-08-14T13:14:34Z</time>
      </trkpt>
      <trkpt lat="44.50521" lon="4.33823">
        <ele>243</ele>
        <time>2011-08-14T13:14:40Z</time>
      </trkpt>
      <trkpt lat="44.50537" lon="4.3379">
        <ele>244</ele>
        <time>2011-08-14T13:14:48Z</time>
      </trkpt>
      <trkpt lat="44.50552" lon="4.33753">
        <ele>245</ele>
        <time>2011-08-14T13:14:56Z</time>
      </trkpt>
      <trkpt lat="44.50565" lon="4.33714">
        <ele>245</ele>
        <time>2011-08-14T13:15:04Z</time>
      </trkpt>
      <trkpt lat="44.50578" lon="4.33674">
        <ele>246</ele>
        <time>2011-08-14T13:15:12Z</time>
      </trkpt>
      <trkpt lat="44.50586" lon="4.33648">
        <ele>247</ele>
        <time>2011-08-14T13:15:18Z</time>
      </trkpt>
      <trkpt lat="44.50602" lon="4.33618">
        <ele>248</ele>
        <time>2011-08-14T13:15:26Z</time>
      </trkpt>
      <trkpt lat="44.50615" lon="4.33591">
        <ele>248</ele>
        <time>2011-08-14T13:15:33Z</time>
      </trkpt>
      <trkpt lat="44.50626" lon="4.33576">
        <ele>250</ele>
        <time>2011-08-14T13:15:38Z</time>
      </trkpt>
      <trkpt lat="44.50639" lon="4.33553">
        <ele>250</ele>
        <time>2011-08-14T13:15:44Z</time>
      </trkpt>
      <trkpt lat="44.50652" lon="4.33525">
        <ele>251</ele>
        <time>2011-08-14T13:15:51Z</time>
      </trkpt>
      <trkpt lat="44.50669" lon="4.33493">
        <ele>253</ele>
        <time>2011-08-14T13:15:59Z</time>
      </trkpt>
      <trkpt lat="44.50674" lon="4.33471">
        <ele>254</ele>
        <time>2011-08-14T13:16:04Z</time>
      </trkpt>
      <trkpt lat="44.50673" lon="4.33444">
        <ele>254</ele>
        <time>2011-08-14T13:16:10Z</time>
      </trkpt>
      <trkpt lat="44.50679" lon="4.33424">
        <ele>254</ele>
        <time>2011-08-14T13:16:15Z</time>
      </trkpt>
      <trkpt lat="44.50702" lon="4.33401">
        <ele>256</ele>
        <time>2011-08-14T13:16:24Z</time>
      </trkpt>
      <trkpt lat="44.50713" lon="4.33387">
        <ele>256</ele>
        <time>2011-08-14T13:16:30Z</time>
      </trkpt>
      <trkpt lat="44.50715" lon="4.33386">
        <ele>256</ele>
        <time>2011-08-14T13:16:32Z</time>
      </trkpt>
      <trkpt lat="44.50718" lon="4.33386">
        <ele>257</ele>
        <time>2011-08-14T13:16:38Z</time>
      </trkpt>
      <trkpt lat="44.50718" lon="4.33387">
        <ele>257</ele>
        <time>2011-08-14T13:16:45Z</time>
      </trkpt>
      <trkpt lat="44.50717" lon="4.33388">
        <ele>257</ele>
        <time>2011-08-14T13:16:49Z</time>
      </trkpt>
      <trkpt lat="44.50715" lon="4.33389">
        <ele>256</ele>
        <time>2011-08-14T13:16:56Z</time>
      </trkpt>
      <trkpt lat="44.50715" lon="4.33389">
        <ele>256</ele>
        <time>2011-08-14T13:17:14Z</time>
      </trkpt>
      <trkpt lat="44.50716" lon="4.33389">
        <ele>257</ele>
        <time>2011-08-14T13:17:29Z</time>
      </trkpt>
      <trkpt lat="44.50717" lon="4.3339">
        <ele>257</ele>
        <time>2011-08-14T13:17:34Z</time>
      </trkpt>
      <trkpt lat="44.50716" lon="4.3339">
        <ele>257</ele>
        <time>2011-08-14T13:17:38Z</time>
      </trkpt>
      <trkpt lat="44.50717" lon="4.33389">
        <ele>257</ele>
        <time>2011-08-14T13:17:45Z</time>
      </trkpt>
      <trkpt lat="44.50717" lon="4.33389">
        <ele>257</ele>
        <time>2011-08-14T13:17:58Z</time>
      </trkpt>
      <trkpt lat="44.50719" lon="4.33392">
        <ele>257</ele>
        <time>2011-08-14T13:18:03Z</time>
      </trkpt>
      <trkpt lat="44.50729" lon="4.33408">
        <ele>257</ele>
        <time>2011-08-14T13:18:10Z</time>
      </trkpt>
      <trkpt lat="44.50744" lon="4.33429">
        <ele>257</ele>
        <time>2011-08-14T13:18:17Z</time>
      </trkpt>
      <trkpt lat="44.5076" lon="4.33437">
        <ele>259</ele>
        <time>2011-08-14T13:18:23Z</time>
      </trkpt>
      <trkpt lat="44.50776" lon="4.33437">
        <ele>260</ele>
        <time>2011-08-14T13:18:29Z</time>
      </trkpt>
      <trkpt lat="44.50791" lon="4.33438">
        <ele>260</ele>
        <time>2011-08-14T13:18:35Z</time>
      </trkpt>
      <trkpt lat="44.50805" lon="4.33445">
        <ele>260</ele>
        <time>2011-08-14T13:18:41Z</time>
      </trkpt>
      <trkpt lat="44.50811" lon="4.33456">
        <ele>260</ele>
        <time>2011-08-14T13:18:45Z</time>
      </trkpt>
      <trkpt lat="44.5082" lon="4.33484">
        <ele>260</ele>
        <time>2011-08-14T13:18:52Z</time>
      </trkpt>
      <trkpt lat="44.50824" lon="4.33492">
        <ele>260</ele>
        <time>2011-08-14T13:18:55Z</time>
      </trkpt>
      <trkpt lat="44.50824" lon="4.33494">
        <ele>260</ele>
        <time>2011-08-14T13:19:01Z</time>
      </trkpt>
      <trkpt lat="44.50823" lon="4.33496">
        <ele>260</ele>
        <time>2011-08-14T13:19:06Z</time>
      </trkpt>
      <trkpt lat="44.50823" lon="4.33496">
        <ele>260</ele>
        <time>2011-08-14T13:19:10Z</time>
      </trkpt>
      <trkpt lat="44.50823" lon="4.33496">
        <ele>260</ele>
        <time>2011-08-14T13:19:19Z</time>
      </trkpt>
      <trkpt lat="44.50822" lon="4.33496">
        <ele>260</ele>
        <time>2011-08-14T13:19:26Z</time>
      </trkpt>
      <trkpt lat="44.50823" lon="4.33496">
        <ele>260</ele>
        <time>2011-08-14T13:19:32Z</time>
      </trkpt>
      <trkpt lat="44.50822" lon="4.33496">
        <ele>260</ele>
        <time>2011-08-14T13:19:40Z</time>
      </trkpt>
      <trkpt lat="44.50822" lon="4.33496">
        <ele>260</ele>
        <time>2011-08-14T13:19:44Z</time>
      </trkpt>
      <trkpt lat="44.50822" lon="4.33496">
        <ele>260</ele>
        <time>2011-08-14T13:19:52Z</time>
      </trkpt>
      <trkpt lat="44.50825" lon="4.33496">
        <ele>260</ele>
        <time>2011-08-14T13:19:56Z</time>
      </trkpt>
      <trkpt lat="44.50825" lon="4.33495">
        <ele>260</ele>
        <time>2011-08-14T13:20:01Z</time>
      </trkpt>
      <trkpt lat="44.50824" lon="4.33491">
        <ele>260</ele>
        <time>2011-08-14T13:20:08Z</time>
      </trkpt>
      <trkpt lat="44.50822" lon="4.33493">
        <ele>260</ele>
        <time>2011-08-14T13:20:13Z</time>
      </trkpt>
      <trkpt lat="44.50823" lon="4.33493">
        <ele>260</ele>
        <time>2011-08-14T13:20:18Z</time>
      </trkpt>
      <trkpt lat="44.50825" lon="4.33495">
        <ele>260</ele>
        <time>2011-08-14T13:20:26Z</time>
      </trkpt>
      <trkpt lat="44.50825" lon="4.33496">
        <ele>260</ele>
        <time>2011-08-14T13:20:34Z</time>
      </trkpt>
      <trkpt lat="44.50825" lon="4.33497">
        <ele>260</ele>
        <time>2011-08-14T13:20:41Z</time>
      </trkpt>
      <trkpt lat="44.50827" lon="4.335">
        <ele>259</ele>
        <time>2011-08-14T13:20:46Z</time>
      </trkpt>
      <trkpt lat="44.5083" lon="4.33506">
        <ele>259</ele>
        <time>2011-08-14T13:20:53Z</time>
      </trkpt>
      <trkpt lat="44.50832" lon="4.33509">
        <ele>259</ele>
        <time>2011-08-14T13:21:00Z</time>
      </trkpt>
      <trkpt lat="44.50833" lon="4.33511">
        <ele>259</ele>
        <time>2011-08-14T13:21:01Z</time>
      </trkpt>
      <trkpt lat="44.50841" lon="4.3353">
        <ele>261</ele>
        <time>2011-08-14T13:21:07Z</time>
      </trkpt>
      <trkpt lat="44.50842" lon="4.33547">
        <ele>261</ele>
        <time>2011-08-14T13:21:12Z</time>
      </trkpt>
      <trkpt lat="44.50848" lon="4.33577">
        <ele>260</ele>
        <time>2011-08-14T13:21:21Z</time>
      </trkpt>
      <trkpt lat="44.50852" lon="4.33597">
        <ele>259</ele>
        <time>2011-08-14T13:21:27Z</time>
      </trkpt>
      <trkpt lat="44.50859" lon="4.33618">
        <ele>259</ele>
        <time>2011-08-14T13:21:34Z</time>
      </trkpt>
      <trkpt lat="44.50873" lon="4.33637">
        <ele>259</ele>
        <time>2011-08-14T13:21:41Z</time>
      </trkpt>
      <trkpt lat="44.5089" lon="4.33656">
        <ele>260</ele>
        <time>2011-08-14T13:21:48Z</time>
      </trkpt>
      <trkpt lat="44.50906" lon="4.33673">
        <ele>259</ele>
        <time>2011-08-14T13:21:55Z</time>
      </trkpt>
      <trkpt lat="44.50917" lon="4.33689">
        <ele>260</ele>
        <time>2011-08-14T13:22:02Z</time>
      </trkpt>
      <trkpt lat="44.50927" lon="4.33702">
        <ele>260</ele>
        <time>2011-08-14T13:22:07Z</time>
      </trkpt>
      <trkpt lat="44.50943" lon="4.33722">
        <ele>260</ele>
        <time>2011-08-14T13:22:13Z</time>
      </trkpt>
      <trkpt lat="44.50959" lon="4.33741">
        <ele>261</ele>
        <time>2011-08-14T13:22:19Z</time>
      </trkpt>
      <trkpt lat="44.5098" lon="4.33771">
        <ele>259</ele>
        <time>2011-08-14T13:22:27Z</time>
      </trkpt>
      <trkpt lat="44.51003" lon="4.33799">
        <ele>262</ele>
        <time>2011-08-14T13:22:36Z</time>
      </trkpt>
      <trkpt lat="44.5102" lon="4.33807">
        <ele>262</ele>
        <time>2011-08-14T13:22:41Z</time>
      </trkpt>
      <trkpt lat="44.5104" lon="4.33808">
        <ele>262</ele>
        <time>2011-08-14T13:22:47Z</time>
      </trkpt>
      <trkpt lat="44.51061" lon="4.33818">
        <ele>263</ele>
        <time>2011-08-14T13:22:54Z</time>
      </trkpt>
      <trkpt lat="44.51078" lon="4.33836">
        <ele>263</ele>
        <time>2011-08-14T13:23:01Z</time>
      </trkpt>
      <trkpt lat="44.51085" lon="4.33851">
        <ele>264</ele>
        <time>2011-08-14T13:23:06Z</time>
      </trkpt>
      <trkpt lat="44.51083" lon="4.33873">
        <ele>261</ele>
        <time>2011-08-14T13:23:11Z</time>
      </trkpt>
      <trkpt lat="44.5108" lon="4.33889">
        <ele>261</ele>
        <time>2011-08-14T13:23:14Z</time>
      </trkpt>
      <trkpt lat="44.5107" lon="4.33911">
        <ele>261</ele>
        <time>2011-08-14T13:23:19Z</time>
      </trkpt>
      <trkpt lat="44.51067" lon="4.33929">
        <ele>259</ele>
        <time>2011-08-14T13:23:23Z</time>
      </trkpt>
      <trkpt lat="44.51065" lon="4.33959">
        <ele>259</ele>
        <time>2011-08-14T13:23:29Z</time>
      </trkpt>
      <trkpt lat="44.51069" lon="4.33985">
        <ele>258</ele>
        <time>2011-08-14T13:23:34Z</time>
      </trkpt>
      <trkpt lat="44.51084" lon="4.34016">
        <ele>259</ele>
        <time>2011-08-14T13:23:41Z</time>
      </trkpt>
      <trkpt lat="44.51099" lon="4.3405">
        <ele>259</ele>
        <time>2011-08-14T13:23:48Z</time>
      </trkpt>
      <trkpt lat="44.51109" lon="4.34058">
        <ele>259</ele>
        <time>2011-08-14T13:23:51Z</time>
      </trkpt>
      <trkpt lat="44.51117" lon="4.3406">
        <ele>259</ele>
        <time>2011-08-14T13:23:53Z</time>
      </trkpt>
      <trkpt lat="44.51139" lon="4.34065">
        <ele>259</ele>
        <time>2011-08-14T13:23:59Z</time>
      </trkpt>
      <trkpt lat="44.51155" lon="4.34077">
        <ele>260</ele>
        <time>2011-08-14T13:24:06Z</time>
      </trkpt>
      <trkpt lat="44.5117" lon="4.34084">
        <ele>260</ele>
        <time>2011-08-14T13:24:13Z</time>
      </trkpt>
      <trkpt lat="44.51194" lon="4.34089">
        <ele>260</ele>
        <time>2011-08-14T13:24:21Z</time>
      </trkpt>
      <trkpt lat="44.51213" lon="4.34085">
        <ele>261</ele>
        <time>2011-08-14T13:24:27Z</time>
      </trkpt>
      <trkpt lat="44.51235" lon="4.3408">
        <ele>263</ele>
        <time>2011-08-14T13:24:35Z</time>
      </trkpt>
      <trkpt lat="44.51254" lon="4.34073">
        <ele>263</ele>
        <time>2011-08-14T13:24:42Z</time>
      </trkpt>
      <trkpt lat="44.51269" lon="4.34066">
        <ele>263</ele>
        <time>2011-08-14T13:24:47Z</time>
      </trkpt>
      <trkpt lat="44.51284" lon="4.34064">
        <ele>263</ele>
        <time>2011-08-14T13:24:52Z</time>
      </trkpt>
      <trkpt lat="44.513" lon="4.34061">
        <ele>263</ele>
        <time>2011-08-14T13:24:57Z</time>
      </trkpt>
      <trkpt lat="44.51308" lon="4.34061">
        <ele>263</ele>
        <time>2011-08-14T13:25:01Z</time>
      </trkpt>
      <trkpt lat="44.51306" lon="4.3406">
        <ele>263</ele>
        <time>2011-08-14T13:25:06Z</time>
      </trkpt>
      <trkpt lat="44.51307" lon="4.34062">
        <ele>263</ele>
        <time>2011-08-14T13:25:22Z</time>
      </trkpt>
      <trkpt lat="44.51313" lon="4.34062">
        <ele>263</ele>
        <time>2011-08-14T13:25:33Z</time>
      </trkpt>
      <trkpt lat="44.51332" lon="4.34053">
        <ele>263</ele>
        <time>2011-08-14T13:25:41Z</time>
      </trkpt>
      <trkpt lat="44.51347" lon="4.34046">
        <ele>264</ele>
        <time>2011-08-14T13:25:47Z</time>
      </trkpt>
      <trkpt lat="44.51362" lon="4.34042">
        <ele>265</ele>
        <time>2011-08-14T13:25:52Z</time>
      </trkpt>
      <trkpt lat="44.51381" lon="4.34039">
        <ele>265</ele>
        <time>2011-08-14T13:25:58Z</time>
      </trkpt>
      <trkpt lat="44.51396" lon="4.34034">
        <ele>266</ele>
        <time>2011-08-14T13:26:04Z</time>
      </trkpt>
      <trkpt lat="44.51414" lon="4.34031">
        <ele>266</ele>
        <time>2011-08-14T13:26:11Z</time>
      </trkpt>
      <trkpt lat="44.51434" lon="4.34024">
        <ele>268</ele>
        <time>2011-08-14T13:26:19Z</time>
      </trkpt>
      <trkpt lat="44.51445" lon="4.34018">
        <ele>268</ele>
        <time>2011-08-14T13:26:25Z</time>
      </trkpt>
      <trkpt lat="44.51456" lon="4.34018">
        <ele>268</ele>
        <time>2011-08-14T13:26:30Z</time>
      </trkpt>
      <trkpt lat="44.51471" lon="4.34019">
        <ele>268</ele>
        <time>2011-08-14T13:26:38Z</time>
      </trkpt>
      <trkpt lat="44.51485" lon="4.34018">
        <ele>268</ele>
        <time>2011-08-14T13:26:45Z</time>
      </trkpt>
      <trkpt lat="44.51498" lon="4.3401">
        <ele>269</ele>
        <time>2011-08-14T13:26:51Z</time>
      </trkpt>
      <trkpt lat="44.51515" lon="4.34">
        <ele>272</ele>
        <time>2011-08-14T13:26:59Z</time>
      </trkpt>
      <trkpt lat="44.51528" lon="4.33994">
        <ele>273</ele>
        <time>2011-08-14T13:27:05Z</time>
      </trkpt>
      <trkpt lat="44.51535" lon="4.33987">
        <ele>273</ele>
        <time>2011-08-14T13:27:10Z</time>
      </trkpt>
      <trkpt lat="44.51545" lon="4.33978">
        <ele>274</ele>
        <time>2011-08-14T13:27:15Z</time>
      </trkpt>
      <trkpt lat="44.51557" lon="4.3397">
        <ele>274</ele>
        <time>2011-08-14T13:27:21Z</time>
      </trkpt>
      <trkpt lat="44.51568" lon="4.3396">
        <ele>274</ele>
        <time>2011-08-14T13:27:27Z</time>
      </trkpt>
      <trkpt lat="44.51581" lon="4.33955">
        <ele>275</ele>
        <time>2011-08-14T13:27:33Z</time>
      </trkpt>
      <trkpt lat="44.51591" lon="4.33949">
        <ele>274</ele>
        <time>2011-08-14T13:27:39Z</time>
      </trkpt>
      <trkpt lat="44.51604" lon="4.3394">
        <ele>274</ele>
        <time>2011-08-14T13:27:47Z</time>
      </trkpt>
      <trkpt lat="44.51619" lon="4.33935">
        <ele>273</ele>
        <time>2011-08-14T13:27:55Z</time>
      </trkpt>
      <trkpt lat="44.51626" lon="4.33932">
        <ele>273</ele>
        <time>2011-08-14T13:28:00Z</time>
      </trkpt>
      <trkpt lat="44.51626" lon="4.33932">
        <ele>273</ele>
        <time>2011-08-14T13:28:07Z</time>
      </trkpt>
      <trkpt lat="44.51628" lon="4.33934">
        <ele>273</ele>
        <time>2011-08-14T13:28:15Z</time>
      </trkpt>
      <trkpt lat="44.51629" lon="4.33935">
        <ele>273</ele>
        <time>2011-08-14T13:28:16Z</time>
      </trkpt>
      <trkpt lat="44.51633" lon="4.3394">
        <ele>273</ele>
        <time>2011-08-14T13:28:20Z</time>
      </trkpt>
      <trkpt lat="44.51637" lon="4.33934">
        <ele>273</ele>
        <time>2011-08-14T13:28:23Z</time>
      </trkpt>
      <trkpt lat="44.5164" lon="4.33928">
        <ele>273</ele>
        <time>2011-08-14T13:28:27Z</time>
      </trkpt>
      <trkpt lat="44.51639" lon="4.33927">
        <ele>273</ele>
        <time>2011-08-14T13:28:34Z</time>
      </trkpt>
      <trkpt lat="44.51641" lon="4.33927">
        <ele>273</ele>
        <time>2011-08-14T13:28:41Z</time>
      </trkpt>
      <trkpt lat="44.51651" lon="4.33914">
        <ele>276</ele>
        <time>2011-08-14T13:28:47Z</time>
      </trkpt>
      <trkpt lat="44.51671" lon="4.33895">
        <ele>275</ele>
        <time>2011-08-14T13:28:54Z</time>
      </trkpt>
      <trkpt lat="44.51692" lon="4.33889">
        <ele>275</ele>
        <time>2011-08-14T13:29:00Z</time>
      </trkpt>
      <trkpt lat="44.51707" lon="4.33891">
        <ele>275</ele>
        <time>2011-08-14T13:29:05Z</time>
      </trkpt>
      <trkpt lat="44.5173" lon="4.33886">
        <ele>274</ele>
        <time>2011-08-14T13:29:11Z</time>
      </trkpt>
      <trkpt lat="44.51743" lon="4.33869">
        <ele>276</ele>
        <time>2011-08-14T13:29:15Z</time>
      </trkpt>
      <trkpt lat="44.51758" lon="4.33862">
        <ele>271</ele>
        <time>2011-08-14T13:29:19Z</time>
      </trkpt>
      <trkpt lat="44.51766" lon="4.33861">
        <ele>270</ele>
        <time>2011-08-14T13:29:21Z</time>
      </trkpt>
      <trkpt lat="44.51783" lon="4.33864">
        <ele>268</ele>
        <time>2011-08-14T13:29:27Z</time>
      </trkpt>
      <trkpt lat="44.51797" lon="4.33872">
        <ele>266</ele>
        <time>2011-08-14T13:29:32Z</time>
      </trkpt>
      <trkpt lat="44.51812" lon="4.33871">
        <ele>265</ele>
        <time>2011-08-14T13:29:37Z</time>
      </trkpt>
      <trkpt lat="44.5183" lon="4.33873">
        <ele>264</ele>
        <time>2011-08-14T13:29:43Z</time>
      </trkpt>
      <trkpt lat="44.51843" lon="4.33872">
        <ele>252</ele>
        <time>2011-08-14T13:29:48Z</time>
      </trkpt>
      <trkpt lat="44.51845" lon="4.33869">
        <ele>252</ele>
        <time>2011-08-14T13:29:53Z</time>
      </trkpt>
      <trkpt lat="44.51845" lon="4.33865">
        <ele>252</ele>
        <time>2011-08-14T13:29:58Z</time>
      </trkpt>
      <trkpt lat="44.51844" lon="4.33861">
        <ele>253</ele>
        <time>2011-08-14T13:30:04Z</time>
      </trkpt>
      <trkpt lat="44.51845" lon="4.3386">
        <ele>253</ele>
        <time>2011-08-14T13:30:16Z</time>
      </trkpt>
      <trkpt lat="44.51844" lon="4.3386">
        <ele>253</ele>
        <time>2011-08-14T13:30:28Z</time>
      </trkpt>
      <trkpt lat="44.51845" lon="4.3386">
        <ele>253</ele>
        <time>2011-08-14T13:30:39Z</time>
      </trkpt>
      <trkpt lat="44.51845" lon="4.3386">
        <ele>253</ele>
        <time>2011-08-14T13:30:40Z</time>
      </trkpt>
      <trkpt lat="44.51844" lon="4.33857">
        <ele>253</ele>
        <time>2011-08-14T13:30:43Z</time>
      </trkpt>
      <trkpt lat="44.51845" lon="4.33857">
        <ele>253</ele>
        <time>2011-08-14T13:30:53Z</time>
      </trkpt>
      <trkpt lat="44.51845" lon="4.33858">
        <ele>253</ele>
        <time>2011-08-14T13:31:03Z</time>
      </trkpt>
      <trkpt lat="44.51845" lon="4.33858">
        <ele>253</ele>
        <time>2011-08-14T13:31:11Z</time>
      </trkpt>
      <trkpt lat="44.51845" lon="4.33859">
        <ele>253</ele>
        <time>2011-08-14T13:31:26Z</time>
      </trkpt>
      <trkpt lat="44.51845" lon="4.33858">
        <ele>253</ele>
        <time>2011-08-14T13:31:43Z</time>
      </trkpt>
      <trkpt lat="44.51845" lon="4.33859">
        <ele>253</ele>
        <time>2011-08-14T13:31:55Z</time>
      </trkpt>
      <trkpt lat="44.51845" lon="4.33859">
        <ele>253</ele>
        <time>2011-08-14T13:32:03Z</time>
      </trkpt>
      <trkpt lat="44.51845" lon="4.33858">
        <ele>253</ele>
        <time>2011-08-14T13:32:04Z</time>
      </trkpt>
      <trkpt lat="44.51846" lon="4.3384">
        <ele>255</ele>
        <time>2011-08-14T13:32:10Z</time>
      </trkpt>
      <trkpt lat="44.51843" lon="4.33816">
        <ele>249</ele>
        <time>2011-08-14T13:32:15Z</time>
      </trkpt>
      <trkpt lat="44.51842" lon="4.33795">
        <ele>246</ele>
        <time>2011-08-14T13:32:19Z</time>
      </trkpt>
      <trkpt lat="44.51839" lon="4.33769">
        <ele>247</ele>
        <time>2011-08-14T13:32:23Z</time>
      </trkpt>
      <trkpt lat="44.51835" lon="4.33737">
        <ele>248</ele>
        <time>2011-08-14T13:32:28Z</time>
      </trkpt>
      <trkpt lat="44.51835" lon="4.33725">
        <ele>245</ele>
        <time>2011-08-14T13:32:30Z</time>
      </trkpt>
      <trkpt lat="44.51833" lon="4.33698">
        <ele>266</ele>
        <time>2011-08-14T13:32:34Z</time>
      </trkpt>
      <trkpt lat="44.51834" lon="4.33684">
        <ele>245</ele>
        <time>2011-08-14T13:32:36Z</time>
      </trkpt>
      <trkpt lat="44.51834" lon="4.33655">
        <ele>248</ele>
        <time>2011-08-14T13:32:41Z</time>
      </trkpt>
      <trkpt lat="44.51838" lon="4.33618">
        <ele>247</ele>
        <time>2011-08-14T13:32:47Z</time>
      </trkpt>
      <trkpt lat="44.51837" lon="4.33612">
        <ele>248</ele>
        <time>2011-08-14T13:32:48Z</time>
      </trkpt>
      <trkpt lat="44.51836" lon="4.33599">
        <ele>252</ele>
        <time>2011-08-14T13:32:52Z</time>
      </trkpt>
      <trkpt lat="44.51854" lon="4.33589">
        <ele>249</ele>
        <time>2011-08-14T13:32:57Z</time>
      </trkpt>
      <trkpt lat="44.51859" lon="4.33586">
        <ele>247</ele>
        <time>2011-08-14T13:32:58Z</time>
      </trkpt>
      <trkpt lat="44.51876" lon="4.33576">
        <ele>243</ele>
        <time>2011-08-14T13:33:01Z</time>
      </trkpt>
      <trkpt lat="44.51885" lon="4.33555">
        <ele>241</ele>
        <time>2011-08-14T13:33:05Z</time>
      </trkpt>
      <trkpt lat="44.51888" lon="4.33536">
        <ele>240</ele>
        <time>2011-08-14T13:33:08Z</time>
      </trkpt>
      <trkpt lat="44.51887" lon="4.33527">
        <ele>239</ele>
        <time>2011-08-14T13:33:09Z</time>
      </trkpt>
      <trkpt lat="44.51886" lon="4.33508">
        <ele>238</ele>
        <time>2011-08-14T13:33:11Z</time>
      </trkpt>
      <trkpt lat="44.51871" lon="4.33456">
        <ele>234</ele>
        <time>2011-08-14T13:33:17Z</time>
      </trkpt>
      <trkpt lat="44.51868" lon="4.33435">
        <ele>233</ele>
        <time>2011-08-14T13:33:19Z</time>
      </trkpt>
      <trkpt lat="44.51856" lon="4.33382">
        <ele>223</ele>
        <time>2011-08-14T13:33:24Z</time>
      </trkpt>
      <trkpt lat="44.51849" lon="4.33364">
        <ele>222</ele>
        <time>2011-08-14T13:33:26Z</time>
      </trkpt>
      <trkpt lat="44.51815" lon="4.33293">
        <ele>231</ele>
        <time>2011-08-14T13:33:34Z</time>
      </trkpt>
      <trkpt lat="44.51785" lon="4.33231">
        <ele>220</ele>
        <time>2011-08-14T13:33:41Z</time>
      </trkpt>
      <trkpt lat="44.51766" lon="4.33197">
        <ele>219</ele>
        <time>2011-08-14T13:33:45Z</time>
      </trkpt>
      <trkpt lat="44.51752" lon="4.3316">
        <ele>214</ele>
        <time>2011-08-14T13:33:49Z</time>
      </trkpt>
      <trkpt lat="44.51744" lon="4.33127">
        <ele>216</ele>
        <time>2011-08-14T13:33:54Z</time>
      </trkpt>
      <trkpt lat="44.51752" lon="4.33126">
        <ele>203</ele>
        <time>2011-08-14T13:33:57Z</time>
      </trkpt>
      <trkpt lat="44.51763" lon="4.33135">
        <ele>204</ele>
        <time>2011-08-14T13:33:59Z</time>
      </trkpt>
      <trkpt lat="44.51778" lon="4.33141">
        <ele>203</ele>
        <time>2011-08-14T13:34:01Z</time>
      </trkpt>
      <trkpt lat="44.51805" lon="4.33166">
        <ele>200</ele>
        <time>2011-08-14T13:34:05Z</time>
      </trkpt>
      <trkpt lat="44.51826" lon="4.33175">
        <ele>203</ele>
        <time>2011-08-14T13:34:08Z</time>
      </trkpt>
      <trkpt lat="44.51848" lon="4.33175">
        <ele>194</ele>
        <time>2011-08-14T13:34:12Z</time>
      </trkpt>
      <trkpt lat="44.51848" lon="4.33172">
        <ele>194</ele>
        <time>2011-08-14T13:34:14Z</time>
      </trkpt>
      <trkpt lat="44.51846" lon="4.33171">
        <ele>194</ele>
        <time>2011-08-14T13:34:16Z</time>
      </trkpt>
      <trkpt lat="44.51843" lon="4.33166">
        <ele>191</ele>
        <time>2011-08-14T13:34:25Z</time>
      </trkpt>
      <trkpt lat="44.51843" lon="4.33172">
        <ele>194</ele>
        <time>2011-08-14T13:35:41Z</time>
      </trkpt>
      <trkpt lat="44.5184" lon="4.33174">
        <ele>195</ele>
        <time>2011-08-14T13:35:47Z</time>
      </trkpt>
      <trkpt lat="44.51839" lon="4.33172">
        <ele>195</ele>
        <time>2011-08-14T13:36:31Z</time>
      </trkpt>
      <trkpt lat="44.5184" lon="4.33171">
        <ele>195</ele>
        <time>2011-08-14T13:37:05Z</time>
      </trkpt>
      <trkpt lat="44.51835" lon="4.33166">
        <ele>194</ele>
        <time>2011-08-14T13:37:13Z</time>
      </trkpt>
      <trkpt lat="44.51822" lon="4.33151">
        <ele>197</ele>
        <time>2011-08-14T13:37:19Z</time>
      </trkpt>
      <trkpt lat="44.51808" lon="4.33123">
        <ele>197</ele>
        <time>2011-08-14T13:37:25Z</time>
      </trkpt>
      <trkpt lat="44.51801" lon="4.33096">
        <ele>194</ele>
        <time>2011-08-14T13:37:29Z</time>
      </trkpt>
      <trkpt lat="44.51776" lon="4.33046">
        <ele>184</ele>
        <time>2011-08-14T13:37:36Z</time>
      </trkpt>
      <trkpt lat="44.51756" lon="4.33031">
        <ele>183</ele>
        <time>2011-08-14T13:37:40Z</time>
      </trkpt>
      <trkpt lat="44.51734" lon="4.33017">
        <ele>188</ele>
        <time>2011-08-14T13:37:44Z</time>
      </trkpt>
      <trkpt lat="44.51711" lon="4.33016">
        <ele>190</ele>
        <time>2011-08-14T13:37:48Z</time>
      </trkpt>
      <trkpt lat="44.51688" lon="4.33023">
        <ele>191</ele>
        <time>2011-08-14T13:37:52Z</time>
      </trkpt>
      <trkpt lat="44.51667" lon="4.33029">
        <ele>198</ele>
        <time>2011-08-14T13:37:56Z</time>
      </trkpt>
      <trkpt lat="44.51655" lon="4.33031">
        <ele>199</ele>
        <time>2011-08-14T13:37:58Z</time>
      </trkpt>
      <trkpt lat="44.51639" lon="4.33033">
        <ele>201</ele>
        <time>2011-08-14T13:38:01Z</time>
      </trkpt>
      <trkpt lat="44.51619" lon="4.33046">
        <ele>204</ele>
        <time>2011-08-14T13:38:06Z</time>
      </trkpt>
      <trkpt lat="44.51616" lon="4.33047">
        <ele>205</ele>
        <time>2011-08-14T13:38:07Z</time>
      </trkpt>
      <trkpt lat="44.51602" lon="4.33051">
        <ele>206</ele>
        <time>2011-08-14T13:38:11Z</time>
      </trkpt>
      <trkpt lat="44.51589" lon="4.33044">
        <ele>206</ele>
        <time>2011-08-14T13:38:15Z</time>
      </trkpt>
      <trkpt lat="44.51587" lon="4.33035">
        <ele>205</ele>
        <time>2011-08-14T13:38:17Z</time>
      </trkpt>
      <trkpt lat="44.51586" lon="4.33004">
        <ele>202</ele>
        <time>2011-08-14T13:38:24Z</time>
      </trkpt>
      <trkpt lat="44.51593" lon="4.32977">
        <ele>196</ele>
        <time>2011-08-14T13:38:30Z</time>
      </trkpt>
      <trkpt lat="44.51604" lon="4.32932">
        <ele>194</ele>
        <time>2011-08-14T13:38:39Z</time>
      </trkpt>
      <trkpt lat="44.51611" lon="4.32916">
        <ele>192</ele>
        <time>2011-08-14T13:38:42Z</time>
      </trkpt>
      <trkpt lat="44.51611" lon="4.32888">
        <ele>191</ele>
        <time>2011-08-14T13:38:46Z</time>
      </trkpt>
      <trkpt lat="44.51604" lon="4.32842">
        <ele>192</ele>
        <time>2011-08-14T13:38:52Z</time>
      </trkpt>
      <trkpt lat="44.51599" lon="4.32799">
        <ele>189</ele>
        <time>2011-08-14T13:38:57Z</time>
      </trkpt>
      <trkpt lat="44.516" lon="4.32774">
        <ele>188</ele>
        <time>2011-08-14T13:39:01Z</time>
      </trkpt>
      <trkpt lat="44.51601" lon="4.3277">
        <ele>188</ele>
        <time>2011-08-14T13:39:07Z</time>
      </trkpt>
      <trkpt lat="44.51602" lon="4.32773">
        <ele>188</ele>
        <time>2011-08-14T13:39:11Z</time>
      </trkpt>
      <trkpt lat="44.51604" lon="4.32774">
        <ele>187</ele>
        <time>2011-08-14T13:39:16Z</time>
      </trkpt>
      <trkpt lat="44.51602" lon="4.32774">
        <ele>188</ele>
        <time>2011-08-14T13:39:21Z</time>
      </trkpt>
      <trkpt lat="44.516" lon="4.32773">
        <ele>188</ele>
        <time>2011-08-14T13:39:32Z</time>
      </trkpt>
      <trkpt lat="44.51599" lon="4.32774">
        <ele>188</ele>
        <time>2011-08-14T13:39:42Z</time>
      </trkpt>
      <trkpt lat="44.516" lon="4.32773">
        <ele>188</ele>
        <time>2011-08-14T13:39:48Z</time>
      </trkpt>
      <trkpt lat="44.516" lon="4.32772">
        <ele>188</ele>
        <time>2011-08-14T13:40:03Z</time>
      </trkpt>
      <trkpt lat="44.516" lon="4.32768">
        <ele>188</ele>
        <time>2011-08-14T13:40:09Z</time>
      </trkpt>
      <trkpt lat="44.516" lon="4.32764">
        <ele>188</ele>
        <time>2011-08-14T13:40:15Z</time>
      </trkpt>
      <trkpt lat="44.51597" lon="4.32738">
        <ele>186</ele>
        <time>2011-08-14T13:40:23Z</time>
      </trkpt>
      <trkpt lat="44.51597" lon="4.32734">
        <ele>186</ele>
        <time>2011-08-14T13:40:24Z</time>
      </trkpt>
      <trkpt lat="44.51583" lon="4.3272">
        <ele>194</ele>
        <time>2011-08-14T13:40:30Z</time>
      </trkpt>
      <trkpt lat="44.51566" lon="4.32727">
        <ele>194</ele>
        <time>2011-08-14T13:40:35Z</time>
      </trkpt>
      <trkpt lat="44.51547" lon="4.32735">
        <ele>196</ele>
        <time>2011-08-14T13:40:41Z</time>
      </trkpt>
      <trkpt lat="44.51535" lon="4.32728">
        <ele>198</ele>
        <time>2011-08-14T13:40:45Z</time>
      </trkpt>
      <trkpt lat="44.51518" lon="4.32715">
        <ele>198</ele>
        <time>2011-08-14T13:40:52Z</time>
      </trkpt>
      <trkpt lat="44.51513" lon="4.32712">
        <ele>198</ele>
        <time>2011-08-14T13:40:55Z</time>
      </trkpt>
      <trkpt lat="44.51513" lon="4.32713">
        <ele>198</ele>
        <time>2011-08-14T13:41:02Z</time>
      </trkpt>
      <trkpt lat="44.51519" lon="4.32715">
        <ele>198</ele>
        <time>2011-08-14T13:41:07Z</time>
      </trkpt>
      <trkpt lat="44.51527" lon="4.32722">
        <ele>198</ele>
        <time>2011-08-14T13:41:12Z</time>
      </trkpt>
      <trkpt lat="44.51542" lon="4.32734">
        <ele>197</ele>
        <time>2011-08-14T13:41:17Z</time>
      </trkpt>
      <trkpt lat="44.51553" lon="4.32735">
        <ele>196</ele>
        <time>2011-08-14T13:41:21Z</time>
      </trkpt>
      <trkpt lat="44.51559" lon="4.32733">
        <ele>195</ele>
        <time>2011-08-14T13:41:25Z</time>
      </trkpt>
      <trkpt lat="44.5156" lon="4.32732">
        <ele>195</ele>
        <time>2011-08-14T13:41:32Z</time>
      </trkpt>
      <trkpt lat="44.51559" lon="4.32732">
        <ele>195</ele>
        <time>2011-08-14T13:41:37Z</time>
      </trkpt>
      <trkpt lat="44.5156" lon="4.32732">
        <ele>195</ele>
        <time>2011-08-14T13:41:44Z</time>
      </trkpt>
      <trkpt lat="44.51561" lon="4.32733">
        <ele>195</ele>
        <time>2011-08-14T13:41:52Z</time>
      </trkpt>
      <trkpt lat="44.51561" lon="4.32733">
        <ele>195</ele>
        <time>2011-08-14T13:41:58Z</time>
      </trkpt>
      <trkpt lat="44.51561" lon="4.32733">
        <ele>195</ele>
        <time>2011-08-14T13:42:05Z</time>
      </trkpt>
      <trkpt lat="44.51559" lon="4.32732">
        <ele>195</ele>
        <time>2011-08-14T13:42:14Z</time>
      </trkpt>
      <trkpt lat="44.51558" lon="4.32733">
        <ele>195</ele>
        <time>2011-08-14T13:42:44Z</time>
      </trkpt>
      <trkpt lat="44.51557" lon="4.32733">
        <ele>195</ele>
        <time>2011-08-14T13:42:54Z</time>
      </trkpt>
      <trkpt lat="44.51557" lon="4.32732">
        <ele>195</ele>
        <time>2011-08-14T13:43:25Z</time>
      </trkpt>
      <trkpt lat="44.51558" lon="4.32733">
        <ele>195</ele>
        <time>2011-08-14T13:43:37Z</time>
      </trkpt>
      <trkpt lat="44.51559" lon="4.32734">
        <ele>195</ele>
        <time>2011-08-14T13:44:05Z</time>
      </trkpt>
      <trkpt lat="44.51558" lon="4.32733">
        <ele>195</ele>
        <time>2011-08-14T13:44:16Z</time>
      </trkpt>
      <trkpt lat="44.51555" lon="4.32734">
        <ele>196</ele>
        <time>2011-08-14T13:44:18Z</time>
      </trkpt>
      <trkpt lat="44.5154" lon="4.32732">
        <ele>197</ele>
        <time>2011-08-14T13:44:24Z</time>
      </trkpt>
      <trkpt lat="44.51524" lon="4.32718">
        <ele>198</ele>
        <time>2011-08-14T13:44:30Z</time>
      </trkpt>
      <trkpt lat="44.51505" lon="4.32704">
        <ele>197</ele>
        <time>2011-08-14T13:44:36Z</time>
      </trkpt>
      <trkpt lat="44.51483" lon="4.32675">
        <ele>202</ele>
        <time>2011-08-14T13:44:45Z</time>
      </trkpt>
      <trkpt lat="44.51459" lon="4.32652">
        <ele>195</ele>
        <time>2011-08-14T13:44:53Z</time>
      </trkpt>
      <trkpt lat="44.51435" lon="4.32645">
        <ele>198</ele>
        <time>2011-08-14T13:45:00Z</time>
      </trkpt>
      <trkpt lat="44.51421" lon="4.32635">
        <ele>197</ele>
        <time>2011-08-14T13:45:05Z</time>
      </trkpt>
      <trkpt lat="44.51403" lon="4.32621">
        <ele>204</ele>
        <time>2011-08-14T13:45:11Z</time>
      </trkpt>
      <trkpt lat="44.51377" lon="4.32618">
        <ele>206</ele>
        <time>2011-08-14T13:45:18Z</time>
      </trkpt>
      <trkpt lat="44.51359" lon="4.32614">
        <ele>207</ele>
        <time>2011-08-14T13:45:23Z</time>
      </trkpt>
      <trkpt lat="44.51344" lon="4.32592">
        <ele>206</ele>
        <time>2011-08-14T13:45:29Z</time>
      </trkpt>
      <trkpt lat="44.51325" lon="4.32568">
        <ele>205</ele>
        <time>2011-08-14T13:45:36Z</time>
      </trkpt>
      <trkpt lat="44.51299" lon="4.32546">
        <ele>205</ele>
        <time>2011-08-14T13:45:43Z</time>
      </trkpt>
      <trkpt lat="44.51285" lon="4.32537">
        <ele>205</ele>
        <time>2011-08-14T13:45:46Z</time>
      </trkpt>
      <trkpt lat="44.51262" lon="4.3251">
        <ele>204</ele>
        <time>2011-08-14T13:45:51Z</time>
      </trkpt>
      <trkpt lat="44.51259" lon="4.32502">
        <ele>204</ele>
        <time>2011-08-14T13:45:52Z</time>
      </trkpt>
      <trkpt lat="44.51244" lon="4.32459">
        <ele>205</ele>
        <time>2011-08-14T13:45:58Z</time>
      </trkpt>
      <trkpt lat="44.51241" lon="4.32435">
        <ele>202</ele>
        <time>2011-08-14T13:46:01Z</time>
      </trkpt>
      <trkpt lat="44.51234" lon="4.32387">
        <ele>196</ele>
        <time>2011-08-14T13:46:08Z</time>
      </trkpt>
      <trkpt lat="44.51228" lon="4.32375">
        <ele>196</ele>
        <time>2011-08-14T13:46:12Z</time>
      </trkpt>
      <trkpt lat="44.51227" lon="4.32375">
        <ele>196</ele>
        <time>2011-08-14T13:46:19Z</time>
      </trkpt>
      <trkpt lat="44.51228" lon="4.32375">
        <ele>196</ele>
        <time>2011-08-14T13:46:29Z</time>
      </trkpt>
      <trkpt lat="44.51227" lon="4.32374">
        <ele>196</ele>
        <time>2011-08-14T13:46:41Z</time>
      </trkpt>
      <trkpt lat="44.51216" lon="4.32364">
        <ele>196</ele>
        <time>2011-08-14T13:46:46Z</time>
      </trkpt>
      <trkpt lat="44.51199" lon="4.32341">
        <ele>196</ele>
        <time>2011-08-14T13:46:52Z</time>
      </trkpt>
      <trkpt lat="44.51184" lon="4.32331">
        <ele>190</ele>
        <time>2011-08-14T13:46:57Z</time>
      </trkpt>
      <trkpt lat="44.51166" lon="4.32316">
        <ele>193</ele>
        <time>2011-08-14T13:47:03Z</time>
      </trkpt>
      <trkpt lat="44.51148" lon="4.32301">
        <ele>191</ele>
        <time>2011-08-14T13:47:08Z</time>
      </trkpt>
      <trkpt lat="44.51128" lon="4.32288">
        <ele>190</ele>
        <time>2011-08-14T13:47:13Z</time>
      </trkpt>
      <trkpt lat="44.51103" lon="4.32285">
        <ele>190</ele>
        <time>2011-08-14T13:47:18Z</time>
      </trkpt>
      <trkpt lat="44.51079" lon="4.3228">
        <ele>189</ele>
        <time>2011-08-14T13:47:23Z</time>
      </trkpt>
      <trkpt lat="44.51069" lon="4.32276">
        <ele>189</ele>
        <time>2011-08-14T13:47:25Z</time>
      </trkpt>
      <trkpt lat="44.51039" lon="4.32267">
        <ele>188</ele>
        <time>2011-08-14T13:47:31Z</time>
      </trkpt>
      <trkpt lat="44.51016" lon="4.32267">
        <ele>187</ele>
        <time>2011-08-14T13:47:36Z</time>
      </trkpt>
      <trkpt lat="44.51004" lon="4.3227">
        <ele>187</ele>
        <time>2011-08-14T13:47:43Z</time>
      </trkpt>
      <trkpt lat="44.51002" lon="4.32271">
        <ele>187</ele>
        <time>2011-08-14T13:47:45Z</time>
      </trkpt>
      <trkpt lat="44.50993" lon="4.32278">
        <ele>183</ele>
        <time>2011-08-14T13:47:54Z</time>
      </trkpt>
      <trkpt lat="44.50982" lon="4.32283">
        <ele>183</ele>
        <time>2011-08-14T13:48:00Z</time>
      </trkpt>
      <trkpt lat="44.50973" lon="4.32288">
        <ele>183</ele>
        <time>2011-08-14T13:48:06Z</time>
      </trkpt>
      <trkpt lat="44.50964" lon="4.32291">
        <ele>183</ele>
        <time>2011-08-14T13:48:13Z</time>
      </trkpt>
      <trkpt lat="44.50955" lon="4.32296">
        <ele>183</ele>
        <time>2011-08-14T13:48:19Z</time>
      </trkpt>
      <trkpt lat="44.50953" lon="4.32296">
        <ele>183</ele>
        <time>2011-08-14T13:48:20Z</time>
      </trkpt>
      <trkpt lat="44.50948" lon="4.32284">
        <ele>181</ele>
        <time>2011-08-14T13:48:25Z</time>
      </trkpt>
      <trkpt lat="44.50946" lon="4.32276">
        <ele>179</ele>
        <time>2011-08-14T13:48:30Z</time>
      </trkpt>
      <trkpt lat="44.50944" lon="4.32274">
        <ele>179</ele>
        <time>2011-08-14T13:48:36Z</time>
      </trkpt>
      <trkpt lat="44.50943" lon="4.32268">
        <ele>178</ele>
        <time>2011-08-14T13:48:41Z</time>
      </trkpt>
      <trkpt lat="44.50946" lon="4.32252">
        <ele>176</ele>
        <time>2011-08-14T13:48:47Z</time>
      </trkpt>
      <trkpt lat="44.50946" lon="4.32249">
        <ele>167</ele>
        <time>2011-08-14T13:48:48Z</time>
      </trkpt>
      <trkpt lat="44.50944" lon="4.32243">
        <ele>167</ele>
        <time>2011-08-14T13:48:52Z</time>
      </trkpt>
      <trkpt lat="44.5094" lon="4.32247">
        <ele>166</ele>
        <time>2011-08-14T13:48:55Z</time>
      </trkpt>
      <trkpt lat="44.50932" lon="4.32259">
        <ele>173</ele>
        <time>2011-08-14T13:49:02Z</time>
      </trkpt>
      <trkpt lat="44.50929" lon="4.32255">
        <ele>172</ele>
        <time>2011-08-14T13:49:06Z</time>
      </trkpt>
      <trkpt lat="44.50927" lon="4.32239">
        <ele>165</ele>
        <time>2011-08-14T13:49:13Z</time>
      </trkpt>
      <trkpt lat="44.50925" lon="4.32222">
        <ele>164</ele>
        <time>2011-08-14T13:49:17Z</time>
      </trkpt>
      <trkpt lat="44.50924" lon="4.32219">
        <ele>164</ele>
        <time>2011-08-14T13:49:18Z</time>
      </trkpt>
      <trkpt lat="44.50919" lon="4.3222">
        <ele>164</ele>
        <time>2011-08-14T13:49:22Z</time>
      </trkpt>
      <trkpt lat="44.5091" lon="4.32234">
        <ele>158</ele>
        <time>2011-08-14T13:49:28Z</time>
      </trkpt>
      <trkpt lat="44.50901" lon="4.32244">
        <ele>158</ele>
        <time>2011-08-14T13:49:31Z</time>
      </trkpt>
      <trkpt lat="44.50896" lon="4.32243">
        <ele>156</ele>
        <time>2011-08-14T13:49:35Z</time>
      </trkpt>
      <trkpt lat="44.50897" lon="4.32235">
        <ele>156</ele>
        <time>2011-08-14T13:49:38Z</time>
      </trkpt>
      <trkpt lat="44.50897" lon="4.32215">
        <ele>153</ele>
        <time>2011-08-14T13:49:44Z</time>
      </trkpt>
      <trkpt lat="44.50895" lon="4.32194">
        <ele>152</ele>
        <time>2011-08-14T13:49:49Z</time>
      </trkpt>
      <trkpt lat="44.50902" lon="4.32167">
        <ele>151</ele>
        <time>2011-08-14T13:49:55Z</time>
      </trkpt>
      <trkpt lat="44.50909" lon="4.3214">
        <ele>149</ele>
        <time>2011-08-14T13:50:01Z</time>
      </trkpt>
      <trkpt lat="44.50915" lon="4.32119">
        <ele>148</ele>
        <time>2011-08-14T13:50:06Z</time>
      </trkpt>
      <trkpt lat="44.50922" lon="4.32119">
        <ele>153</ele>
        <time>2011-08-14T13:50:10Z</time>
      </trkpt>
      <trkpt lat="44.50925" lon="4.32117">
        <ele>153</ele>
        <time>2011-08-14T13:50:13Z</time>
      </trkpt>
      <trkpt lat="44.50918" lon="4.32113">
        <ele>153</ele>
        <time>2011-08-14T13:50:17Z</time>
      </trkpt>
      <trkpt lat="44.50916" lon="4.32112">
        <ele>148</ele>
        <time>2011-08-14T13:50:21Z</time>
      </trkpt>
      <trkpt lat="44.50915" lon="4.3211">
        <ele>148</ele>
        <time>2011-08-14T13:50:27Z</time>
      </trkpt>
      <trkpt lat="44.50912" lon="4.32108">
        <ele>148</ele>
        <time>2011-08-14T13:50:34Z</time>
      </trkpt>
      <trkpt lat="44.50906" lon="4.32105">
        <ele>148</ele>
        <time>2011-08-14T13:50:38Z</time>
      </trkpt>
      <trkpt lat="44.50905" lon="4.32106">
        <ele>148</ele>
        <time>2011-08-14T13:50:45Z</time>
      </trkpt>
      <trkpt lat="44.50908" lon="4.32107">
        <ele>148</ele>
        <time>2011-08-14T13:50:52Z</time>
      </trkpt>
      <trkpt lat="44.5091" lon="4.32105">
        <ele>148</ele>
        <time>2011-08-14T13:51:02Z</time>
      </trkpt>
      <trkpt lat="44.50911" lon="4.32105">
        <ele>148</ele>
        <time>2011-08-14T13:51:22Z</time>
      </trkpt>
      <trkpt lat="44.5091" lon="4.32105">
        <ele>148</ele>
        <time>2011-08-14T13:51:32Z</time>
      </trkpt>
      <trkpt lat="44.50909" lon="4.32101">
        <ele>148</ele>
        <time>2011-08-14T13:51:38Z</time>
      </trkpt>
      <trkpt lat="44.50908" lon="4.32099">
        <ele>148</ele>
        <time>2011-08-14T13:51:39Z</time>
      </trkpt>
      <trkpt lat="44.50905" lon="4.32099">
        <ele>148</ele>
        <time>2011-08-14T13:51:44Z</time>
      </trkpt>
      <trkpt lat="44.50907" lon="4.32104">
        <ele>148</ele>
        <time>2011-08-14T13:51:51Z</time>
      </trkpt>
      <trkpt lat="44.50908" lon="4.32107">
        <ele>148</ele>
        <time>2011-08-14T13:51:58Z</time>
      </trkpt>
      <trkpt lat="44.50905" lon="4.32105">
        <ele>148</ele>
        <time>2011-08-14T13:52:25Z</time>
      </trkpt>
      <trkpt lat="44.50904" lon="4.32102">
        <ele>148</ele>
        <time>2011-08-14T13:52:30Z</time>
      </trkpt>
      <trkpt lat="44.50905" lon="4.321">
        <ele>148</ele>
        <time>2011-08-14T13:52:36Z</time>
      </trkpt>
      <trkpt lat="44.50903" lon="4.321">
        <ele>148</ele>
        <time>2011-08-14T13:52:47Z</time>
      </trkpt>
      <trkpt lat="44.50898" lon="4.32102">
        <ele>148</ele>
        <time>2011-08-14T13:52:53Z</time>
      </trkpt>
      <trkpt lat="44.50892" lon="4.32106">
        <ele>148</ele>
        <time>2011-08-14T13:52:59Z</time>
      </trkpt>
      <trkpt lat="44.50888" lon="4.32109">
        <ele>148</ele>
        <time>2011-08-14T13:53:03Z</time>
      </trkpt>
      <trkpt lat="44.50878" lon="4.32115">
        <ele>148</ele>
        <time>2011-08-14T13:53:11Z</time>
      </trkpt>
      <trkpt lat="44.50869" lon="4.32123">
        <ele>148</ele>
        <time>2011-08-14T13:53:20Z</time>
      </trkpt>
      <trkpt lat="44.50858" lon="4.32131">
        <ele>148</ele>
        <time>2011-08-14T13:53:28Z</time>
      </trkpt>
      <trkpt lat="44.5085" lon="4.32138">
        <ele>147</ele>
        <time>2011-08-14T13:53:36Z</time>
      </trkpt>
      <trkpt lat="44.50848" lon="4.3214">
        <ele>147</ele>
        <time>2011-08-14T13:53:38Z</time>
      </trkpt>
      <trkpt lat="44.50844" lon="4.32135">
        <ele>147</ele>
        <time>2011-08-14T13:53:43Z</time>
      </trkpt>
      <trkpt lat="44.50841" lon="4.32117">
        <ele>148</ele>
        <time>2011-08-14T13:53:54Z</time>
      </trkpt>
      <trkpt lat="44.50839" lon="4.32109">
        <ele>148</ele>
        <time>2011-08-14T13:54:01Z</time>
      </trkpt>
      <trkpt lat="44.50836" lon="4.32104">
        <ele>148</ele>
        <time>2011-08-14T13:54:07Z</time>
      </trkpt>
      <trkpt lat="44.50834" lon="4.32097">
        <ele>148</ele>
        <time>2011-08-14T13:54:12Z</time>
      </trkpt>
      <trkpt lat="44.50833" lon="4.32083">
        <ele>148</ele>
        <time>2011-08-14T13:54:20Z</time>
      </trkpt>
      <trkpt lat="44.50835" lon="4.32073">
        <ele>148</ele>
        <time>2011-08-14T13:54:27Z</time>
      </trkpt>
      <trkpt lat="44.50837" lon="4.32059">
        <ele>148</ele>
        <time>2011-08-14T13:54:35Z</time>
      </trkpt>
      <trkpt lat="44.50837" lon="4.32044">
        <ele>149</ele>
        <time>2011-08-14T13:54:46Z</time>
      </trkpt>
      <trkpt lat="44.50836" lon="4.32043">
        <ele>149</ele>
        <time>2011-08-14T13:54:53Z</time>
      </trkpt>
      <trkpt lat="44.50835" lon="4.32044">
        <ele>149</ele>
        <time>2011-08-14T13:55:07Z</time>
      </trkpt>
      <trkpt lat="44.50835" lon="4.32043">
        <ele>149</ele>
        <time>2011-08-14T13:55:16Z</time>
      </trkpt>
      <trkpt lat="44.50836" lon="4.32042">
        <ele>149</ele>
        <time>2011-08-14T13:55:26Z</time>
      </trkpt>
      <trkpt lat="44.50838" lon="4.32039">
        <ele>149</ele>
        <time>2011-08-14T13:55:31Z</time>
      </trkpt>
      <trkpt lat="44.50838" lon="4.32041">
        <ele>149</ele>
        <time>2011-08-14T13:55:39Z</time>
      </trkpt>
      <trkpt lat="44.50836" lon="4.32046">
        <ele>149</ele>
        <time>2011-08-14T13:55:44Z</time>
      </trkpt>
      <trkpt lat="44.50836" lon="4.32046">
        <ele>149</ele>
        <time>2011-08-14T13:55:49Z</time>
      </trkpt>
      <trkpt lat="44.50834" lon="4.32045">
        <ele>149</ele>
        <time>2011-08-14T13:55:57Z</time>
      </trkpt>
      <trkpt lat="44.50835" lon="4.32046">
        <ele>149</ele>
        <time>2011-08-14T13:56:05Z</time>
      </trkpt>
      <trkpt lat="44.5084" lon="4.32047">
        <ele>149</ele>
        <time>2011-08-14T13:56:13Z</time>
      </trkpt>
      <trkpt lat="44.50837" lon="4.32045">
        <ele>149</ele>
        <time>2011-08-14T13:56:19Z</time>
      </trkpt>
      <trkpt lat="44.50835" lon="4.32044">
        <ele>149</ele>
        <time>2011-08-14T13:56:25Z</time>
      </trkpt>
      <trkpt lat="44.50831" lon="4.32045">
        <ele>148</ele>
        <time>2011-08-14T13:56:31Z</time>
      </trkpt>
      <trkpt lat="44.50824" lon="4.32043">
        <ele>148</ele>
        <time>2011-08-14T13:56:38Z</time>
      </trkpt>
      <trkpt lat="44.50806" lon="4.32041">
        <ele>148</ele>
        <time>2011-08-14T13:56:46Z</time>
      </trkpt>
      <trkpt lat="44.50788" lon="4.32038">
        <ele>147</ele>
        <time>2011-08-14T13:56:53Z</time>
      </trkpt>
      <trkpt lat="44.50771" lon="4.32032">
        <ele>147</ele>
        <time>2011-08-14T13:57:01Z</time>
      </trkpt>
      <trkpt lat="44.50769" lon="4.32031">
        <ele>147</ele>
        <time>2011-08-14T13:57:03Z</time>
      </trkpt>
      <trkpt lat="44.50768" lon="4.32031">
        <ele>147</ele>
        <time>2011-08-14T13:57:12Z</time>
      </trkpt>
      <trkpt lat="44.50767" lon="4.32031">
        <ele>147</ele>
        <time>2011-08-14T13:57:21Z</time>
      </trkpt>
      <trkpt lat="44.50767" lon="4.32032">
        <ele>147</ele>
        <time>2011-08-14T13:57:46Z</time>
      </trkpt>
      <trkpt lat="44.50766" lon="4.32034">
        <ele>147</ele>
        <time>2011-08-14T13:59:01Z</time>
      </trkpt>
      <trkpt lat="44.50767" lon="4.3203">
        <ele>147</ele>
        <time>2011-08-14T13:59:17Z</time>
      </trkpt>
      <trkpt lat="44.50767" lon="4.32028">
        <ele>147</ele>
        <time>2011-08-14T13:59:35Z</time>
      </trkpt>
      <trkpt lat="44.50767" lon="4.32028">
        <ele>147</ele>
        <time>2011-08-14T13:59:46Z</time>
      </trkpt>
      <trkpt lat="44.50767" lon="4.32028">
        <ele>147</ele>
        <time>2011-08-14T14:00:06Z</time>
      </trkpt>
      <trkpt lat="44.50768" lon="4.32027">
        <ele>147</ele>
        <time>2011-08-14T14:00:23Z</time>
      </trkpt>
      <trkpt lat="44.50768" lon="4.32025">
        <ele>147</ele>
        <time>2011-08-14T14:00:31Z</time>
      </trkpt>
      <trkpt lat="44.50769" lon="4.32024">
        <ele>147</ele>
        <time>2011-08-14T14:00:37Z</time>
      </trkpt>
      <trkpt lat="44.50768" lon="4.32024">
        <ele>147</ele>
        <time>2011-08-14T14:00:43Z</time>
      </trkpt>
      <trkpt lat="44.50765" lon="4.32028">
        <ele>147</ele>
        <time>2011-08-14T14:00:54Z</time>
      </trkpt>
      <trkpt lat="44.50766" lon="4.3203">
        <ele>147</ele>
        <time>2011-08-14T14:00:59Z</time>
      </trkpt>
      <trkpt lat="44.50765" lon="4.32031">
        <ele>147</ele>
        <time>2011-08-14T14:01:06Z</time>
      </trkpt>
      <trkpt lat="44.50763" lon="4.32031">
        <ele>147</ele>
        <time>2011-08-14T14:01:08Z</time>
      </trkpt>
      <trkpt lat="44.50747" lon="4.32031">
        <ele>146</ele>
        <time>2011-08-14T14:01:14Z</time>
      </trkpt>
      <trkpt lat="44.50723" lon="4.32033">
        <ele>146</ele>
        <time>2011-08-14T14:01:20Z</time>
      </trkpt>
      <trkpt lat="44.50718" lon="4.32055">
        <ele>146</ele>
        <time>2011-08-14T14:01:24Z</time>
      </trkpt>
      <trkpt lat="44.50719" lon="4.32113">
        <ele>145</ele>
        <time>2011-08-14T14:01:33Z</time>
      </trkpt>
      <trkpt lat="44.5072" lon="4.32165">
        <ele>144</ele>
        <time>2011-08-14T14:01:42Z</time>
      </trkpt>
      <trkpt lat="44.5072" lon="4.32171">
        <ele>144</ele>
        <time>2011-08-14T14:01:43Z</time>
      </trkpt>
      <trkpt lat="44.50709" lon="4.32192">
        <ele>144</ele>
        <time>2011-08-14T14:01:48Z</time>
      </trkpt>
      <trkpt lat="44.50705" lon="4.32193">
        <ele>144</ele>
        <time>2011-08-14T14:01:49Z</time>
      </trkpt>
      <trkpt lat="44.50697" lon="4.32196">
        <ele>144</ele>
        <time>2011-08-14T14:01:51Z</time>
      </trkpt>
      <trkpt lat="44.50685" lon="4.32211">
        <ele>144</ele>
        <time>2011-08-14T14:01:55Z</time>
      </trkpt>
      <trkpt lat="44.50684" lon="4.32216">
        <ele>144</ele>
        <time>2011-08-14T14:01:56Z</time>
      </trkpt>
      <trkpt lat="44.5068" lon="4.32239">
        <ele>144</ele>
        <time>2011-08-14T14:02:03Z</time>
      </trkpt>
      <trkpt lat="44.50679" lon="4.32243">
        <ele>144</ele>
        <time>2011-08-14T14:02:08Z</time>
      </trkpt>
      <trkpt lat="44.50681" lon="4.3224">
        <ele>144</ele>
        <time>2011-08-14T14:02:14Z</time>
      </trkpt>
      <trkpt lat="44.50684" lon="4.32241">
        <ele>144</ele>
        <time>2011-08-14T14:02:19Z</time>
      </trkpt>
      <trkpt lat="44.50685" lon="4.3224">
        <ele>144</ele>
        <time>2011-08-14T14:02:37Z</time>
      </trkpt>
      <trkpt lat="44.50685" lon="4.3224">
        <ele>144</ele>
        <time>2011-08-14T14:02:45Z</time>
      </trkpt>
      <trkpt lat="44.50685" lon="4.32239">
        <ele>144</ele>
        <time>2011-08-14T14:02:59Z</time>
      </trkpt>
      <trkpt lat="44.50684" lon="4.32237">
        <ele>144</ele>
        <time>2011-08-14T14:03:10Z</time>
      </trkpt>
      <trkpt lat="44.50682" lon="4.32237">
        <ele>144</ele>
        <time>2011-08-14T14:03:32Z</time>
      </trkpt>
      <trkpt lat="44.50683" lon="4.32237">
        <ele>144</ele>
        <time>2011-08-14T14:03:44Z</time>
      </trkpt>
      <trkpt lat="44.50683" lon="4.32236">
        <ele>144</ele>
        <time>2011-08-14T14:03:51Z</time>
      </trkpt>
      <trkpt lat="44.50681" lon="4.32234">
        <ele>144</ele>
        <time>2011-08-14T14:03:56Z</time>
      </trkpt>
      <trkpt lat="44.50681" lon="4.32234">
        <ele>144</ele>
        <time>2011-08-14T14:04:05Z</time>
      </trkpt>
      <trkpt lat="44.5068" lon="4.32233">
        <ele>144</ele>
        <time>2011-08-14T14:04:11Z</time>
      </trkpt>
      <trkpt lat="44.50681" lon="4.32229">
        <ele>144</ele>
        <time>2011-08-14T14:04:17Z</time>
      </trkpt>
      <trkpt lat="44.50684" lon="4.32214">
        <ele>144</ele>
        <time>2011-08-14T14:04:23Z</time>
      </trkpt>
      <trkpt lat="44.50693" lon="4.32197">
        <ele>144</ele>
        <time>2011-08-14T14:04:28Z</time>
      </trkpt>
      <trkpt lat="44.5071" lon="4.32189">
        <ele>144</ele>
        <time>2011-08-14T14:04:33Z</time>
      </trkpt>
      <trkpt lat="44.50719" lon="4.32172">
        <ele>144</ele>
        <time>2011-08-14T14:04:37Z</time>
      </trkpt>
      <trkpt lat="44.5072" lon="4.3214">
        <ele>144</ele>
        <time>2011-08-14T14:04:43Z</time>
      </trkpt>
      <trkpt lat="44.5072" lon="4.321">
        <ele>145</ele>
        <time>2011-08-14T14:04:50Z</time>
      </trkpt>
      <trkpt lat="44.5072" lon="4.32049">
        <ele>146</ele>
        <time>2011-08-14T14:04:59Z</time>
      </trkpt>
      <trkpt lat="44.50727" lon="4.3203">
        <ele>146</ele>
        <time>2011-08-14T14:05:04Z</time>
      </trkpt>
      <trkpt lat="44.50741" lon="4.3203">
        <ele>146</ele>
        <time>2011-08-14T14:05:08Z</time>
      </trkpt>
      <trkpt lat="44.50761" lon="4.32029">
        <ele>147</ele>
        <time>2011-08-14T14:05:14Z</time>
      </trkpt>
      <trkpt lat="44.50767" lon="4.32028">
        <ele>147</ele>
        <time>2011-08-14T14:05:19Z</time>
      </trkpt>
      <trkpt lat="44.50768" lon="4.32029">
        <ele>147</ele>
        <time>2011-08-14T14:05:26Z</time>
      </trkpt>
      <trkpt lat="44.50768" lon="4.32029">
        <ele>147</ele>
        <time>2011-08-14T14:05:33Z</time>
      </trkpt>
      <trkpt lat="44.50767" lon="4.32029">
        <ele>147</ele>
        <time>2011-08-14T14:05:39Z</time>
      </trkpt>
      <trkpt lat="44.50767" lon="4.32028">
        <ele>147</ele>
        <time>2011-08-14T14:05:52Z</time>
      </trkpt>
      <trkpt lat="44.50767" lon="4.32028">
        <ele>147</ele>
        <time>2011-08-14T14:06:13Z</time>
      </trkpt>
      <trkpt lat="44.50767" lon="4.32028">
        <ele>147</ele>
        <time>2011-08-14T14:06:36Z</time>
      </trkpt>
      <trkpt lat="44.50767" lon="4.32029">
        <ele>147</ele>
        <time>2011-08-14T14:07:17Z</time>
      </trkpt>
      <trkpt lat="44.50767" lon="4.32029">
        <ele>147</ele>
        <time>2011-08-14T14:07:32Z</time>
      </trkpt>
      <trkpt lat="44.50768" lon="4.32027">
        <ele>147</ele>
        <time>2011-08-14T14:08:53Z</time>
      </trkpt>
      <trkpt lat="44.50767" lon="4.32027">
        <ele>147</ele>
        <time>2011-08-14T14:09:31Z</time>
      </trkpt>
      <trkpt lat="44.50767" lon="4.32026">
        <ele>147</ele>
        <time>2011-08-14T14:10:21Z</time>
      </trkpt>
      <trkpt lat="44.50767" lon="4.32025">
        <ele>147</ele>
        <time>2011-08-14T14:10:27Z</time>
      </trkpt>
      <trkpt lat="44.50768" lon="4.32025">
        <ele>147</ele>
        <time>2011-08-14T14:10:55Z</time>
      </trkpt>
      <trkpt lat="44.50767" lon="4.32026">
        <ele>147</ele>
        <time>2011-08-14T14:11:38Z</time>
      </trkpt>
      <trkpt lat="44.50765" lon="4.32023">
        <ele>147</ele>
        <time>2011-08-14T14:11:56Z</time>
      </trkpt>
      <trkpt lat="44.50764" lon="4.32021">
        <ele>147</ele>
        <time>2011-08-14T14:11:58Z</time>
      </trkpt>
      <trkpt lat="44.50762" lon="4.31997">
        <ele>147</ele>
        <time>2011-08-14T14:12:05Z</time>
      </trkpt>
      <trkpt lat="44.50757" lon="4.31957">
        <ele>149</ele>
        <time>2011-08-14T14:12:14Z</time>
      </trkpt>
      <trkpt lat="44.50754" lon="4.31926">
        <ele>149</ele>
        <time>2011-08-14T14:12:22Z</time>
      </trkpt>
      <trkpt lat="44.50753" lon="4.31894">
        <ele>151</ele>
        <time>2011-08-14T14:12:30Z</time>
      </trkpt>
      <trkpt lat="44.50751" lon="4.31861">
        <ele>151</ele>
        <time>2011-08-14T14:12:37Z</time>
      </trkpt>
      <trkpt lat="44.50748" lon="4.3181">
        <ele>148</ele>
        <time>2011-08-14T14:12:47Z</time>
      </trkpt>
      <trkpt lat="44.50745" lon="4.31754">
        <ele>148</ele>
        <time>2011-08-14T14:12:58Z</time>
      </trkpt>
      <trkpt lat="44.50748" lon="4.31707">
        <ele>148</ele>
        <time>2011-08-14T14:13:07Z</time>
      </trkpt>
      <trkpt lat="44.50752" lon="4.31648">
        <ele>150</ele>
        <time>2011-08-14T14:13:18Z</time>
      </trkpt>
      <trkpt lat="44.5076" lon="4.31613">
        <ele>150</ele>
        <time>2011-08-14T14:13:25Z</time>
      </trkpt>
      <trkpt lat="44.50775" lon="4.31603">
        <ele>150</ele>
        <time>2011-08-14T14:13:30Z</time>
      </trkpt>
      <trkpt lat="44.50777" lon="4.31603">
        <ele>150</ele>
        <time>2011-08-14T14:13:31Z</time>
      </trkpt>
      <trkpt lat="44.50788" lon="4.31622">
        <ele>150</ele>
        <time>2011-08-14T14:13:37Z</time>
      </trkpt>
      <trkpt lat="44.50802" lon="4.31636">
        <ele>151</ele>
        <time>2011-08-14T14:13:43Z</time>
      </trkpt>
      <trkpt lat="44.50812" lon="4.31634">
        <ele>151</ele>
        <time>2011-08-14T14:13:47Z</time>
      </trkpt>
      <trkpt lat="44.5082" lon="4.31623">
        <ele>151</ele>
        <time>2011-08-14T14:13:52Z</time>
      </trkpt>
      <trkpt lat="44.50821" lon="4.31617">
        <ele>151</ele>
        <time>2011-08-14T14:13:57Z</time>
      </trkpt>
      <trkpt lat="44.50822" lon="4.31614">
        <ele>151</ele>
        <time>2011-08-14T14:14:01Z</time>
      </trkpt>
      <trkpt lat="44.50812" lon="4.31599">
        <ele>151</ele>
        <time>2011-08-14T14:14:06Z</time>
      </trkpt>
      <trkpt lat="44.50787" lon="4.31575">
        <ele>150</ele>
        <time>2011-08-14T14:14:13Z</time>
      </trkpt>
      <trkpt lat="44.50765" lon="4.31537">
        <ele>150</ele>
        <time>2011-08-14T14:14:20Z</time>
      </trkpt>
      <trkpt lat="44.5075" lon="4.31493">
        <ele>150</ele>
        <time>2011-08-14T14:14:27Z</time>
      </trkpt>
      <trkpt lat="44.50748" lon="4.31487">
        <ele>150</ele>
        <time>2011-08-14T14:14:28Z</time>
      </trkpt>
      <trkpt lat="44.50735" lon="4.31474">
        <ele>150</ele>
        <time>2011-08-14T14:14:32Z</time>
      </trkpt>
      <trkpt lat="44.50722" lon="4.31482">
        <ele>150</ele>
        <time>2011-08-14T14:14:35Z</time>
      </trkpt>
      <trkpt lat="44.50689" lon="4.31508">
        <ele>148</ele>
        <time>2011-08-14T14:14:41Z</time>
      </trkpt>
      <trkpt lat="44.50666" lon="4.31518">
        <ele>148</ele>
        <time>2011-08-14T14:14:44Z</time>
      </trkpt>
      <trkpt lat="44.5064" lon="4.31518">
        <ele>149</ele>
        <time>2011-08-14T14:14:48Z</time>
      </trkpt>
      <trkpt lat="44.50624" lon="4.31511">
        <ele>149</ele>
        <time>2011-08-14T14:14:51Z</time>
      </trkpt>
      <trkpt lat="44.50613" lon="4.31509">
        <ele>150</ele>
        <time>2011-08-14T14:14:53Z</time>
      </trkpt>
      <trkpt lat="44.50581" lon="4.31516">
        <ele>153</ele>
        <time>2011-08-14T14:15:00Z</time>
      </trkpt>
      <trkpt lat="44.50547" lon="4.31531">
        <ele>155</ele>
        <time>2011-08-14T14:15:08Z</time>
      </trkpt>
      <trkpt lat="44.50504" lon="4.31557">
        <ele>155</ele>
        <time>2011-08-14T14:15:18Z</time>
      </trkpt>
      <trkpt lat="44.50469" lon="4.31576">
        <ele>159</ele>
        <time>2011-08-14T14:15:26Z</time>
      </trkpt>
      <trkpt lat="44.50432" lon="4.31597">
        <ele>152</ele>
        <time>2011-08-14T14:15:34Z</time>
      </trkpt>
      <trkpt lat="44.504" lon="4.31625">
        <ele>149</ele>
        <time>2011-08-14T14:15:41Z</time>
      </trkpt>
      <trkpt lat="44.50369" lon="4.31666">
        <ele>147</ele>
        <time>2011-08-14T14:15:50Z</time>
      </trkpt>
      <trkpt lat="44.50365" lon="4.31672">
        <ele>145</ele>
        <time>2011-08-14T14:15:52Z</time>
      </trkpt>
      <trkpt lat="44.50356" lon="4.31678">
        <ele>145</ele>
        <time>2011-08-14T14:15:57Z</time>
      </trkpt>
      <trkpt lat="44.50357" lon="4.31667">
        <ele>147</ele>
        <time>2011-08-14T14:16:00Z</time>
      </trkpt>
      <trkpt lat="44.50362" lon="4.31654">
        <ele>147</ele>
        <time>2011-08-14T14:16:03Z</time>
      </trkpt>
      <trkpt lat="44.50365" lon="4.31644">
        <ele>148</ele>
        <time>2011-08-14T14:16:05Z</time>
      </trkpt>
      <trkpt lat="44.50364" lon="4.31618">
        <ele>149</ele>
        <time>2011-08-14T14:16:11Z</time>
      </trkpt>
      <trkpt lat="44.50363" lon="4.31606">
        <ele>149</ele>
        <time>2011-08-14T14:16:14Z</time>
      </trkpt>
      <trkpt lat="44.50367" lon="4.31592">
        <ele>150</ele>
        <time>2011-08-14T14:16:19Z</time>
      </trkpt>
      <trkpt lat="44.50364" lon="4.3158">
        <ele>156</ele>
        <time>2011-08-14T14:16:23Z</time>
      </trkpt>
      <trkpt lat="44.50359" lon="4.31568">
        <ele>156</ele>
        <time>2011-08-14T14:16:27Z</time>
      </trkpt>
      <trkpt lat="44.50358" lon="4.31565">
        <ele>156</ele>
        <time>2011-08-14T14:16:28Z</time>
      </trkpt>
      <trkpt lat="44.50346" lon="4.3154">
        <ele>157</ele>
        <time>2011-08-14T14:16:36Z</time>
      </trkpt>
      <trkpt lat="44.50341" lon="4.31521">
        <ele>157</ele>
        <time>2011-08-14T14:16:40Z</time>
      </trkpt>
      <trkpt lat="44.50335" lon="4.31492">
        <ele>159</ele>
        <time>2011-08-14T14:16:46Z</time>
      </trkpt>
      <trkpt lat="44.50334" lon="4.31459">
        <ele>164</ele>
        <time>2011-08-14T14:16:53Z</time>
      </trkpt>
      <trkpt lat="44.5033" lon="4.31429">
        <ele>155</ele>
        <time>2011-08-14T14:16:59Z</time>
      </trkpt>
      <trkpt lat="44.50325" lon="4.31398">
        <ele>155</ele>
        <time>2011-08-14T14:17:05Z</time>
      </trkpt>
      <trkpt lat="44.50325" lon="4.31387">
        <ele>155</ele>
        <time>2011-08-14T14:17:07Z</time>
      </trkpt>
      <trkpt lat="44.50318" lon="4.31365">
        <ele>155</ele>
        <time>2011-08-14T14:17:12Z</time>
      </trkpt>
      <trkpt lat="44.50317" lon="4.3135">
        <ele>155</ele>
        <time>2011-08-14T14:17:15Z</time>
      </trkpt>
      <trkpt lat="44.50318" lon="4.31321">
        <ele>156</ele>
        <time>2011-08-14T14:17:21Z</time>
      </trkpt>
      <trkpt lat="44.5032" lon="4.31298">
        <ele>155</ele>
        <time>2011-08-14T14:17:26Z</time>
      </trkpt>
      <trkpt lat="44.50324" lon="4.31276">
        <ele>155</ele>
        <time>2011-08-14T14:17:31Z</time>
      </trkpt>
      <trkpt lat="44.5033" lon="4.31262">
        <ele>156</ele>
        <time>2011-08-14T14:17:35Z</time>
      </trkpt>
      <trkpt lat="44.50331" lon="4.31259">
        <ele>156</ele>
        <time>2011-08-14T14:17:36Z</time>
      </trkpt>
      <trkpt lat="44.5033" lon="4.31246">
        <ele>156</ele>
        <time>2011-08-14T14:17:42Z</time>
      </trkpt>
      <trkpt lat="44.5033" lon="4.31243">
        <ele>155</ele>
        <time>2011-08-14T14:17:45Z</time>
      </trkpt>
      <trkpt lat="44.5032" lon="4.31243">
        <ele>154</ele>
        <time>2011-08-14T14:17:50Z</time>
      </trkpt>
      <trkpt lat="44.50307" lon="4.31252">
        <ele>154</ele>
        <time>2011-08-14T14:17:56Z</time>
      </trkpt>
      <trkpt lat="44.50287" lon="4.31265">
        <ele>153</ele>
        <time>2011-08-14T14:18:03Z</time>
      </trkpt>
      <trkpt lat="44.50253" lon="4.31288">
        <ele>152</ele>
        <time>2011-08-14T14:18:13Z</time>
      </trkpt>
      <trkpt lat="44.50223" lon="4.31307">
        <ele>151</ele>
        <time>2011-08-14T14:18:22Z</time>
      </trkpt>
      <trkpt lat="44.502" lon="4.31322">
        <ele>152</ele>
        <time>2011-08-14T14:18:30Z</time>
      </trkpt>
      <trkpt lat="44.50189" lon="4.31331">
        <ele>152</ele>
        <time>2011-08-14T14:18:37Z</time>
      </trkpt>
      <trkpt lat="44.50182" lon="4.31337">
        <ele>153</ele>
        <time>2011-08-14T14:18:44Z</time>
      </trkpt>
      <trkpt lat="44.50181" lon="4.31338">
        <ele>153</ele>
        <time>2011-08-14T14:18:52Z</time>
      </trkpt>
      <trkpt lat="44.50179" lon="4.31345">
        <ele>153</ele>
        <time>2011-08-14T14:19:15Z</time>
      </trkpt>
      <trkpt lat="44.50173" lon="4.31358">
        <ele>152</ele>
        <time>2011-08-14T14:19:20Z</time>
      </trkpt>
      <trkpt lat="44.50168" lon="4.31375">
        <ele>153</ele>
        <time>2011-08-14T14:19:26Z</time>
      </trkpt>
      <trkpt lat="44.50167" lon="4.3139">
        <ele>153</ele>
        <time>2011-08-14T14:19:31Z</time>
      </trkpt>
      <trkpt lat="44.50166" lon="4.31416">
        <ele>157</ele>
        <time>2011-08-14T14:19:39Z</time>
      </trkpt>
      <trkpt lat="44.50166" lon="4.31435">
        <ele>163</ele>
        <time>2011-08-14T14:19:45Z</time>
      </trkpt>
      <trkpt lat="44.50166" lon="4.31453">
        <ele>166</ele>
        <time>2011-08-14T14:19:50Z</time>
      </trkpt>
      <trkpt lat="44.50164" lon="4.31488">
        <ele>162</ele>
        <time>2011-08-14T14:19:59Z</time>
      </trkpt>
      <trkpt lat="44.50159" lon="4.31524">
        <ele>164</ele>
        <time>2011-08-14T14:20:08Z</time>
      </trkpt>
      <trkpt lat="44.50155" lon="4.31552">
        <ele>165</ele>
        <time>2011-08-14T14:20:15Z</time>
      </trkpt>
      <trkpt lat="44.50147" lon="4.31588">
        <ele>159</ele>
        <time>2011-08-14T14:20:24Z</time>
      </trkpt>
      <trkpt lat="44.50132" lon="4.31627">
        <ele>161</ele>
        <time>2011-08-14T14:20:35Z</time>
      </trkpt>
      <trkpt lat="44.50122" lon="4.31634">
        <ele>162</ele>
        <time>2011-08-14T14:20:39Z</time>
      </trkpt>
      <trkpt lat="44.50117" lon="4.31622">
        <ele>163</ele>
        <time>2011-08-14T14:20:44Z</time>
      </trkpt>
      <trkpt lat="44.50118" lon="4.31619">
        <ele>163</ele>
        <time>2011-08-14T14:20:45Z</time>
      </trkpt>
      <trkpt lat="44.50128" lon="4.31601">
        <ele>163</ele>
        <time>2011-08-14T14:20:53Z</time>
      </trkpt>
      <trkpt lat="44.50137" lon="4.3158">
        <ele>166</ele>
        <time>2011-08-14T14:21:00Z</time>
      </trkpt>
      <trkpt lat="44.50139" lon="4.31555">
        <ele>167</ele>
        <time>2011-08-14T14:21:07Z</time>
      </trkpt>
      <trkpt lat="44.50138" lon="4.31524">
        <ele>168</ele>
        <time>2011-08-14T14:21:15Z</time>
      </trkpt>
      <trkpt lat="44.50133" lon="4.3149">
        <ele>169</ele>
        <time>2011-08-14T14:21:24Z</time>
      </trkpt>
      <trkpt lat="44.50123" lon="4.3147">
        <ele>172</ele>
        <time>2011-08-14T14:21:30Z</time>
      </trkpt>
      <trkpt lat="44.50107" lon="4.31439">
        <ele>175</ele>
        <time>2011-08-14T14:21:39Z</time>
      </trkpt>
      <trkpt lat="44.50101" lon="4.31408">
        <ele>175</ele>
        <time>2011-08-14T14:21:46Z</time>
      </trkpt>
      <trkpt lat="44.50098" lon="4.31372">
        <ele>171</ele>
        <time>2011-08-14T14:21:54Z</time>
      </trkpt>
      <trkpt lat="44.50087" lon="4.31349">
        <ele>173</ele>
        <time>2011-08-14T14:22:00Z</time>
      </trkpt>
      <trkpt lat="44.50067" lon="4.31333">
        <ele>181</ele>
        <time>2011-08-14T14:22:07Z</time>
      </trkpt>
      <trkpt lat="44.50044" lon="4.31328">
        <ele>185</ele>
        <time>2011-08-14T14:22:14Z</time>
      </trkpt>
      <trkpt lat="44.50031" lon="4.31315">
        <ele>188</ele>
        <time>2011-08-14T14:22:19Z</time>
      </trkpt>
      <trkpt lat="44.50021" lon="4.31292">
        <ele>187</ele>
        <time>2011-08-14T14:22:25Z</time>
      </trkpt>
      <trkpt lat="44.50006" lon="4.31263">
        <ele>188</ele>
        <time>2011-08-14T14:22:33Z</time>
      </trkpt>
      <trkpt lat="44.4999" lon="4.31234">
        <ele>199</ele>
        <time>2011-08-14T14:22:41Z</time>
      </trkpt>
      <trkpt lat="44.49973" lon="4.31204">
        <ele>203</ele>
        <time>2011-08-14T14:22:49Z</time>
      </trkpt>
      <trkpt lat="44.49964" lon="4.31176">
        <ele>204</ele>
        <time>2011-08-14T14:22:56Z</time>
      </trkpt>
      <trkpt lat="44.49969" lon="4.31162">
        <ele>205</ele>
        <time>2011-08-14T14:23:00Z</time>
      </trkpt>
      <trkpt lat="44.49982" lon="4.31153">
        <ele>202</ele>
        <time>2011-08-14T14:23:05Z</time>
      </trkpt>
      <trkpt lat="44.50003" lon="4.31143">
        <ele>189</ele>
        <time>2011-08-14T14:23:12Z</time>
      </trkpt>
      <trkpt lat="44.50023" lon="4.31136">
        <ele>187</ele>
        <time>2011-08-14T14:23:19Z</time>
      </trkpt>
      <trkpt lat="44.50033" lon="4.31124">
        <ele>186</ele>
        <time>2011-08-14T14:23:24Z</time>
      </trkpt>
      <trkpt lat="44.50033" lon="4.3111">
        <ele>186</ele>
        <time>2011-08-14T14:23:28Z</time>
      </trkpt>
      <trkpt lat="44.50032" lon="4.31108">
        <ele>186</ele>
        <time>2011-08-14T14:23:29Z</time>
      </trkpt>
      <trkpt lat="44.50023" lon="4.31111">
        <ele>188</ele>
        <time>2011-08-14T14:23:34Z</time>
      </trkpt>
      <trkpt lat="44.50022" lon="4.31113">
        <ele>188</ele>
        <time>2011-08-14T14:23:38Z</time>
      </trkpt>
      <trkpt lat="44.50023" lon="4.31113">
        <ele>188</ele>
        <time>2011-08-14T14:23:39Z</time>
      </trkpt>
      <trkpt lat="44.50022" lon="4.31112">
        <ele>188</ele>
        <time>2011-08-14T14:23:43Z</time>
      </trkpt>
      <trkpt lat="44.50022" lon="4.31114">
        <ele>188</ele>
        <time>2011-08-14T14:23:47Z</time>
      </trkpt>
      <trkpt lat="44.50025" lon="4.31111">
        <ele>187</ele>
        <time>2011-08-14T14:23:51Z</time>
      </trkpt>
      <trkpt lat="44.5003" lon="4.31109">
        <ele>187</ele>
        <time>2011-08-14T14:23:59Z</time>
      </trkpt>
      <trkpt lat="44.5003" lon="4.31108">
        <ele>187</ele>
        <time>2011-08-14T14:24:15Z</time>
      </trkpt>
      <trkpt lat="44.5003" lon="4.31108">
        <ele>187</ele>
        <time>2011-08-14T14:24:25Z</time>
      </trkpt>
      <trkpt lat="44.5003" lon="4.31108">
        <ele>187</ele>
        <time>2011-08-14T14:24:34Z</time>
      </trkpt>
      <trkpt lat="44.50031" lon="4.31108">
        <ele>187</ele>
        <time>2011-08-14T14:24:38Z</time>
      </trkpt>
      <trkpt lat="44.50031" lon="4.31107">
        <ele>187</ele>
        <time>2011-08-14T14:24:47Z</time>
      </trkpt>
      <trkpt lat="44.50031" lon="4.31107">
        <ele>187</ele>
        <time>2011-08-14T14:25:07Z</time>
      </trkpt>
      <trkpt lat="44.50031" lon="4.31108">
        <ele>187</ele>
        <time>2011-08-14T14:25:15Z</time>
      </trkpt>
      <trkpt lat="44.50031" lon="4.31107">
        <ele>187</ele>
        <time>2011-08-14T14:25:21Z</time>
      </trkpt>
      <trkpt lat="44.50028" lon="4.31108">
        <ele>187</ele>
        <time>2011-08-14T14:25:32Z</time>
      </trkpt>
      <trkpt lat="44.50026" lon="4.31111">
        <ele>187</ele>
        <time>2011-08-14T14:25:35Z</time>
      </trkpt>
      <trkpt lat="44.50023" lon="4.31113">
        <ele>188</ele>
        <time>2011-08-14T14:25:41Z</time>
      </trkpt>
      <trkpt lat="44.50016" lon="4.31116">
        <ele>188</ele>
        <time>2011-08-14T14:25:45Z</time>
      </trkpt>
      <trkpt lat="44.50002" lon="4.31123">
        <ele>189</ele>
        <time>2011-08-14T14:25:50Z</time>
      </trkpt>
      <trkpt lat="44.49978" lon="4.31132">
        <ele>206</ele>
        <time>2011-08-14T14:25:58Z</time>
      </trkpt>
      <trkpt lat="44.49956" lon="4.31138">
        <ele>208</ele>
        <time>2011-08-14T14:26:07Z</time>
      </trkpt>
      <trkpt lat="44.4994" lon="4.31145">
        <ele>210</ele>
        <time>2011-08-14T14:26:14Z</time>
      </trkpt>
      <trkpt lat="44.49932" lon="4.31157">
        <ele>212</ele>
        <time>2011-08-14T14:26:19Z</time>
      </trkpt>
      <trkpt lat="44.49934" lon="4.31179">
        <ele>209</ele>
        <time>2011-08-14T14:26:25Z</time>
      </trkpt>
      <trkpt lat="44.49943" lon="4.31208">
        <ele>208</ele>
        <time>2011-08-14T14:26:34Z</time>
      </trkpt>
      <trkpt lat="44.49954" lon="4.31244">
        <ele>207</ele>
        <time>2011-08-14T14:26:46Z</time>
      </trkpt>
      <trkpt lat="44.49965" lon="4.31276">
        <ele>209</ele>
        <time>2011-08-14T14:26:54Z</time>
      </trkpt>
      <trkpt lat="44.49973" lon="4.31309">
        <ele>209</ele>
        <time>2011-08-14T14:27:01Z</time>
      </trkpt>
      <trkpt lat="44.49977" lon="4.3134">
        <ele>212</ele>
        <time>2011-08-14T14:27:07Z</time>
      </trkpt>
      <trkpt lat="44.49986" lon="4.31377">
        <ele>214</ele>
        <time>2011-08-14T14:27:14Z</time>
      </trkpt>
      <trkpt lat="44.49997" lon="4.31402">
        <ele>213</ele>
        <time>2011-08-14T14:27:19Z</time>
      </trkpt>
      <trkpt lat="44.50002" lon="4.3143">
        <ele>205</ele>
        <time>2011-08-14T14:27:24Z</time>
      </trkpt>
      <trkpt lat="44.49999" lon="4.3146">
        <ele>211</ele>
        <time>2011-08-14T14:27:30Z</time>
      </trkpt>
      <trkpt lat="44.49991" lon="4.31476">
        <ele>210</ele>
        <time>2011-08-14T14:27:36Z</time>
      </trkpt>
      <trkpt lat="44.49984" lon="4.31482">
        <ele>210</ele>
        <time>2011-08-14T14:27:39Z</time>
      </trkpt>
      <trkpt lat="44.49969" lon="4.31482">
        <ele>211</ele>
        <time>2011-08-14T14:27:45Z</time>
      </trkpt>
      <trkpt lat="44.49956" lon="4.31476">
        <ele>212</ele>
        <time>2011-08-14T14:27:50Z</time>
      </trkpt>
      <trkpt lat="44.49934" lon="4.31466">
        <ele>214</ele>
        <time>2011-08-14T14:27:57Z</time>
      </trkpt>
      <trkpt lat="44.49909" lon="4.3145">
        <ele>219</ele>
        <time>2011-08-14T14:28:05Z</time>
      </trkpt>
      <trkpt lat="44.49908" lon="4.31446">
        <ele>220</ele>
        <time>2011-08-14T14:28:06Z</time>
      </trkpt>
      <trkpt lat="44.49914" lon="4.31433">
        <ele>223</ele>
        <time>2011-08-14T14:28:10Z</time>
      </trkpt>
      <trkpt lat="44.4993" lon="4.31415">
        <ele>224</ele>
        <time>2011-08-14T14:28:16Z</time>
      </trkpt>
      <trkpt lat="44.49938" lon="4.31388">
        <ele>220</ele>
        <time>2011-08-14T14:28:22Z</time>
      </trkpt>
      <trkpt lat="44.4994" lon="4.31348">
        <ele>221</ele>
        <time>2011-08-14T14:28:30Z</time>
      </trkpt>
      <trkpt lat="44.49933" lon="4.31315">
        <ele>218</ele>
        <time>2011-08-14T14:28:37Z</time>
      </trkpt>
      <trkpt lat="44.49917" lon="4.31285">
        <ele>230</ele>
        <time>2011-08-14T14:28:44Z</time>
      </trkpt>
      <trkpt lat="44.49898" lon="4.31261">
        <ele>229</ele>
        <time>2011-08-14T14:28:50Z</time>
      </trkpt>
      <trkpt lat="44.4986" lon="4.31212">
        <ele>230</ele>
        <time>2011-08-14T14:29:00Z</time>
      </trkpt>
      <trkpt lat="44.49838" lon="4.31184">
        <ele>233</ele>
        <time>2011-08-14T14:29:06Z</time>
      </trkpt>
      <trkpt lat="44.4983" lon="4.31174">
        <ele>238</ele>
        <time>2011-08-14T14:29:09Z</time>
      </trkpt>
      <trkpt lat="44.49826" lon="4.31167">
        <ele>238</ele>
        <time>2011-08-14T14:29:14Z</time>
      </trkpt>
      <trkpt lat="44.49826" lon="4.31166">
        <ele>239</ele>
        <time>2011-08-14T14:29:19Z</time>
      </trkpt>
      <trkpt lat="44.49826" lon="4.31164">
        <ele>239</ele>
        <time>2011-08-14T14:29:34Z</time>
      </trkpt>
      <trkpt lat="44.49826" lon="4.31169">
        <ele>238</ele>
        <time>2011-08-14T14:29:39Z</time>
      </trkpt>
      <trkpt lat="44.49831" lon="4.31176">
        <ele>239</ele>
        <time>2011-08-14T14:29:47Z</time>
      </trkpt>
      <trkpt lat="44.49834" lon="4.31179">
        <ele>234</ele>
        <time>2011-08-14T14:29:53Z</time>
      </trkpt>
      <trkpt lat="44.49834" lon="4.31179">
        <ele>234</ele>
        <time>2011-08-14T14:30:01Z</time>
      </trkpt>
      <trkpt lat="44.49834" lon="4.31179">
        <ele>235</ele>
        <time>2011-08-14T14:30:15Z</time>
      </trkpt>
      <trkpt lat="44.49833" lon="4.31175">
        <ele>238</ele>
        <time>2011-08-14T14:31:05Z</time>
      </trkpt>
      <trkpt lat="44.4983" lon="4.3117">
        <ele>238</ele>
        <time>2011-08-14T14:31:13Z</time>
      </trkpt>
      <trkpt lat="44.49829" lon="4.3117">
        <ele>238</ele>
        <time>2011-08-14T14:31:26Z</time>
      </trkpt>
      <trkpt lat="44.49828" lon="4.31169">
        <ele>238</ele>
        <time>2011-08-14T14:31:34Z</time>
      </trkpt>
      <trkpt lat="44.49828" lon="4.31169">
        <ele>238</ele>
        <time>2011-08-14T14:31:46Z</time>
      </trkpt>
      <trkpt lat="44.49827" lon="4.31168">
        <ele>238</ele>
        <time>2011-08-14T14:31:55Z</time>
      </trkpt>
      <trkpt lat="44.49827" lon="4.31165">
        <ele>239</ele>
        <time>2011-08-14T14:32:14Z</time>
      </trkpt>
      <trkpt lat="44.49827" lon="4.31165">
        <ele>239</ele>
        <time>2011-08-14T14:32:20Z</time>
      </trkpt>
      <trkpt lat="44.49827" lon="4.31167">
        <ele>238</ele>
        <time>2011-08-14T14:32:28Z</time>
      </trkpt>
      <trkpt lat="44.49829" lon="4.31167">
        <ele>238</ele>
        <time>2011-08-14T14:32:41Z</time>
      </trkpt>
      <trkpt lat="44.49829" lon="4.31166">
        <ele>238</ele>
        <time>2011-08-14T14:33:16Z</time>
      </trkpt>
      <trkpt lat="44.49832" lon="4.31155">
        <ele>239</ele>
        <time>2011-08-14T14:33:22Z</time>
      </trkpt>
      <trkpt lat="44.49837" lon="4.3114">
        <ele>234</ele>
        <time>2011-08-14T14:33:27Z</time>
      </trkpt>
      <trkpt lat="44.49835" lon="4.31119">
        <ele>234</ele>
        <time>2011-08-14T14:33:33Z</time>
      </trkpt>
      <trkpt lat="44.49832" lon="4.31101">
        <ele>241</ele>
        <time>2011-08-14T14:33:39Z</time>
      </trkpt>
      <trkpt lat="44.49834" lon="4.31085">
        <ele>240</ele>
        <time>2011-08-14T14:33:44Z</time>
      </trkpt>
      <trkpt lat="44.49831" lon="4.31069">
        <ele>242</ele>
        <time>2011-08-14T14:33:49Z</time>
      </trkpt>
      <trkpt lat="44.49826" lon="4.31048">
        <ele>243</ele>
        <time>2011-08-14T14:33:56Z</time>
      </trkpt>
      <trkpt lat="44.49827" lon="4.31025">
        <ele>243</ele>
        <time>2011-08-14T14:34:03Z</time>
      </trkpt>
      <trkpt lat="44.49827" lon="4.31006">
        <ele>243</ele>
        <time>2011-08-14T14:34:09Z</time>
      </trkpt>
      <trkpt lat="44.49829" lon="4.3099">
        <ele>242</ele>
        <time>2011-08-14T14:34:15Z</time>
      </trkpt>
      <trkpt lat="44.49832" lon="4.30983">
        <ele>242</ele>
        <time>2011-08-14T14:34:18Z</time>
      </trkpt>
      <trkpt lat="44.49833" lon="4.30961">
        <ele>232</ele>
        <time>2011-08-14T14:34:25Z</time>
      </trkpt>
      <trkpt lat="44.49836" lon="4.30949">
        <ele>230</ele>
        <time>2011-08-14T14:34:29Z</time>
      </trkpt>
      <trkpt lat="44.49837" lon="4.30947">
        <ele>230</ele>
        <time>2011-08-14T14:34:30Z</time>
      </trkpt>
      <trkpt lat="44.49833" lon="4.30936">
        <ele>236</ele>
        <time>2011-08-14T14:34:35Z</time>
      </trkpt>
      <trkpt lat="44.49817" lon="4.30928">
        <ele>236</ele>
        <time>2011-08-14T14:34:41Z</time>
      </trkpt>
      <trkpt lat="44.49795" lon="4.30925">
        <ele>239</ele>
        <time>2011-08-14T14:34:49Z</time>
      </trkpt>
      <trkpt lat="44.49782" lon="4.30923">
        <ele>240</ele>
        <time>2011-08-14T14:34:56Z</time>
      </trkpt>
      <trkpt lat="44.49771" lon="4.30923">
        <ele>240</ele>
        <time>2011-08-14T14:35:03Z</time>
      </trkpt>
      <trkpt lat="44.49769" lon="4.30924">
        <ele>240</ele>
        <time>2011-08-14T14:35:08Z</time>
      </trkpt>
      <trkpt lat="44.49763" lon="4.30923">
        <ele>241</ele>
        <time>2011-08-14T14:35:13Z</time>
      </trkpt>
      <trkpt lat="44.49758" lon="4.30922">
        <ele>241</ele>
        <time>2011-08-14T14:35:19Z</time>
      </trkpt>
      <trkpt lat="44.49755" lon="4.30921">
        <ele>241</ele>
        <time>2011-08-14T14:35:22Z</time>
      </trkpt>
      <trkpt lat="44.49747" lon="4.30914">
        <ele>240</ele>
        <time>2011-08-14T14:35:28Z</time>
      </trkpt>
      <trkpt lat="44.4974" lon="4.30913">
        <ele>238</ele>
        <time>2011-08-14T14:35:32Z</time>
      </trkpt>
      <trkpt lat="44.49729" lon="4.3091">
        <ele>237</ele>
        <time>2011-08-14T14:35:38Z</time>
      </trkpt>
      <trkpt lat="44.49721" lon="4.30908">
        <ele>237</ele>
        <time>2011-08-14T14:35:43Z</time>
      </trkpt>
      <trkpt lat="44.49707" lon="4.30904">
        <ele>237</ele>
        <time>2011-08-14T14:35:50Z</time>
      </trkpt>
      <trkpt lat="44.49696" lon="4.30902">
        <ele>238</ele>
        <time>2011-08-14T14:35:56Z</time>
      </trkpt>
      <trkpt lat="44.49695" lon="4.30902">
        <ele>239</ele>
        <time>2011-08-14T14:35:57Z</time>
      </trkpt>
      <trkpt lat="44.49684" lon="4.30892">
        <ele>238</ele>
        <time>2011-08-14T14:36:03Z</time>
      </trkpt>
      <trkpt lat="44.49674" lon="4.30886">
        <ele>238</ele>
        <time>2011-08-14T14:36:07Z</time>
      </trkpt>
      <trkpt lat="44.49664" lon="4.30879">
        <ele>244</ele>
        <time>2011-08-14T14:36:12Z</time>
      </trkpt>
      <trkpt lat="44.49652" lon="4.30872">
        <ele>244</ele>
        <time>2011-08-14T14:36:17Z</time>
      </trkpt>
      <trkpt lat="44.49634" lon="4.30859">
        <ele>244</ele>
        <time>2011-08-14T14:36:24Z</time>
      </trkpt>
      <trkpt lat="44.49617" lon="4.3085">
        <ele>245</ele>
        <time>2011-08-14T14:36:30Z</time>
      </trkpt>
      <trkpt lat="44.49609" lon="4.30845">
        <ele>245</ele>
        <time>2011-08-14T14:36:34Z</time>
      </trkpt>
      <trkpt lat="44.49599" lon="4.30837">
        <ele>246</ele>
        <time>2011-08-14T14:36:38Z</time>
      </trkpt>
      <trkpt lat="44.49584" lon="4.30827">
        <ele>246</ele>
        <time>2011-08-14T14:36:44Z</time>
      </trkpt>
      <trkpt lat="44.49576" lon="4.30807">
        <ele>249</ele>
        <time>2011-08-14T14:36:49Z</time>
      </trkpt>
      <trkpt lat="44.49569" lon="4.3078">
        <ele>249</ele>
        <time>2011-08-14T14:36:55Z</time>
      </trkpt>
      <trkpt lat="44.4957" lon="4.30757">
        <ele>249</ele>
        <time>2011-08-14T14:37:00Z</time>
      </trkpt>
      <trkpt lat="44.49573" lon="4.30731">
        <ele>249</ele>
        <time>2011-08-14T14:37:06Z</time>
      </trkpt>
      <trkpt lat="44.4958" lon="4.30702">
        <ele>250</ele>
        <time>2011-08-14T14:37:13Z</time>
      </trkpt>
      <trkpt lat="44.4958" lon="4.30665">
        <ele>251</ele>
        <time>2011-08-14T14:37:21Z</time>
      </trkpt>
      <trkpt lat="44.49576" lon="4.30636">
        <ele>250</ele>
        <time>2011-08-14T14:37:27Z</time>
      </trkpt>
      <trkpt lat="44.49573" lon="4.30622">
        <ele>250</ele>
        <time>2011-08-14T14:37:31Z</time>
      </trkpt>
      <trkpt lat="44.4957" lon="4.30596">
        <ele>249</ele>
        <time>2011-08-14T14:37:39Z</time>
      </trkpt>
      <trkpt lat="44.49563" lon="4.3058">
        <ele>246</ele>
        <time>2011-08-14T14:37:44Z</time>
      </trkpt>
      <trkpt lat="44.4955" lon="4.30563">
        <ele>245</ele>
        <time>2011-08-14T14:37:50Z</time>
      </trkpt>
      <trkpt lat="44.4954" lon="4.30545">
        <ele>245</ele>
        <time>2011-08-14T14:37:55Z</time>
      </trkpt>
      <trkpt lat="44.49531" lon="4.30528">
        <ele>245</ele>
        <time>2011-08-14T14:38:00Z</time>
      </trkpt>
      <trkpt lat="44.4952" lon="4.30507">
        <ele>246</ele>
        <time>2011-08-14T14:38:06Z</time>
      </trkpt>
      <trkpt lat="44.49506" lon="4.30485">
        <ele>244</ele>
        <time>2011-08-14T14:38:12Z</time>
      </trkpt>
      <trkpt lat="44.49494" lon="4.30467">
        <ele>248</ele>
        <time>2011-08-14T14:38:18Z</time>
      </trkpt>
      <trkpt lat="44.49496" lon="4.3045">
        <ele>248</ele>
        <time>2011-08-14T14:38:23Z</time>
      </trkpt>
      <trkpt lat="44.49489" lon="4.30433">
        <ele>247</ele>
        <time>2011-08-14T14:38:28Z</time>
      </trkpt>
      <trkpt lat="44.49475" lon="4.30407">
        <ele>246</ele>
        <time>2011-08-14T14:38:35Z</time>
      </trkpt>
      <trkpt lat="44.49461" lon="4.30393">
        <ele>245</ele>
        <time>2011-08-14T14:38:40Z</time>
      </trkpt>
      <trkpt lat="44.49448" lon="4.30377">
        <ele>245</ele>
        <time>2011-08-14T14:38:45Z</time>
      </trkpt>
      <trkpt lat="44.49435" lon="4.3035">
        <ele>245</ele>
        <time>2011-08-14T14:38:53Z</time>
      </trkpt>
      <trkpt lat="44.49426" lon="4.30336">
        <ele>245</ele>
        <time>2011-08-14T14:39:01Z</time>
      </trkpt>
      <trkpt lat="44.49425" lon="4.30335">
        <ele>246</ele>
        <time>2011-08-14T14:39:02Z</time>
      </trkpt>
      <trkpt lat="44.49424" lon="4.30336">
        <ele>246</ele>
        <time>2011-08-14T14:39:10Z</time>
      </trkpt>
      <trkpt lat="44.49424" lon="4.30336">
        <ele>246</ele>
        <time>2011-08-14T14:39:32Z</time>
      </trkpt>
      <trkpt lat="44.49424" lon="4.30336">
        <ele>246</ele>
        <time>2011-08-14T14:39:44Z</time>
      </trkpt>
      <trkpt lat="44.49424" lon="4.30336">
        <ele>246</ele>
        <time>2011-08-14T14:39:58Z</time>
      </trkpt>
      <trkpt lat="44.49424" lon="4.30336">
        <ele>246</ele>
        <time>2011-08-14T14:40:06Z</time>
      </trkpt>
      <trkpt lat="44.49424" lon="4.30335">
        <ele>246</ele>
        <time>2011-08-14T14:40:12Z</time>
      </trkpt>
      <trkpt lat="44.49424" lon="4.30335">
        <ele>246</ele>
        <time>2011-08-14T14:40:35Z</time>
      </trkpt>
      <trkpt lat="44.49422" lon="4.30332">
        <ele>244</ele>
        <time>2011-08-14T14:40:46Z</time>
      </trkpt>
      <trkpt lat="44.4941" lon="4.30326">
        <ele>246</ele>
        <time>2011-08-14T14:40:52Z</time>
      </trkpt>
      <trkpt lat="44.49385" lon="4.30303">
        <ele>246</ele>
        <time>2011-08-14T14:41:01Z</time>
      </trkpt>
      <trkpt lat="44.49372" lon="4.30296">
        <ele>246</ele>
        <time>2011-08-14T14:41:05Z</time>
      </trkpt>
      <trkpt lat="44.49349" lon="4.30291">
        <ele>247</ele>
        <time>2011-08-14T14:41:11Z</time>
      </trkpt>
      <trkpt lat="44.49336" lon="4.30287">
        <ele>247</ele>
        <time>2011-08-14T14:41:14Z</time>
      </trkpt>
      <trkpt lat="44.49315" lon="4.30289">
        <ele>249</ele>
        <time>2011-08-14T14:41:19Z</time>
      </trkpt>
      <trkpt lat="44.49308" lon="4.30295">
        <ele>249</ele>
        <time>2011-08-14T14:41:21Z</time>
      </trkpt>
      <trkpt lat="44.49287" lon="4.30308">
        <ele>249</ele>
        <time>2011-08-14T14:41:26Z</time>
      </trkpt>
      <trkpt lat="44.49264" lon="4.30305">
        <ele>249</ele>
        <time>2011-08-14T14:41:31Z</time>
      </trkpt>
      <trkpt lat="44.49257" lon="4.30289">
        <ele>249</ele>
        <time>2011-08-14T14:41:34Z</time>
      </trkpt>
      <trkpt lat="44.49254" lon="4.30261">
        <ele>249</ele>
        <time>2011-08-14T14:41:39Z</time>
      </trkpt>
      <trkpt lat="44.49245" lon="4.30242">
        <ele>248</ele>
        <time>2011-08-14T14:41:43Z</time>
      </trkpt>
      <trkpt lat="44.49216" lon="4.30216">
        <ele>247</ele>
        <time>2011-08-14T14:41:50Z</time>
      </trkpt>
      <trkpt lat="44.49193" lon="4.30201">
        <ele>247</ele>
        <time>2011-08-14T14:41:55Z</time>
      </trkpt>
      <trkpt lat="44.49173" lon="4.30193">
        <ele>246</ele>
        <time>2011-08-14T14:41:59Z</time>
      </trkpt>
      <trkpt lat="44.49155" lon="4.30198">
        <ele>245</ele>
        <time>2011-08-14T14:42:03Z</time>
      </trkpt>
      <trkpt lat="44.49136" lon="4.30204">
        <ele>245</ele>
        <time>2011-08-14T14:42:08Z</time>
      </trkpt>
      <trkpt lat="44.49118" lon="4.30221">
        <ele>245</ele>
        <time>2011-08-14T14:42:16Z</time>
      </trkpt>
      <trkpt lat="44.49108" lon="4.30227">
        <ele>245</ele>
        <time>2011-08-14T14:42:23Z</time>
      </trkpt>
      <trkpt lat="44.49098" lon="4.30237">
        <ele>245</ele>
        <time>2011-08-14T14:42:28Z</time>
      </trkpt>
      <trkpt lat="44.49076" lon="4.30259">
        <ele>244</ele>
        <time>2011-08-14T14:42:35Z</time>
      </trkpt>
      <trkpt lat="44.49055" lon="4.3027">
        <ele>243</ele>
        <time>2011-08-14T14:42:40Z</time>
      </trkpt>
      <trkpt lat="44.4904" lon="4.3028">
        <ele>243</ele>
        <time>2011-08-14T14:42:43Z</time>
      </trkpt>
      <trkpt lat="44.49017" lon="4.30306">
        <ele>243</ele>
        <time>2011-08-14T14:42:48Z</time>
      </trkpt>
      <trkpt lat="44.49004" lon="4.30333">
        <ele>243</ele>
        <time>2011-08-14T14:42:52Z</time>
      </trkpt>
      <trkpt lat="44.49" lon="4.30339">
        <ele>243</ele>
        <time>2011-08-14T14:42:53Z</time>
      </trkpt>
      <trkpt lat="44.48982" lon="4.3037">
        <ele>243</ele>
        <time>2011-08-14T14:42:59Z</time>
      </trkpt>
      <trkpt lat="44.48979" lon="4.30374">
        <ele>243</ele>
        <time>2011-08-14T14:43:00Z</time>
      </trkpt>
      <trkpt lat="44.48962" lon="4.30398">
        <ele>243</ele>
        <time>2011-08-14T14:43:06Z</time>
      </trkpt>
      <trkpt lat="44.48943" lon="4.30411">
        <ele>243</ele>
        <time>2011-08-14T14:43:12Z</time>
      </trkpt>
      <trkpt lat="44.48924" lon="4.30422">
        <ele>245</ele>
        <time>2011-08-14T14:43:17Z</time>
      </trkpt>
      <trkpt lat="44.48908" lon="4.30437">
        <ele>246</ele>
        <time>2011-08-14T14:43:22Z</time>
      </trkpt>
      <trkpt lat="44.48889" lon="4.3045">
        <ele>246</ele>
        <time>2011-08-14T14:43:28Z</time>
      </trkpt>
      <trkpt lat="44.48873" lon="4.3046">
        <ele>247</ele>
        <time>2011-08-14T14:43:33Z</time>
      </trkpt>
      <trkpt lat="44.48856" lon="4.30474">
        <ele>247</ele>
        <time>2011-08-14T14:43:39Z</time>
      </trkpt>
      <trkpt lat="44.48846" lon="4.30492">
        <ele>247</ele>
        <time>2011-08-14T14:43:45Z</time>
      </trkpt>
      <trkpt lat="44.48836" lon="4.30514">
        <ele>249</ele>
        <time>2011-08-14T14:43:51Z</time>
      </trkpt>
      <trkpt lat="44.48825" lon="4.30529">
        <ele>247</ele>
        <time>2011-08-14T14:43:56Z</time>
      </trkpt>
      <trkpt lat="44.48809" lon="4.30541">
        <ele>247</ele>
        <time>2011-08-14T14:44:01Z</time>
      </trkpt>
      <trkpt lat="44.48784" lon="4.30555">
        <ele>247</ele>
        <time>2011-08-14T14:44:07Z</time>
      </trkpt>
      <trkpt lat="44.48771" lon="4.30562">
        <ele>247</ele>
        <time>2011-08-14T14:44:10Z</time>
      </trkpt>
      <trkpt lat="44.4875" lon="4.3057">
        <ele>245</ele>
        <time>2011-08-14T14:44:15Z</time>
      </trkpt>
      <trkpt lat="44.48735" lon="4.30577">
        <ele>245</ele>
        <time>2011-08-14T14:44:18Z</time>
      </trkpt>
      <trkpt lat="44.48714" lon="4.30587">
        <ele>243</ele>
        <time>2011-08-14T14:44:22Z</time>
      </trkpt>
      <trkpt lat="44.48699" lon="4.30596">
        <ele>243</ele>
        <time>2011-08-14T14:44:25Z</time>
      </trkpt>
      <trkpt lat="44.48671" lon="4.30607">
        <ele>242</ele>
        <time>2011-08-14T14:44:30Z</time>
      </trkpt>
      <trkpt lat="44.48654" lon="4.30616">
        <ele>239</ele>
        <time>2011-08-14T14:44:33Z</time>
      </trkpt>
      <trkpt lat="44.48626" lon="4.30628">
        <ele>238</ele>
        <time>2011-08-14T14:44:38Z</time>
      </trkpt>
      <trkpt lat="44.48599" lon="4.30627">
        <ele>237</ele>
        <time>2011-08-14T14:44:43Z</time>
      </trkpt>
      <trkpt lat="44.48579" lon="4.30631">
        <ele>235</ele>
        <time>2011-08-14T14:44:47Z</time>
      </trkpt>
      <trkpt lat="44.48565" lon="4.30636">
        <ele>234</ele>
        <time>2011-08-14T14:44:50Z</time>
      </trkpt>
      <trkpt lat="44.4854" lon="4.3064">
        <ele>234</ele>
        <time>2011-08-14T14:44:55Z</time>
      </trkpt>
      <trkpt lat="44.48525" lon="4.30643">
        <ele>234</ele>
        <time>2011-08-14T14:44:58Z</time>
      </trkpt>
      <trkpt lat="44.48504" lon="4.30641">
        <ele>233</ele>
        <time>2011-08-14T14:45:02Z</time>
      </trkpt>
      <trkpt lat="44.48459" lon="4.30654">
        <ele>231</ele>
        <time>2011-08-14T14:45:11Z</time>
      </trkpt>
      <trkpt lat="44.48454" lon="4.30656">
        <ele>231</ele>
        <time>2011-08-14T14:45:12Z</time>
      </trkpt>
      <trkpt lat="44.48429" lon="4.30669">
        <ele>232</ele>
        <time>2011-08-14T14:45:17Z</time>
      </trkpt>
      <trkpt lat="44.48398" lon="4.30671">
        <ele>230</ele>
        <time>2011-08-14T14:45:23Z</time>
      </trkpt>
      <trkpt lat="44.48382" lon="4.30672">
        <ele>230</ele>
        <time>2011-08-14T14:45:26Z</time>
      </trkpt>
      <trkpt lat="44.48356" lon="4.30684">
        <ele>229</ele>
        <time>2011-08-14T14:45:31Z</time>
      </trkpt>
      <trkpt lat="44.48338" lon="4.3069">
        <ele>229</ele>
        <time>2011-08-14T14:45:34Z</time>
      </trkpt>
      <trkpt lat="44.48314" lon="4.30695">
        <ele>227</ele>
        <time>2011-08-14T14:45:38Z</time>
      </trkpt>
      <trkpt lat="44.48285" lon="4.30701">
        <ele>227</ele>
        <time>2011-08-14T14:45:43Z</time>
      </trkpt>
      <trkpt lat="44.48277" lon="4.30703">
        <ele>227</ele>
        <time>2011-08-14T14:45:45Z</time>
      </trkpt>
      <trkpt lat="44.48249" lon="4.30711">
        <ele>225</ele>
        <time>2011-08-14T14:45:51Z</time>
      </trkpt>
      <trkpt lat="44.48219" lon="4.30712">
        <ele>224</ele>
        <time>2011-08-14T14:45:57Z</time>
      </trkpt>
      <trkpt lat="44.48209" lon="4.3071">
        <ele>224</ele>
        <time>2011-08-14T14:45:59Z</time>
      </trkpt>
      <trkpt lat="44.48194" lon="4.30709">
        <ele>224</ele>
        <time>2011-08-14T14:46:02Z</time>
      </trkpt>
      <trkpt lat="44.4819" lon="4.30709">
        <ele>224</ele>
        <time>2011-08-14T14:46:08Z</time>
      </trkpt>
      <trkpt lat="44.48192" lon="4.30709">
        <ele>224</ele>
        <time>2011-08-14T14:46:13Z</time>
      </trkpt>
      <trkpt lat="44.48193" lon="4.3071">
        <ele>224</ele>
        <time>2011-08-14T14:46:18Z</time>
      </trkpt>
      <trkpt lat="44.48193" lon="4.30708">
        <ele>224</ele>
        <time>2011-08-14T14:46:22Z</time>
      </trkpt>
      <trkpt lat="44.48193" lon="4.30709">
        <ele>224</ele>
        <time>2011-08-14T14:46:30Z</time>
      </trkpt>
      <trkpt lat="44.48193" lon="4.30708">
        <ele>224</ele>
        <time>2011-08-14T14:46:37Z</time>
      </trkpt>
      <trkpt lat="44.48193" lon="4.30709">
        <ele>224</ele>
        <time>2011-08-14T14:46:43Z</time>
      </trkpt>
      <trkpt lat="44.48194" lon="4.30709">
        <ele>224</ele>
        <time>2011-08-14T14:46:51Z</time>
      </trkpt>
      <trkpt lat="44.48193" lon="4.30708">
        <ele>224</ele>
        <time>2011-08-14T14:46:58Z</time>
      </trkpt>
      <trkpt lat="44.48192" lon="4.30709">
        <ele>224</ele>
        <time>2011-08-14T14:47:03Z</time>
      </trkpt>
      <trkpt lat="44.48191" lon="4.3071">
        <ele>224</ele>
        <time>2011-08-14T14:47:09Z</time>
      </trkpt>
      <trkpt lat="44.48191" lon="4.30709">
        <ele>224</ele>
        <time>2011-08-14T14:47:15Z</time>
      </trkpt>
      <trkpt lat="44.48191" lon="4.30709">
        <ele>224</ele>
        <time>2011-08-14T14:47:20Z</time>
      </trkpt>
      <trkpt lat="44.4819" lon="4.3071">
        <ele>224</ele>
        <time>2011-08-14T14:47:27Z</time>
      </trkpt>
      <trkpt lat="44.48191" lon="4.30711">
        <ele>224</ele>
        <time>2011-08-14T14:47:32Z</time>
      </trkpt>
      <trkpt lat="44.48191" lon="4.30711">
        <ele>224</ele>
        <time>2011-08-14T14:47:40Z</time>
      </trkpt>
      <trkpt lat="44.48193" lon="4.30711">
        <ele>224</ele>
        <time>2011-08-14T14:47:48Z</time>
      </trkpt>
      <trkpt lat="44.48195" lon="4.3071">
        <ele>224</ele>
        <time>2011-08-14T14:47:56Z</time>
      </trkpt>
      <trkpt lat="44.48195" lon="4.3071">
        <ele>224</ele>
        <time>2011-08-14T14:48:14Z</time>
      </trkpt>
      <trkpt lat="44.48192" lon="4.3071">
        <ele>224</ele>
        <time>2011-08-14T14:48:25Z</time>
      </trkpt>
      <trkpt lat="44.4819" lon="4.30708">
        <ele>224</ele>
        <time>2011-08-14T14:48:31Z</time>
      </trkpt>
      <trkpt lat="44.48187" lon="4.30705">
        <ele>224</ele>
        <time>2011-08-14T14:48:36Z</time>
      </trkpt>
      <trkpt lat="44.48187" lon="4.30703">
        <ele>224</ele>
        <time>2011-08-14T14:48:44Z</time>
      </trkpt>
      <trkpt lat="44.48186" lon="4.30703">
        <ele>224</ele>
        <time>2011-08-14T14:48:57Z</time>
      </trkpt>
      <trkpt lat="44.48185" lon="4.30705">
        <ele>224</ele>
        <time>2011-08-14T14:49:10Z</time>
      </trkpt>
      <trkpt lat="44.48185" lon="4.30706">
        <ele>224</ele>
        <time>2011-08-14T14:49:24Z</time>
      </trkpt>
      <trkpt lat="44.48186" lon="4.30705">
        <ele>224</ele>
        <time>2011-08-14T14:50:12Z</time>
      </trkpt>
      <trkpt lat="44.48187" lon="4.30705">
        <ele>224</ele>
        <time>2011-08-14T14:50:29Z</time>
      </trkpt>
      <trkpt lat="44.48185" lon="4.30707">
        <ele>224</ele>
        <time>2011-08-14T14:50:36Z</time>
      </trkpt>
      <trkpt lat="44.48185" lon="4.30707">
        <ele>224</ele>
        <time>2011-08-14T14:50:43Z</time>
      </trkpt>
      <trkpt lat="44.48185" lon="4.30707">
        <ele>224</ele>
        <time>2011-08-14T14:50:59Z</time>
      </trkpt>
      <trkpt lat="44.48185" lon="4.30706">
        <ele>224</ele>
        <time>2011-08-14T14:51:06Z</time>
      </trkpt>
      <trkpt lat="44.48184" lon="4.30705">
        <ele>224</ele>
        <time>2011-08-14T14:51:21Z</time>
      </trkpt>
      <trkpt lat="44.48188" lon="4.30707">
        <ele>224</ele>
        <time>2011-08-14T14:51:26Z</time>
      </trkpt>
      <trkpt lat="44.48187" lon="4.30707">
        <ele>224</ele>
        <time>2011-08-14T14:51:31Z</time>
      </trkpt>
      <trkpt lat="44.48184" lon="4.30707">
        <ele>224</ele>
        <time>2011-08-14T14:51:35Z</time>
      </trkpt>
      <trkpt lat="44.4817" lon="4.30702">
        <ele>224</ele>
        <time>2011-08-14T14:51:41Z</time>
      </trkpt>
      <trkpt lat="44.48167" lon="4.30702">
        <ele>224</ele>
        <time>2011-08-14T14:51:42Z</time>
      </trkpt>
      <trkpt lat="44.48137" lon="4.30707">
        <ele>223</ele>
        <time>2011-08-14T14:51:50Z</time>
      </trkpt>
      <trkpt lat="44.48121" lon="4.30707">
        <ele>223</ele>
        <time>2011-08-14T14:51:55Z</time>
      </trkpt>
      <trkpt lat="44.48093" lon="4.3071">
        <ele>223</ele>
        <time>2011-08-14T14:52:03Z</time>
      </trkpt>
      <trkpt lat="44.48064" lon="4.30712">
        <ele>222</ele>
        <time>2011-08-14T14:52:11Z</time>
      </trkpt>
      <trkpt lat="44.48045" lon="4.30714">
        <ele>222</ele>
        <time>2011-08-14T14:52:17Z</time>
      </trkpt>
      <trkpt lat="44.48034" lon="4.30717">
        <ele>222</ele>
        <time>2011-08-14T14:52:22Z</time>
      </trkpt>
      <trkpt lat="44.48028" lon="4.30725">
        <ele>221</ele>
        <time>2011-08-14T14:52:26Z</time>
      </trkpt>
      <trkpt lat="44.48021" lon="4.30719">
        <ele>221</ele>
        <time>2011-08-14T14:52:31Z</time>
      </trkpt>
      <trkpt lat="44.48016" lon="4.30721">
        <ele>221</ele>
        <time>2011-08-14T14:52:35Z</time>
      </trkpt>
      <trkpt lat="44.48008" lon="4.30721">
        <ele>221</ele>
        <time>2011-08-14T14:52:40Z</time>
      </trkpt>
      <trkpt lat="44.48004" lon="4.30721">
        <ele>221</ele>
        <time>2011-08-14T14:52:42Z</time>
      </trkpt>
      <trkpt lat="44.47993" lon="4.30725">
        <ele>220</ele>
        <time>2011-08-14T14:52:48Z</time>
      </trkpt>
      <trkpt lat="44.47979" lon="4.30729">
        <ele>220</ele>
        <time>2011-08-14T14:52:53Z</time>
      </trkpt>
      <trkpt lat="44.47956" lon="4.30729">
        <ele>220</ele>
        <time>2011-08-14T14:53:00Z</time>
      </trkpt>
      <trkpt lat="44.47943" lon="4.30729">
        <ele>220</ele>
        <time>2011-08-14T14:53:04Z</time>
      </trkpt>
      <trkpt lat="44.47918" lon="4.30726">
        <ele>220</ele>
        <time>2011-08-14T14:53:12Z</time>
      </trkpt>
      <trkpt lat="44.47904" lon="4.30728">
        <ele>220</ele>
        <time>2011-08-14T14:53:17Z</time>
      </trkpt>
      <trkpt lat="44.47889" lon="4.30725">
        <ele>220</ele>
        <time>2011-08-14T14:53:22Z</time>
      </trkpt>
      <trkpt lat="44.47871" lon="4.30729">
        <ele>220</ele>
        <time>2011-08-14T14:53:28Z</time>
      </trkpt>
      <trkpt lat="44.47859" lon="4.30723">
        <ele>220</ele>
        <time>2011-08-14T14:53:32Z</time>
      </trkpt>
      <trkpt lat="44.47843" lon="4.30723">
        <ele>220</ele>
        <time>2011-08-14T14:53:37Z</time>
      </trkpt>
      <trkpt lat="44.47825" lon="4.30724">
        <ele>219</ele>
        <time>2011-08-14T14:53:42Z</time>
      </trkpt>
      <trkpt lat="44.47806" lon="4.30724">
        <ele>220</ele>
        <time>2011-08-14T14:53:48Z</time>
      </trkpt>
      <trkpt lat="44.47777" lon="4.30727">
        <ele>219</ele>
        <time>2011-08-14T14:53:56Z</time>
      </trkpt>
      <trkpt lat="44.47752" lon="4.30727">
        <ele>219</ele>
        <time>2011-08-14T14:54:03Z</time>
      </trkpt>
      <trkpt lat="44.47734" lon="4.30725">
        <ele>219</ele>
        <time>2011-08-14T14:54:08Z</time>
      </trkpt>
      <trkpt lat="44.47714" lon="4.30721">
        <ele>219</ele>
        <time>2011-08-14T14:54:14Z</time>
      </trkpt>
      <trkpt lat="44.47707" lon="4.30721">
        <ele>219</ele>
        <time>2011-08-14T14:54:16Z</time>
      </trkpt>
      <trkpt lat="44.47695" lon="4.3073">
        <ele>219</ele>
        <time>2011-08-14T14:54:20Z</time>
      </trkpt>
      <trkpt lat="44.4767" lon="4.30742">
        <ele>218</ele>
        <time>2011-08-14T14:54:27Z</time>
      </trkpt>
      <trkpt lat="44.47653" lon="4.30744">
        <ele>217</ele>
        <time>2011-08-14T14:54:32Z</time>
      </trkpt>
      <trkpt lat="44.47625" lon="4.3074">
        <ele>218</ele>
        <time>2011-08-14T14:54:39Z</time>
      </trkpt>
      <trkpt lat="44.47602" lon="4.30735">
        <ele>218</ele>
        <time>2011-08-14T14:54:45Z</time>
      </trkpt>
      <trkpt lat="44.47573" lon="4.30722">
        <ele>217</ele>
        <time>2011-08-14T14:54:53Z</time>
      </trkpt>
      <trkpt lat="44.47548" lon="4.3071">
        <ele>217</ele>
        <time>2011-08-14T14:55:00Z</time>
      </trkpt>
      <trkpt lat="44.47531" lon="4.30702">
        <ele>217</ele>
        <time>2011-08-14T14:55:05Z</time>
      </trkpt>
      <trkpt lat="44.47509" lon="4.30697">
        <ele>217</ele>
        <time>2011-08-14T14:55:11Z</time>
      </trkpt>
      <trkpt lat="44.4749" lon="4.30696">
        <ele>217</ele>
        <time>2011-08-14T14:55:16Z</time>
      </trkpt>
      <trkpt lat="44.47479" lon="4.30708">
        <ele>217</ele>
        <time>2011-08-14T14:55:20Z</time>
      </trkpt>
      <trkpt lat="44.47474" lon="4.30718">
        <ele>217</ele>
        <time>2011-08-14T14:55:23Z</time>
      </trkpt>
      <trkpt lat="44.47456" lon="4.30715">
        <ele>217</ele>
        <time>2011-08-14T14:55:28Z</time>
      </trkpt>
      <trkpt lat="44.47427" lon="4.307">
        <ele>217</ele>
        <time>2011-08-14T14:55:36Z</time>
      </trkpt>
      <trkpt lat="44.47408" lon="4.30686">
        <ele>218</ele>
        <time>2011-08-14T14:55:42Z</time>
      </trkpt>
      <trkpt lat="44.47385" lon="4.30674">
        <ele>218</ele>
        <time>2011-08-14T14:55:49Z</time>
      </trkpt>
      <trkpt lat="44.47365" lon="4.30662">
        <ele>220</ele>
        <time>2011-08-14T14:55:55Z</time>
      </trkpt>
      <trkpt lat="44.47344" lon="4.3065">
        <ele>220</ele>
        <time>2011-08-14T14:56:01Z</time>
      </trkpt>
      <trkpt lat="44.47319" lon="4.30638">
        <ele>220</ele>
        <time>2011-08-14T14:56:09Z</time>
      </trkpt>
      <trkpt lat="44.47306" lon="4.30632">
        <ele>220</ele>
        <time>2011-08-14T14:56:14Z</time>
      </trkpt>
      <trkpt lat="44.47287" lon="4.30622">
        <ele>220</ele>
        <time>2011-08-14T14:56:21Z</time>
      </trkpt>
      <trkpt lat="44.47272" lon="4.30613">
        <ele>220</ele>
        <time>2011-08-14T14:56:27Z</time>
      </trkpt>
      <trkpt lat="44.47257" lon="4.306">
        <ele>220</ele>
        <time>2011-08-14T14:56:34Z</time>
      </trkpt>
      <trkpt lat="44.47242" lon="4.30589">
        <ele>220</ele>
        <time>2011-08-14T14:56:41Z</time>
      </trkpt>
      <trkpt lat="44.4723" lon="4.30583">
        <ele>221</ele>
        <time>2011-08-14T14:56:46Z</time>
      </trkpt>
      <trkpt lat="44.47217" lon="4.30576">
        <ele>222</ele>
        <time>2011-08-14T14:56:52Z</time>
      </trkpt>
      <trkpt lat="44.47202" lon="4.30567">
        <ele>222</ele>
        <time>2011-08-14T14:56:58Z</time>
      </trkpt>
      <trkpt lat="44.4719" lon="4.30557">
        <ele>222</ele>
        <time>2011-08-14T14:57:03Z</time>
      </trkpt>
      <trkpt lat="44.47177" lon="4.30546">
        <ele>222</ele>
        <time>2011-08-14T14:57:08Z</time>
      </trkpt>
      <trkpt lat="44.47163" lon="4.30533">
        <ele>222</ele>
        <time>2011-08-14T14:57:14Z</time>
      </trkpt>
      <trkpt lat="44.4715" lon="4.30519">
        <ele>222</ele>
        <time>2011-08-14T14:57:20Z</time>
      </trkpt>
      <trkpt lat="44.47131" lon="4.30503">
        <ele>222</ele>
        <time>2011-08-14T14:57:27Z</time>
      </trkpt>
      <trkpt lat="44.47114" lon="4.30489">
        <ele>225</ele>
        <time>2011-08-14T14:57:33Z</time>
      </trkpt>
      <trkpt lat="44.47098" lon="4.30477">
        <ele>225</ele>
        <time>2011-08-14T14:57:39Z</time>
      </trkpt>
      <trkpt lat="44.47089" lon="4.30473">
        <ele>225</ele>
        <time>2011-08-14T14:57:44Z</time>
      </trkpt>
      <trkpt lat="44.47087" lon="4.30474">
        <ele>225</ele>
        <time>2011-08-14T14:57:50Z</time>
      </trkpt>
      <trkpt lat="44.47088" lon="4.30473">
        <ele>225</ele>
        <time>2011-08-14T14:58:06Z</time>
      </trkpt>
      <trkpt lat="44.47086" lon="4.30476">
        <ele>225</ele>
        <time>2011-08-14T14:58:29Z</time>
      </trkpt>
      <trkpt lat="44.47074" lon="4.3049">
        <ele>223</ele>
        <time>2011-08-14T14:58:33Z</time>
      </trkpt>
      <trkpt lat="44.47062" lon="4.30501">
        <ele>220</ele>
        <time>2011-08-14T14:58:36Z</time>
      </trkpt>
      <trkpt lat="44.47048" lon="4.30516">
        <ele>220</ele>
        <time>2011-08-14T14:58:39Z</time>
      </trkpt>
      <trkpt lat="44.47032" lon="4.30526">
        <ele>219</ele>
        <time>2011-08-14T14:58:42Z</time>
      </trkpt>
      <trkpt lat="44.47013" lon="4.30536">
        <ele>219</ele>
        <time>2011-08-14T14:58:46Z</time>
      </trkpt>
      <trkpt lat="44.47" lon="4.30549">
        <ele>218</ele>
        <time>2011-08-14T14:58:50Z</time>
      </trkpt>
      <trkpt lat="44.46995" lon="4.30558">
        <ele>218</ele>
        <time>2011-08-14T14:58:52Z</time>
      </trkpt>
      <trkpt lat="44.46982" lon="4.30575">
        <ele>218</ele>
        <time>2011-08-14T14:58:56Z</time>
      </trkpt>
      <trkpt lat="44.46962" lon="4.306">
        <ele>219</ele>
        <time>2011-08-14T14:59:02Z</time>
      </trkpt>
      <trkpt lat="44.46945" lon="4.30607">
        <ele>219</ele>
        <time>2011-08-14T14:59:06Z</time>
      </trkpt>
      <trkpt lat="44.46935" lon="4.30607">
        <ele>219</ele>
        <time>2011-08-14T14:59:08Z</time>
      </trkpt>
      <trkpt lat="44.46917" lon="4.30608">
        <ele>219</ele>
        <time>2011-08-14T14:59:12Z</time>
      </trkpt>
      <trkpt lat="44.46898" lon="4.30622">
        <ele>220</ele>
        <time>2011-08-14T14:59:17Z</time>
      </trkpt>
      <trkpt lat="44.46885" lon="4.30632">
        <ele>221</ele>
        <time>2011-08-14T14:59:21Z</time>
      </trkpt>
      <trkpt lat="44.46877" lon="4.30637">
        <ele>221</ele>
        <time>2011-08-14T14:59:23Z</time>
      </trkpt>
      <trkpt lat="44.46856" lon="4.30651">
        <ele>221</ele>
        <time>2011-08-14T14:59:29Z</time>
      </trkpt>
      <trkpt lat="44.46842" lon="4.30661">
        <ele>221</ele>
        <time>2011-08-14T14:59:33Z</time>
      </trkpt>
      <trkpt lat="44.46827" lon="4.30675">
        <ele>221</ele>
        <time>2011-08-14T14:59:38Z</time>
      </trkpt>
      <trkpt lat="44.46825" lon="4.30678">
        <ele>221</ele>
        <time>2011-08-14T14:59:39Z</time>
      </trkpt>
      <trkpt lat="44.46814" lon="4.3068">
        <ele>221</ele>
        <time>2011-08-14T14:59:45Z</time>
      </trkpt>
      <trkpt lat="44.46812" lon="4.3068">
        <ele>221</ele>
        <time>2011-08-14T14:59:49Z</time>
      </trkpt>
      <trkpt lat="44.46811" lon="4.30681">
        <ele>221</ele>
        <time>2011-08-14T15:00:02Z</time>
      </trkpt>
      <trkpt lat="44.46811" lon="4.3068">
        <ele>221</ele>
        <time>2011-08-14T15:00:12Z</time>
      </trkpt>
      <trkpt lat="44.4681" lon="4.3068">
        <ele>221</ele>
        <time>2011-08-14T15:00:19Z</time>
      </trkpt>
      <trkpt lat="44.46805" lon="4.30677">
        <ele>221</ele>
        <time>2011-08-14T15:00:29Z</time>
      </trkpt>
      <trkpt lat="44.46788" lon="4.30679">
        <ele>221</ele>
        <time>2011-08-14T15:00:35Z</time>
      </trkpt>
      <trkpt lat="44.46765" lon="4.30681">
        <ele>221</ele>
        <time>2011-08-14T15:00:42Z</time>
      </trkpt>
      <trkpt lat="44.46746" lon="4.3068">
        <ele>222</ele>
        <time>2011-08-14T15:00:49Z</time>
      </trkpt>
      <trkpt lat="44.4673" lon="4.30678">
        <ele>222</ele>
        <time>2011-08-14T15:00:55Z</time>
      </trkpt>
      <trkpt lat="44.46704" lon="4.30671">
        <ele>222</ele>
        <time>2011-08-14T15:01:04Z</time>
      </trkpt>
      <trkpt lat="44.46675" lon="4.30669">
        <ele>223</ele>
        <time>2011-08-14T15:01:13Z</time>
      </trkpt>
      <trkpt lat="44.4665" lon="4.30673">
        <ele>224</ele>
        <time>2011-08-14T15:01:21Z</time>
      </trkpt>
      <trkpt lat="44.46629" lon="4.30676">
        <ele>224</ele>
        <time>2011-08-14T15:01:27Z</time>
      </trkpt>
      <trkpt lat="44.46607" lon="4.30676">
        <ele>224</ele>
        <time>2011-08-14T15:01:33Z</time>
      </trkpt>
      <trkpt lat="44.46581" lon="4.30676">
        <ele>225</ele>
        <time>2011-08-14T15:01:40Z</time>
      </trkpt>
      <trkpt lat="44.4656" lon="4.30677">
        <ele>225</ele>
        <time>2011-08-14T15:01:46Z</time>
      </trkpt>
      <trkpt lat="44.46542" lon="4.30677">
        <ele>226</ele>
        <time>2011-08-14T15:01:51Z</time>
      </trkpt>
      <trkpt lat="44.46519" lon="4.30671">
        <ele>227</ele>
        <time>2011-08-14T15:01:57Z</time>
      </trkpt>
      <trkpt lat="44.46494" lon="4.30665">
        <ele>228</ele>
        <time>2011-08-14T15:02:03Z</time>
      </trkpt>
      <trkpt lat="44.46474" lon="4.30662">
        <ele>228</ele>
        <time>2011-08-14T15:02:08Z</time>
      </trkpt>
      <trkpt lat="44.46457" lon="4.30661">
        <ele>228</ele>
        <time>2011-08-14T15:02:12Z</time>
      </trkpt>
      <trkpt lat="44.46419" lon="4.30647">
        <ele>228</ele>
        <time>2011-08-14T15:02:21Z</time>
      </trkpt>
      <trkpt lat="44.46415" lon="4.30645">
        <ele>229</ele>
        <time>2011-08-14T15:02:22Z</time>
      </trkpt>
      <trkpt lat="44.46401" lon="4.30637">
        <ele>229</ele>
        <time>2011-08-14T15:02:25Z</time>
      </trkpt>
      <trkpt lat="44.46379" lon="4.30619">
        <ele>228</ele>
        <time>2011-08-14T15:02:30Z</time>
      </trkpt>
      <trkpt lat="44.46358" lon="4.306">
        <ele>228</ele>
        <time>2011-08-14T15:02:34Z</time>
      </trkpt>
      <trkpt lat="44.46334" lon="4.30583">
        <ele>227</ele>
        <time>2011-08-14T15:02:38Z</time>
      </trkpt>
      <trkpt lat="44.46296" lon="4.30573">
        <ele>226</ele>
        <time>2011-08-14T15:02:44Z</time>
      </trkpt>
      <trkpt lat="44.46273" lon="4.30566">
        <ele>227</ele>
        <time>2011-08-14T15:02:48Z</time>
      </trkpt>
      <trkpt lat="44.46255" lon="4.30556">
        <ele>227</ele>
        <time>2011-08-14T15:02:52Z</time>
      </trkpt>
      <trkpt lat="44.46236" lon="4.30538">
        <ele>225</ele>
        <time>2011-08-14T15:02:56Z</time>
      </trkpt>
      <trkpt lat="44.46194" lon="4.30503">
        <ele>223</ele>
        <time>2011-08-14T15:03:03Z</time>
      </trkpt>
      <trkpt lat="44.46168" lon="4.30477">
        <ele>221</ele>
        <time>2011-08-14T15:03:07Z</time>
      </trkpt>
      <trkpt lat="44.46116" lon="4.30444">
        <ele>219</ele>
        <time>2011-08-14T15:03:13Z</time>
      </trkpt>
      <trkpt lat="44.46071" lon="4.30418">
        <ele>219</ele>
        <time>2011-08-14T15:03:18Z</time>
      </trkpt>
      <trkpt lat="44.46032" lon="4.30397">
        <ele>221</ele>
        <time>2011-08-14T15:03:23Z</time>
      </trkpt>
      <trkpt lat="44.46012" lon="4.30388">
        <ele>222</ele>
        <time>2011-08-14T15:03:27Z</time>
      </trkpt>
      <trkpt lat="44.46003" lon="4.30384">
        <ele>222</ele>
        <time>2011-08-14T15:03:31Z</time>
      </trkpt>
      <trkpt lat="44.45996" lon="4.30387">
        <ele>222</ele>
        <time>2011-08-14T15:03:37Z</time>
      </trkpt>
      <trkpt lat="44.45994" lon="4.30394">
        <ele>222</ele>
        <time>2011-08-14T15:03:43Z</time>
      </trkpt>
      <trkpt lat="44.4599" lon="4.30398">
        <ele>222</ele>
        <time>2011-08-14T15:03:48Z</time>
      </trkpt>
      <trkpt lat="44.45983" lon="4.30414">
        <ele>223</ele>
        <time>2011-08-14T15:03:57Z</time>
      </trkpt>
      <trkpt lat="44.45977" lon="4.30423">
        <ele>223</ele>
        <time>2011-08-14T15:04:04Z</time>
      </trkpt>
      <trkpt lat="44.45976" lon="4.30428">
        <ele>223</ele>
        <time>2011-08-14T15:04:09Z</time>
      </trkpt>
      <trkpt lat="44.45978" lon="4.30424">
        <ele>223</ele>
        <time>2011-08-14T15:04:15Z</time>
      </trkpt>
      <trkpt lat="44.45976" lon="4.30424">
        <ele>223</ele>
        <time>2011-08-14T15:04:18Z</time>
      </trkpt>
      <trkpt lat="44.45971" lon="4.3044">
        <ele>223</ele>
        <time>2011-08-14T15:04:24Z</time>
      </trkpt>
      <trkpt lat="44.45957" lon="4.30469">
        <ele>223</ele>
        <time>2011-08-14T15:04:31Z</time>
      </trkpt>
      <trkpt lat="44.45944" lon="4.30497">
        <ele>224</ele>
        <time>2011-08-14T15:04:38Z</time>
      </trkpt>
      <trkpt lat="44.45926" lon="4.30523">
        <ele>222</ele>
        <time>2011-08-14T15:04:44Z</time>
      </trkpt>
      <trkpt lat="44.45921" lon="4.30526">
        <ele>222</ele>
        <time>2011-08-14T15:04:45Z</time>
      </trkpt>
      <trkpt lat="44.45891" lon="4.30534">
        <ele>222</ele>
        <time>2011-08-14T15:04:50Z</time>
      </trkpt>
      <trkpt lat="44.45852" lon="4.30543">
        <ele>222</ele>
        <time>2011-08-14T15:04:56Z</time>
      </trkpt>
      <trkpt lat="44.45813" lon="4.30555">
        <ele>220</ele>
        <time>2011-08-14T15:05:03Z</time>
      </trkpt>
      <trkpt lat="44.45789" lon="4.30567">
        <ele>219</ele>
        <time>2011-08-14T15:05:09Z</time>
      </trkpt>
      <trkpt lat="44.45753" lon="4.30597">
        <ele>216</ele>
        <time>2011-08-14T15:05:18Z</time>
      </trkpt>
      <trkpt lat="44.45734" lon="4.3062">
        <ele>214</ele>
        <time>2011-08-14T15:05:23Z</time>
      </trkpt>
      <trkpt lat="44.45706" lon="4.3064">
        <ele>213</ele>
        <time>2011-08-14T15:05:28Z</time>
      </trkpt>
      <trkpt lat="44.45699" lon="4.30644">
        <ele>213</ele>
        <time>2011-08-14T15:05:29Z</time>
      </trkpt>
      <trkpt lat="44.45668" lon="4.30678">
        <ele>210</ele>
        <time>2011-08-14T15:05:35Z</time>
      </trkpt>
      <trkpt lat="44.45653" lon="4.30693">
        <ele>208</ele>
        <time>2011-08-14T15:05:39Z</time>
      </trkpt>
      <trkpt lat="44.45649" lon="4.30696">
        <ele>208</ele>
        <time>2011-08-14T15:05:41Z</time>
      </trkpt>
      <trkpt lat="44.45649" lon="4.30699">
        <ele>208</ele>
        <time>2011-08-14T15:05:57Z</time>
      </trkpt>
      <trkpt lat="44.45648" lon="4.307">
        <ele>208</ele>
        <time>2011-08-14T15:06:38Z</time>
      </trkpt>
      <trkpt lat="44.45644" lon="4.30701">
        <ele>208</ele>
        <time>2011-08-14T15:06:41Z</time>
      </trkpt>
      <trkpt lat="44.45627" lon="4.30704">
        <ele>208</ele>
        <time>2011-08-14T15:06:47Z</time>
      </trkpt>
      <trkpt lat="44.4561" lon="4.30722">
        <ele>207</ele>
        <time>2011-08-14T15:06:52Z</time>
      </trkpt>
      <trkpt lat="44.45601" lon="4.30732">
        <ele>207</ele>
        <time>2011-08-14T15:06:54Z</time>
      </trkpt>
      <trkpt lat="44.45573" lon="4.30749">
        <ele>206</ele>
        <time>2011-08-14T15:06:59Z</time>
      </trkpt>
      <trkpt lat="44.45552" lon="4.30771">
        <ele>203</ele>
        <time>2011-08-14T15:07:04Z</time>
      </trkpt>
      <trkpt lat="44.45547" lon="4.30777">
        <ele>203</ele>
        <time>2011-08-14T15:07:05Z</time>
      </trkpt>
      <trkpt lat="44.45511" lon="4.30801">
        <ele>202</ele>
        <time>2011-08-14T15:07:10Z</time>
      </trkpt>
      <trkpt lat="44.45456" lon="4.30816">
        <ele>200</ele>
        <time>2011-08-14T15:07:17Z</time>
      </trkpt>
      <trkpt lat="44.45413" lon="4.30824">
        <ele>198</ele>
        <time>2011-08-14T15:07:23Z</time>
      </trkpt>
      <trkpt lat="44.45387" lon="4.30823">
        <ele>196</ele>
        <time>2011-08-14T15:07:27Z</time>
      </trkpt>
      <trkpt lat="44.45349" lon="4.30809">
        <ele>194</ele>
        <time>2011-08-14T15:07:33Z</time>
      </trkpt>
      <trkpt lat="44.45336" lon="4.30806">
        <ele>194</ele>
        <time>2011-08-14T15:07:35Z</time>
      </trkpt>
      <trkpt lat="44.45303" lon="4.30805">
        <ele>189</ele>
        <time>2011-08-14T15:07:39Z</time>
      </trkpt>
      <trkpt lat="44.45284" lon="4.30807">
        <ele>187</ele>
        <time>2011-08-14T15:07:41Z</time>
      </trkpt>
      <trkpt lat="44.45253" lon="4.30809">
        <ele>186</ele>
        <time>2011-08-14T15:07:44Z</time>
      </trkpt>
      <trkpt lat="44.45214" lon="4.30826">
        <ele>181</ele>
        <time>2011-08-14T15:07:48Z</time>
      </trkpt>
      <trkpt lat="44.45198" lon="4.30839">
        <ele>179</ele>
        <time>2011-08-14T15:07:50Z</time>
      </trkpt>
      <trkpt lat="44.45161" lon="4.30868">
        <ele>174</ele>
        <time>2011-08-14T15:07:55Z</time>
      </trkpt>
      <trkpt lat="44.45137" lon="4.30872">
        <ele>174</ele>
        <time>2011-08-14T15:07:58Z</time>
      </trkpt>
      <trkpt lat="44.4513" lon="4.3087">
        <ele>173</ele>
        <time>2011-08-14T15:07:59Z</time>
      </trkpt>
      <trkpt lat="44.451" lon="4.30869">
        <ele>173</ele>
        <time>2011-08-14T15:08:04Z</time>
      </trkpt>
      <trkpt lat="44.45091" lon="4.30874">
        <ele>172</ele>
        <time>2011-08-14T15:08:06Z</time>
      </trkpt>
      <trkpt lat="44.45082" lon="4.30878">
        <ele>162</ele>
        <time>2011-08-14T15:08:08Z</time>
      </trkpt>
      <trkpt lat="44.45071" lon="4.30871">
        <ele>161</ele>
        <time>2011-08-14T15:08:14Z</time>
      </trkpt>
      <trkpt lat="44.45065" lon="4.30862">
        <ele>161</ele>
        <time>2011-08-14T15:08:18Z</time>
      </trkpt>
      <trkpt lat="44.45064" lon="4.3086">
        <ele>161</ele>
        <time>2011-08-14T15:08:19Z</time>
      </trkpt>
      <trkpt lat="44.45056" lon="4.30841">
        <ele>161</ele>
        <time>2011-08-14T15:08:28Z</time>
      </trkpt>
      <trkpt lat="44.45057" lon="4.30839">
        <ele>161</ele>
        <time>2011-08-14T15:08:37Z</time>
      </trkpt>
      <trkpt lat="44.45056" lon="4.30837">
        <ele>161</ele>
        <time>2011-08-14T15:08:46Z</time>
      </trkpt>
      <trkpt lat="44.45055" lon="4.30831">
        <ele>164</ele>
        <time>2011-08-14T15:08:49Z</time>
      </trkpt>
      <trkpt lat="44.45051" lon="4.30822">
        <ele>164</ele>
        <time>2011-08-14T15:08:57Z</time>
      </trkpt>
      <trkpt lat="44.45043" lon="4.30815">
        <ele>162</ele>
        <time>2011-08-14T15:09:03Z</time>
      </trkpt>
      <trkpt lat="44.45022" lon="4.30815">
        <ele>159</ele>
        <time>2011-08-14T15:09:10Z</time>
      </trkpt>
      <trkpt lat="44.45008" lon="4.30812">
        <ele>157</ele>
        <time>2011-08-14T15:09:13Z</time>
      </trkpt>
      <trkpt lat="44.45003" lon="4.30789">
        <ele>160</ele>
        <time>2011-08-14T15:09:18Z</time>
      </trkpt>
      <trkpt lat="44.44996" lon="4.30757">
        <ele>156</ele>
        <time>2011-08-14T15:09:24Z</time>
      </trkpt>
      <trkpt lat="44.44984" lon="4.30751">
        <ele>152</ele>
        <time>2011-08-14T15:09:29Z</time>
      </trkpt>
      <trkpt lat="44.44968" lon="4.3074">
        <ele>154</ele>
        <time>2011-08-14T15:09:34Z</time>
      </trkpt>
      <trkpt lat="44.44948" lon="4.3072">
        <ele>151</ele>
        <time>2011-08-14T15:09:39Z</time>
      </trkpt>
      <trkpt lat="44.44947" lon="4.30715">
        <ele>152</ele>
        <time>2011-08-14T15:09:40Z</time>
      </trkpt>
      <trkpt lat="44.44935" lon="4.30704">
        <ele>151</ele>
        <time>2011-08-14T15:09:45Z</time>
      </trkpt>
      <trkpt lat="44.44934" lon="4.3071">
        <ele>151</ele>
        <time>2011-08-14T15:09:48Z</time>
      </trkpt>
      <trkpt lat="44.44933" lon="4.3071">
        <ele>150</ele>
        <time>2011-08-14T15:09:52Z</time>
      </trkpt>
      <trkpt lat="44.44932" lon="4.30708">
        <ele>151</ele>
        <time>2011-08-14T15:09:53Z</time>
      </trkpt>
      <trkpt lat="44.44922" lon="4.3069">
        <ele>151</ele>
        <time>2011-08-14T15:09:58Z</time>
      </trkpt>
      <trkpt lat="44.44907" lon="4.30681">
        <ele>143</ele>
        <time>2011-08-14T15:10:03Z</time>
      </trkpt>
      <trkpt lat="44.44891" lon="4.3068">
        <ele>140</ele>
        <time>2011-08-14T15:10:08Z</time>
      </trkpt>
      <trkpt lat="44.44882" lon="4.30698">
        <ele>137</ele>
        <time>2011-08-14T15:10:13Z</time>
      </trkpt>
      <trkpt lat="44.44879" lon="4.30705">
        <ele>137</ele>
        <time>2011-08-14T15:10:17Z</time>
      </trkpt>
      <trkpt lat="44.44877" lon="4.30716">
        <ele>136</ele>
        <time>2011-08-14T15:10:22Z</time>
      </trkpt>
      <trkpt lat="44.44877" lon="4.30737">
        <ele>134</ele>
        <time>2011-08-14T15:10:28Z</time>
      </trkpt>
      <trkpt lat="44.44876" lon="4.30763">
        <ele>128</ele>
        <time>2011-08-14T15:10:34Z</time>
      </trkpt>
      <trkpt lat="44.44875" lon="4.30787">
        <ele>127</ele>
        <time>2011-08-14T15:10:39Z</time>
      </trkpt>
      <trkpt lat="44.44879" lon="4.30795">
        <ele>127</ele>
        <time>2011-08-14T15:10:43Z</time>
      </trkpt>
      <trkpt lat="44.44879" lon="4.30795">
        <ele>127</ele>
        <time>2011-08-14T15:10:45Z</time>
      </trkpt>
      <trkpt lat="44.44881" lon="4.30796">
        <ele>127</ele>
        <time>2011-08-14T15:10:54Z</time>
      </trkpt>
      <trkpt lat="44.44877" lon="4.30797">
        <ele>127</ele>
        <time>2011-08-14T15:11:18Z</time>
      </trkpt>
      <trkpt lat="44.44879" lon="4.30805">
        <ele>126</ele>
        <time>2011-08-14T15:11:24Z</time>
      </trkpt>
      <trkpt lat="44.44881" lon="4.30807">
        <ele>126</ele>
        <time>2011-08-14T15:11:26Z</time>
      </trkpt>
      <trkpt lat="44.44884" lon="4.30809">
        <ele>126</ele>
        <time>2011-08-14T15:11:29Z</time>
      </trkpt>
      <trkpt lat="44.44887" lon="4.30807">
        <ele>126</ele>
        <time>2011-08-14T15:11:38Z</time>
      </trkpt>
      <trkpt lat="44.44888" lon="4.30807">
        <ele>126</ele>
        <time>2011-08-14T15:11:44Z</time>
      </trkpt>
      <trkpt lat="44.44884" lon="4.30804">
        <ele>126</ele>
        <time>2011-08-14T15:11:49Z</time>
      </trkpt>
      <trkpt lat="44.44884" lon="4.30802">
        <ele>126</ele>
        <time>2011-08-14T15:12:00Z</time>
      </trkpt>
      <trkpt lat="44.44886" lon="4.30802">
        <ele>126</ele>
        <time>2011-08-14T15:12:09Z</time>
      </trkpt>
      <trkpt lat="44.44887" lon="4.30802">
        <ele>126</ele>
        <time>2011-08-14T15:12:16Z</time>
      </trkpt>
      <trkpt lat="44.44888" lon="4.30802">
        <ele>126</ele>
        <time>2011-08-14T15:12:23Z</time>
      </trkpt>
      <trkpt lat="44.44889" lon="4.30806">
        <ele>126</ele>
        <time>2011-08-14T15:12:31Z</time>
      </trkpt>
      <trkpt lat="44.44888" lon="4.30803">
        <ele>126</ele>
        <time>2011-08-14T15:12:40Z</time>
      </trkpt>
      <trkpt lat="44.44891" lon="4.30803">
        <ele>126</ele>
        <time>2011-08-14T15:12:56Z</time>
      </trkpt>
      <trkpt lat="44.44889" lon="4.30802">
        <ele>127</ele>
        <time>2011-08-14T15:13:01Z</time>
      </trkpt>
      <trkpt lat="44.44884" lon="4.30801">
        <ele>126</ele>
        <time>2011-08-14T15:13:20Z</time>
      </trkpt>
      <trkpt lat="44.44884" lon="4.30801">
        <ele>126</ele>
        <time>2011-08-14T15:13:41Z</time>
      </trkpt>
      <trkpt lat="44.44884" lon="4.30801">
        <ele>126</ele>
        <time>2011-08-14T15:13:48Z</time>
      </trkpt>
      <trkpt lat="44.44886" lon="4.30802">
        <ele>126</ele>
        <time>2011-08-14T15:13:55Z</time>
      </trkpt>
      <trkpt lat="44.44887" lon="4.30802">
        <ele>126</ele>
        <time>2011-08-14T15:14:12Z</time>
      </trkpt>
      <trkpt lat="44.44892" lon="4.30803">
        <ele>126</ele>
        <time>2011-08-14T15:14:36Z</time>
      </trkpt>
      <trkpt lat="44.44891" lon="4.30806">
        <ele>126</ele>
        <time>2011-08-14T15:15:08Z</time>
      </trkpt>
      <trkpt lat="44.44885" lon="4.30805">
        <ele>126</ele>
        <time>2011-08-14T15:15:24Z</time>
      </trkpt>
      <trkpt lat="44.4488" lon="4.30804">
        <ele>126</ele>
        <time>2011-08-14T15:15:52Z</time>
      </trkpt>
      <trkpt lat="44.44883" lon="4.30802">
        <ele>126</ele>
        <time>2011-08-14T15:16:18Z</time>
      </trkpt>
      <trkpt lat="44.44884" lon="4.30803">
        <ele>126</ele>
        <time>2011-08-14T15:16:54Z</time>
      </trkpt>
      <trkpt lat="44.44886" lon="4.30806">
        <ele>126</ele>
        <time>2011-08-14T15:17:37Z</time>
      </trkpt>
      <trkpt lat="44.44886" lon="4.30804">
        <ele>126</ele>
        <time>2011-08-14T15:18:00Z</time>
      </trkpt>
      <trkpt lat="44.44885" lon="4.30806">
        <ele>126</ele>
        <time>2011-08-14T15:18:26Z</time>
      </trkpt>
      <trkpt lat="44.44883" lon="4.30804">
        <ele>126</ele>
        <time>2011-08-14T15:19:06Z</time>
      </trkpt>
      <trkpt lat="44.44889" lon="4.30803">
        <ele>126</ele>
        <time>2011-08-14T15:19:22Z</time>
      </trkpt>
      <trkpt lat="44.44888" lon="4.30804">
        <ele>126</ele>
        <time>2011-08-14T15:21:30Z</time>
      </trkpt>
      <trkpt lat="44.44888" lon="4.30802">
        <ele>126</ele>
        <time>2011-08-14T15:21:37Z</time>
      </trkpt>
      <trkpt lat="44.44888" lon="4.30801">
        <ele>127</ele>
        <time>2011-08-14T15:21:46Z</time>
      </trkpt>
      <trkpt lat="44.44887" lon="4.30802">
        <ele>126</ele>
        <time>2011-08-14T15:21:54Z</time>
      </trkpt>
      <trkpt lat="44.44891" lon="4.30805">
        <ele>126</ele>
        <time>2011-08-14T15:22:08Z</time>
      </trkpt>
      <trkpt lat="44.44887" lon="4.30814">
        <ele>126</ele>
        <time>2011-08-14T15:22:20Z</time>
      </trkpt>
      <trkpt lat="44.44888" lon="4.30812">
        <ele>126</ele>
        <time>2011-08-14T15:22:47Z</time>
      </trkpt>
      <trkpt lat="44.44885" lon="4.30809">
        <ele>126</ele>
        <time>2011-08-14T15:22:59Z</time>
      </trkpt>
      <trkpt lat="44.44887" lon="4.30809">
        <ele>126</ele>
        <time>2011-08-14T15:23:07Z</time>
      </trkpt>
      <trkpt lat="44.44899" lon="4.30809">
        <ele>126</ele>
        <time>2011-08-14T15:23:43Z</time>
      </trkpt>
      <trkpt lat="44.44901" lon="4.30808">
        <ele>126</ele>
        <time>2011-08-14T15:23:57Z</time>
      </trkpt>
      <trkpt lat="44.44901" lon="4.30808">
        <ele>126</ele>
        <time>2011-08-14T15:24:03Z</time>
      </trkpt>
      <trkpt lat="44.4489" lon="4.30804">
        <ele>126</ele>
        <time>2011-08-14T15:24:21Z</time>
      </trkpt>
      <trkpt lat="44.44883" lon="4.30801">
        <ele>126</ele>
        <time>2011-08-14T15:24:39Z</time>
      </trkpt>
      <trkpt lat="44.44889" lon="4.30801">
        <ele>127</ele>
        <time>2011-08-14T15:25:05Z</time>
      </trkpt>
      <trkpt lat="44.44886" lon="4.30804">
        <ele>126</ele>
        <time>2011-08-14T15:25:16Z</time>
      </trkpt>
      <trkpt lat="44.44894" lon="4.30799">
        <ele>127</ele>
        <time>2011-08-14T15:26:33Z</time>
      </trkpt>
      <trkpt lat="44.44894" lon="4.30803">
        <ele>126</ele>
        <time>2011-08-14T15:26:43Z</time>
      </trkpt>
      <trkpt lat="44.44896" lon="4.30804">
        <ele>126</ele>
        <time>2011-08-14T15:26:44Z</time>
      </trkpt>
      <trkpt lat="44.44899" lon="4.30808">
        <ele>126</ele>
        <time>2011-08-14T15:26:57Z</time>
      </trkpt>
      <trkpt lat="44.44897" lon="4.30807">
        <ele>126</ele>
        <time>2011-08-14T15:27:02Z</time>
      </trkpt>
      <trkpt lat="44.4489" lon="4.30802">
        <ele>126</ele>
        <time>2011-08-14T15:27:11Z</time>
      </trkpt>
      <trkpt lat="44.44894" lon="4.30804">
        <ele>126</ele>
        <time>2011-08-14T15:27:25Z</time>
      </trkpt>
      <trkpt lat="44.44891" lon="4.30801">
        <ele>127</ele>
        <time>2011-08-14T15:27:34Z</time>
      </trkpt>
      <trkpt lat="44.44891" lon="4.30797">
        <ele>127</ele>
        <time>2011-08-14T15:27:49Z</time>
      </trkpt>
      <trkpt lat="44.44888" lon="4.30801">
        <ele>127</ele>
        <time>2011-08-14T15:28:28Z</time>
      </trkpt>
      <trkpt lat="44.44887" lon="4.30801">
        <ele>127</ele>
        <time>2011-08-14T15:28:50Z</time>
      </trkpt>
      <trkpt lat="44.44889" lon="4.30801">
        <ele>127</ele>
        <time>2011-08-14T15:29:05Z</time>
      </trkpt>
      <trkpt lat="44.44879" lon="4.30808">
        <ele>126</ele>
        <time>2011-08-14T15:30:09Z</time>
      </trkpt>
      <trkpt lat="44.44884" lon="4.30803">
        <ele>126</ele>
        <time>2011-08-14T15:30:27Z</time>
      </trkpt>
      <trkpt lat="44.44885" lon="4.30799">
        <ele>127</ele>
        <time>2011-08-14T15:32:09Z</time>
      </trkpt>
      <trkpt lat="44.44883" lon="4.30798">
        <ele>127</ele>
        <time>2011-08-14T15:32:17Z</time>
      </trkpt>
      <trkpt lat="44.44885" lon="4.30799">
        <ele>127</ele>
        <time>2011-08-14T15:32:29Z</time>
      </trkpt>
      <trkpt lat="44.44886" lon="4.30804">
        <ele>126</ele>
        <time>2011-08-14T15:32:53Z</time>
      </trkpt>
      <trkpt lat="44.44887" lon="4.30806">
        <ele>126</ele>
        <time>2011-08-14T15:33:47Z</time>
      </trkpt>
    </trkseg>
  </trk>
</gpx>